<?xml version='1.0' encoding='UTF-8'?><gpx version="1.1" creator="JPX - https://github.com/jenetics/jpx" xmlns="http://www.topografix.com/GPX/1/1"><trk><trkseg><trkpt lat="38.85288633858556" lon="-9.32664082231237"><ele>144.0</ele><time>2026-05-01T07:38:13.001Z</time></trkpt><trkpt lat="38.852977713122975" lon="-9.326663841377998"><ele>144.0</ele><time>2026-05-01T07:38:15.001Z</time></trkpt><trkpt lat="38.85308219610508" lon="-9.326619763413094"><ele>144.0</ele><time>2026-05-01T07:38:17.001Z</time></trkpt><trkpt lat="38.85314627471386" lon="-9.326586428002619"><ele>144.0</ele><time>2026-05-01T07:38:18.001Z</time></trkpt><trkpt lat="38.85322105718323" lon="-9.326560190538354"><ele>144.0</ele><time>2026-05-01T07:38:19.001Z</time></trkpt><trkpt lat="38.85330877157094" lon="-9.326526636176022"><ele>144.0</ele><time>2026-05-01T07:38:20.001Z</time></trkpt><trkpt lat="38.85339401728917" lon="-9.326494107969497"><ele>144.8</ele><time>2026-05-01T07:38:21.001Z</time></trkpt><trkpt lat="38.85348300244049" lon="-9.326458173508486"><ele>145.60000000000002</ele><time>2026-05-01T07:38:22.001Z</time></trkpt><trkpt lat="38.85358274622448" lon="-9.32642744449974"><ele>146.4</ele><time>2026-05-01T07:38:23.001Z</time></trkpt><trkpt lat="38.85368282792118" lon="-9.326396540133906"><ele>147.20000000000002</ele><time>2026-05-01T07:38:24.001Z</time></trkpt><trkpt lat="38.85377510429141" lon="-9.326366154384651"><ele>148.0</ele><time>2026-05-01T07:38:25.001Z</time></trkpt><trkpt lat="38.853864801634316" lon="-9.326333742161893"><ele>148.0</ele><time>2026-05-01T07:38:26.001Z</time></trkpt><trkpt lat="38.85395154415684" lon="-9.326300257683847"><ele>148.0</ele><time>2026-05-01T07:38:27.001Z</time></trkpt><trkpt lat="38.854037758929294" lon="-9.326267524533385"><ele>148.0</ele><time>2026-05-01T07:38:28.001Z</time></trkpt><trkpt lat="38.85414340614786" lon="-9.326226687349944"><ele>148.0</ele><time>2026-05-01T07:38:29.001Z</time></trkpt><trkpt lat="38.854245469901535" lon="-9.326190790903171"><ele>148.0</ele><time>2026-05-01T07:38:30.001Z</time></trkpt><trkpt lat="38.85433091599837" lon="-9.326154184548404"><ele>148.0</ele><time>2026-05-01T07:38:31.001Z</time></trkpt><trkpt lat="38.854414689103706" lon="-9.326126642030424"><ele>148.0</ele><time>2026-05-01T07:38:32.001Z</time></trkpt><trkpt lat="38.854522855224204" lon="-9.326216012625817"><ele>148.0</ele><time>2026-05-01T07:38:33.001Z</time></trkpt><trkpt lat="38.85462131131221" lon="-9.326265057748037"><ele>148.0</ele><time>2026-05-01T07:38:34.001Z</time></trkpt><trkpt lat="38.854722286719735" lon="-9.326305224215975"><ele>148.0</ele><time>2026-05-01T07:38:35.001Z</time></trkpt><trkpt lat="38.85482787710362" lon="-9.32633312389364"><ele>148.0</ele><time>2026-05-01T07:38:36.001Z</time></trkpt><trkpt lat="38.854930346372306" lon="-9.326292973792883"><ele>148.0</ele><time>2026-05-01T07:38:37.001Z</time></trkpt><trkpt lat="38.85504097056915" lon="-9.326251144011371"><ele>148.0</ele><time>2026-05-01T07:38:38.001Z</time></trkpt><trkpt lat="38.85513180448847" lon="-9.326211024120287"><ele>148.0</ele><time>2026-05-01T07:38:39.001Z</time></trkpt><trkpt lat="38.85523953106836" lon="-9.32617969827145"><ele>148.0</ele><time>2026-05-01T07:38:40.001Z</time></trkpt><trkpt lat="38.855333865945404" lon="-9.326113845745958"><ele>148.4</ele><time>2026-05-01T07:38:41.001Z</time></trkpt><trkpt lat="38.855435720971165" lon="-9.32606545388009"><ele>148.8</ele><time>2026-05-01T07:38:42.001Z</time></trkpt><trkpt lat="38.855538271203685" lon="-9.326043922502539"><ele>149.2</ele><time>2026-05-01T07:38:43.001Z</time></trkpt><trkpt lat="38.85563832245455" lon="-9.326006377260725"><ele>149.6</ele><time>2026-05-01T07:38:44.001Z</time></trkpt><trkpt lat="38.8557426092819" lon="-9.32597221254396"><ele>150.0</ele><time>2026-05-01T07:38:45.001Z</time></trkpt><trkpt lat="38.85584837891025" lon="-9.32593331960591"><ele>150.0</ele><time>2026-05-01T07:38:46.001Z</time></trkpt><trkpt lat="38.85594718542588" lon="-9.325903836495533"><ele>150.0</ele><time>2026-05-01T07:38:47Z</time></trkpt><trkpt lat="38.85604759941578" lon="-9.325884844466557"><ele>150.0</ele><time>2026-05-01T07:38:48Z</time></trkpt><trkpt lat="38.8561383474383" lon="-9.325861373289676"><ele>150.0</ele><time>2026-05-01T07:38:49Z</time></trkpt><trkpt lat="38.85621850440155" lon="-9.325843857255148"><ele>150.0</ele><time>2026-05-01T07:38:50Z</time></trkpt><trkpt lat="38.85630007649723" lon="-9.325829144484644"><ele>150.75</ele><time>2026-05-01T07:38:51Z</time></trkpt><trkpt lat="38.85637091132142" lon="-9.325784854918197"><ele>151.5</ele><time>2026-05-01T07:38:52Z</time></trkpt><trkpt lat="38.85637029013318" lon="-9.325603341889188"><ele>152.25</ele><time>2026-05-01T07:38:54Z</time></trkpt><trkpt lat="38.85652478094351" lon="-9.32545411991492"><ele>153.0</ele><time>2026-05-01T07:38:56Z</time></trkpt><trkpt lat="38.85660317801516" lon="-9.325394239045313"><ele>153.75</ele><time>2026-05-01T07:38:57Z</time></trkpt><trkpt lat="38.85670365304809" lon="-9.325343174629598"><ele>154.5</ele><time>2026-05-01T07:38:58Z</time></trkpt><trkpt lat="38.85680974846405" lon="-9.325280240404428"><ele>155.25</ele><time>2026-05-01T07:38:59Z</time></trkpt><trkpt lat="38.856924474433605" lon="-9.325207284655296"><ele>156.0</ele><time>2026-05-01T07:39:00Z</time></trkpt><trkpt lat="38.85703472414155" lon="-9.32513837849048"><ele>157.0</ele><time>2026-05-01T07:39:01Z</time></trkpt><trkpt lat="38.85715161653454" lon="-9.325072870156111"><ele>158.0</ele><time>2026-05-01T07:39:02Z</time></trkpt><trkpt lat="38.85727792077563" lon="-9.32500010009414"><ele>159.0</ele><time>2026-05-01T07:39:03Z</time></trkpt><trkpt lat="38.85740842190655" lon="-9.324933304013136"><ele>160.0</ele><time>2026-05-01T07:39:04Z</time></trkpt><trkpt lat="38.85752890054926" lon="-9.32487669464553"><ele>159.75</ele><time>2026-05-01T07:39:05Z</time></trkpt><trkpt lat="38.85765575309847" lon="-9.324816513436737"><ele>159.5</ele><time>2026-05-01T07:39:06Z</time></trkpt><trkpt lat="38.857784840717336" lon="-9.324748203169241"><ele>159.25</ele><time>2026-05-01T07:39:07Z</time></trkpt><trkpt lat="38.857907200153356" lon="-9.324662219872137"><ele>159.0</ele><time>2026-05-01T07:39:08Z</time></trkpt><trkpt lat="38.85804201892542" lon="-9.324597470129447"><ele>160.25</ele><time>2026-05-01T07:39:09Z</time></trkpt><trkpt lat="38.858146330341924" lon="-9.32447768795145"><ele>161.5</ele><time>2026-05-01T07:39:10Z</time></trkpt><trkpt lat="38.858262430136534" lon="-9.324357128408755"><ele>162.75</ele><time>2026-05-01T07:39:11Z</time></trkpt><trkpt lat="38.85837320189442" lon="-9.324258963661066"><ele>164.0</ele><time>2026-05-01T07:39:12Z</time></trkpt><trkpt lat="38.85845980539338" lon="-9.324162600166854"><ele>164.0</ele><time>2026-05-01T07:39:13Z</time></trkpt><trkpt lat="38.85854741949019" lon="-9.324088953588646"><ele>164.0</ele><time>2026-05-01T07:39:14Z</time></trkpt><trkpt lat="38.85863359312789" lon="-9.324038335013768"><ele>164.0</ele><time>2026-05-01T07:39:15Z</time></trkpt><trkpt lat="38.85871105801411" lon="-9.323992477240441"><ele>164.0</ele><time>2026-05-01T07:39:16Z</time></trkpt><trkpt lat="38.858790726890234" lon="-9.323953489326362"><ele>164.0</ele><time>2026-05-01T07:39:17Z</time></trkpt><trkpt lat="38.858868800751814" lon="-9.323914225626268"><ele>164.5</ele><time>2026-05-01T07:39:18Z</time></trkpt><trkpt lat="38.8589502252066" lon="-9.323873654982318"><ele>165.0</ele><time>2026-05-01T07:39:19Z</time></trkpt><trkpt lat="38.85902374004725" lon="-9.323815862442066"><ele>165.5</ele><time>2026-05-01T07:39:20Z</time></trkpt><trkpt lat="38.85909404650981" lon="-9.323766907179438"><ele>166.0</ele><time>2026-05-01T07:39:21Z</time></trkpt><trkpt lat="38.85917193134842" lon="-9.323708378928652"><ele>166.5</ele><time>2026-05-01T07:39:22Z</time></trkpt><trkpt lat="38.859251743465194" lon="-9.32364285199741"><ele>167.0</ele><time>2026-05-01T07:39:23Z</time></trkpt><trkpt lat="38.85933214368318" lon="-9.323598661312191"><ele>167.39999999999998</ele><time>2026-05-01T07:39:24Z</time></trkpt><trkpt lat="38.8594023703827" lon="-9.323584318796776"><ele>167.79999999999998</ele><time>2026-05-01T07:39:25Z</time></trkpt><trkpt lat="38.85946780524012" lon="-9.323569509336075"><ele>168.2</ele><time>2026-05-01T07:39:26Z</time></trkpt><trkpt lat="38.859539362086814" lon="-9.3235760135708"><ele>168.6</ele><time>2026-05-01T07:39:27Z</time></trkpt><trkpt lat="38.859584878395644" lon="-9.32333106618539"><ele>169.0</ele><time>2026-05-01T07:39:29Z</time></trkpt><trkpt lat="38.859620322239614" lon="-9.323229754639272"><ele>169.0</ele><time>2026-05-01T07:39:30Z</time></trkpt><trkpt lat="38.85965800399341" lon="-9.323122489983911"><ele>169.0</ele><time>2026-05-01T07:39:31Z</time></trkpt><trkpt lat="38.85969736993894" lon="-9.323013551567607"><ele>169.0</ele><time>2026-05-01T07:39:32Z</time></trkpt><trkpt lat="38.85973220755558" lon="-9.322916414648644"><ele>169.0</ele><time>2026-05-01T07:39:33Z</time></trkpt><trkpt lat="38.859773981191424" lon="-9.322799161049423"><ele>169.0</ele><time>2026-05-01T07:39:34Z</time></trkpt><trkpt lat="38.85981662303207" lon="-9.322679470528136"><ele>168.39999999999998</ele><time>2026-05-01T07:39:35Z</time></trkpt><trkpt lat="38.85986241883813" lon="-9.32255092723396"><ele>167.8</ele><time>2026-05-01T07:39:36Z</time></trkpt><trkpt lat="38.85990933919088" lon="-9.322419227472768"><ele>167.2</ele><time>2026-05-01T07:39:37Z</time></trkpt><trkpt lat="38.859954319173575" lon="-9.322292990316162"><ele>166.60000000000002</ele><time>2026-05-01T07:39:38Z</time></trkpt><trkpt lat="38.8600032804993" lon="-9.32215443342442"><ele>166.0</ele><time>2026-05-01T07:39:39Z</time></trkpt><trkpt lat="38.86005383685422" lon="-9.322011362715362"><ele>166.0</ele><time>2026-05-01T07:39:40Z</time></trkpt><trkpt lat="38.86010817579153" lon="-9.321856948495663"><ele>166.0</ele><time>2026-05-01T07:39:41Z</time></trkpt><trkpt lat="38.860161439939986" lon="-9.321706733490839"><ele>166.0</ele><time>2026-05-01T07:39:42Z</time></trkpt><trkpt lat="38.86021207270347" lon="-9.321562856051468"><ele>166.0</ele><time>2026-05-01T07:39:43Z</time></trkpt><trkpt lat="38.86026151394793" lon="-9.321423234877889"><ele>166.75</ele><time>2026-05-01T07:39:44Z</time></trkpt><trkpt lat="38.86032583214447" lon="-9.321286234719931"><ele>167.5</ele><time>2026-05-01T07:39:45Z</time></trkpt><trkpt lat="38.8603764893864" lon="-9.32113205359084"><ele>168.25</ele><time>2026-05-01T07:39:46Z</time></trkpt><trkpt lat="38.86042470136668" lon="-9.320979526760906"><ele>169.0</ele><time>2026-05-01T07:39:47Z</time></trkpt><trkpt lat="38.86047342260753" lon="-9.320827863556996"><ele>169.0</ele><time>2026-05-01T07:39:48Z</time></trkpt><trkpt lat="38.86053353320803" lon="-9.320677694645033"><ele>169.0</ele><time>2026-05-01T07:39:49Z</time></trkpt><trkpt lat="38.86059032255571" lon="-9.320527026381294"><ele>169.0</ele><time>2026-05-01T07:39:50Z</time></trkpt><trkpt lat="38.86065051992423" lon="-9.320374828729083"><ele>169.0</ele><time>2026-05-01T07:39:51Z</time></trkpt><trkpt lat="38.86071528870312" lon="-9.320221671380008"><ele>169.25</ele><time>2026-05-01T07:39:52Z</time></trkpt><trkpt lat="38.86078629935" lon="-9.320065028417307"><ele>169.5</ele><time>2026-05-01T07:39:53Z</time></trkpt><trkpt lat="38.860841596382016" lon="-9.319890713219198"><ele>169.75</ele><time>2026-05-01T07:39:54Z</time></trkpt><trkpt lat="38.86090674822447" lon="-9.319725514609125"><ele>170.0</ele><time>2026-05-01T07:39:55Z</time></trkpt><trkpt lat="38.860977869640536" lon="-9.319565955297671"><ele>170.0</ele><time>2026-05-01T07:39:56Z</time></trkpt><trkpt lat="38.86099176537973" lon="-9.319378692126751"><ele>170.0</ele><time>2026-05-01T07:39:57.001Z</time></trkpt><trkpt lat="38.86100463605149" lon="-9.319193594650711"><ele>170.0</ele><time>2026-05-01T07:39:58.001Z</time></trkpt><trkpt lat="38.86097387958817" lon="-9.319016418863992"><ele>170.0</ele><time>2026-05-01T07:39:59.001Z</time></trkpt><trkpt lat="38.86093712219944" lon="-9.31883257115132"><ele>167.75</ele><time>2026-05-01T07:40:00.001Z</time></trkpt><trkpt lat="38.860876722471076" lon="-9.318660152163917"><ele>165.5</ele><time>2026-05-01T07:40:01.001Z</time></trkpt><trkpt lat="38.86081359928693" lon="-9.318485545349947"><ele>163.25</ele><time>2026-05-01T07:40:02.001Z</time></trkpt><trkpt lat="38.860748745696576" lon="-9.318313848954395"><ele>161.0</ele><time>2026-05-01T07:40:03.001Z</time></trkpt><trkpt lat="38.860682711050416" lon="-9.318142052927891"><ele>160.66666666666666</ele><time>2026-05-01T07:40:04.001Z</time></trkpt><trkpt lat="38.86061250230346" lon="-9.317973443330773"><ele>160.33333333333334</ele><time>2026-05-01T07:40:05.001Z</time></trkpt><trkpt lat="38.8605413578755" lon="-9.317802586682086"><ele>160.0</ele><time>2026-05-01T07:40:06.001Z</time></trkpt><trkpt lat="38.860466357964604" lon="-9.31763516801544"><ele>160.0</ele><time>2026-05-01T07:40:07.001Z</time></trkpt><trkpt lat="38.86039099076598" lon="-9.317471308446525"><ele>160.0</ele><time>2026-05-01T07:40:08.001Z</time></trkpt><trkpt lat="38.860329454319874" lon="-9.31730184315291"><ele>160.0</ele><time>2026-05-01T07:40:09.001Z</time></trkpt><trkpt lat="38.86025057193968" lon="-9.317141129102982"><ele>160.0</ele><time>2026-05-01T07:40:10.001Z</time></trkpt><trkpt lat="38.86018038833327" lon="-9.316973727172751"><ele>159.75</ele><time>2026-05-01T07:40:11.001Z</time></trkpt><trkpt lat="38.860114662491945" lon="-9.316803657046327"><ele>159.5</ele><time>2026-05-01T07:40:12.001Z</time></trkpt><trkpt lat="38.86006559017318" lon="-9.316623708734141"><ele>159.25</ele><time>2026-05-01T07:40:13.001Z</time></trkpt><trkpt lat="38.86002978558118" lon="-9.316436814823662"><ele>159.0</ele><time>2026-05-01T07:40:14.001Z</time></trkpt><trkpt lat="38.86001599028512" lon="-9.316241135617592"><ele>158.25</ele><time>2026-05-01T07:40:15.001Z</time></trkpt><trkpt lat="38.860030725307205" lon="-9.316049417933963"><ele>157.5</ele><time>2026-05-01T07:40:16.001Z</time></trkpt><trkpt lat="38.860068777768696" lon="-9.315865644466003"><ele>156.75</ele><time>2026-05-01T07:40:17.001Z</time></trkpt><trkpt lat="38.86011846661701" lon="-9.31568213058617"><ele>156.0</ele><time>2026-05-01T07:40:18.001Z</time></trkpt><trkpt lat="38.860174638261036" lon="-9.315502581976999"><ele>157.5</ele><time>2026-05-01T07:40:19.001Z</time></trkpt><trkpt lat="38.86023402531448" lon="-9.315320753304386"><ele>159.0</ele><time>2026-05-01T07:40:20.001Z</time></trkpt><trkpt lat="38.860284958881024" lon="-9.315141479469963"><ele>160.5</ele><time>2026-05-01T07:40:21.001Z</time></trkpt><trkpt lat="38.86033686775225" lon="-9.31496524248925"><ele>162.0</ele><time>2026-05-01T07:40:22.001Z</time></trkpt><trkpt lat="38.86038145805877" lon="-9.314784841693605"><ele>162.25</ele><time>2026-05-01T07:40:23.001Z</time></trkpt><trkpt lat="38.860431214438684" lon="-9.314607801537386"><ele>162.5</ele><time>2026-05-01T07:40:24.001Z</time></trkpt><trkpt lat="38.86047726754034" lon="-9.314430893779981"><ele>162.75</ele><time>2026-05-01T07:40:25.001Z</time></trkpt><trkpt lat="38.860525430875704" lon="-9.314256883967591"><ele>163.0</ele><time>2026-05-01T07:40:26.001Z</time></trkpt><trkpt lat="38.860567850969694" lon="-9.314089342434837"><ele>163.0</ele><time>2026-05-01T07:40:27.001Z</time></trkpt><trkpt lat="38.860601139909484" lon="-9.313922439686234"><ele>163.0</ele><time>2026-05-01T07:40:28.001Z</time></trkpt><trkpt lat="38.860629031908154" lon="-9.313748346930131"><ele>163.0</ele><time>2026-05-01T07:40:29.001Z</time></trkpt><trkpt lat="38.86065876098262" lon="-9.313574422614497"><ele>163.0</ele><time>2026-05-01T07:40:30Z</time></trkpt><trkpt lat="38.86066920810959" lon="-9.313397834751903"><ele>162.75</ele><time>2026-05-01T07:40:31Z</time></trkpt><trkpt lat="38.860685889907955" lon="-9.313221881947422"><ele>162.5</ele><time>2026-05-01T07:40:32Z</time></trkpt><trkpt lat="38.86068984581344" lon="-9.313046113400546"><ele>162.25</ele><time>2026-05-01T07:40:33Z</time></trkpt><trkpt lat="38.860694212037885" lon="-9.312866942161794"><ele>162.0</ele><time>2026-05-01T07:40:34Z</time></trkpt><trkpt lat="38.86069771382109" lon="-9.31268954313971"><ele>162.0</ele><time>2026-05-01T07:40:35Z</time></trkpt><trkpt lat="38.86071494497238" lon="-9.312504862941267"><ele>162.0</ele><time>2026-05-01T07:40:36Z</time></trkpt><trkpt lat="38.86071214473687" lon="-9.312323160897668"><ele>162.0</ele><time>2026-05-01T07:40:37Z</time></trkpt><trkpt lat="38.86070830433109" lon="-9.312139908337002"><ele>162.0</ele><time>2026-05-01T07:40:38Z</time></trkpt><trkpt lat="38.86070728583626" lon="-9.311967513770252"><ele>162.25</ele><time>2026-05-01T07:40:39Z</time></trkpt><trkpt lat="38.86070865021723" lon="-9.311814849834334"><ele>162.5</ele><time>2026-05-01T07:40:40Z</time></trkpt><trkpt lat="38.860713565439845" lon="-9.311668951855808"><ele>162.75</ele><time>2026-05-01T07:40:41Z</time></trkpt><trkpt lat="38.86072986714207" lon="-9.311521018824482"><ele>163.0</ele><time>2026-05-01T07:40:42Z</time></trkpt><trkpt lat="38.860765659277604" lon="-9.311369051947914"><ele>163.0</ele><time>2026-05-01T07:40:43Z</time></trkpt><trkpt lat="38.86083626649243" lon="-9.311229405762747"><ele>163.0</ele><time>2026-05-01T07:40:44Z</time></trkpt><trkpt lat="38.86092431535395" lon="-9.3111006215977"><ele>163.0</ele><time>2026-05-01T07:40:45Z</time></trkpt><trkpt lat="38.861036202065286" lon="-9.310992234366037"><ele>163.0</ele><time>2026-05-01T07:40:46Z</time></trkpt><trkpt lat="38.86115278147912" lon="-9.31089515304755"><ele>164.25</ele><time>2026-05-01T07:40:47Z</time></trkpt><trkpt lat="38.86126313191881" lon="-9.310789270080411"><ele>165.5</ele><time>2026-05-01T07:40:48Z</time></trkpt><trkpt lat="38.861370442597696" lon="-9.310678032805923"><ele>166.75</ele><time>2026-05-01T07:40:49Z</time></trkpt><trkpt lat="38.8614699603082" lon="-9.31056376994864"><ele>168.0</ele><time>2026-05-01T07:40:50Z</time></trkpt><trkpt lat="38.861567300912014" lon="-9.31044880267374"><ele>168.75</ele><time>2026-05-01T07:40:51Z</time></trkpt><trkpt lat="38.86162964461352" lon="-9.31030982587079"><ele>169.5</ele><time>2026-05-01T07:40:52Z</time></trkpt><trkpt lat="38.86167568302178" lon="-9.310171582004926"><ele>170.25</ele><time>2026-05-01T07:40:53Z</time></trkpt><trkpt lat="38.86171725082178" lon="-9.310035666987723"><ele>171.0</ele><time>2026-05-01T07:40:54Z</time></trkpt><trkpt lat="38.86173507412476" lon="-9.309902635088918"><ele>171.0</ele><time>2026-05-01T07:40:55Z</time></trkpt><trkpt lat="38.86174762494796" lon="-9.309788734868048"><ele>171.0</ele><time>2026-05-01T07:40:56Z</time></trkpt><trkpt lat="38.861760721892104" lon="-9.309683385005648"><ele>171.0</ele><time>2026-05-01T07:40:57Z</time></trkpt><trkpt lat="38.86172884496" lon="-9.309574196188695"><ele>171.0</ele><time>2026-05-01T07:40:58Z</time></trkpt><trkpt lat="38.86166172224869" lon="-9.309471342286363"><ele>171.0</ele><time>2026-05-01T07:40:59Z</time></trkpt><trkpt lat="38.8615784342492" lon="-9.309362504701637"><ele>170.0</ele><time>2026-05-01T07:41:00Z</time></trkpt><trkpt lat="38.86148887741078" lon="-9.309247504350163"><ele>169.0</ele><time>2026-05-01T07:41:01Z</time></trkpt><trkpt lat="38.86140793156869" lon="-9.309125066052342"><ele>168.0</ele><time>2026-05-01T07:41:02Z</time></trkpt><trkpt lat="38.86132219827126" lon="-9.309005077095506"><ele>167.0</ele><time>2026-05-01T07:41:03Z</time></trkpt><trkpt lat="38.86122637171229" lon="-9.308880735696256"><ele>164.75</ele><time>2026-05-01T07:41:04Z</time></trkpt><trkpt lat="38.86113087031314" lon="-9.308753495304574"><ele>162.5</ele><time>2026-05-01T07:41:05Z</time></trkpt><trkpt lat="38.861039568983195" lon="-9.308628651620047"><ele>160.25</ele><time>2026-05-01T07:41:06Z</time></trkpt><trkpt lat="38.860950971426576" lon="-9.308522432551207"><ele>158.0</ele><time>2026-05-01T07:41:07Z</time></trkpt><trkpt lat="38.86087297964679" lon="-9.308417558292403"><ele>157.8</ele><time>2026-05-01T07:41:08Z</time></trkpt><trkpt lat="38.860820708790364" lon="-9.308307456055239"><ele>157.60000000000002</ele><time>2026-05-01T07:41:09Z</time></trkpt><trkpt lat="38.86080212171151" lon="-9.308180921764997"><ele>157.39999999999998</ele><time>2026-05-01T07:41:10Z</time></trkpt><trkpt lat="38.860823817169155" lon="-9.308039548251648"><ele>157.2</ele><time>2026-05-01T07:41:11Z</time></trkpt><trkpt lat="38.860882073747355" lon="-9.307903040925497"><ele>157.0</ele><time>2026-05-01T07:41:12Z</time></trkpt><trkpt lat="38.86097484122716" lon="-9.307789558032113"><ele>155.0</ele><time>2026-05-01T07:41:13Z</time></trkpt><trkpt lat="38.861080064031825" lon="-9.307688701236318"><ele>153.0</ele><time>2026-05-01T07:41:14Z</time></trkpt><trkpt lat="38.861195509667745" lon="-9.307568326958275"><ele>151.0</ele><time>2026-05-01T07:41:15Z</time></trkpt><trkpt lat="38.861322976279915" lon="-9.30741722168155"><ele>151.0</ele><time>2026-05-01T07:41:16Z</time></trkpt><trkpt lat="38.861458123778306" lon="-9.307249461113907"><ele>151.0</ele><time>2026-05-01T07:41:17Z</time></trkpt><trkpt lat="38.86160638550345" lon="-9.307073804045595"><ele>151.0</ele><time>2026-05-01T07:41:18Z</time></trkpt><trkpt lat="38.8617652807482" lon="-9.306892596651462"><ele>151.0</ele><time>2026-05-01T07:41:19Z</time></trkpt><trkpt lat="38.86192464089123" lon="-9.30670383587062"><ele>151.0</ele><time>2026-05-01T07:41:20Z</time></trkpt><trkpt lat="38.8620878821992" lon="-9.30650835524585"><ele>151.0</ele><time>2026-05-01T07:41:21Z</time></trkpt><trkpt lat="38.86224598114044" lon="-9.30629366202224"><ele>152.0</ele><time>2026-05-01T07:41:22Z</time></trkpt><trkpt lat="38.86239349446994" lon="-9.306066054255076"><ele>153.0</ele><time>2026-05-01T07:41:23Z</time></trkpt><trkpt lat="38.862539621450615" lon="-9.305828471457279"><ele>153.0</ele><time>2026-05-01T07:41:24Z</time></trkpt><trkpt lat="38.8626887339374" lon="-9.305592287187777"><ele>153.0</ele><time>2026-05-01T07:41:25Z</time></trkpt><trkpt lat="38.86283726402332" lon="-9.305354696904747"><ele>153.0</ele><time>2026-05-01T07:41:26Z</time></trkpt><trkpt lat="38.862989529445166" lon="-9.305112097528085"><ele>153.0</ele><time>2026-05-01T07:41:27Z</time></trkpt><trkpt lat="38.863125320286805" lon="-9.304857950960477"><ele>153.5</ele><time>2026-05-01T07:41:28Z</time></trkpt><trkpt lat="38.86327397809163" lon="-9.304615086962409"><ele>154.0</ele><time>2026-05-01T07:41:29Z</time></trkpt><trkpt lat="38.86342240455012" lon="-9.304370007378948"><ele>154.0</ele><time>2026-05-01T07:41:30Z</time></trkpt><trkpt lat="38.863564615802375" lon="-9.304117585890086"><ele>154.0</ele><time>2026-05-01T07:41:31Z</time></trkpt><trkpt lat="38.863693734713976" lon="-9.303848148708122"><ele>154.5</ele><time>2026-05-01T07:41:32Z</time></trkpt><trkpt lat="38.8638037154657" lon="-9.30357194008372"><ele>155.0</ele><time>2026-05-01T07:41:33Z</time></trkpt><trkpt lat="38.863891933217374" lon="-9.303281060250395"><ele>155.5</ele><time>2026-05-01T07:41:34Z</time></trkpt><trkpt lat="38.86395667765463" lon="-9.302978805611852"><ele>156.0</ele><time>2026-05-01T07:41:35Z</time></trkpt><trkpt lat="38.86400520022306" lon="-9.302668341987504"><ele>156.0</ele><time>2026-05-01T07:41:36Z</time></trkpt><trkpt lat="38.86403215162852" lon="-9.302358708098796"><ele>156.0</ele><time>2026-05-01T07:41:37Z</time></trkpt><trkpt lat="38.86404229491669" lon="-9.30204643549571"><ele>156.5</ele><time>2026-05-01T07:41:38Z</time></trkpt><trkpt lat="38.86404298721177" lon="-9.301733719431555"><ele>157.0</ele><time>2026-05-01T07:41:39Z</time></trkpt><trkpt lat="38.864042523260835" lon="-9.301418834950049"><ele>158.0</ele><time>2026-05-01T07:41:40Z</time></trkpt><trkpt lat="38.86404502943405" lon="-9.301154891941827"><ele>159.0</ele><time>2026-05-01T07:41:41Z</time></trkpt><trkpt lat="38.86406823472293" lon="-9.300920917893938"><ele>160.0</ele><time>2026-05-01T07:41:42Z</time></trkpt><trkpt lat="38.86408377312326" lon="-9.300714110571944"><ele>160.0</ele><time>2026-05-01T07:41:43Z</time></trkpt><trkpt lat="38.86411387199293" lon="-9.300520879551211"><ele>160.0</ele><time>2026-05-01T07:41:44Z</time></trkpt><trkpt lat="38.8641621691197" lon="-9.30033857330124"><ele>160.0</ele><time>2026-05-01T07:41:45Z</time></trkpt><trkpt lat="38.864217838885224" lon="-9.300178688539003"><ele>160.0</ele><time>2026-05-01T07:41:46Z</time></trkpt><trkpt lat="38.86428607063939" lon="-9.30003162950015"><ele>160.0</ele><time>2026-05-01T07:41:47Z</time></trkpt><trkpt lat="38.864356981514746" lon="-9.29990724125764"><ele>160.0</ele><time>2026-05-01T07:41:48Z</time></trkpt><trkpt lat="38.864427299176505" lon="-9.299791522176024"><ele>160.0</ele><time>2026-05-01T07:41:49Z</time></trkpt><trkpt lat="38.86450020611718" lon="-9.299687633265336"><ele>160.0</ele><time>2026-05-01T07:41:50Z</time></trkpt><trkpt lat="38.86456356169781" lon="-9.299589199093885"><ele>160.0</ele><time>2026-05-01T07:41:51Z</time></trkpt><trkpt lat="38.864604088822645" lon="-9.299493951200883"><ele>160.33333333333334</ele><time>2026-05-01T07:41:52Z</time></trkpt><trkpt lat="38.86459896350466" lon="-9.299387815256454"><ele>160.66666666666669</ele><time>2026-05-01T07:41:53Z</time></trkpt><trkpt lat="38.86456809464355" lon="-9.299294716309927"><ele>161.0</ele><time>2026-05-01T07:41:54Z</time></trkpt><trkpt lat="38.86451163445247" lon="-9.299210623523857"><ele>161.33333333333334</ele><time>2026-05-01T07:41:55Z</time></trkpt><trkpt lat="38.864483532757355" lon="-9.299111380476672"><ele>161.66666666666666</ele><time>2026-05-01T07:41:56Z</time></trkpt><trkpt lat="38.8645019131026" lon="-9.299000477947837"><ele>162.0</ele><time>2026-05-01T07:41:57Z</time></trkpt><trkpt lat="38.86455665232438" lon="-9.298894063016256"><ele>162.5</ele><time>2026-05-01T07:41:58Z</time></trkpt><trkpt lat="38.864654739749525" lon="-9.298838607072168"><ele>163.0</ele><time>2026-05-01T07:41:59Z</time></trkpt><trkpt lat="38.8646801817891" lon="-9.298655173711369"><ele>163.5</ele><time>2026-05-01T07:42:00Z</time></trkpt><trkpt lat="38.86471746799837" lon="-9.298510004930591"><ele>164.0</ele><time>2026-05-01T07:42:01Z</time></trkpt><trkpt lat="38.86473735427311" lon="-9.298351957335598"><ele>164.0</ele><time>2026-05-01T07:42:02Z</time></trkpt><trkpt lat="38.86475754299538" lon="-9.2981706134477"><ele>164.0</ele><time>2026-05-01T07:42:03.001Z</time></trkpt><trkpt lat="38.86477598787912" lon="-9.29798419142723"><ele>164.0</ele><time>2026-05-01T07:42:04.001Z</time></trkpt><trkpt lat="38.864794075094935" lon="-9.29779110597786"><ele>164.0</ele><time>2026-05-01T07:42:05.001Z</time></trkpt><trkpt lat="38.864815904383796" lon="-9.297601714183013"><ele>164.0</ele><time>2026-05-01T07:42:06.001Z</time></trkpt><trkpt lat="38.86484109243011" lon="-9.297399426155582"><ele>164.0</ele><time>2026-05-01T07:42:07.001Z</time></trkpt><trkpt lat="38.86486800253574" lon="-9.297184671746045"><ele>164.0</ele><time>2026-05-01T07:42:08.001Z</time></trkpt><trkpt lat="38.86488982148629" lon="-9.296956662159733"><ele>164.0</ele><time>2026-05-01T07:42:09.001Z</time></trkpt><trkpt lat="38.86491952721321" lon="-9.296718036860522"><ele>164.0</ele><time>2026-05-01T07:42:10.001Z</time></trkpt><trkpt lat="38.864961536846344" lon="-9.296476272988597"><ele>164.0</ele><time>2026-05-01T07:42:11.001Z</time></trkpt><trkpt lat="38.86502420180757" lon="-9.296234862711739"><ele>164.66666666666666</ele><time>2026-05-01T07:42:12.001Z</time></trkpt><trkpt lat="38.865109156767545" lon="-9.295989944078965"><ele>165.33333333333334</ele><time>2026-05-01T07:42:13.001Z</time></trkpt><trkpt lat="38.86520610140987" lon="-9.295750026187944"><ele>166.0</ele><time>2026-05-01T07:42:14.001Z</time></trkpt><trkpt lat="38.86531075243192" lon="-9.295511403644998"><ele>166.66666666666669</ele><time>2026-05-01T07:42:15.001Z</time></trkpt><trkpt lat="38.865419862349356" lon="-9.295268679729352"><ele>167.33333333333334</ele><time>2026-05-01T07:42:16.001Z</time></trkpt><trkpt lat="38.865523955458904" lon="-9.295023908947202"><ele>168.0</ele><time>2026-05-01T07:42:17.001Z</time></trkpt><trkpt lat="38.86562944411685" lon="-9.29477993649601"><ele>169.33333333333334</ele><time>2026-05-01T07:42:18.001Z</time></trkpt><trkpt lat="38.86573180022172" lon="-9.294536522063515"><ele>170.66666666666669</ele><time>2026-05-01T07:42:19.001Z</time></trkpt><trkpt lat="38.86582419329379" lon="-9.294305683096539"><ele>172.0</ele><time>2026-05-01T07:42:20.001Z</time></trkpt><trkpt lat="38.86590662148571" lon="-9.294107895149695"><ele>173.0</ele><time>2026-05-01T07:42:21.001Z</time></trkpt><trkpt lat="38.86599207184518" lon="-9.293928014119652"><ele>174.0</ele><time>2026-05-01T07:42:22.001Z</time></trkpt><trkpt lat="38.86607752757593" lon="-9.293756869250279"><ele>175.0</ele><time>2026-05-01T07:42:23.001Z</time></trkpt><trkpt lat="38.866142022511774" lon="-9.293608679686598"><ele>175.6</ele><time>2026-05-01T07:42:24.001Z</time></trkpt><trkpt lat="38.8661938170103" lon="-9.293483316572411"><ele>176.2</ele><time>2026-05-01T07:42:25Z</time></trkpt><trkpt lat="38.86623224150418" lon="-9.293397994813404"><ele>176.8</ele><time>2026-05-01T07:42:26Z</time></trkpt><trkpt lat="38.86628433352884" lon="-9.293303313146986"><ele>177.4</ele><time>2026-05-01T07:42:28Z</time></trkpt><trkpt lat="38.86639999276826" lon="-9.293462502957349"><ele>178.0</ele><time>2026-05-01T07:42:31Z</time></trkpt><trkpt lat="38.86643458736237" lon="-9.293590937713017"><ele>178.0</ele><time>2026-05-01T07:42:33Z</time></trkpt><trkpt lat="38.86645224824811" lon="-9.293713216523443"><ele>178.0</ele><time>2026-05-01T07:42:35Z</time></trkpt><trkpt lat="38.86639915956862" lon="-9.293761645483684"><ele>178.0</ele><time>2026-05-01T07:42:49Z</time></trkpt><trkpt lat="38.866355330451896" lon="-9.293835004259853"><ele>178.0</ele><time>2026-05-01T07:42:53Z</time></trkpt><trkpt lat="38.86630239141706" lon="-9.293903217566275"><ele>178.0</ele><time>2026-05-01T07:42:55Z</time></trkpt><trkpt lat="38.86623489968279" lon="-9.293997367216043"><ele>178.0</ele><time>2026-05-01T07:42:57Z</time></trkpt><trkpt lat="38.86616988683084" lon="-9.29410882499961"><ele>177.4</ele><time>2026-05-01T07:42:59Z</time></trkpt><trkpt lat="38.86612449100963" lon="-9.29425118817294"><ele>176.8</ele><time>2026-05-01T07:43:01Z</time></trkpt><trkpt lat="38.86610484390902" lon="-9.294421007164663"><ele>176.2</ele><time>2026-05-01T07:43:03Z</time></trkpt><trkpt lat="38.866111052273446" lon="-9.29452089251383"><ele>175.6</ele><time>2026-05-01T07:43:04Z</time></trkpt><trkpt lat="38.86614465601136" lon="-9.29460876850875"><ele>175.0</ele><time>2026-05-01T07:43:05Z</time></trkpt><trkpt lat="38.86617252766063" lon="-9.294696770293625"><ele>174.33333333333334</ele><time>2026-05-01T07:43:06Z</time></trkpt><trkpt lat="38.86620113460701" lon="-9.294780431697411"><ele>173.66666666666669</ele><time>2026-05-01T07:43:07Z</time></trkpt><trkpt lat="38.86622933605619" lon="-9.294857385723514"><ele>173.0</ele><time>2026-05-01T07:43:08Z</time></trkpt><trkpt lat="38.866264339308565" lon="-9.294981526379487"><ele>172.33333333333334</ele><time>2026-05-01T07:43:10Z</time></trkpt><trkpt lat="38.86632521131208" lon="-9.295079372523121"><ele>171.66666666666666</ele><time>2026-05-01T07:43:12Z</time></trkpt><trkpt lat="38.86639723218214" lon="-9.29512668240364"><ele>171.0</ele><time>2026-05-01T07:43:14Z</time></trkpt><trkpt lat="38.86645872269319" lon="-9.295102641642771"><ele>170.99999999999997</ele><time>2026-05-01T07:44:57Z</time></trkpt><trkpt lat="38.866408715438816" lon="-9.295153696472534"><ele>171.0</ele><time>2026-05-01T07:46:16Z</time></trkpt><trkpt lat="38.86647155952161" lon="-9.295168163129286"><ele>171.0</ele><time>2026-05-01T07:50:06Z</time></trkpt><trkpt lat="38.86640276494825" lon="-9.295141295972016"><ele>171.0</ele><time>2026-05-01T07:50:20Z</time></trkpt><trkpt lat="38.86646753035797" lon="-9.295131459594339"><ele>171.0</ele><time>2026-05-01T07:59:33Z</time></trkpt><trkpt lat="38.86639775798447" lon="-9.29512504153225"><ele>170.99999999999997</ele><time>2026-05-01T07:59:55Z</time></trkpt><trkpt lat="38.86645875161211" lon="-9.295145730373713"><ele>171.0</ele><time>2026-05-01T08:03:09Z</time></trkpt><trkpt lat="38.86652184693312" lon="-9.295120271359187"><ele>170.99999999999997</ele><time>2026-05-01T08:03:15Z</time></trkpt><trkpt lat="38.866472671988774" lon="-9.29517115518485"><ele>171.0</ele><time>2026-05-01T08:03:41Z</time></trkpt><trkpt lat="38.86654261036847" lon="-9.295193029981634"><ele>171.0</ele><time>2026-05-01T08:04:24Z</time></trkpt><trkpt lat="38.866474955228504" lon="-9.295181892048841"><ele>171.0</ele><time>2026-05-01T08:04:54Z</time></trkpt><trkpt lat="38.86641392956547" lon="-9.295131987077175"><ele>171.0</ele><time>2026-05-01T08:05:01Z</time></trkpt><trkpt lat="38.86635119725188" lon="-9.29511338384329"><ele>170.99999999999997</ele><time>2026-05-01T08:05:48Z</time></trkpt><trkpt lat="38.86645101378263" lon="-9.295126074033757"><ele>171.0</ele><time>2026-05-01T08:06:50Z</time></trkpt><trkpt lat="38.866383365386326" lon="-9.295103403187033"><ele>171.0</ele><time>2026-05-01T08:06:53Z</time></trkpt><trkpt lat="38.86633781764446" lon="-9.2950472365215"><ele>171.0</ele><time>2026-05-01T08:07:11Z</time></trkpt><trkpt lat="38.86628141854239" lon="-9.294983049224102"><ele>171.0</ele><time>2026-05-01T08:07:13Z</time></trkpt><trkpt lat="38.86622874735265" lon="-9.294885250652145"><ele>171.0</ele><time>2026-05-01T08:07:15Z</time></trkpt><trkpt lat="38.86620137624131" lon="-9.29480889046405"><ele>171.0</ele><time>2026-05-01T08:07:16Z</time></trkpt><trkpt lat="38.86617511657681" lon="-9.29473332367852"><ele>171.0</ele><time>2026-05-01T08:07:17Z</time></trkpt><trkpt lat="38.86610533640837" lon="-9.294577075203813"><ele>171.8</ele><time>2026-05-01T08:07:19Z</time></trkpt><trkpt lat="38.86608589908774" lon="-9.29446613491852"><ele>172.60000000000002</ele><time>2026-05-01T08:07:20Z</time></trkpt><trkpt lat="38.866093916763916" lon="-9.294349216091918"><ele>173.4</ele><time>2026-05-01T08:07:21Z</time></trkpt><trkpt lat="38.866106727056554" lon="-9.294238745439275"><ele>174.2</ele><time>2026-05-01T08:07:22Z</time></trkpt><trkpt lat="38.86614166806769" lon="-9.294126615701547"><ele>175.0</ele><time>2026-05-01T08:07:23Z</time></trkpt><trkpt lat="38.866187991743445" lon="-9.294014170143399"><ele>175.6</ele><time>2026-05-01T08:07:24Z</time></trkpt><trkpt lat="38.86626151310039" lon="-9.29391571160885"><ele>176.2</ele><time>2026-05-01T08:07:25Z</time></trkpt><trkpt lat="38.866338923902354" lon="-9.293821528026292"><ele>176.8</ele><time>2026-05-01T08:07:26Z</time></trkpt><trkpt lat="38.86639376607451" lon="-9.29371810364472"><ele>177.4</ele><time>2026-05-01T08:07:27Z</time></trkpt><trkpt lat="38.86643014506475" lon="-9.293619412961458"><ele>178.0</ele><time>2026-05-01T08:07:28Z</time></trkpt><trkpt lat="38.86642473203086" lon="-9.293525026306884"><ele>178.0</ele><time>2026-05-01T08:07:29Z</time></trkpt><trkpt lat="38.86637433866921" lon="-9.293468156890736"><ele>178.0</ele><time>2026-05-01T08:07:30Z</time></trkpt><trkpt lat="38.86633119085604" lon="-9.29339964021059"><ele>178.0</ele><time>2026-05-01T08:07:32Z</time></trkpt><trkpt lat="38.86628528022744" lon="-9.293304550879055"><ele>178.0</ele><time>2026-05-01T08:07:49Z</time></trkpt><trkpt lat="38.86624025410628" lon="-9.29323320060439"><ele>178.0</ele><time>2026-05-01T08:07:51Z</time></trkpt><trkpt lat="38.86615320031519" lon="-9.293267088778668"><ele>178.0</ele><time>2026-05-01T08:07:53Z</time></trkpt><trkpt lat="38.866064735638915" lon="-9.293372653771828"><ele>178.0</ele><time>2026-05-01T08:07:55Z</time></trkpt><trkpt lat="38.8660194624612" lon="-9.29345947586796"><ele>178.0</ele><time>2026-05-01T08:07:56Z</time></trkpt><trkpt lat="38.86597207216943" lon="-9.293550505134872"><ele>178.0</ele><time>2026-05-01T08:07:57Z</time></trkpt><trkpt lat="38.86592227399905" lon="-9.29364634767203"><ele>178.0</ele><time>2026-05-01T08:07:58Z</time></trkpt><trkpt lat="38.86587237779812" lon="-9.2937284111364"><ele>178.0</ele><time>2026-05-01T08:07:59Z</time></trkpt><trkpt lat="38.865808677343736" lon="-9.293783412820051"><ele>178.0</ele><time>2026-05-01T08:08:00Z</time></trkpt><trkpt lat="38.865734549161125" lon="-9.29378338654558"><ele>177.4</ele><time>2026-05-01T08:08:01Z</time></trkpt><trkpt lat="38.865642109715225" lon="-9.293747393131545"><ele>176.8</ele><time>2026-05-01T08:08:02Z</time></trkpt><trkpt lat="38.865558450008145" lon="-9.293658380226285"><ele>176.2</ele><time>2026-05-01T08:08:03Z</time></trkpt><trkpt lat="38.865497292167035" lon="-9.293565732158836"><ele>175.6</ele><time>2026-05-01T08:08:04Z</time></trkpt><trkpt lat="38.86544927488867" lon="-9.293462362169647"><ele>175.0</ele><time>2026-05-01T08:08:05Z</time></trkpt><trkpt lat="38.865397862717586" lon="-9.293368627085254"><ele>175.0</ele><time>2026-05-01T08:08:06Z</time></trkpt><trkpt lat="38.86532845676452" lon="-9.293299431805432"><ele>175.0</ele><time>2026-05-01T08:08:07Z</time></trkpt><trkpt lat="38.86525921270196" lon="-9.293249367091388"><ele>175.0</ele><time>2026-05-01T08:08:08Z</time></trkpt><trkpt lat="38.86520627535357" lon="-9.29317976546614"><ele>175.0</ele><time>2026-05-01T08:08:09Z</time></trkpt><trkpt lat="38.86511132962733" lon="-9.293109406662941"><ele>175.0</ele><time>2026-05-01T08:08:11Z</time></trkpt><trkpt lat="38.86506697802786" lon="-9.293045810351828"><ele>175.0</ele><time>2026-05-01T08:08:12Z</time></trkpt><trkpt lat="38.86502130676738" lon="-9.292976507547529"><ele>175.5</ele><time>2026-05-01T08:08:13Z</time></trkpt><trkpt lat="38.864984743844545" lon="-9.292894648079713"><ele>176.0</ele><time>2026-05-01T08:08:14Z</time></trkpt><trkpt lat="38.86494732735515" lon="-9.292799781262985"><ele>176.5</ele><time>2026-05-01T08:08:15Z</time></trkpt><trkpt lat="38.86490356212919" lon="-9.292713903783927"><ele>177.0</ele><time>2026-05-01T08:08:16Z</time></trkpt><trkpt lat="38.86485731990173" lon="-9.292621724790767"><ele>177.5</ele><time>2026-05-01T08:08:17Z</time></trkpt><trkpt lat="38.86482903902684" lon="-9.292502688447732"><ele>178.0</ele><time>2026-05-01T08:08:18Z</time></trkpt><trkpt lat="38.864811193674555" lon="-9.292379331959099"><ele>178.60000000000002</ele><time>2026-05-01T08:08:19Z</time></trkpt><trkpt lat="38.8648279404727" lon="-9.2922345269696"><ele>179.20000000000002</ele><time>2026-05-01T08:08:20Z</time></trkpt><trkpt lat="38.86484044054926" lon="-9.292110888156293"><ele>179.8</ele><time>2026-05-01T08:08:21Z</time></trkpt><trkpt lat="38.864805772527916" lon="-9.29200602773778"><ele>180.4</ele><time>2026-05-01T08:08:22Z</time></trkpt><trkpt lat="38.86477625219175" lon="-9.291909533065146"><ele>181.0</ele><time>2026-05-01T08:08:24Z</time></trkpt><trkpt lat="38.86477565641535" lon="-9.291803582658416"><ele>181.0</ele><time>2026-05-01T08:08:26Z</time></trkpt><trkpt lat="38.864710118018145" lon="-9.291699355161427"><ele>181.0</ele><time>2026-05-01T08:08:28Z</time></trkpt><trkpt lat="38.8646612828197" lon="-9.291587188874031"><ele>181.0</ele><time>2026-05-01T08:08:29Z</time></trkpt><trkpt lat="38.86462036431007" lon="-9.291468302569065"><ele>181.0</ele><time>2026-05-01T08:08:30Z</time></trkpt><trkpt lat="38.86457131988964" lon="-9.291329025038305"><ele>181.0</ele><time>2026-05-01T08:08:31Z</time></trkpt><trkpt lat="38.86454457866808" lon="-9.291177272170327"><ele>180.20000000000002</ele><time>2026-05-01T08:08:32Z</time></trkpt><trkpt lat="38.86450171261002" lon="-9.291046760853467"><ele>179.4</ele><time>2026-05-01T08:08:33Z</time></trkpt><trkpt lat="38.86446536151668" lon="-9.290934383480096"><ele>178.6</ele><time>2026-05-01T08:08:34Z</time></trkpt><trkpt lat="38.86443022687107" lon="-9.290839498493204"><ele>177.8</ele><time>2026-05-01T08:08:35Z</time></trkpt><trkpt lat="38.86439961197319" lon="-9.290742800243555"><ele>177.0</ele><time>2026-05-01T08:08:36Z</time></trkpt><trkpt lat="38.864350021958096" lon="-9.290651198750519"><ele>176.5</ele><time>2026-05-01T08:08:37Z</time></trkpt><trkpt lat="38.86431098574018" lon="-9.290541054616114"><ele>176.0</ele><time>2026-05-01T08:08:38Z</time></trkpt><trkpt lat="38.864274612269334" lon="-9.290438422330686"><ele>175.5</ele><time>2026-05-01T08:08:39Z</time></trkpt><trkpt lat="38.864244419232996" lon="-9.29035322614761"><ele>175.0</ele><time>2026-05-01T08:08:40Z</time></trkpt><trkpt lat="38.86421768684169" lon="-9.290277794922432"><ele>174.5</ele><time>2026-05-01T08:08:41Z</time></trkpt><trkpt lat="38.86416439085466" lon="-9.29012740876629"><ele>174.0</ele><time>2026-05-01T08:08:43Z</time></trkpt><trkpt lat="38.86409576635324" lon="-9.290026975971937"><ele>173.79999999999998</ele><time>2026-05-01T08:08:45Z</time></trkpt><trkpt lat="38.86394965699746" lon="-9.290056017047048"><ele>173.6</ele><time>2026-05-01T08:08:47Z</time></trkpt><trkpt lat="38.863867161070495" lon="-9.289998196716297"><ele>173.4</ele><time>2026-05-01T08:08:48Z</time></trkpt><trkpt lat="38.86382965813265" lon="-9.289894286855711"><ele>173.2</ele><time>2026-05-01T08:08:49Z</time></trkpt><trkpt lat="38.863782777307954" lon="-9.289820069524627"><ele>173.0</ele><time>2026-05-01T08:08:50Z</time></trkpt><trkpt lat="38.86371226408905" lon="-9.289777398481995"><ele>173.16666666666666</ele><time>2026-05-01T08:08:51Z</time></trkpt><trkpt lat="38.86365225857377" lon="-9.289729677714035"><ele>173.33333333333331</ele><time>2026-05-01T08:08:52Z</time></trkpt><trkpt lat="38.863571174002324" lon="-9.289679767999688"><ele>173.5</ele><time>2026-05-01T08:08:54Z</time></trkpt><trkpt lat="38.863480727995835" lon="-9.289663232137373"><ele>173.66666666666666</ele><time>2026-05-01T08:08:56Z</time></trkpt><trkpt lat="38.86343836256534" lon="-9.289559920114616"><ele>173.83333333333334</ele><time>2026-05-01T08:08:58Z</time></trkpt><trkpt lat="38.86337198055251" lon="-9.289456367428969"><ele>174.0</ele><time>2026-05-01T08:09:00Z</time></trkpt><trkpt lat="38.86328795936374" lon="-9.289368491795134"><ele>173.6</ele><time>2026-05-01T08:09:02Z</time></trkpt><trkpt lat="38.86321057373722" lon="-9.289281241873441"><ele>173.2</ele><time>2026-05-01T08:09:04Z</time></trkpt><trkpt lat="38.863115521680626" lon="-9.289192595167542"><ele>172.79999999999998</ele><time>2026-05-01T08:09:06Z</time></trkpt><trkpt lat="38.86303278284569" lon="-9.289097771989892"><ele>172.39999999999998</ele><time>2026-05-01T08:09:08Z</time></trkpt><trkpt lat="38.86295569352199" lon="-9.289011068734888"><ele>172.0</ele><time>2026-05-01T08:09:10Z</time></trkpt><trkpt lat="38.86288092651603" lon="-9.288936451727597"><ele>172.16666666666669</ele><time>2026-05-01T08:09:12Z</time></trkpt><trkpt lat="38.862811075389835" lon="-9.288857030959573"><ele>172.33333333333334</ele><time>2026-05-01T08:09:14Z</time></trkpt><trkpt lat="38.86278990690091" lon="-9.288768020069664"><ele>172.5</ele><time>2026-05-01T08:09:16Z</time></trkpt><trkpt lat="38.862795787387874" lon="-9.288659021489336"><ele>172.66666666666666</ele><time>2026-05-01T08:10:04Z</time></trkpt><trkpt lat="38.86279481275229" lon="-9.28857761090878"><ele>172.83333333333331</ele><time>2026-05-01T08:10:05Z</time></trkpt><trkpt lat="38.86278921494255" lon="-9.288489463504316"><ele>173.0</ele><time>2026-05-01T08:10:06Z</time></trkpt><trkpt lat="38.86275803221881" lon="-9.28840799225108"><ele>173.0</ele><time>2026-05-01T08:10:07Z</time></trkpt><trkpt lat="38.862741452100806" lon="-9.2883298768331"><ele>173.0</ele><time>2026-05-01T08:10:08Z</time></trkpt><trkpt lat="38.862723673139875" lon="-9.28824195534605"><ele>173.0</ele><time>2026-05-01T08:10:09Z</time></trkpt><trkpt lat="38.862706091223814" lon="-9.288150220250175"><ele>173.0</ele><time>2026-05-01T08:10:10Z</time></trkpt><trkpt lat="38.86269042726162" lon="-9.288049689339509"><ele>173.0</ele><time>2026-05-01T08:10:11Z</time></trkpt><trkpt lat="38.86267689710312" lon="-9.28795869755286"><ele>173.0</ele><time>2026-05-01T08:10:12Z</time></trkpt><trkpt lat="38.8626607669504" lon="-9.287869566159666"><ele>173.0</ele><time>2026-05-01T08:10:13Z</time></trkpt><trkpt lat="38.86264662779236" lon="-9.287774241386044"><ele>173.0</ele><time>2026-05-01T08:10:14Z</time></trkpt><trkpt lat="38.86263989090831" lon="-9.287669584759769"><ele>173.0</ele><time>2026-05-01T08:10:15Z</time></trkpt><trkpt lat="38.86263447804463" lon="-9.287560832177675"><ele>173.0</ele><time>2026-05-01T08:10:16Z</time></trkpt><trkpt lat="38.86264061815073" lon="-9.287449288027254"><ele>173.0</ele><time>2026-05-01T08:10:17Z</time></trkpt><trkpt lat="38.8626402949717" lon="-9.287338034717536"><ele>173.0</ele><time>2026-05-01T08:10:18Z</time></trkpt><trkpt lat="38.86264115155955" lon="-9.287242641871394"><ele>173.0</ele><time>2026-05-01T08:10:19Z</time></trkpt><trkpt lat="38.862649079707005" lon="-9.287151234115191"><ele>173.0</ele><time>2026-05-01T08:10:20Z</time></trkpt><trkpt lat="38.86265312294235" lon="-9.287032417927511"><ele>173.0</ele><time>2026-05-01T08:10:21Z</time></trkpt><trkpt lat="38.86265767928708" lon="-9.286922513476915"><ele>173.0</ele><time>2026-05-01T08:10:22Z</time></trkpt><trkpt lat="38.86266168054467" lon="-9.286811889470602"><ele>173.0</ele><time>2026-05-01T08:10:23Z</time></trkpt><trkpt lat="38.86266550503708" lon="-9.286695207926542"><ele>173.0</ele><time>2026-05-01T08:10:24Z</time></trkpt><trkpt lat="38.86267388352431" lon="-9.28658284587585"><ele>173.0</ele><time>2026-05-01T08:10:25Z</time></trkpt><trkpt lat="38.862680048573125" lon="-9.286480637918624"><ele>172.83333333333331</ele><time>2026-05-01T08:10:26Z</time></trkpt><trkpt lat="38.86267573156535" lon="-9.286394803163972"><ele>172.66666666666666</ele><time>2026-05-01T08:10:27Z</time></trkpt><trkpt lat="38.862679653591556" lon="-9.286311794567057"><ele>172.5</ele><time>2026-05-01T08:10:28Z</time></trkpt><trkpt lat="38.86268642879861" lon="-9.286215202069627"><ele>172.33333333333334</ele><time>2026-05-01T08:10:29Z</time></trkpt><trkpt lat="38.86270790796361" lon="-9.286115674638122"><ele>172.16666666666669</ele><time>2026-05-01T08:10:30Z</time></trkpt><trkpt lat="38.862735841658264" lon="-9.286023219364546"><ele>172.0</ele><time>2026-05-01T08:10:31Z</time></trkpt><trkpt lat="38.862734764026094" lon="-9.285884167709925"><ele>172.0</ele><time>2026-05-01T08:10:33Z</time></trkpt><trkpt lat="38.86268840719868" lon="-9.285794996840428"><ele>172.0</ele><time>2026-05-01T08:10:34Z</time></trkpt><trkpt lat="38.86264696820339" lon="-9.28570632236204"><ele>172.0</ele><time>2026-05-01T08:10:35Z</time></trkpt><trkpt lat="38.86260728117168" lon="-9.285616115634443"><ele>172.0</ele><time>2026-05-01T08:10:36Z</time></trkpt><trkpt lat="38.86257199018125" lon="-9.285519724130276"><ele>172.0</ele><time>2026-05-01T08:10:37Z</time></trkpt><trkpt lat="38.86253433205577" lon="-9.285416468975706"><ele>172.0</ele><time>2026-05-01T08:10:38Z</time></trkpt><trkpt lat="38.86249935101389" lon="-9.28531525611223"><ele>172.57142857142858</ele><time>2026-05-01T08:10:39Z</time></trkpt><trkpt lat="38.862462711738736" lon="-9.285220364240296"><ele>173.14285714285714</ele><time>2026-05-01T08:10:40Z</time></trkpt><trkpt lat="38.86242880485298" lon="-9.285124173070596"><ele>173.71428571428572</ele><time>2026-05-01T08:10:41Z</time></trkpt><trkpt lat="38.86239140945345" lon="-9.285038697470487"><ele>174.28571428571428</ele><time>2026-05-01T08:10:42Z</time></trkpt><trkpt lat="38.86235328241899" lon="-9.284965754145444"><ele>174.85714285714286</ele><time>2026-05-01T08:10:43Z</time></trkpt><trkpt lat="38.86231001442441" lon="-9.284900816391833"><ele>175.42857142857144</ele><time>2026-05-01T08:10:44Z</time></trkpt><trkpt lat="38.86227532040283" lon="-9.28482841113358"><ele>176.0</ele><time>2026-05-01T08:10:45Z</time></trkpt><trkpt lat="38.86227990540822" lon="-9.284658543117311"><ele>176.20000000000002</ele><time>2026-05-01T08:10:47Z</time></trkpt><trkpt lat="38.8623045736852" lon="-9.28455547631434"><ele>176.4</ele><time>2026-05-01T08:10:48Z</time></trkpt><trkpt lat="38.862353639513955" lon="-9.28443827179744"><ele>176.6</ele><time>2026-05-01T08:10:49Z</time></trkpt><trkpt lat="38.86239532328223" lon="-9.284310266828655"><ele>176.8</ele><time>2026-05-01T08:10:50Z</time></trkpt><trkpt lat="38.86242908891949" lon="-9.28417122320474"><ele>177.0</ele><time>2026-05-01T08:10:51Z</time></trkpt><trkpt lat="38.862465262610776" lon="-9.28402932110225"><ele>177.0</ele><time>2026-05-01T08:10:52Z</time></trkpt><trkpt lat="38.86250344939215" lon="-9.283889197962704"><ele>177.0</ele><time>2026-05-01T08:10:53Z</time></trkpt><trkpt lat="38.862530142979075" lon="-9.283749880452307"><ele>177.0</ele><time>2026-05-01T08:10:54Z</time></trkpt><trkpt lat="38.86255566597931" lon="-9.283602520455492"><ele>177.0</ele><time>2026-05-01T08:10:55Z</time></trkpt><trkpt lat="38.86258010868286" lon="-9.283460802545495"><ele>177.0</ele><time>2026-05-01T08:10:56Z</time></trkpt><trkpt lat="38.86260395543686" lon="-9.283313814936731"><ele>177.0</ele><time>2026-05-01T08:10:57Z</time></trkpt><trkpt lat="38.862630405807394" lon="-9.283179027552917"><ele>177.0</ele><time>2026-05-01T08:10:58Z</time></trkpt><trkpt lat="38.86265509151805" lon="-9.28304057452469"><ele>177.0</ele><time>2026-05-01T08:10:59Z</time></trkpt><trkpt lat="38.86265660493432" lon="-9.282888095039745"><ele>176.75</ele><time>2026-05-01T08:11:00Z</time></trkpt><trkpt lat="38.86269304269028" lon="-9.282747424695419"><ele>176.5</ele><time>2026-05-01T08:11:01Z</time></trkpt><trkpt lat="38.86273483117808" lon="-9.282602525982215"><ele>176.25</ele><time>2026-05-01T08:11:02Z</time></trkpt><trkpt lat="38.862787343662795" lon="-9.282462558496913"><ele>176.0</ele><time>2026-05-01T08:11:03Z</time></trkpt><trkpt lat="38.86286554668225" lon="-9.28232884821447"><ele>176.25</ele><time>2026-05-01T08:11:04Z</time></trkpt><trkpt lat="38.86294798241978" lon="-9.282198923382998"><ele>176.5</ele><time>2026-05-01T08:11:05Z</time></trkpt><trkpt lat="38.863032251633335" lon="-9.282072543447493"><ele>176.75</ele><time>2026-05-01T08:11:06Z</time></trkpt><trkpt lat="38.86311670926698" lon="-9.28195662105778"><ele>177.0</ele><time>2026-05-01T08:11:07Z</time></trkpt><trkpt lat="38.863202532620676" lon="-9.281842444919826"><ele>177.0</ele><time>2026-05-01T08:11:08Z</time></trkpt><trkpt lat="38.86328675686579" lon="-9.281739273341504"><ele>177.0</ele><time>2026-05-01T08:11:09Z</time></trkpt><trkpt lat="38.86336659318528" lon="-9.281607868508697"><ele>177.0</ele><time>2026-05-01T08:11:10Z</time></trkpt><trkpt lat="38.86345495587376" lon="-9.281492510968514"><ele>177.0</ele><time>2026-05-01T08:11:11Z</time></trkpt><trkpt lat="38.863540146987745" lon="-9.281383305359148"><ele>177.39999999999998</ele><time>2026-05-01T08:11:12Z</time></trkpt><trkpt lat="38.863638352018235" lon="-9.28128159099527"><ele>177.79999999999998</ele><time>2026-05-01T08:11:13Z</time></trkpt><trkpt lat="38.863733506772896" lon="-9.281221404285937"><ele>178.2</ele><time>2026-05-01T08:11:14Z</time></trkpt><trkpt lat="38.86382175108713" lon="-9.281150762658793"><ele>178.6</ele><time>2026-05-01T08:11:15Z</time></trkpt><trkpt lat="38.86389263348183" lon="-9.281071337606303"><ele>179.0</ele><time>2026-05-01T08:11:16Z</time></trkpt><trkpt lat="38.863963509060355" lon="-9.280985716804478"><ele>179.0</ele><time>2026-05-01T08:11:17Z</time></trkpt><trkpt lat="38.86402403294184" lon="-9.280914973535042"><ele>179.0</ele><time>2026-05-01T08:11:18Z</time></trkpt><trkpt lat="38.86407335870922" lon="-9.280827057840142"><ele>179.0</ele><time>2026-05-01T08:11:20Z</time></trkpt><trkpt lat="38.86404950097723" lon="-9.280751518973075"><ele>179.0</ele><time>2026-05-01T08:11:28Z</time></trkpt><trkpt lat="38.86404547913639" lon="-9.28066398545642"><ele>179.0</ele><time>2026-05-01T08:11:29Z</time></trkpt><trkpt lat="38.86404166919506" lon="-9.280554177640925"><ele>179.0</ele><time>2026-05-01T08:11:30Z</time></trkpt><trkpt lat="38.864048462037864" lon="-9.280442817695336"><ele>179.25</ele><time>2026-05-01T08:11:31Z</time></trkpt><trkpt lat="38.864037090316224" lon="-9.28031693470311"><ele>179.5</ele><time>2026-05-01T08:11:32Z</time></trkpt><trkpt lat="38.86402837089757" lon="-9.280169129826845"><ele>179.75</ele><time>2026-05-01T08:11:33Z</time></trkpt><trkpt lat="38.864008923362455" lon="-9.280018907146292"><ele>180.0</ele><time>2026-05-01T08:11:34Z</time></trkpt><trkpt lat="38.86396258624429" lon="-9.279865094347054"><ele>180.66666666666666</ele><time>2026-05-01T08:11:35Z</time></trkpt><trkpt lat="38.863905607118305" lon="-9.279698040399092"><ele>181.33333333333331</ele><time>2026-05-01T08:11:36Z</time></trkpt><trkpt lat="38.86379414011929" lon="-9.279563099354808"><ele>182.0</ele><time>2026-05-01T08:11:37Z</time></trkpt><trkpt lat="38.86365635984613" lon="-9.279431239898093"><ele>182.0</ele><time>2026-05-01T08:11:38Z</time></trkpt><trkpt lat="38.86349353526974" lon="-9.279330439065268"><ele>182.0</ele><time>2026-05-01T08:11:39Z</time></trkpt><trkpt lat="38.863308137728865" lon="-9.27927070339673"><ele>182.0</ele><time>2026-05-01T08:11:40Z</time></trkpt><trkpt lat="38.86310963294694" lon="-9.27925466726754"><ele>182.33333333333331</ele><time>2026-05-01T08:11:41Z</time></trkpt><trkpt lat="38.86290463923556" lon="-9.27927245804504"><ele>182.66666666666666</ele><time>2026-05-01T08:11:42Z</time></trkpt><trkpt lat="38.862695994899546" lon="-9.279316015192075"><ele>183.0</ele><time>2026-05-01T08:11:43Z</time></trkpt><trkpt lat="38.86247953267944" lon="-9.279344669741034"><ele>183.66666666666666</ele><time>2026-05-01T08:11:44Z</time></trkpt><trkpt lat="38.86225783291082" lon="-9.27941315274457"><ele>184.33333333333331</ele><time>2026-05-01T08:11:45Z</time></trkpt><trkpt lat="38.862066709040704" lon="-9.279463510414033"><ele>185.0</ele><time>2026-05-01T08:11:46Z</time></trkpt><trkpt lat="38.86189942916916" lon="-9.27949584892329"><ele>184.33333333333331</ele><time>2026-05-01T08:11:47Z</time></trkpt><trkpt lat="38.86173627752994" lon="-9.279498217809426"><ele>183.66666666666666</ele><time>2026-05-01T08:11:48Z</time></trkpt><trkpt lat="38.86158449588648" lon="-9.279439245516542"><ele>183.0</ele><time>2026-05-01T08:11:49Z</time></trkpt><trkpt lat="38.86142740864437" lon="-9.279333955978533"><ele>183.0</ele><time>2026-05-01T08:11:50Z</time></trkpt><trkpt lat="38.8612604167367" lon="-9.279204120989943"><ele>183.0</ele><time>2026-05-01T08:11:51Z</time></trkpt><trkpt lat="38.8610849374445" lon="-9.279063686498242"><ele>183.0</ele><time>2026-05-01T08:11:52Z</time></trkpt><trkpt lat="38.86090439716076" lon="-9.278914305251627"><ele>184.33333333333334</ele><time>2026-05-01T08:11:53Z</time></trkpt><trkpt lat="38.86071917114829" lon="-9.278763705925245"><ele>185.66666666666669</ele><time>2026-05-01T08:11:54Z</time></trkpt><trkpt lat="38.86054403272652" lon="-9.278621375949799"><ele>187.0</ele><time>2026-05-01T08:11:55Z</time></trkpt><trkpt lat="38.860382023456076" lon="-9.278496293664174"><ele>187.0</ele><time>2026-05-01T08:11:56Z</time></trkpt><trkpt lat="38.860238821460435" lon="-9.278383342716241"><ele>187.0</ele><time>2026-05-01T08:11:57Z</time></trkpt><trkpt lat="38.86011191531851" lon="-9.278276402260705"><ele>187.0</ele><time>2026-05-01T08:11:58Z</time></trkpt><trkpt lat="38.859991659466196" lon="-9.27817379677255"><ele>187.0</ele><time>2026-05-01T08:11:59Z</time></trkpt><trkpt lat="38.85986471891201" lon="-9.278088293626809"><ele>187.0</ele><time>2026-05-01T08:12:00Z</time></trkpt><trkpt lat="38.859734884255204" lon="-9.277990400873042"><ele>187.0</ele><time>2026-05-01T08:12:01Z</time></trkpt><trkpt lat="38.85960474113128" lon="-9.277886591568762"><ele>187.0</ele><time>2026-05-01T08:12:02Z</time></trkpt><trkpt lat="38.85947481466985" lon="-9.277786763719167"><ele>187.0</ele><time>2026-05-01T08:12:03Z</time></trkpt><trkpt lat="38.85935017136117" lon="-9.277691429270472"><ele>187.0</ele><time>2026-05-01T08:12:04Z</time></trkpt><trkpt lat="38.859224221635955" lon="-9.277611663381116"><ele>187.0</ele><time>2026-05-01T08:12:05Z</time></trkpt><trkpt lat="38.859079266992204" lon="-9.277555913642006"><ele>187.0</ele><time>2026-05-01T08:12:06Z</time></trkpt><trkpt lat="38.8589303970349" lon="-9.27749482584547"><ele>186.66666666666669</ele><time>2026-05-01T08:12:07Z</time></trkpt><trkpt lat="38.85878158447923" lon="-9.277426127472776"><ele>186.33333333333334</ele><time>2026-05-01T08:12:08Z</time></trkpt><trkpt lat="38.85862544269844" lon="-9.277372994358387"><ele>186.0</ele><time>2026-05-01T08:12:09Z</time></trkpt><trkpt lat="38.858470646889735" lon="-9.27731130697521"><ele>185.0</ele><time>2026-05-01T08:12:10Z</time></trkpt><trkpt lat="38.85831152358648" lon="-9.277238623530879"><ele>184.0</ele><time>2026-05-01T08:12:11Z</time></trkpt><trkpt lat="38.85816528309611" lon="-9.277141723742043"><ele>183.0</ele><time>2026-05-01T08:12:12Z</time></trkpt><trkpt lat="38.85801426522294" lon="-9.277040156196085"><ele>183.0</ele><time>2026-05-01T08:12:13Z</time></trkpt><trkpt lat="38.85786735925671" lon="-9.276920721634223"><ele>183.0</ele><time>2026-05-01T08:12:14Z</time></trkpt><trkpt lat="38.857722078479206" lon="-9.276790302551676"><ele>183.0</ele><time>2026-05-01T08:12:15Z</time></trkpt><trkpt lat="38.8575899670254" lon="-9.276652287758392"><ele>182.66666666666666</ele><time>2026-05-01T08:12:16Z</time></trkpt><trkpt lat="38.85747385872717" lon="-9.27650925873969"><ele>182.33333333333331</ele><time>2026-05-01T08:12:17Z</time></trkpt><trkpt lat="38.857360439241596" lon="-9.276348981356502"><ele>182.0</ele><time>2026-05-01T08:12:18Z</time></trkpt><trkpt lat="38.85726107844686" lon="-9.276177221354668"><ele>183.0</ele><time>2026-05-01T08:12:19Z</time></trkpt><trkpt lat="38.85716155938632" lon="-9.276005405712407"><ele>184.0</ele><time>2026-05-01T08:12:20Z</time></trkpt><trkpt lat="38.85706804443838" lon="-9.275827182233613"><ele>185.0</ele><time>2026-05-01T08:12:21Z</time></trkpt><trkpt lat="38.856980754374604" lon="-9.275640146950767"><ele>186.0</ele><time>2026-05-01T08:12:22Z</time></trkpt><trkpt lat="38.856899229520494" lon="-9.275457160798942"><ele>187.0</ele><time>2026-05-01T08:12:23Z</time></trkpt><trkpt lat="38.85681227370731" lon="-9.275276910726095"><ele>188.0</ele><time>2026-05-01T08:12:24Z</time></trkpt><trkpt lat="38.85671817448231" lon="-9.275109137272002"><ele>188.0</ele><time>2026-05-01T08:12:25Z</time></trkpt><trkpt lat="38.85662415040273" lon="-9.274944635662486"><ele>188.0</ele><time>2026-05-01T08:12:26Z</time></trkpt><trkpt lat="38.85650478174161" lon="-9.274806795950234"><ele>188.0</ele><time>2026-05-01T08:12:27Z</time></trkpt><trkpt lat="38.85638753236389" lon="-9.274667789529985"><ele>190.0</ele><time>2026-05-01T08:12:28Z</time></trkpt><trkpt lat="38.8562685087091" lon="-9.27453319262419"><ele>192.0</ele><time>2026-05-01T08:12:29Z</time></trkpt><trkpt lat="38.8561539498031" lon="-9.274395078102401"><ele>194.0</ele><time>2026-05-01T08:12:30Z</time></trkpt><trkpt lat="38.85602848572298" lon="-9.274264019736728"><ele>194.66666666666669</ele><time>2026-05-01T08:12:31Z</time></trkpt><trkpt lat="38.85590367599113" lon="-9.274135554311934"><ele>195.33333333333331</ele><time>2026-05-01T08:12:32Z</time></trkpt><trkpt lat="38.85577579199517" lon="-9.274008345644582"><ele>196.0</ele><time>2026-05-01T08:12:33Z</time></trkpt><trkpt lat="38.85564850619716" lon="-9.27387168265205"><ele>196.0</ele><time>2026-05-01T08:12:34Z</time></trkpt><trkpt lat="38.855521260841236" lon="-9.273737113503497"><ele>196.0</ele><time>2026-05-01T08:12:35Z</time></trkpt><trkpt lat="38.85539625087573" lon="-9.273597015966658"><ele>196.0</ele><time>2026-05-01T08:12:36Z</time></trkpt><trkpt lat="38.855270684899004" lon="-9.27346493495748"><ele>196.0</ele><time>2026-05-01T08:12:37Z</time></trkpt><trkpt lat="38.8551466345385" lon="-9.273339318920204"><ele>196.0</ele><time>2026-05-01T08:12:38Z</time></trkpt><trkpt lat="38.85501783854524" lon="-9.273214189347396"><ele>196.0</ele><time>2026-05-01T08:12:39Z</time></trkpt><trkpt lat="38.85488533363677" lon="-9.273092407938691"><ele>197.66666666666666</ele><time>2026-05-01T08:12:40Z</time></trkpt><trkpt lat="38.85474753955045" lon="-9.272983508684465"><ele>199.33333333333331</ele><time>2026-05-01T08:12:41Z</time></trkpt><trkpt lat="38.85459633180791" lon="-9.272907335355931"><ele>201.0</ele><time>2026-05-01T08:12:42Z</time></trkpt><trkpt lat="38.85444689780863" lon="-9.272823121110711"><ele>201.0</ele><time>2026-05-01T08:12:43Z</time></trkpt><trkpt lat="38.854300752974225" lon="-9.272729510699886"><ele>201.0</ele><time>2026-05-01T08:12:44Z</time></trkpt><trkpt lat="38.85414646841626" lon="-9.27266395791893"><ele>201.0</ele><time>2026-05-01T08:12:45Z</time></trkpt><trkpt lat="38.85399738961999" lon="-9.272592388434413"><ele>200.75</ele><time>2026-05-01T08:12:46Z</time></trkpt><trkpt lat="38.85386136945361" lon="-9.27251623730881"><ele>200.5</ele><time>2026-05-01T08:12:47Z</time></trkpt><trkpt lat="38.85375006389226" lon="-9.272445457247876"><ele>200.25</ele><time>2026-05-01T08:12:48Z</time></trkpt><trkpt lat="38.853653288818286" lon="-9.272375089843516"><ele>200.0</ele><time>2026-05-01T08:12:49Z</time></trkpt><trkpt lat="38.85356037906493" lon="-9.272287773281805"><ele>201.4</ele><time>2026-05-01T08:12:50Z</time></trkpt><trkpt lat="38.85346768529879" lon="-9.272192471668836"><ele>202.8</ele><time>2026-05-01T08:12:51Z</time></trkpt><trkpt lat="38.853392575247014" lon="-9.272106139494252"><ele>204.2</ele><time>2026-05-01T08:12:52Z</time></trkpt><trkpt lat="38.85333163914686" lon="-9.27204481473799"><ele>205.6</ele><time>2026-05-01T08:12:53Z</time></trkpt><trkpt lat="38.85323258529758" lon="-9.27213752337725"><ele>207.0</ele><time>2026-05-01T08:12:55Z</time></trkpt><trkpt lat="38.85313946046464" lon="-9.272217369076555"><ele>205.25</ele><time>2026-05-01T08:12:56Z</time></trkpt><trkpt lat="38.85304631043732" lon="-9.272327652422744"><ele>203.5</ele><time>2026-05-01T08:12:57Z</time></trkpt><trkpt lat="38.852951820944796" lon="-9.272429643612488"><ele>201.75</ele><time>2026-05-01T08:12:58Z</time></trkpt><trkpt lat="38.85284765234891" lon="-9.272527645055"><ele>200.0</ele><time>2026-05-01T08:12:59Z</time></trkpt><trkpt lat="38.852739882548136" lon="-9.272638694101353"><ele>202.0</ele><time>2026-05-01T08:13:00Z</time></trkpt><trkpt lat="38.852618250956546" lon="-9.272721432814496"><ele>204.0</ele><time>2026-05-01T08:13:01Z</time></trkpt><trkpt lat="38.8524909481369" lon="-9.272765905489228"><ele>206.0</ele><time>2026-05-01T08:13:02Z</time></trkpt><trkpt lat="38.8523537430911" lon="-9.272774599711346"><ele>208.0</ele><time>2026-05-01T08:13:03Z</time></trkpt><trkpt lat="38.85220824884288" lon="-9.27278654320053"><ele>208.0</ele><time>2026-05-01T08:13:04Z</time></trkpt><trkpt lat="38.85205911854729" lon="-9.272797296148966"><ele>208.0</ele><time>2026-05-01T08:13:05Z</time></trkpt><trkpt lat="38.851901964677076" lon="-9.27280892809869"><ele>208.0</ele><time>2026-05-01T08:13:06Z</time></trkpt><trkpt lat="38.85173671579205" lon="-9.272825975595874"><ele>212.33333333333331</ele><time>2026-05-01T08:13:07Z</time></trkpt><trkpt lat="38.8515699072095" lon="-9.272845981792008"><ele>216.66666666666669</ele><time>2026-05-01T08:13:08Z</time></trkpt><trkpt lat="38.85140438411253" lon="-9.27286283620843"><ele>221.0</ele><time>2026-05-01T08:13:09Z</time></trkpt><trkpt lat="38.85124255912939" lon="-9.272855509782314"><ele>221.0</ele><time>2026-05-01T08:13:10Z</time></trkpt><trkpt lat="38.85107260211479" lon="-9.272812844862527"><ele>221.0</ele><time>2026-05-01T08:13:11Z</time></trkpt><trkpt lat="38.85093354023924" lon="-9.272790715165074"><ele>221.0</ele><time>2026-05-01T08:13:12Z</time></trkpt><trkpt lat="38.850803704272415" lon="-9.272852940383435"><ele>223.0</ele><time>2026-05-01T08:13:13Z</time></trkpt><trkpt lat="38.85068831078163" lon="-9.272971755912101"><ele>225.0</ele><time>2026-05-01T08:13:14Z</time></trkpt><trkpt lat="38.85054532038268" lon="-9.27307201368506"><ele>227.0</ele><time>2026-05-01T08:13:15Z</time></trkpt><trkpt lat="38.85038343248816" lon="-9.273129233204063"><ele>227.0</ele><time>2026-05-01T08:13:16Z</time></trkpt><trkpt lat="38.85020325037357" lon="-9.273192676584179"><ele>227.0</ele><time>2026-05-01T08:13:17Z</time></trkpt><trkpt lat="38.85002427524173" lon="-9.273262786131882"><ele>227.0</ele><time>2026-05-01T08:13:18Z</time></trkpt><trkpt lat="38.84983876496178" lon="-9.273321851891566"><ele>229.5</ele><time>2026-05-01T08:13:19Z</time></trkpt><trkpt lat="38.84967566789083" lon="-9.273374221305962"><ele>232.0</ele><time>2026-05-01T08:13:20Z</time></trkpt><trkpt lat="38.84955218064909" lon="-9.273414079714485"><ele>234.5</ele><time>2026-05-01T08:13:21Z</time></trkpt><trkpt lat="38.84946383398088" lon="-9.273447243320547"><ele>237.0</ele><time>2026-05-01T08:13:22Z</time></trkpt><trkpt lat="38.849379348500875" lon="-9.273470902971008"><ele>237.0</ele><time>2026-05-01T08:13:24Z</time></trkpt><trkpt lat="38.84933436303514" lon="-9.273232903761674"><ele>237.0</ele><time>2026-05-01T08:13:25Z</time></trkpt><trkpt lat="38.849316949971644" lon="-9.27306841246311"><ele>237.0</ele><time>2026-05-01T08:13:26Z</time></trkpt><trkpt lat="38.849319618892274" lon="-9.27287465441005"><ele>240.66666666666669</ele><time>2026-05-01T08:13:27Z</time></trkpt><trkpt lat="38.84932821445557" lon="-9.272658473510432"><ele>244.33333333333334</ele><time>2026-05-01T08:13:28Z</time></trkpt><trkpt lat="38.849325842242216" lon="-9.272428206725996"><ele>248.0</ele><time>2026-05-01T08:13:29Z</time></trkpt><trkpt lat="38.84932665114297" lon="-9.272196602571011"><ele>251.0</ele><time>2026-05-01T08:13:29.999Z</time></trkpt><trkpt lat="38.84932513043871" lon="-9.271944305079337"><ele>254.0</ele><time>2026-05-01T08:13:30.999Z</time></trkpt><trkpt lat="38.84933131450875" lon="-9.27169129761063"><ele>257.0</ele><time>2026-05-01T08:13:31.999Z</time></trkpt><trkpt lat="38.84932059390106" lon="-9.271442535409077"><ele>258.0</ele><time>2026-05-01T08:13:33Z</time></trkpt><trkpt lat="38.849300320045415" lon="-9.271225588310374"><ele>259.0</ele><time>2026-05-01T08:13:34Z</time></trkpt><trkpt lat="38.84921449601493" lon="-9.271077634174436"><ele>260.0</ele><time>2026-05-01T08:13:35Z</time></trkpt><trkpt lat="38.84910420872758" lon="-9.270871385170185"><ele>263.6666666666667</ele><time>2026-05-01T08:13:36Z</time></trkpt><trkpt lat="38.849018214423296" lon="-9.270700276952361"><ele>267.3333333333333</ele><time>2026-05-01T08:13:37Z</time></trkpt><trkpt lat="38.848943714007724" lon="-9.27048850423347"><ele>271.0</ele><time>2026-05-01T08:13:38Z</time></trkpt><trkpt lat="38.84889170592764" lon="-9.270267630877685"><ele>273.66666666666663</ele><time>2026-05-01T08:13:39Z</time></trkpt><trkpt lat="38.848795878172425" lon="-9.270081150596472"><ele>276.3333333333333</ele><time>2026-05-01T08:13:40Z</time></trkpt><trkpt lat="38.84867662998125" lon="-9.269881222199292"><ele>279.0</ele><time>2026-05-01T08:13:41Z</time></trkpt><trkpt lat="38.848552959107955" lon="-9.269678010041062"><ele>281.75</ele><time>2026-05-01T08:13:42Z</time></trkpt><trkpt lat="38.848454485391485" lon="-9.269538805275"><ele>284.5</ele><time>2026-05-01T08:13:43Z</time></trkpt><trkpt lat="38.84833846869907" lon="-9.269471633008976"><ele>287.25</ele><time>2026-05-01T08:13:44Z</time></trkpt><trkpt lat="38.848224561245694" lon="-9.269420718095775"><ele>290.0</ele><time>2026-05-01T08:13:45Z</time></trkpt><trkpt lat="38.848127258024256" lon="-9.269376231714313"><ele>290.0</ele><time>2026-05-01T08:13:46Z</time></trkpt><trkpt lat="38.848061217481934" lon="-9.269346037563606"><ele>290.0</ele><time>2026-05-01T08:13:47Z</time></trkpt><trkpt lat="38.847984326594684" lon="-9.26944851771966"><ele>290.0</ele><time>2026-05-01T08:13:48Z</time></trkpt><trkpt lat="38.84783375000489" lon="-9.26950705873648"><ele>290.0</ele><time>2026-05-01T08:13:49Z</time></trkpt><trkpt lat="38.84770026240394" lon="-9.269548729367193"><ele>290.0</ele><time>2026-05-01T08:13:50Z</time></trkpt><trkpt lat="38.84761224077307" lon="-9.269596359690208"><ele>290.0</ele><time>2026-05-01T08:13:51Z</time></trkpt><trkpt lat="38.847544278754654" lon="-9.269591571786028"><ele>290.0</ele><time>2026-05-01T08:13:54Z</time></trkpt><trkpt lat="38.84755638036204" lon="-9.269463740765822"><ele>290.0</ele><time>2026-05-01T08:13:55Z</time></trkpt><trkpt lat="38.84756169804106" lon="-9.269379599966275"><ele>290.0</ele><time>2026-05-01T08:13:56Z</time></trkpt><trkpt lat="38.84767577779509" lon="-9.269286326160083"><ele>290.0</ele><time>2026-05-01T08:13:57Z</time></trkpt><trkpt lat="38.8477420310067" lon="-9.269197303895526"><ele>290.0</ele><time>2026-05-01T08:13:58Z</time></trkpt><trkpt lat="38.84779787455628" lon="-9.269122960293576"><ele>290.0</ele><time>2026-05-01T08:13:59Z</time></trkpt><trkpt lat="38.84783044948728" lon="-9.269016540224744"><ele>290.0</ele><time>2026-05-01T08:14:01Z</time></trkpt><trkpt lat="38.84790047373643" lon="-9.269013535615139"><ele>290.0</ele><time>2026-05-01T08:15:34.999Z</time></trkpt><trkpt lat="38.84791553687956" lon="-9.269099198062214"><ele>290.0</ele><time>2026-05-01T08:15:46Z</time></trkpt><trkpt lat="38.84785838039811" lon="-9.2689716731191"><ele>290.0</ele><time>2026-05-01T08:18:09.888Z</time></trkpt><trkpt lat="38.84760174340182" lon="-9.269049291082663"><ele>290.0</ele><time>2026-05-01T08:18:17.373Z</time></trkpt><trkpt lat="38.84768766395984" lon="-9.269066229501787"><ele>290.0</ele><time>2026-05-01T08:18:20.999Z</time></trkpt><trkpt lat="38.847790923344675" lon="-9.269092464295833"><ele>290.0</ele><time>2026-05-01T08:18:23.999Z</time></trkpt><trkpt lat="38.84786899750359" lon="-9.269106136485194"><ele>290.0</ele><time>2026-05-01T08:18:32Z</time></trkpt><trkpt lat="38.84783145145419" lon="-9.269191845909802"><ele>290.0</ele><time>2026-05-01T08:18:37Z</time></trkpt><trkpt lat="38.847801212727916" lon="-9.269270603721635"><ele>290.0</ele><time>2026-05-01T08:18:42.065Z</time></trkpt><trkpt lat="38.84783212131694" lon="-9.269152829609277"><ele>290.0</ele><time>2026-05-01T08:18:57.724Z</time></trkpt><trkpt lat="38.847962505327935" lon="-9.269040225389523"><ele>290.0</ele><time>2026-05-01T08:19:06Z</time></trkpt><trkpt lat="38.847901512616225" lon="-9.269015770205833"><ele>290.0</ele><time>2026-05-01T08:19:10Z</time></trkpt><trkpt lat="38.84792698745686" lon="-9.269094241937635"><ele>290.0</ele><time>2026-05-01T08:25:57.999Z</time></trkpt><trkpt lat="38.84795692459608" lon="-9.269210377446962"><ele>290.0</ele><time>2026-05-01T08:26:06.999Z</time></trkpt><trkpt lat="38.84788831711752" lon="-9.26918904578608"><ele>290.0</ele><time>2026-05-01T08:26:17.07Z</time></trkpt><trkpt lat="38.84782809210958" lon="-9.269085516176233"><ele>290.0</ele><time>2026-05-01T08:26:19.038Z</time></trkpt><trkpt lat="38.84775192200299" lon="-9.26914046875143"><ele>290.0</ele><time>2026-05-01T08:26:21.03Z</time></trkpt><trkpt lat="38.84765825059472" lon="-9.269261624182574"><ele>290.0</ele><time>2026-05-01T08:26:22.029Z</time></trkpt><trkpt lat="38.847858345567204" lon="-9.268996846141691"><ele>290.0</ele><time>2026-05-01T08:26:53.377Z</time></trkpt><trkpt lat="38.84791216761841" lon="-9.268622197331634"><ele>290.0</ele><time>2026-05-01T08:27:31.44Z</time></trkpt><trkpt lat="38.84771369269096" lon="-9.268711149216854"><ele>290.0</ele><time>2026-05-01T08:27:33.02Z</time></trkpt><trkpt lat="38.84774700486425" lon="-9.268793296006633"><ele>290.0</ele><time>2026-05-01T08:27:35.999Z</time></trkpt><trkpt lat="38.84785433738372" lon="-9.269047028477985"><ele>290.0</ele><time>2026-05-01T08:27:38.999Z</time></trkpt><trkpt lat="38.84780590963036" lon="-9.26899494516597"><ele>290.0</ele><time>2026-05-01T08:34:08Z</time></trkpt><trkpt lat="38.8477670810285" lon="-9.269061657767102"><ele>290.0</ele><time>2026-05-01T08:35:33.999Z</time></trkpt><trkpt lat="38.847818696272924" lon="-9.269111590288684"><ele>290.0</ele><time>2026-05-01T08:36:06Z</time></trkpt><trkpt lat="38.847797231506746" lon="-9.269201458449704"><ele>290.0</ele><time>2026-05-01T08:36:08Z</time></trkpt><trkpt lat="38.84772614572209" lon="-9.269288840792761"><ele>290.0</ele><time>2026-05-01T08:36:10Z</time></trkpt><trkpt lat="38.847635228831194" lon="-9.269399932751343"><ele>290.83333333333337</ele><time>2026-05-01T08:36:12Z</time></trkpt><trkpt lat="38.84758643652418" lon="-9.269456447103865"><ele>291.6666666666667</ele><time>2026-05-01T08:36:13Z</time></trkpt><trkpt lat="38.84753211547259" lon="-9.2695274695342"><ele>292.5</ele><time>2026-05-01T08:36:14Z</time></trkpt><trkpt lat="38.84747221346891" lon="-9.269594636468613"><ele>293.3333333333333</ele><time>2026-05-01T08:36:15Z</time></trkpt><trkpt lat="38.84740907757783" lon="-9.269660424866409"><ele>294.16666666666663</ele><time>2026-05-01T08:36:16Z</time></trkpt><trkpt lat="38.84733261525274" lon="-9.269724465406583"><ele>295.0</ele><time>2026-05-01T08:36:17Z</time></trkpt><trkpt lat="38.847248943465665" lon="-9.269774588334814"><ele>295.2</ele><time>2026-05-01T08:36:18Z</time></trkpt><trkpt lat="38.84716337768681" lon="-9.269819327478483"><ele>295.4</ele><time>2026-05-01T08:36:19Z</time></trkpt><trkpt lat="38.84707022029145" lon="-9.26987099392105"><ele>295.6</ele><time>2026-05-01T08:36:20Z</time></trkpt><trkpt lat="38.84698352011238" lon="-9.269932461845302"><ele>295.8</ele><time>2026-05-01T08:36:21Z</time></trkpt><trkpt lat="38.846889221762645" lon="-9.269983405688693"><ele>296.0</ele><time>2026-05-01T08:36:22Z</time></trkpt><trkpt lat="38.84679380957761" lon="-9.270040505076139"><ele>296.0</ele><time>2026-05-01T08:36:23Z</time></trkpt><trkpt lat="38.846692480362" lon="-9.270106143110901"><ele>296.0</ele><time>2026-05-01T08:36:24Z</time></trkpt><trkpt lat="38.846590547792566" lon="-9.270166257842174"><ele>296.0</ele><time>2026-05-01T08:36:25Z</time></trkpt><trkpt lat="38.84648631932163" lon="-9.270226475270707"><ele>296.0</ele><time>2026-05-01T08:36:26Z</time></trkpt><trkpt lat="38.846375707415355" lon="-9.270288009095857"><ele>296.0</ele><time>2026-05-01T08:36:27Z</time></trkpt><trkpt lat="38.846262703980656" lon="-9.270350221046309"><ele>296.0</ele><time>2026-05-01T08:36:28Z</time></trkpt><trkpt lat="38.84616127722233" lon="-9.270405201597516"><ele>296.0</ele><time>2026-05-01T08:36:29Z</time></trkpt><trkpt lat="38.84605112639102" lon="-9.27046671246019"><ele>296.0</ele><time>2026-05-01T08:36:30Z</time></trkpt><trkpt lat="38.84594362895806" lon="-9.270519970855204"><ele>296.2</ele><time>2026-05-01T08:36:31Z</time></trkpt><trkpt lat="38.845835701199135" lon="-9.27057242889177"><ele>296.40000000000003</ele><time>2026-05-01T08:36:32Z</time></trkpt><trkpt lat="38.845729154111616" lon="-9.270622889329761"><ele>296.6</ele><time>2026-05-01T08:36:33Z</time></trkpt><trkpt lat="38.84562300066163" lon="-9.270671180019884"><ele>296.8</ele><time>2026-05-01T08:36:34Z</time></trkpt><trkpt lat="38.84552226932161" lon="-9.27072079644677"><ele>297.0</ele><time>2026-05-01T08:36:35Z</time></trkpt><trkpt lat="38.84542150691157" lon="-9.270763388898656"><ele>297.0</ele><time>2026-05-01T08:36:36Z</time></trkpt><trkpt lat="38.84532108234187" lon="-9.27080594082813"><ele>297.0</ele><time>2026-05-01T08:36:36.999Z</time></trkpt><trkpt lat="38.845225197622796" lon="-9.270847090176362"><ele>297.0</ele><time>2026-05-01T08:36:37.999Z</time></trkpt><trkpt lat="38.84512953455698" lon="-9.270887955946597"><ele>297.0</ele><time>2026-05-01T08:36:38.999Z</time></trkpt><trkpt lat="38.84503168334321" lon="-9.270922211296764"><ele>297.0</ele><time>2026-05-01T08:36:39.999Z</time></trkpt><trkpt lat="38.84493045043156" lon="-9.270951241253734"><ele>299.0</ele><time>2026-05-01T08:36:40.999Z</time></trkpt><trkpt lat="38.8448292316393" lon="-9.270979252746578"><ele>301.0</ele><time>2026-05-01T08:36:41.999Z</time></trkpt><trkpt lat="38.844729745472726" lon="-9.271009132043801"><ele>303.0</ele><time>2026-05-01T08:36:42.999Z</time></trkpt><trkpt lat="38.84462427118461" lon="-9.27103053592606"><ele>305.0</ele><time>2026-05-01T08:36:43.999Z</time></trkpt><trkpt lat="38.84451812186918" lon="-9.271049798393724"><ele>307.0</ele><time>2026-05-01T08:36:44.999Z</time></trkpt><trkpt lat="38.84441527433325" lon="-9.271080065045721"><ele>307.0</ele><time>2026-05-01T08:36:45.999Z</time></trkpt><trkpt lat="38.84430796082748" lon="-9.271109636818242"><ele>307.0</ele><time>2026-05-01T08:36:46.999Z</time></trkpt><trkpt lat="38.84420375981037" lon="-9.271153484224415"><ele>307.0</ele><time>2026-05-01T08:36:48Z</time></trkpt><trkpt lat="38.844103716828705" lon="-9.271216727923406"><ele>307.0</ele><time>2026-05-01T08:36:49Z</time></trkpt><trkpt lat="38.84400919913941" lon="-9.271309671953615"><ele>307.5</ele><time>2026-05-01T08:36:50Z</time></trkpt><trkpt lat="38.84391317668612" lon="-9.27140390586881"><ele>308.0</ele><time>2026-05-01T08:36:51Z</time></trkpt><trkpt lat="38.843814034663666" lon="-9.271494319146768"><ele>308.5</ele><time>2026-05-01T08:36:52Z</time></trkpt><trkpt lat="38.84373876227451" lon="-9.271614066013301"><ele>309.0</ele><time>2026-05-01T08:36:53Z</time></trkpt><trkpt lat="38.84365984915502" lon="-9.271727164997504"><ele>309.0</ele><time>2026-05-01T08:36:54Z</time></trkpt><trkpt lat="38.84357293850666" lon="-9.2718279002596"><ele>309.0</ele><time>2026-05-01T08:36:55Z</time></trkpt><trkpt lat="38.84350238027179" lon="-9.27194194917542"><ele>309.0</ele><time>2026-05-01T08:36:56Z</time></trkpt><trkpt lat="38.84343642619998" lon="-9.272051159255513"><ele>309.0</ele><time>2026-05-01T08:36:57Z</time></trkpt><trkpt lat="38.843365649926064" lon="-9.272125594027553"><ele>309.0</ele><time>2026-05-01T08:36:58Z</time></trkpt><trkpt lat="38.84329216524165" lon="-9.272161528775401"><ele>309.0</ele><time>2026-05-01T08:36:59Z</time></trkpt><trkpt lat="38.843203916196046" lon="-9.272152387656805"><ele>309.0</ele><time>2026-05-01T08:37:00Z</time></trkpt><trkpt lat="38.84311563643801" lon="-9.272107936811267"><ele>309.0</ele><time>2026-05-01T08:37:01Z</time></trkpt><trkpt lat="38.84302876938963" lon="-9.272055744228233"><ele>309.0</ele><time>2026-05-01T08:37:02Z</time></trkpt><trkpt lat="38.84293179739783" lon="-9.272007571688349"><ele>309.0</ele><time>2026-05-01T08:37:03Z</time></trkpt><trkpt lat="38.84283217027069" lon="-9.271971938579904"><ele>309.0</ele><time>2026-05-01T08:37:04Z</time></trkpt><trkpt lat="38.842747600906705" lon="-9.271860336553926"><ele>309.0</ele><time>2026-05-01T08:37:05Z</time></trkpt><trkpt lat="38.84265700925768" lon="-9.27180410536322"><ele>309.0</ele><time>2026-05-01T08:37:06Z</time></trkpt><trkpt lat="38.84257156041223" lon="-9.271731855391666"><ele>309.0</ele><time>2026-05-01T08:37:07Z</time></trkpt><trkpt lat="38.842490502677485" lon="-9.271634294958755"><ele>309.0</ele><time>2026-05-01T08:37:08Z</time></trkpt><trkpt lat="38.84241364143213" lon="-9.271535624736863"><ele>311.79999999999995</ele><time>2026-05-01T08:37:09Z</time></trkpt><trkpt lat="38.84234076319075" lon="-9.271436589631524"><ele>314.59999999999997</ele><time>2026-05-01T08:37:10Z</time></trkpt><trkpt lat="38.84225790545178" lon="-9.271349369545616"><ele>317.4</ele><time>2026-05-01T08:37:11Z</time></trkpt><trkpt lat="38.842184266610445" lon="-9.271261340807197"><ele>320.2</ele><time>2026-05-01T08:37:12Z</time></trkpt><trkpt lat="38.84213991649733" lon="-9.271162095635345"><ele>323.0</ele><time>2026-05-01T08:37:13Z</time></trkpt><trkpt lat="38.842125321053985" lon="-9.271038733276487"><ele>323.0</ele><time>2026-05-01T08:37:14Z</time></trkpt><trkpt lat="38.84210967076265" lon="-9.270905786715732"><ele>323.0</ele><time>2026-05-01T08:37:15Z</time></trkpt><trkpt lat="38.842082412046906" lon="-9.270772493760393"><ele>323.0</ele><time>2026-05-01T08:37:16Z</time></trkpt><trkpt lat="38.842015525452446" lon="-9.270658842086286"><ele>323.0</ele><time>2026-05-01T08:37:17Z</time></trkpt><trkpt lat="38.84194758992526" lon="-9.270547017194527"><ele>323.0</ele><time>2026-05-01T08:37:18Z</time></trkpt><trkpt lat="38.8418672044633" lon="-9.27042808795727"><ele>325.75</ele><time>2026-05-01T08:37:19Z</time></trkpt><trkpt lat="38.84178382215336" lon="-9.27031168761157"><ele>328.5</ele><time>2026-05-01T08:37:20Z</time></trkpt><trkpt lat="38.84169242219243" lon="-9.270190158414923"><ele>331.25</ele><time>2026-05-01T08:37:21Z</time></trkpt><trkpt lat="38.84160204016217" lon="-9.270071014293977"><ele>334.0</ele><time>2026-05-01T08:37:22Z</time></trkpt><trkpt lat="38.84152002850188" lon="-9.26993181151586"><ele>334.0</ele><time>2026-05-01T08:37:23Z</time></trkpt><trkpt lat="38.84142503529085" lon="-9.269800372284179"><ele>334.0</ele><time>2026-05-01T08:37:24Z</time></trkpt><trkpt lat="38.84132927403348" lon="-9.269667788324401"><ele>334.0</ele><time>2026-05-01T08:37:25Z</time></trkpt><trkpt lat="38.84124866343717" lon="-9.269525215507457"><ele>334.0</ele><time>2026-05-01T08:37:26Z</time></trkpt><trkpt lat="38.841176920819386" lon="-9.269386835142853"><ele>334.25</ele><time>2026-05-01T08:37:27Z</time></trkpt><trkpt lat="38.84110575406677" lon="-9.269253754603985"><ele>334.5</ele><time>2026-05-01T08:37:28Z</time></trkpt><trkpt lat="38.84103133992874" lon="-9.269117822222912"><ele>334.75</ele><time>2026-05-01T08:37:29Z</time></trkpt><trkpt lat="38.8409558643784" lon="-9.268981609014373"><ele>335.0</ele><time>2026-05-01T08:37:30Z</time></trkpt><trkpt lat="38.84088179184383" lon="-9.268847192605518"><ele>335.25</ele><time>2026-05-01T08:37:31Z</time></trkpt><trkpt lat="38.840787477757296" lon="-9.26872667304506"><ele>335.5</ele><time>2026-05-01T08:37:32Z</time></trkpt><trkpt lat="38.8407037933963" lon="-9.268597685127634"><ele>335.75</ele><time>2026-05-01T08:37:33Z</time></trkpt><trkpt lat="38.8406312238114" lon="-9.268456928168742"><ele>336.0</ele><time>2026-05-01T08:37:34Z</time></trkpt><trkpt lat="38.840542201468665" lon="-9.268336522410191"><ele>336.0</ele><time>2026-05-01T08:37:35Z</time></trkpt><trkpt lat="38.84045782307807" lon="-9.268214879764956"><ele>336.0</ele><time>2026-05-01T08:37:36Z</time></trkpt><trkpt lat="38.84037332119585" lon="-9.268096497464741"><ele>336.0</ele><time>2026-05-01T08:37:37Z</time></trkpt><trkpt lat="38.84027975023524" lon="-9.267987785033647"><ele>336.0</ele><time>2026-05-01T08:37:38Z</time></trkpt><trkpt lat="38.84018842618421" lon="-9.2678832269325"><ele>335.5</ele><time>2026-05-01T08:37:39Z</time></trkpt><trkpt lat="38.840095287938716" lon="-9.267789392760154"><ele>335.0</ele><time>2026-05-01T08:37:40Z</time></trkpt><trkpt lat="38.84000210448188" lon="-9.267682886927183"><ele>334.5</ele><time>2026-05-01T08:37:41Z</time></trkpt><trkpt lat="38.839907454442574" lon="-9.267582966830263"><ele>334.0</ele><time>2026-05-01T08:37:42Z</time></trkpt><trkpt lat="38.83982157387675" lon="-9.26747713780809"><ele>334.0</ele><time>2026-05-01T08:37:43Z</time></trkpt><trkpt lat="38.83975406620987" lon="-9.267349432003074"><ele>334.0</ele><time>2026-05-01T08:37:44Z</time></trkpt><trkpt lat="38.83971351135618" lon="-9.267200359502446"><ele>334.0</ele><time>2026-05-01T08:37:45Z</time></trkpt><trkpt lat="38.839681397888775" lon="-9.267038888414453"><ele>334.0</ele><time>2026-05-01T08:37:46Z</time></trkpt><trkpt lat="38.83965472480137" lon="-9.266873686215236"><ele>333.0</ele><time>2026-05-01T08:37:47Z</time></trkpt><trkpt lat="38.83963423111553" lon="-9.26671628360905"><ele>332.0</ele><time>2026-05-01T08:37:48Z</time></trkpt><trkpt lat="38.83961167526971" lon="-9.266567990834103"><ele>331.0</ele><time>2026-05-01T08:37:49Z</time></trkpt><trkpt lat="38.839585010699714" lon="-9.266418330982962"><ele>330.0</ele><time>2026-05-01T08:37:50Z</time></trkpt><trkpt lat="38.83956522721401" lon="-9.2662888160969"><ele>328.0</ele><time>2026-05-01T08:37:51Z</time></trkpt><trkpt lat="38.83954311524562" lon="-9.266170131013302"><ele>326.0</ele><time>2026-05-01T08:37:52Z</time></trkpt><trkpt lat="38.83952835553042" lon="-9.266066461304948"><ele>324.0</ele><time>2026-05-01T08:37:53Z</time></trkpt><trkpt lat="38.839501482649865" lon="-9.265984873244621"><ele>322.0</ele><time>2026-05-01T08:37:54Z</time></trkpt><trkpt lat="38.839486159421384" lon="-9.265885528893065"><ele>320.0</ele><time>2026-05-01T08:37:56Z</time></trkpt><trkpt lat="38.83934486601463" lon="-9.265860117499065"><ele>320.83333333333337</ele><time>2026-05-01T08:38:08Z</time></trkpt><trkpt lat="38.8392713152179" lon="-9.265861878697114"><ele>321.6666666666667</ele><time>2026-05-01T08:38:09.001Z</time></trkpt><trkpt lat="38.83920327983853" lon="-9.265868983138203"><ele>322.5</ele><time>2026-05-01T08:38:10.001Z</time></trkpt><trkpt lat="38.83912300233164" lon="-9.265874454053282"><ele>323.3333333333333</ele><time>2026-05-01T08:38:11.001Z</time></trkpt><trkpt lat="38.83903206880106" lon="-9.265882706908112"><ele>324.16666666666663</ele><time>2026-05-01T08:38:12.001Z</time></trkpt><trkpt lat="38.83893856451988" lon="-9.265886501467477"><ele>325.0</ele><time>2026-05-01T08:38:13.001Z</time></trkpt><trkpt lat="38.83884424578178" lon="-9.265875407061525"><ele>325.0</ele><time>2026-05-01T08:38:14.001Z</time></trkpt><trkpt lat="38.83874288060411" lon="-9.265865981325007"><ele>325.0</ele><time>2026-05-01T08:38:15.001Z</time></trkpt><trkpt lat="38.83863238508646" lon="-9.26585402526632"><ele>325.0</ele><time>2026-05-01T08:38:16.001Z</time></trkpt><trkpt lat="38.838515257094656" lon="-9.265848679531555"><ele>325.0</ele><time>2026-05-01T08:38:17.001Z</time></trkpt><trkpt lat="38.83840022138335" lon="-9.265898133530623"><ele>325.5</ele><time>2026-05-01T08:38:18.001Z</time></trkpt><trkpt lat="38.83828327727042" lon="-9.265922731710681"><ele>326.0</ele><time>2026-05-01T08:38:19.001Z</time></trkpt><trkpt lat="38.838166664127584" lon="-9.265976124607086"><ele>326.5</ele><time>2026-05-01T08:38:20.001Z</time></trkpt><trkpt lat="38.83804066892687" lon="-9.266015123997104"><ele>327.0</ele><time>2026-05-01T08:38:21.001Z</time></trkpt><trkpt lat="38.83790647076883" lon="-9.266061907322742"><ele>327.0</ele><time>2026-05-01T08:38:22.001Z</time></trkpt><trkpt lat="38.83778281438413" lon="-9.266116511453442"><ele>327.0</ele><time>2026-05-01T08:38:23.001Z</time></trkpt><trkpt lat="38.83768218860873" lon="-9.266222994568015"><ele>327.0</ele><time>2026-05-01T08:38:24.001Z</time></trkpt><trkpt lat="38.83760389093859" lon="-9.266345354012321"><ele>327.0</ele><time>2026-05-01T08:38:25.001Z</time></trkpt><trkpt lat="38.83752317803775" lon="-9.266480802445386"><ele>325.6666666666667</ele><time>2026-05-01T08:38:26.001Z</time></trkpt><trkpt lat="38.83743105530908" lon="-9.266628542600648"><ele>324.33333333333337</ele><time>2026-05-01T08:38:27.001Z</time></trkpt><trkpt lat="38.837295142527815" lon="-9.266775627375589"><ele>323.0</ele><time>2026-05-01T08:38:28.001Z</time></trkpt><trkpt lat="38.83713680919776" lon="-9.26693213620522"><ele>323.0</ele><time>2026-05-01T08:38:29.001Z</time></trkpt><trkpt lat="38.83696045410168" lon="-9.267089058178337"><ele>323.0</ele><time>2026-05-01T08:38:30Z</time></trkpt><trkpt lat="38.83679276689395" lon="-9.267264811705768"><ele>323.0</ele><time>2026-05-01T08:38:31Z</time></trkpt><trkpt lat="38.83667285180118" lon="-9.267472758798608"><ele>318.33333333333337</ele><time>2026-05-01T08:38:32Z</time></trkpt><trkpt lat="38.83653815984357" lon="-9.26763173808673"><ele>313.6666666666667</ele><time>2026-05-01T08:38:33Z</time></trkpt><trkpt lat="38.83642470186985" lon="-9.267784648599521"><ele>309.0</ele><time>2026-05-01T08:38:34Z</time></trkpt><trkpt lat="38.83631237360634" lon="-9.267916977717611"><ele>309.0</ele><time>2026-05-01T08:38:35Z</time></trkpt><trkpt lat="38.83619704939064" lon="-9.268032496475588"><ele>309.0</ele><time>2026-05-01T08:38:36Z</time></trkpt><trkpt lat="38.83609328087364" lon="-9.268124028349053"><ele>309.0</ele><time>2026-05-01T08:38:37Z</time></trkpt><trkpt lat="38.83600317122771" lon="-9.268201956840015"><ele>309.0</ele><time>2026-05-01T08:38:38Z</time></trkpt><trkpt lat="38.83592873392371" lon="-9.268261526786338"><ele>308.1666666666667</ele><time>2026-05-01T08:38:39Z</time></trkpt><trkpt lat="38.835891428555584" lon="-9.26833419224539"><ele>307.3333333333333</ele><time>2026-05-01T08:38:40Z</time></trkpt><trkpt lat="38.835813398273714" lon="-9.268359027745642"><ele>306.5</ele><time>2026-05-01T08:38:43Z</time></trkpt><trkpt lat="38.83573332977783" lon="-9.268432489154552"><ele>305.66666666666663</ele><time>2026-05-01T08:38:45Z</time></trkpt><trkpt lat="38.835666446262636" lon="-9.268484162240055"><ele>304.8333333333333</ele><time>2026-05-01T08:38:46Z</time></trkpt><trkpt lat="38.83555664209882" lon="-9.268556448037026"><ele>304.0</ele><time>2026-05-01T08:38:47Z</time></trkpt><trkpt lat="38.83544268040953" lon="-9.268626472871043"><ele>304.0</ele><time>2026-05-01T08:38:48Z</time></trkpt><trkpt lat="38.83533119874113" lon="-9.268703859840263"><ele>304.0</ele><time>2026-05-01T08:38:49Z</time></trkpt><trkpt lat="38.83522267745409" lon="-9.268777543006609"><ele>304.0</ele><time>2026-05-01T08:38:50Z</time></trkpt><trkpt lat="38.83512293341089" lon="-9.268855512981334"><ele>304.0</ele><time>2026-05-01T08:38:51Z</time></trkpt><trkpt lat="38.83502627441894" lon="-9.268930593384647"><ele>304.25</ele><time>2026-05-01T08:38:52Z</time></trkpt><trkpt lat="38.83494774883035" lon="-9.269039436577254"><ele>304.5</ele><time>2026-05-01T08:38:53Z</time></trkpt><trkpt lat="38.83484697161767" lon="-9.269157154531348"><ele>304.75</ele><time>2026-05-01T08:38:54Z</time></trkpt><trkpt lat="38.83472655381267" lon="-9.26927197534663"><ele>305.0</ele><time>2026-05-01T08:38:55Z</time></trkpt><trkpt lat="38.83461702596755" lon="-9.26941441923821"><ele>305.0</ele><time>2026-05-01T08:38:56Z</time></trkpt><trkpt lat="38.83450699066369" lon="-9.269534780167232"><ele>305.0</ele><time>2026-05-01T08:38:57Z</time></trkpt><trkpt lat="38.83438340470194" lon="-9.269637002740206"><ele>305.0</ele><time>2026-05-01T08:38:58Z</time></trkpt><trkpt lat="38.83424446525781" lon="-9.269721536785763"><ele>305.0</ele><time>2026-05-01T08:38:59Z</time></trkpt><trkpt lat="38.83410856343075" lon="-9.26980008125473"><ele>302.75</ele><time>2026-05-01T08:39:00Z</time></trkpt><trkpt lat="38.8339685429169" lon="-9.269883547911228"><ele>300.5</ele><time>2026-05-01T08:39:01Z</time></trkpt><trkpt lat="38.83383436139336" lon="-9.26997403584322"><ele>298.25</ele><time>2026-05-01T08:39:02Z</time></trkpt><trkpt lat="38.83370984206906" lon="-9.270054237662407"><ele>296.0</ele><time>2026-05-01T08:39:03Z</time></trkpt><trkpt lat="38.83360173014483" lon="-9.270129499034697"><ele>296.0</ele><time>2026-05-01T08:39:04Z</time></trkpt><trkpt lat="38.833500655436644" lon="-9.270191311435509"><ele>296.0</ele><time>2026-05-01T08:39:05Z</time></trkpt><trkpt lat="38.83341145950433" lon="-9.270251435190408"><ele>296.0</ele><time>2026-05-01T08:39:06Z</time></trkpt><trkpt lat="38.833335701927034" lon="-9.270313777315385"><ele>296.0</ele><time>2026-05-01T08:39:07Z</time></trkpt><trkpt lat="38.83325863713848" lon="-9.27040331149454"><ele>296.0</ele><time>2026-05-01T08:39:08Z</time></trkpt><trkpt lat="38.833235415643486" lon="-9.270536816364558"><ele>296.40000000000003</ele><time>2026-05-01T08:39:09Z</time></trkpt><trkpt lat="38.833180853778195" lon="-9.270643135925829"><ele>296.8</ele><time>2026-05-01T08:39:10Z</time></trkpt><trkpt lat="38.833137679948386" lon="-9.270734302884849"><ele>297.20000000000005</ele><time>2026-05-01T08:39:11Z</time></trkpt><trkpt lat="38.83307280684523" lon="-9.270801765635612"><ele>297.6</ele><time>2026-05-01T08:39:12Z</time></trkpt><trkpt lat="38.833009883516034" lon="-9.270842459902646"><ele>298.0</ele><time>2026-05-01T08:39:13Z</time></trkpt><trkpt lat="38.83290776835589" lon="-9.270929638583395"><ele>298.0</ele><time>2026-05-01T08:39:15Z</time></trkpt><trkpt lat="38.83282736068883" lon="-9.27097947474716"><ele>298.0</ele><time>2026-05-01T08:39:17Z</time></trkpt><trkpt lat="38.83272740880302" lon="-9.270788629472788"><ele>298.0</ele><time>2026-05-01T08:39:18Z</time></trkpt><trkpt lat="38.83268209756853" lon="-9.270674622517994"><ele>298.0</ele><time>2026-05-01T08:39:19Z</time></trkpt><trkpt lat="38.83262878017504" lon="-9.270540488155131"><ele>299.6</ele><time>2026-05-01T08:39:20Z</time></trkpt><trkpt lat="38.8325627828176" lon="-9.270422383183577"><ele>301.20000000000005</ele><time>2026-05-01T08:39:21Z</time></trkpt><trkpt lat="38.83249759959415" lon="-9.270291508621792"><ele>302.8</ele><time>2026-05-01T08:39:22Z</time></trkpt><trkpt lat="38.832436291607415" lon="-9.270171976122098"><ele>304.40000000000003</ele><time>2026-05-01T08:39:23Z</time></trkpt><trkpt lat="38.83235948213181" lon="-9.270120208075824"><ele>306.0</ele><time>2026-05-01T08:39:24Z</time></trkpt><trkpt lat="38.83225828452824" lon="-9.270126639416857"><ele>306.0</ele><time>2026-05-01T08:39:25Z</time></trkpt><trkpt lat="38.83214609623952" lon="-9.27014122310709"><ele>306.0</ele><time>2026-05-01T08:39:26Z</time></trkpt><trkpt lat="38.8320358019184" lon="-9.270151957562673"><ele>306.0</ele><time>2026-05-01T08:39:27Z</time></trkpt><trkpt lat="38.8319283893329" lon="-9.270163340693268"><ele>306.0</ele><time>2026-05-01T08:39:28Z</time></trkpt><trkpt lat="38.83181908384124" lon="-9.270149524246454"><ele>306.0</ele><time>2026-05-01T08:39:29Z</time></trkpt><trkpt lat="38.831728173845406" lon="-9.270148168895979"><ele>306.6</ele><time>2026-05-01T08:39:30Z</time></trkpt><trkpt lat="38.83163941918304" lon="-9.270122859754325"><ele>307.20000000000005</ele><time>2026-05-01T08:39:31Z</time></trkpt><trkpt lat="38.83155320445105" lon="-9.270082831296708"><ele>307.79999999999995</ele><time>2026-05-01T08:39:32Z</time></trkpt><trkpt lat="38.8314645276486" lon="-9.270012295679924"><ele>308.4</ele><time>2026-05-01T08:39:33Z</time></trkpt><trkpt lat="38.83138649711278" lon="-9.26991827467789"><ele>309.0</ele><time>2026-05-01T08:39:34Z</time></trkpt><trkpt lat="38.83131681062434" lon="-9.269798675777299"><ele>307.25</ele><time>2026-05-01T08:39:35Z</time></trkpt><trkpt lat="38.83123941561229" lon="-9.269681343959638"><ele>305.5</ele><time>2026-05-01T08:39:36Z</time></trkpt><trkpt lat="38.831161479090476" lon="-9.26956337787014"><ele>303.75</ele><time>2026-05-01T08:39:37Z</time></trkpt><trkpt lat="38.83108233709586" lon="-9.269444024062427"><ele>302.0</ele><time>2026-05-01T08:39:38Z</time></trkpt><trkpt lat="38.83100641248837" lon="-9.269321649048662"><ele>304.0</ele><time>2026-05-01T08:39:39Z</time></trkpt><trkpt lat="38.8309229608637" lon="-9.26919128370647"><ele>306.0</ele><time>2026-05-01T08:39:40Z</time></trkpt><trkpt lat="38.83083655287629" lon="-9.26905230090933"><ele>308.0</ele><time>2026-05-01T08:39:41Z</time></trkpt><trkpt lat="38.830753865705304" lon="-9.268893729111314"><ele>310.0</ele><time>2026-05-01T08:39:42Z</time></trkpt><trkpt lat="38.83068649667455" lon="-9.268705961751667"><ele>310.0</ele><time>2026-05-01T08:39:43Z</time></trkpt><trkpt lat="38.830639252488794" lon="-9.268507951760123"><ele>310.0</ele><time>2026-05-01T08:39:44Z</time></trkpt><trkpt lat="38.83059825311563" lon="-9.26831059560049"><ele>310.0</ele><time>2026-05-01T08:39:45Z</time></trkpt><trkpt lat="38.830550438235875" lon="-9.26811913890605"><ele>308.0</ele><time>2026-05-01T08:39:46Z</time></trkpt><trkpt lat="38.83049939777071" lon="-9.26792347846609"><ele>306.0</ele><time>2026-05-01T08:39:47Z</time></trkpt><trkpt lat="38.83042621899941" lon="-9.26774366737573"><ele>304.0</ele><time>2026-05-01T08:39:48Z</time></trkpt><trkpt lat="38.83035905960983" lon="-9.267563559794018"><ele>304.0</ele><time>2026-05-01T08:39:49Z</time></trkpt><trkpt lat="38.83029424740694" lon="-9.267401774601755"><ele>304.0</ele><time>2026-05-01T08:39:50Z</time></trkpt><trkpt lat="38.830227884513505" lon="-9.267248959746762"><ele>304.0</ele><time>2026-05-01T08:39:51Z</time></trkpt><trkpt lat="38.830168603159116" lon="-9.267119009069424"><ele>304.0</ele><time>2026-05-01T08:39:52Z</time></trkpt><trkpt lat="38.83012321588187" lon="-9.266982239044118"><ele>305.5</ele><time>2026-05-01T08:39:53Z</time></trkpt><trkpt lat="38.83003679857737" lon="-9.266864465739765"><ele>307.0</ele><time>2026-05-01T08:39:54Z</time></trkpt><trkpt lat="38.8299424268155" lon="-9.26675976274208"><ele>308.5</ele><time>2026-05-01T08:39:55Z</time></trkpt><trkpt lat="38.82984018081231" lon="-9.266664020111818"><ele>310.0</ele><time>2026-05-01T08:39:56Z</time></trkpt><trkpt lat="38.82973559282778" lon="-9.266606510147277"><ele>310.0</ele><time>2026-05-01T08:39:57Z</time></trkpt><trkpt lat="38.829622560347815" lon="-9.266595079701158"><ele>310.0</ele><time>2026-05-01T08:39:58Z</time></trkpt><trkpt lat="38.829510505671024" lon="-9.266620176975378"><ele>310.0</ele><time>2026-05-01T08:39:59Z</time></trkpt><trkpt lat="38.82938309165534" lon="-9.266661169989371"><ele>310.0</ele><time>2026-05-01T08:40:00Z</time></trkpt><trkpt lat="38.829264682447594" lon="-9.26668650156435"><ele>308.6</ele><time>2026-05-01T08:40:01Z</time></trkpt><trkpt lat="38.829161022656876" lon="-9.266679424580612"><ele>307.2</ele><time>2026-05-01T08:40:02Z</time></trkpt><trkpt lat="38.82906771641551" lon="-9.266622558548459"><ele>305.8</ele><time>2026-05-01T08:40:03Z</time></trkpt><trkpt lat="38.828973206638" lon="-9.266547759038183"><ele>304.4</ele><time>2026-05-01T08:40:04Z</time></trkpt><trkpt lat="38.82889078358072" lon="-9.266443478009396"><ele>303.0</ele><time>2026-05-01T08:40:05Z</time></trkpt><trkpt lat="38.82882002093006" lon="-9.266312920433961"><ele>303.0</ele><time>2026-05-01T08:40:06Z</time></trkpt><trkpt lat="38.82873453764605" lon="-9.266180304453542"><ele>303.0</ele><time>2026-05-01T08:40:07Z</time></trkpt><trkpt lat="38.82865410005648" lon="-9.266046598462015"><ele>303.0</ele><time>2026-05-01T08:40:08Z</time></trkpt><trkpt lat="38.828574250842316" lon="-9.265905458953538"><ele>303.0</ele><time>2026-05-01T08:40:09Z</time></trkpt><trkpt lat="38.828511948327424" lon="-9.265768964653915"><ele>304.0</ele><time>2026-05-01T08:40:10Z</time></trkpt><trkpt lat="38.82845694625114" lon="-9.26562700304996"><ele>305.0</ele><time>2026-05-01T08:40:11Z</time></trkpt><trkpt lat="38.82838845713409" lon="-9.265500785310921"><ele>306.0</ele><time>2026-05-01T08:40:12Z</time></trkpt><trkpt lat="38.82832932062934" lon="-9.265380555877329"><ele>307.0</ele><time>2026-05-01T08:40:13Z</time></trkpt><trkpt lat="38.82826739870449" lon="-9.265277295563825"><ele>307.0</ele><time>2026-05-01T08:40:14Z</time></trkpt><trkpt lat="38.828202139227386" lon="-9.265188390769671"><ele>307.0</ele><time>2026-05-01T08:40:15.001Z</time></trkpt><trkpt lat="38.82813520575987" lon="-9.26512160149455"><ele>307.0</ele><time>2026-05-01T08:40:16.001Z</time></trkpt><trkpt lat="38.828065179130874" lon="-9.265070572379836"><ele>307.0</ele><time>2026-05-01T08:40:17.001Z</time></trkpt><trkpt lat="38.82798353912092" lon="-9.265020763454212"><ele>307.0</ele><time>2026-05-01T08:40:18.001Z</time></trkpt><trkpt lat="38.827876645627775" lon="-9.26496939389784"><ele>307.0</ele><time>2026-05-01T08:40:19.001Z</time></trkpt><trkpt lat="38.82777437072158" lon="-9.264969310945736"><ele>307.0</ele><time>2026-05-01T08:40:20.001Z</time></trkpt><trkpt lat="38.827668236598804" lon="-9.265012246102465"><ele>307.0</ele><time>2026-05-01T08:40:21.001Z</time></trkpt><trkpt lat="38.827600423438916" lon="-9.265117874254745"><ele>307.0</ele><time>2026-05-01T08:40:22.001Z</time></trkpt><trkpt lat="38.8275748417344" lon="-9.265252258898073"><ele>307.0</ele><time>2026-05-01T08:40:23.001Z</time></trkpt><trkpt lat="38.82756250987127" lon="-9.265426488864065"><ele>306.5</ele><time>2026-05-01T08:40:24.001Z</time></trkpt><trkpt lat="38.82753138318263" lon="-9.265572092325684"><ele>306.0</ele><time>2026-05-01T08:40:25.001Z</time></trkpt><trkpt lat="38.827488696725275" lon="-9.265693063966257"><ele>305.5</ele><time>2026-05-01T08:40:26.001Z</time></trkpt><trkpt lat="38.82740019185498" lon="-9.265776219979337"><ele>305.0</ele><time>2026-05-01T08:40:27.001Z</time></trkpt><trkpt lat="38.82728585856118" lon="-9.265820595699386"><ele>307.5</ele><time>2026-05-01T08:40:28.001Z</time></trkpt><trkpt lat="38.82715876719455" lon="-9.265846301154903"><ele>310.0</ele><time>2026-05-01T08:40:29.001Z</time></trkpt><trkpt lat="38.82703384927421" lon="-9.265851530459972"><ele>312.5</ele><time>2026-05-01T08:40:30.001Z</time></trkpt><trkpt lat="38.82692427109076" lon="-9.265811252581068"><ele>315.0</ele><time>2026-05-01T08:40:31.001Z</time></trkpt><trkpt lat="38.82683662598632" lon="-9.265707541680428"><ele>312.5</ele><time>2026-05-01T08:40:32.001Z</time></trkpt><trkpt lat="38.82674399445623" lon="-9.265581363946369"><ele>310.0</ele><time>2026-05-01T08:40:33.001Z</time></trkpt><trkpt lat="38.82665404786313" lon="-9.265443133244325"><ele>307.5</ele><time>2026-05-01T08:40:34.001Z</time></trkpt><trkpt lat="38.826567232959704" lon="-9.265331369614216"><ele>305.0</ele><time>2026-05-01T08:40:35.001Z</time></trkpt><trkpt lat="38.82649498836526" lon="-9.265212117715762"><ele>305.0</ele><time>2026-05-01T08:40:36.001Z</time></trkpt><trkpt lat="38.826418499624836" lon="-9.265090167873463"><ele>305.0</ele><time>2026-05-01T08:40:37.001Z</time></trkpt><trkpt lat="38.826337407239905" lon="-9.264953812423194"><ele>305.0</ele><time>2026-05-01T08:40:38.001Z</time></trkpt><trkpt lat="38.826252903619405" lon="-9.264820466079643"><ele>305.0</ele><time>2026-05-01T08:40:39Z</time></trkpt><trkpt lat="38.82616407131811" lon="-9.264679428617606"><ele>303.0</ele><time>2026-05-01T08:40:40Z</time></trkpt><trkpt lat="38.82606515538506" lon="-9.264534380724266"><ele>301.0</ele><time>2026-05-01T08:40:41Z</time></trkpt><trkpt lat="38.825964490822415" lon="-9.26437887094038"><ele>299.0</ele><time>2026-05-01T08:40:42Z</time></trkpt><trkpt lat="38.82585734386498" lon="-9.264223114292598"><ele>299.0</ele><time>2026-05-01T08:40:43Z</time></trkpt><trkpt lat="38.82574214930562" lon="-9.264062310585329"><ele>299.0</ele><time>2026-05-01T08:40:44Z</time></trkpt><trkpt lat="38.82562909824224" lon="-9.26389998884868"><ele>299.0</ele><time>2026-05-01T08:40:45Z</time></trkpt><trkpt lat="38.825522822065636" lon="-9.263738473385292"><ele>298.0</ele><time>2026-05-01T08:40:46Z</time></trkpt><trkpt lat="38.82541620321993" lon="-9.2635794716477"><ele>297.0</ele><time>2026-05-01T08:40:47Z</time></trkpt><trkpt lat="38.825313195630685" lon="-9.263427100599523"><ele>296.0</ele><time>2026-05-01T08:40:48Z</time></trkpt><trkpt lat="38.825212375037616" lon="-9.263276354439897"><ele>297.33333333333337</ele><time>2026-05-01T08:40:49Z</time></trkpt><trkpt lat="38.82510661393568" lon="-9.263128071279468"><ele>298.6666666666667</ele><time>2026-05-01T08:40:50Z</time></trkpt><trkpt lat="38.824994715611716" lon="-9.26295901580078"><ele>300.0</ele><time>2026-05-01T08:40:51Z</time></trkpt><trkpt lat="38.824880496827106" lon="-9.262761973183833"><ele>300.0</ele><time>2026-05-01T08:40:52Z</time></trkpt><trkpt lat="38.824778625062784" lon="-9.262550628882986"><ele>300.0</ele><time>2026-05-01T08:40:53Z</time></trkpt><trkpt lat="38.824685987016295" lon="-9.262352324975039"><ele>300.0</ele><time>2026-05-01T08:40:54Z</time></trkpt><trkpt lat="38.824597793324784" lon="-9.262175640406742"><ele>297.75</ele><time>2026-05-01T08:40:55Z</time></trkpt><trkpt lat="38.82451864635191" lon="-9.262016367640607"><ele>295.5</ele><time>2026-05-01T08:40:56Z</time></trkpt><trkpt lat="38.82443132840689" lon="-9.261878456209699"><ele>293.25</ele><time>2026-05-01T08:40:57Z</time></trkpt><trkpt lat="38.824369706989124" lon="-9.261722105164761"><ele>291.0</ele><time>2026-05-01T08:40:58Z</time></trkpt><trkpt lat="38.82429173659631" lon="-9.261568838351804"><ele>293.25</ele><time>2026-05-01T08:40:59Z</time></trkpt><trkpt lat="38.82420990252998" lon="-9.261403825879622"><ele>295.5</ele><time>2026-05-01T08:41:00Z</time></trkpt><trkpt lat="38.82412626185441" lon="-9.26124329263157"><ele>297.75</ele><time>2026-05-01T08:41:01Z</time></trkpt><trkpt lat="38.82404967552094" lon="-9.261083814897663"><ele>300.0</ele><time>2026-05-01T08:41:02Z</time></trkpt><trkpt lat="38.82396953914231" lon="-9.260922490290234"><ele>300.0</ele><time>2026-05-01T08:41:03Z</time></trkpt><trkpt lat="38.82388604458567" lon="-9.260769374184795"><ele>300.0</ele><time>2026-05-01T08:41:04Z</time></trkpt><trkpt lat="38.82380655361475" lon="-9.260620011507346"><ele>300.0</ele><time>2026-05-01T08:41:05Z</time></trkpt><trkpt lat="38.82372529675271" lon="-9.260476209836725"><ele>300.0</ele><time>2026-05-01T08:41:06Z</time></trkpt><trkpt lat="38.82362648030748" lon="-9.260365519236263"><ele>300.0</ele><time>2026-05-01T08:41:07Z</time></trkpt><trkpt lat="38.82351529688535" lon="-9.260276948736967"><ele>300.0</ele><time>2026-05-01T08:41:08Z</time></trkpt><trkpt lat="38.82338647044592" lon="-9.260223069137185"><ele>300.0</ele><time>2026-05-01T08:41:09Z</time></trkpt><trkpt lat="38.823251524806025" lon="-9.260142478899295"><ele>300.0</ele><time>2026-05-01T08:41:10Z</time></trkpt><trkpt lat="38.82310401071888" lon="-9.26009350341932"><ele>300.0</ele><time>2026-05-01T08:41:11Z</time></trkpt><trkpt lat="38.82298144511281" lon="-9.260029922187528"><ele>300.0</ele><time>2026-05-01T08:41:12Z</time></trkpt><trkpt lat="38.82287769861443" lon="-9.259930234964258"><ele>300.0</ele><time>2026-05-01T08:41:13Z</time></trkpt><trkpt lat="38.82279008502253" lon="-9.25978743995072"><ele>300.0</ele><time>2026-05-01T08:41:14Z</time></trkpt><trkpt lat="38.822728517578994" lon="-9.25962310473422"><ele>300.6666666666667</ele><time>2026-05-01T08:41:15Z</time></trkpt><trkpt lat="38.822681462267646" lon="-9.259442210651615"><ele>301.33333333333337</ele><time>2026-05-01T08:41:16Z</time></trkpt><trkpt lat="38.822633890514396" lon="-9.259251240226499"><ele>302.0</ele><time>2026-05-01T08:41:17Z</time></trkpt><trkpt lat="38.82258491378674" lon="-9.259058233579243"><ele>299.33333333333337</ele><time>2026-05-01T08:41:18Z</time></trkpt><trkpt lat="38.822531241078266" lon="-9.258864997375015"><ele>296.6666666666667</ele><time>2026-05-01T08:41:19Z</time></trkpt><trkpt lat="38.8224745805643" lon="-9.258672205386018"><ele>294.0</ele><time>2026-05-01T08:41:20Z</time></trkpt><trkpt lat="38.822415287007935" lon="-9.25848702284639"><ele>294.0</ele><time>2026-05-01T08:41:21Z</time></trkpt><trkpt lat="38.82235830414705" lon="-9.258293279918776"><ele>294.0</ele><time>2026-05-01T08:41:22Z</time></trkpt><trkpt lat="38.82229817655459" lon="-9.258102385001024"><ele>294.0</ele><time>2026-05-01T08:41:23Z</time></trkpt><trkpt lat="38.82224192854745" lon="-9.257908418166283"><ele>291.6666666666667</ele><time>2026-05-01T08:41:24Z</time></trkpt><trkpt lat="38.82218260907894" lon="-9.257724014132213"><ele>289.33333333333337</ele><time>2026-05-01T08:41:25Z</time></trkpt><trkpt lat="38.82212622514434" lon="-9.257533398644687"><ele>287.0</ele><time>2026-05-01T08:41:26Z</time></trkpt><trkpt lat="38.82206783168508" lon="-9.257336822476761"><ele>286.0</ele><time>2026-05-01T08:41:27Z</time></trkpt><trkpt lat="38.82200740125413" lon="-9.257139998586018"><ele>285.0</ele><time>2026-05-01T08:41:28Z</time></trkpt><trkpt lat="38.82193554043732" lon="-9.25690694106625"><ele>284.0</ele><time>2026-05-01T08:41:29Z</time></trkpt><trkpt lat="38.8218585843667" lon="-9.256656603512432"><ele>287.0</ele><time>2026-05-01T08:41:30Z</time></trkpt><trkpt lat="38.821779275797375" lon="-9.256399203025795"><ele>290.0</ele><time>2026-05-01T08:41:31Z</time></trkpt><trkpt lat="38.82169639119838" lon="-9.256116398896209"><ele>290.0</ele><time>2026-05-01T08:41:32Z</time></trkpt><trkpt lat="38.82161406137528" lon="-9.255835716366692"><ele>290.0</ele><time>2026-05-01T08:41:33Z</time></trkpt><trkpt lat="38.8215373695056" lon="-9.255586859053555"><ele>290.0</ele><time>2026-05-01T08:41:34Z</time></trkpt><trkpt lat="38.82146741806952" lon="-9.255359584575666"><ele>289.33333333333337</ele><time>2026-05-01T08:41:35Z</time></trkpt><trkpt lat="38.82140240572624" lon="-9.255152801190688"><ele>288.6666666666667</ele><time>2026-05-01T08:41:36Z</time></trkpt><trkpt lat="38.82134904925414" lon="-9.254973783811831"><ele>288.0</ele><time>2026-05-01T08:41:37Z</time></trkpt><trkpt lat="38.821298208656465" lon="-9.254812049657957"><ele>287.75</ele><time>2026-05-01T08:41:38Z</time></trkpt><trkpt lat="38.82124437133635" lon="-9.254644720386471"><ele>287.5</ele><time>2026-05-01T08:41:39Z</time></trkpt><trkpt lat="38.82119297416706" lon="-9.254469871610677"><ele>287.25</ele><time>2026-05-01T08:41:40Z</time></trkpt><trkpt lat="38.821144115685996" lon="-9.254302238891892"><ele>287.0</ele><time>2026-05-01T08:41:41Z</time></trkpt><trkpt lat="38.82109541728146" lon="-9.254139239755283"><ele>287.0</ele><time>2026-05-01T08:41:42Z</time></trkpt><trkpt lat="38.82102865748736" lon="-9.253991709024094"><ele>287.0</ele><time>2026-05-01T08:41:43Z</time></trkpt><trkpt lat="38.82096915504875" lon="-9.253853465454682"><ele>287.0</ele><time>2026-05-01T08:41:44Z</time></trkpt><trkpt lat="38.8208947307335" lon="-9.25374988537316"><ele>287.0</ele><time>2026-05-01T08:41:45Z</time></trkpt><trkpt lat="38.82079945602292" lon="-9.253675800097833"><ele>287.25</ele><time>2026-05-01T08:41:46Z</time></trkpt><trkpt lat="38.82067800986316" lon="-9.253655817623743"><ele>287.5</ele><time>2026-05-01T08:41:47Z</time></trkpt><trkpt lat="38.8205467768763" lon="-9.253607041457336"><ele>287.75</ele><time>2026-05-01T08:41:48Z</time></trkpt><trkpt lat="38.82042047291961" lon="-9.253549265568413"><ele>288.0</ele><time>2026-05-01T08:41:49Z</time></trkpt><trkpt lat="38.82030280834376" lon="-9.253509923049013"><ele>288.0</ele><time>2026-05-01T08:41:50Z</time></trkpt><trkpt lat="38.82019384162518" lon="-9.2534752001489"><ele>288.0</ele><time>2026-05-01T08:41:51Z</time></trkpt><trkpt lat="38.82009378295599" lon="-9.253427616688741"><ele>288.0</ele><time>2026-05-01T08:41:52Z</time></trkpt><trkpt lat="38.81999617224876" lon="-9.253343354997371"><ele>288.0</ele><time>2026-05-01T08:41:53Z</time></trkpt><trkpt lat="38.81991057355579" lon="-9.253216280864876"><ele>287.6</ele><time>2026-05-01T08:41:54Z</time></trkpt><trkpt lat="38.81986816463553" lon="-9.253097611939435"><ele>287.20000000000005</ele><time>2026-05-01T08:41:55Z</time></trkpt><trkpt lat="38.81983939891027" lon="-9.252970942580678"><ele>286.8</ele><time>2026-05-01T08:41:56Z</time></trkpt><trkpt lat="38.819784799356654" lon="-9.252867287205072"><ele>286.40000000000003</ele><time>2026-05-01T08:41:57Z</time></trkpt><trkpt lat="38.819709044994376" lon="-9.252771590088805"><ele>286.0</ele><time>2026-05-01T08:41:58Z</time></trkpt><trkpt lat="38.81961698713787" lon="-9.252688947955258"><ele>286.0</ele><time>2026-05-01T08:41:59Z</time></trkpt><trkpt lat="38.81950710372804" lon="-9.252629793648753"><ele>286.0</ele><time>2026-05-01T08:42:00Z</time></trkpt><trkpt lat="38.81939305569679" lon="-9.252638532192604"><ele>286.0</ele><time>2026-05-01T08:42:01Z</time></trkpt><trkpt lat="38.819304558733364" lon="-9.252690771045671"><ele>286.0</ele><time>2026-05-01T08:42:02Z</time></trkpt><trkpt lat="38.819203648580064" lon="-9.252744124558314"><ele>286.0</ele><time>2026-05-01T08:42:03Z</time></trkpt><trkpt lat="38.819098610235194" lon="-9.25280145591383"><ele>284.6</ele><time>2026-05-01T08:42:04Z</time></trkpt><trkpt lat="38.81900598496508" lon="-9.252843473198068"><ele>283.20000000000005</ele><time>2026-05-01T08:42:05Z</time></trkpt><trkpt lat="38.818917148669755" lon="-9.252898658679571"><ele>281.79999999999995</ele><time>2026-05-01T08:42:06Z</time></trkpt><trkpt lat="38.81882398275702" lon="-9.252952260855599"><ele>280.4</ele><time>2026-05-01T08:42:07Z</time></trkpt><trkpt lat="38.81872335282777" lon="-9.253005185131649"><ele>279.0</ele><time>2026-05-01T08:42:08Z</time></trkpt><trkpt lat="38.818624669391745" lon="-9.253039174399547"><ele>279.0</ele><time>2026-05-01T08:42:09Z</time></trkpt><trkpt lat="38.8185179856046" lon="-9.25305736366061"><ele>279.0</ele><time>2026-05-01T08:42:10Z</time></trkpt><trkpt lat="38.81841745973255" lon="-9.253046876990929"><ele>279.0</ele><time>2026-05-01T08:42:11Z</time></trkpt><trkpt lat="38.81831253104285" lon="-9.253034602960067"><ele>279.0</ele><time>2026-05-01T08:42:12Z</time></trkpt><trkpt lat="38.81820708177854" lon="-9.253021212527006"><ele>279.0</ele><time>2026-05-01T08:42:13Z</time></trkpt><trkpt lat="38.81810705972079" lon="-9.253009003858743"><ele>278.59999999999997</ele><time>2026-05-01T08:42:14Z</time></trkpt><trkpt lat="38.81801516121584" lon="-9.252971323840443"><ele>278.2</ele><time>2026-05-01T08:42:15Z</time></trkpt><trkpt lat="38.81793175299686" lon="-9.252909739888064"><ele>277.79999999999995</ele><time>2026-05-01T08:42:16Z</time></trkpt><trkpt lat="38.81785591397829" lon="-9.252831622911062"><ele>277.4</ele><time>2026-05-01T08:42:17Z</time></trkpt><trkpt lat="38.81777702379114" lon="-9.252781113637614"><ele>277.0</ele><time>2026-05-01T08:42:18Z</time></trkpt><trkpt lat="38.817682979169476" lon="-9.25278495957222"><ele>276.4</ele><time>2026-05-01T08:42:19Z</time></trkpt><trkpt lat="38.81760005973686" lon="-9.252849575684477"><ele>275.79999999999995</ele><time>2026-05-01T08:42:20Z</time></trkpt><trkpt lat="38.81754211937464" lon="-9.252931736512604"><ele>275.2</ele><time>2026-05-01T08:42:21.001Z</time></trkpt><trkpt lat="38.817504836711045" lon="-9.253039254555503"><ele>274.59999999999997</ele><time>2026-05-01T08:42:22.001Z</time></trkpt><trkpt lat="38.81748248542262" lon="-9.253169453432863"><ele>274.0</ele><time>2026-05-01T08:42:23.001Z</time></trkpt><trkpt lat="38.817475739722845" lon="-9.253323674622456"><ele>272.5</ele><time>2026-05-01T08:42:24.001Z</time></trkpt><trkpt lat="38.81746753260444" lon="-9.253493862111295"><ele>271.0</ele><time>2026-05-01T08:42:25.001Z</time></trkpt><trkpt lat="38.817487335938054" lon="-9.253655119575622"><ele>269.5</ele><time>2026-05-01T08:42:26.001Z</time></trkpt><trkpt lat="38.817499756732005" lon="-9.253803881364073"><ele>268.0</ele><time>2026-05-01T08:42:27.001Z</time></trkpt><trkpt lat="38.81750720769692" lon="-9.253942067268671"><ele>267.2</ele><time>2026-05-01T08:42:28.001Z</time></trkpt><trkpt lat="38.817497757038005" lon="-9.254084508340762"><ele>266.4</ele><time>2026-05-01T08:42:29.001Z</time></trkpt><trkpt lat="38.81746586685833" lon="-9.254210491453485"><ele>265.59999999999997</ele><time>2026-05-01T08:42:30.001Z</time></trkpt><trkpt lat="38.8174313247695" lon="-9.254331505394834"><ele>264.8</ele><time>2026-05-01T08:42:31.001Z</time></trkpt><trkpt lat="38.81737950315095" lon="-9.254436090021047"><ele>264.0</ele><time>2026-05-01T08:42:32.001Z</time></trkpt><trkpt lat="38.817302667528715" lon="-9.2545127357373"><ele>264.0</ele><time>2026-05-01T08:42:33.001Z</time></trkpt><trkpt lat="38.81719661889038" lon="-9.254538232931662"><ele>264.0</ele><time>2026-05-01T08:42:34.001Z</time></trkpt><trkpt lat="38.81710162610545" lon="-9.254544008108827"><ele>264.0</ele><time>2026-05-01T08:42:35.001Z</time></trkpt><trkpt lat="38.817012367484786" lon="-9.254496907213905"><ele>264.0</ele><time>2026-05-01T08:42:36.001Z</time></trkpt><trkpt lat="38.8169204622781" lon="-9.25446604090434"><ele>264.0</ele><time>2026-05-01T08:42:37.001Z</time></trkpt><trkpt lat="38.81683099595899" lon="-9.254446363546414"><ele>262.4</ele><time>2026-05-01T08:42:38.001Z</time></trkpt><trkpt lat="38.816742038065016" lon="-9.25441575783887"><ele>260.79999999999995</ele><time>2026-05-01T08:42:39.001Z</time></trkpt><trkpt lat="38.816657266241904" lon="-9.254387220556293"><ele>259.20000000000005</ele><time>2026-05-01T08:42:40.001Z</time></trkpt><trkpt lat="38.81656738151877" lon="-9.254357694859529"><ele>257.6</ele><time>2026-05-01T08:42:41.001Z</time></trkpt><trkpt lat="38.816475631508936" lon="-9.254369229605846"><ele>256.0</ele><time>2026-05-01T08:42:42.001Z</time></trkpt><trkpt lat="38.816391717190946" lon="-9.25439752838704"><ele>256.0</ele><time>2026-05-01T08:42:43.001Z</time></trkpt><trkpt lat="38.816304375115685" lon="-9.254436194158036"><ele>256.0</ele><time>2026-05-01T08:42:44.001Z</time></trkpt><trkpt lat="38.816217716714284" lon="-9.254475784287608"><ele>256.0</ele><time>2026-05-01T08:42:45.001Z</time></trkpt><trkpt lat="38.816127246659995" lon="-9.25449789979609"><ele>256.0</ele><time>2026-05-01T08:42:46Z</time></trkpt><trkpt lat="38.81604354755215" lon="-9.254549751949948"><ele>256.0</ele><time>2026-05-01T08:42:47Z</time></trkpt><trkpt lat="38.81595219531918" lon="-9.25460976139288"><ele>256.66666666666663</ele><time>2026-05-01T08:42:48Z</time></trkpt><trkpt lat="38.81585918479563" lon="-9.254652813803045"><ele>257.3333333333333</ele><time>2026-05-01T08:42:49Z</time></trkpt><trkpt lat="38.815781396117224" lon="-9.254693438750044"><ele>258.0</ele><time>2026-05-01T08:42:50Z</time></trkpt><trkpt lat="38.81570810161779" lon="-9.254735174851405"><ele>258.6666666666667</ele><time>2026-05-01T08:42:51Z</time></trkpt><trkpt lat="38.81562318926802" lon="-9.254770099717227"><ele>259.33333333333337</ele><time>2026-05-01T08:42:52Z</time></trkpt><trkpt lat="38.81553803362142" lon="-9.254798422374696"><ele>260.0</ele><time>2026-05-01T08:42:53Z</time></trkpt><trkpt lat="38.8154387072116" lon="-9.254824506076229"><ele>258.6666666666667</ele><time>2026-05-01T08:42:54Z</time></trkpt><trkpt lat="38.815355777449646" lon="-9.25483978787787"><ele>257.33333333333337</ele><time>2026-05-01T08:42:55Z</time></trkpt><trkpt lat="38.81528377678662" lon="-9.25485906000942"><ele>256.0</ele><time>2026-05-01T08:42:56Z</time></trkpt><trkpt lat="38.815211632334815" lon="-9.25487294698319"><ele>254.66666666666669</ele><time>2026-05-01T08:42:57Z</time></trkpt><trkpt lat="38.815133769216" lon="-9.254881531509364"><ele>253.33333333333334</ele><time>2026-05-01T08:42:58Z</time></trkpt><trkpt lat="38.81505117525446" lon="-9.254886016869573"><ele>252.0</ele><time>2026-05-01T08:42:59Z</time></trkpt><trkpt lat="38.81496769205522" lon="-9.254874755527261"><ele>251.5</ele><time>2026-05-01T08:43:00Z</time></trkpt><trkpt lat="38.81488122325093" lon="-9.25484272662386"><ele>251.0</ele><time>2026-05-01T08:43:01Z</time></trkpt><trkpt lat="38.81480281043472" lon="-9.254811816950523"><ele>250.5</ele><time>2026-05-01T08:43:02Z</time></trkpt><trkpt lat="38.81472394191391" lon="-9.254784163459728"><ele>250.0</ele><time>2026-05-01T08:43:03Z</time></trkpt><trkpt lat="38.814640678358764" lon="-9.254742931628925"><ele>249.5</ele><time>2026-05-01T08:43:04Z</time></trkpt><trkpt lat="38.81455886587638" lon="-9.254689167032803"><ele>249.0</ele><time>2026-05-01T08:43:05Z</time></trkpt><trkpt lat="38.81446235574119" lon="-9.254656334797797"><ele>249.6</ele><time>2026-05-01T08:43:06Z</time></trkpt><trkpt lat="38.81436241005514" lon="-9.254624310926388"><ele>250.2</ele><time>2026-05-01T08:43:07Z</time></trkpt><trkpt lat="38.81426731000868" lon="-9.254577153821481"><ele>250.79999999999998</ele><time>2026-05-01T08:43:08Z</time></trkpt><trkpt lat="38.81418024664112" lon="-9.2545061476629"><ele>251.39999999999998</ele><time>2026-05-01T08:43:09Z</time></trkpt><trkpt lat="38.8140885454327" lon="-9.254450228381023"><ele>252.0</ele><time>2026-05-01T08:43:10Z</time></trkpt><trkpt lat="38.813996264334655" lon="-9.25441767534664"><ele>252.0</ele><time>2026-05-01T08:43:11Z</time></trkpt><trkpt lat="38.81391936625812" lon="-9.254352319813776"><ele>252.0</ele><time>2026-05-01T08:43:12Z</time></trkpt><trkpt lat="38.81384537876825" lon="-9.254309514349064"><ele>252.0</ele><time>2026-05-01T08:43:13Z</time></trkpt><trkpt lat="38.81377234866499" lon="-9.254296682556362"><ele>252.0</ele><time>2026-05-01T08:43:14Z</time></trkpt><trkpt lat="38.813692300978005" lon="-9.254249463636478"><ele>252.0</ele><time>2026-05-01T08:43:15Z</time></trkpt><trkpt lat="38.813593909338785" lon="-9.254228426541227"><ele>252.0</ele><time>2026-05-01T08:43:16Z</time></trkpt><trkpt lat="38.81350430975131" lon="-9.254198278756402"><ele>250.8</ele><time>2026-05-01T08:43:17Z</time></trkpt><trkpt lat="38.813413559715116" lon="-9.25415304880104"><ele>249.6</ele><time>2026-05-01T08:43:18Z</time></trkpt><trkpt lat="38.81332020091689" lon="-9.254104836525622"><ele>248.40000000000003</ele><time>2026-05-01T08:43:19Z</time></trkpt><trkpt lat="38.813231812118374" lon="-9.254073029380853"><ele>247.20000000000002</ele><time>2026-05-01T08:43:20Z</time></trkpt><trkpt lat="38.81314146271159" lon="-9.25408732293784"><ele>246.0</ele><time>2026-05-01T08:43:21Z</time></trkpt><trkpt lat="38.81308533041198" lon="-9.254156684312495"><ele>246.0</ele><time>2026-05-01T08:43:22Z</time></trkpt><trkpt lat="38.81301915885707" lon="-9.254211023223585"><ele>246.0</ele><time>2026-05-01T08:43:23Z</time></trkpt><trkpt lat="38.812957773250204" lon="-9.254272835708926"><ele>246.0</ele><time>2026-05-01T08:43:24Z</time></trkpt><trkpt lat="38.81290626778494" lon="-9.25433370494079"><ele>246.0</ele><time>2026-05-01T08:43:25Z</time></trkpt><trkpt lat="38.812918205890405" lon="-9.254468792176608"><ele>246.0</ele><time>2026-05-01T08:43:27Z</time></trkpt><trkpt lat="38.812903053448004" lon="-9.254556314040656"><ele>246.0</ele><time>2026-05-01T08:43:28Z</time></trkpt><trkpt lat="38.8129248316889" lon="-9.254645281953154"><ele>246.00000000000003</ele><time>2026-05-01T08:43:29Z</time></trkpt><trkpt lat="38.81293345061278" lon="-9.254736957507617"><ele>246.0</ele><time>2026-05-01T08:43:30Z</time></trkpt><trkpt lat="38.812932430547306" lon="-9.254837179751428"><ele>246.00000000000003</ele><time>2026-05-01T08:43:31Z</time></trkpt><trkpt lat="38.81294791848148" lon="-9.254921705057104"><ele>246.00000000000003</ele><time>2026-05-01T08:43:32Z</time></trkpt><trkpt lat="38.8129596750301" lon="-9.255010954400497"><ele>246.0</ele><time>2026-05-01T08:43:33Z</time></trkpt><trkpt lat="38.8129727026891" lon="-9.255113787091616"><ele>246.00000000000003</ele><time>2026-05-01T08:43:34Z</time></trkpt><trkpt lat="38.812983357778855" lon="-9.255212651691988"><ele>246.00000000000003</ele><time>2026-05-01T08:43:35Z</time></trkpt><trkpt lat="38.812985712853" lon="-9.255293524206664"><ele>245.60000000000002</ele><time>2026-05-01T08:43:36Z</time></trkpt><trkpt lat="38.8129882619906" lon="-9.255440179953633"><ele>245.20000000000002</ele><time>2026-05-01T08:43:38Z</time></trkpt><trkpt lat="38.81299734174396" lon="-9.25560445409174"><ele>244.79999999999998</ele><time>2026-05-01T08:43:40Z</time></trkpt><trkpt lat="38.81304957829335" lon="-9.255692154261977"><ele>244.39999999999998</ele><time>2026-05-01T08:43:41Z</time></trkpt><trkpt lat="38.81307696678695" lon="-9.255803012218761"><ele>244.0</ele><time>2026-05-01T08:43:42Z</time></trkpt><trkpt lat="38.813018684391835" lon="-9.255943594374527"><ele>243.6</ele><time>2026-05-01T08:43:43Z</time></trkpt><trkpt lat="38.81302929792284" lon="-9.2560553925943"><ele>243.2</ele><time>2026-05-01T08:43:44Z</time></trkpt><trkpt lat="38.81304457527085" lon="-9.25618195156658"><ele>242.79999999999998</ele><time>2026-05-01T08:43:45Z</time></trkpt><trkpt lat="38.813062136758525" lon="-9.256317251730952"><ele>242.39999999999998</ele><time>2026-05-01T08:43:46Z</time></trkpt><trkpt lat="38.813082873835036" lon="-9.256425681451013"><ele>242.0</ele><time>2026-05-01T08:43:47Z</time></trkpt><trkpt lat="38.813097405092556" lon="-9.256551437062946"><ele>241.2</ele><time>2026-05-01T08:43:48Z</time></trkpt><trkpt lat="38.81311169284424" lon="-9.25668329092791"><ele>240.39999999999998</ele><time>2026-05-01T08:43:49Z</time></trkpt><trkpt lat="38.81312148878006" lon="-9.25680001077507"><ele>239.60000000000002</ele><time>2026-05-01T08:43:50Z</time></trkpt><trkpt lat="38.813139661835464" lon="-9.256921494117147"><ele>238.8</ele><time>2026-05-01T08:43:51Z</time></trkpt><trkpt lat="38.813154648239575" lon="-9.25701662993594"><ele>238.0</ele><time>2026-05-01T08:43:52Z</time></trkpt><trkpt lat="38.81316216917618" lon="-9.257127096123787"><ele>237.99999999999997</ele><time>2026-05-01T08:43:53Z</time></trkpt><trkpt lat="38.81317428866921" lon="-9.25720805871606"><ele>238.0</ele><time>2026-05-01T08:43:54Z</time></trkpt><trkpt lat="38.81319962293759" lon="-9.257369680296229"><ele>238.0</ele><time>2026-05-01T08:43:56Z</time></trkpt><trkpt lat="38.81320919408753" lon="-9.257470660931892"><ele>238.0</ele><time>2026-05-01T08:43:57Z</time></trkpt><trkpt lat="38.81322141970985" lon="-9.257567399356839"><ele>237.99999999999997</ele><time>2026-05-01T08:43:58Z</time></trkpt><trkpt lat="38.8132320743716" lon="-9.257647613682657"><ele>238.0</ele><time>2026-05-01T08:43:59Z</time></trkpt><trkpt lat="38.81315805305918" lon="-9.257793025090496"><ele>238.16666666666666</ele><time>2026-05-01T08:44:01Z</time></trkpt><trkpt lat="38.81309580164401" lon="-9.257837240931522"><ele>238.33333333333331</ele><time>2026-05-01T08:44:02Z</time></trkpt><trkpt lat="38.8130373902726" lon="-9.2578963887082"><ele>238.5</ele><time>2026-05-01T08:44:03Z</time></trkpt><trkpt lat="38.812978708862914" lon="-9.257972219804259"><ele>238.66666666666669</ele><time>2026-05-01T08:44:04Z</time></trkpt><trkpt lat="38.812931805626306" lon="-9.258057481854832"><ele>238.83333333333334</ele><time>2026-05-01T08:44:05Z</time></trkpt><trkpt lat="38.8128933025453" lon="-9.258149243683995"><ele>239.0</ele><time>2026-05-01T08:44:06Z</time></trkpt><trkpt lat="38.812865184884956" lon="-9.258253340414651"><ele>239.50000000000003</ele><time>2026-05-01T08:44:07Z</time></trkpt><trkpt lat="38.81283929742592" lon="-9.258346256141413"><ele>240.0</ele><time>2026-05-01T08:44:08Z</time></trkpt><trkpt lat="38.81283128465661" lon="-9.258428571401973"><ele>240.5</ele><time>2026-05-01T08:44:09Z</time></trkpt><trkpt lat="38.812721098039" lon="-9.258539726082175"><ele>241.0</ele><time>2026-05-01T08:44:11Z</time></trkpt><trkpt lat="38.812648861465576" lon="-9.258568774180029"><ele>241.50000000000003</ele><time>2026-05-01T08:44:12Z</time></trkpt><trkpt lat="38.812570807145846" lon="-9.258621663178072"><ele>242.0</ele><time>2026-05-01T08:44:13Z</time></trkpt><trkpt lat="38.8125061905894" lon="-9.25865439106102"><ele>242.66666666666669</ele><time>2026-05-01T08:44:14Z</time></trkpt><trkpt lat="38.812476719566554" lon="-9.258766361938227"><ele>243.33333333333334</ele><time>2026-05-01T08:44:16Z</time></trkpt><trkpt lat="38.812395531272585" lon="-9.258829792232307"><ele>244.0</ele><time>2026-05-01T08:45:41Z</time></trkpt><trkpt lat="38.81233714949645" lon="-9.258875759168387"><ele>244.66666666666669</ele><time>2026-05-01T08:46:09Z</time></trkpt><trkpt lat="38.81227698159814" lon="-9.258930787888318"><ele>245.33333333333334</ele><time>2026-05-01T08:46:11Z</time></trkpt><trkpt lat="38.812220635416196" lon="-9.25904637454011"><ele>246.0</ele><time>2026-05-01T08:46:13Z</time></trkpt><trkpt lat="38.81218648822383" lon="-9.259133587124534"><ele>246.16666666666666</ele><time>2026-05-01T08:46:14Z</time></trkpt><trkpt lat="38.812137376749845" lon="-9.259206835500395"><ele>246.33333333333331</ele><time>2026-05-01T08:46:15Z</time></trkpt><trkpt lat="38.81209012710846" lon="-9.25927327150137"><ele>246.5</ele><time>2026-05-01T08:46:16Z</time></trkpt><trkpt lat="38.81202255277995" lon="-9.259329459567189"><ele>246.66666666666666</ele><time>2026-05-01T08:46:17Z</time></trkpt><trkpt lat="38.8119701834689" lon="-9.259395339931698"><ele>246.83333333333331</ele><time>2026-05-01T08:46:18Z</time></trkpt><trkpt lat="38.811948404973954" lon="-9.259475632489062"><ele>247.0</ele><time>2026-05-01T08:46:19Z</time></trkpt><trkpt lat="38.81192724422147" lon="-9.259589696241779"><ele>246.99999999999997</ele><time>2026-05-01T08:46:21Z</time></trkpt><trkpt lat="38.81185866511872" lon="-9.259595409436253"><ele>247.0</ele><time>2026-05-01T08:46:23Z</time></trkpt><trkpt lat="38.81174487144622" lon="-9.259612961046264"><ele>247.0</ele><time>2026-05-01T08:46:25Z</time></trkpt><trkpt lat="38.81172363173032" lon="-9.259693749297194"><ele>247.0</ele><time>2026-05-01T08:46:26Z</time></trkpt><trkpt lat="38.81173350877111" lon="-9.259799829334339"><ele>246.99999999999997</ele><time>2026-05-01T08:46:27Z</time></trkpt><trkpt lat="38.81175251892346" lon="-9.25992702835554"><ele>247.0</ele><time>2026-05-01T08:46:28Z</time></trkpt><trkpt lat="38.8117543666155" lon="-9.260043011193469"><ele>246.8</ele><time>2026-05-01T08:46:29Z</time></trkpt><trkpt lat="38.81174451019848" lon="-9.260139709850733"><ele>246.6</ele><time>2026-05-01T08:46:30Z</time></trkpt><trkpt lat="38.8117125961626" lon="-9.260236707338265"><ele>246.40000000000003</ele><time>2026-05-01T08:46:31Z</time></trkpt><trkpt lat="38.81166081828942" lon="-9.260347681841859"><ele>246.20000000000002</ele><time>2026-05-01T08:46:32Z</time></trkpt><trkpt lat="38.81162269740209" lon="-9.260468770015144"><ele>246.0</ele><time>2026-05-01T08:46:33.001Z</time></trkpt><trkpt lat="38.81158362938284" lon="-9.260588771245333"><ele>245.0</ele><time>2026-05-01T08:46:34.001Z</time></trkpt><trkpt lat="38.811544652091634" lon="-9.260698506505946"><ele>244.00000000000003</ele><time>2026-05-01T08:46:35.001Z</time></trkpt><trkpt lat="38.81149540470578" lon="-9.260794018501246"><ele>243.00000000000003</ele><time>2026-05-01T08:46:36.001Z</time></trkpt><trkpt lat="38.811447806740595" lon="-9.260905467514505"><ele>242.0</ele><time>2026-05-01T08:46:37.001Z</time></trkpt><trkpt lat="38.81141003694029" lon="-9.261016631935991"><ele>241.0</ele><time>2026-05-01T08:46:38.001Z</time></trkpt><trkpt lat="38.81136867851607" lon="-9.261132551788535"><ele>240.99999999999997</ele><time>2026-05-01T08:46:39.001Z</time></trkpt><trkpt lat="38.81132997405119" lon="-9.261235371641153"><ele>241.0</ele><time>2026-05-01T08:46:40.001Z</time></trkpt><trkpt lat="38.811293619994096" lon="-9.2613211806869"><ele>241.0</ele><time>2026-05-01T08:46:41.001Z</time></trkpt><trkpt lat="38.811259296058665" lon="-9.26139253189384"><ele>241.0</ele><time>2026-05-01T08:46:42.001Z</time></trkpt><trkpt lat="38.81126961175656" lon="-9.261476848752672"><ele>240.99999999999997</ele><time>2026-05-01T08:46:43.001Z</time></trkpt><trkpt lat="38.811307242061154" lon="-9.261608934314262"><ele>241.0</ele><time>2026-05-01T08:46:44.001Z</time></trkpt><trkpt lat="38.81133547119748" lon="-9.261768364808672"><ele>239.60000000000002</ele><time>2026-05-01T08:46:45.001Z</time></trkpt><trkpt lat="38.81137753303918" lon="-9.26190999282283"><ele>238.20000000000002</ele><time>2026-05-01T08:46:46Z</time></trkpt><trkpt lat="38.81141970505589" lon="-9.262019169206472"><ele>236.79999999999998</ele><time>2026-05-01T08:46:47Z</time></trkpt><trkpt lat="38.81147951564872" lon="-9.262130596222319"><ele>235.39999999999998</ele><time>2026-05-01T08:46:48Z</time></trkpt><trkpt lat="38.81154965385515" lon="-9.262218960005292"><ele>234.0</ele><time>2026-05-01T08:46:49Z</time></trkpt><trkpt lat="38.81159905459684" lon="-9.26231138719783"><ele>234.0</ele><time>2026-05-01T08:46:50Z</time></trkpt><trkpt lat="38.8116391101374" lon="-9.262429869187178"><ele>233.99999999999997</ele><time>2026-05-01T08:46:51Z</time></trkpt><trkpt lat="38.81164591540573" lon="-9.26255646172272"><ele>233.99999999999997</ele><time>2026-05-01T08:46:52Z</time></trkpt><trkpt lat="38.81164464448603" lon="-9.262675265292238"><ele>234.0</ele><time>2026-05-01T08:46:53Z</time></trkpt><trkpt lat="38.8116215056441" lon="-9.262787636117213"><ele>234.0</ele><time>2026-05-01T08:46:54Z</time></trkpt><trkpt lat="38.81157180439979" lon="-9.262892204311985"><ele>234.0</ele><time>2026-05-01T08:46:55Z</time></trkpt><trkpt lat="38.81151327552835" lon="-9.263022689116594"><ele>234.0</ele><time>2026-05-01T08:46:56Z</time></trkpt><trkpt lat="38.81147500786168" lon="-9.26312665165584"><ele>234.0</ele><time>2026-05-01T08:46:57Z</time></trkpt><trkpt lat="38.81145557446654" lon="-9.26320486088333"><ele>234.0</ele><time>2026-05-01T08:46:58Z</time></trkpt><trkpt lat="38.811402899021864" lon="-9.263280038712093"><ele>234.0</ele><time>2026-05-01T08:46:59Z</time></trkpt><trkpt lat="38.811360319170554" lon="-9.263348163966729"><ele>234.0</ele><time>2026-05-01T08:47:00Z</time></trkpt><trkpt lat="38.81128216652248" lon="-9.263472246334166"><ele>234.0</ele><time>2026-05-01T08:47:02Z</time></trkpt><trkpt lat="38.81124971636847" lon="-9.263542253618887"><ele>234.00000000000003</ele><time>2026-05-01T08:47:03Z</time></trkpt><trkpt lat="38.8112187265338" lon="-9.263633507138444"><ele>234.0</ele><time>2026-05-01T08:47:04Z</time></trkpt><trkpt lat="38.81121315838834" lon="-9.263719116876965"><ele>234.0</ele><time>2026-05-01T08:47:05Z</time></trkpt><trkpt lat="38.811200635297006" lon="-9.263835748319494"><ele>234.00000000000003</ele><time>2026-05-01T08:47:07Z</time></trkpt><trkpt lat="38.81119339407407" lon="-9.263923451690474"><ele>234.0</ele><time>2026-05-01T08:47:08Z</time></trkpt><trkpt lat="38.81117163594219" lon="-9.264005131816882"><ele>234.0</ele><time>2026-05-01T08:47:09Z</time></trkpt><trkpt lat="38.811124651708944" lon="-9.264125538050912"><ele>233.33333333333334</ele><time>2026-05-01T08:47:11Z</time></trkpt><trkpt lat="38.81110625887597" lon="-9.264250180262513"><ele>232.66666666666669</ele><time>2026-05-01T08:47:13Z</time></trkpt><trkpt lat="38.8110989158486" lon="-9.264334385083169"><ele>232.0</ele><time>2026-05-01T08:49:29Z</time></trkpt><trkpt lat="38.81116482132428" lon="-9.264381977120182"><ele>231.33333333333334</ele><time>2026-05-01T08:49:57Z</time></trkpt><trkpt lat="38.81123491166139" lon="-9.26445870287274"><ele>230.66666666666669</ele><time>2026-05-01T08:50:01Z</time></trkpt><trkpt lat="38.81129261265791" lon="-9.264521002349527"><ele>230.0</ele><time>2026-05-01T08:50:03Z</time></trkpt><trkpt lat="38.81134309570615" lon="-9.264605696113463"><ele>230.0</ele><time>2026-05-01T08:50:05Z</time></trkpt><trkpt lat="38.81139038296296" lon="-9.264667607113887"><ele>230.0</ele><time>2026-05-01T08:50:07Z</time></trkpt><trkpt lat="38.81145597482353" lon="-9.264758897458938"><ele>230.0</ele><time>2026-05-01T08:50:10Z</time></trkpt><trkpt lat="38.811527242181185" lon="-9.26485394952456"><ele>230.0</ele><time>2026-05-01T08:50:12Z</time></trkpt><trkpt lat="38.811603995343944" lon="-9.264979104982638"><ele>230.0</ele><time>2026-05-01T08:50:14Z</time></trkpt><trkpt lat="38.81166070291689" lon="-9.265048706426448"><ele>229.66666666666669</ele><time>2026-05-01T08:50:15Z</time></trkpt><trkpt lat="38.81172336659866" lon="-9.265121602710042"><ele>229.33333333333334</ele><time>2026-05-01T08:50:16Z</time></trkpt><trkpt lat="38.811787704614" lon="-9.265182975942068"><ele>229.0</ele><time>2026-05-01T08:50:17Z</time></trkpt><trkpt lat="38.81186127487504" lon="-9.26524891984259"><ele>228.66666666666669</ele><time>2026-05-01T08:50:18Z</time></trkpt><trkpt lat="38.81192601637115" lon="-9.265297966915512"><ele>228.33333333333334</ele><time>2026-05-01T08:50:19Z</time></trkpt><trkpt lat="38.811992879029106" lon="-9.265398754843352"><ele>228.0</ele><time>2026-05-01T08:50:21Z</time></trkpt><trkpt lat="38.81203549458198" lon="-9.26549050237092"><ele>228.0</ele><time>2026-05-01T08:50:31Z</time></trkpt><trkpt lat="38.81197430496911" lon="-9.265545568203594"><ele>228.0</ele><time>2026-05-01T08:50:45Z</time></trkpt><trkpt lat="38.81188134031974" lon="-9.265549167682789"><ele>228.0</ele><time>2026-05-01T08:50:48Z</time></trkpt><trkpt lat="38.81180629976083" lon="-9.265574878415197"><ele>228.0</ele><time>2026-05-01T08:50:51Z</time></trkpt><trkpt lat="38.81173884329887" lon="-9.26561020349125"><ele>228.0</ele><time>2026-05-01T08:50:53Z</time></trkpt><trkpt lat="38.81168134036802" lon="-9.26566784589492"><ele>228.0</ele><time>2026-05-01T08:50:55Z</time></trkpt><trkpt lat="38.811596988312566" lon="-9.26568688345683"><ele>228.83333333333334</ele><time>2026-05-01T08:50:57Z</time></trkpt><trkpt lat="38.81153168870328" lon="-9.265714175602486"><ele>229.66666666666669</ele><time>2026-05-01T08:50:59Z</time></trkpt><trkpt lat="38.811454352852444" lon="-9.265779441754987"><ele>230.5</ele><time>2026-05-01T08:51:01Z</time></trkpt><trkpt lat="38.811393864416154" lon="-9.265833296175805"><ele>231.33333333333334</ele><time>2026-05-01T08:51:03Z</time></trkpt><trkpt lat="38.811454309272854" lon="-9.265796356217857"><ele>232.16666666666669</ele><time>2026-05-01T08:51:26Z</time></trkpt><trkpt lat="38.81151372218362" lon="-9.265732814378046"><ele>233.0</ele><time>2026-05-01T08:51:28Z</time></trkpt><trkpt lat="38.811580828808204" lon="-9.265697185120061"><ele>233.0</ele><time>2026-05-01T08:51:31Z</time></trkpt><trkpt lat="38.81164298672897" lon="-9.265673464761427"><ele>233.0</ele><time>2026-05-01T08:51:34Z</time></trkpt><trkpt lat="38.81157260657592" lon="-9.265699886584848"><ele>233.0</ele><time>2026-05-01T08:51:42Z</time></trkpt><trkpt lat="38.811511677801" lon="-9.26572569421168"><ele>233.0</ele><time>2026-05-01T08:51:46Z</time></trkpt><trkpt lat="38.811454373269775" lon="-9.265780107675132"><ele>233.0</ele><time>2026-05-01T08:51:50Z</time></trkpt><trkpt lat="38.811396185537824" lon="-9.265819920655385"><ele>233.0</ele><time>2026-05-01T08:51:54Z</time></trkpt><trkpt lat="38.81132274575519" lon="-9.26575693808086"><ele>233.0</ele><time>2026-05-01T08:58:43Z</time></trkpt><trkpt lat="38.81127011585752" lon="-9.265677784533754"><ele>232.00000000000003</ele><time>2026-05-01T08:58:46Z</time></trkpt><trkpt lat="38.811222754833025" lon="-9.265605979549475"><ele>231.0</ele><time>2026-05-01T08:58:49Z</time></trkpt><trkpt lat="38.811177407013034" lon="-9.265522875249495"><ele>230.0</ele><time>2026-05-01T08:58:53Z</time></trkpt><trkpt lat="38.81114594567772" lon="-9.265409823603449"><ele>229.0</ele><time>2026-05-01T09:00:09Z</time></trkpt><trkpt lat="38.81109313146638" lon="-9.265338740813148"><ele>228.00000000000003</ele><time>2026-05-01T09:00:11Z</time></trkpt><trkpt lat="38.81103751312788" lon="-9.265275308018426"><ele>227.0</ele><time>2026-05-01T09:00:13Z</time></trkpt><trkpt lat="38.810982839144174" lon="-9.265234932011527"><ele>227.00000000000003</ele><time>2026-05-01T09:00:14Z</time></trkpt><trkpt lat="38.810904429725355" lon="-9.265182566119522"><ele>227.0</ele><time>2026-05-01T09:00:16Z</time></trkpt><trkpt lat="38.81083707159931" lon="-9.265197737908386"><ele>227.0</ele><time>2026-05-01T09:00:18Z</time></trkpt><trkpt lat="38.810910414719025" lon="-9.265190487841847"><ele>227.0</ele><time>2026-05-01T09:00:21Z</time></trkpt><trkpt lat="38.81099875232512" lon="-9.265271949044275"><ele>227.00000000000003</ele><time>2026-05-01T09:00:23Z</time></trkpt><trkpt lat="38.81106984225094" lon="-9.265325814285442"><ele>227.0</ele><time>2026-05-01T09:00:25Z</time></trkpt><trkpt lat="38.81113585555153" lon="-9.265429785393907"><ele>227.00000000000003</ele><time>2026-05-01T09:00:27Z</time></trkpt><trkpt lat="38.81119055929004" lon="-9.26549768860575"><ele>227.0</ele><time>2026-05-01T09:00:29Z</time></trkpt><trkpt lat="38.811224291661794" lon="-9.265575854113445"><ele>227.0</ele><time>2026-05-01T09:00:54Z</time></trkpt><trkpt lat="38.81127047364266" lon="-9.26565509034726"><ele>227.0</ele><time>2026-05-01T09:00:56Z</time></trkpt><trkpt lat="38.81134228476556" lon="-9.26576265318576"><ele>227.00000000000003</ele><time>2026-05-01T09:00:58Z</time></trkpt><trkpt lat="38.8113877259959" lon="-9.265831084958407"><ele>227.0</ele><time>2026-05-01T09:00:59Z</time></trkpt><trkpt lat="38.81129900344396" lon="-9.266029938446499"><ele>228.00000000000003</ele><time>2026-05-01T09:01:00Z</time></trkpt><trkpt lat="38.811342129591715" lon="-9.266106836294446"><ele>229.0</ele><time>2026-05-01T09:01:01Z</time></trkpt><trkpt lat="38.811388350567334" lon="-9.266192618940837"><ele>230.0</ele><time>2026-05-01T09:01:02Z</time></trkpt><trkpt lat="38.811430715267" lon="-9.266269798093054"><ele>231.0</ele><time>2026-05-01T09:01:03Z</time></trkpt><trkpt lat="38.81147690118439" lon="-9.266363747312493"><ele>232.00000000000003</ele><time>2026-05-01T09:01:04Z</time></trkpt><trkpt lat="38.81151459418415" lon="-9.26644070955127"><ele>233.0</ele><time>2026-05-01T09:01:05Z</time></trkpt><trkpt lat="38.81156375319585" lon="-9.266567228797085"><ele>234.2</ele><time>2026-05-01T09:01:07Z</time></trkpt><trkpt lat="38.81158354693172" lon="-9.266651894184275"><ele>235.4</ele><time>2026-05-01T09:01:09Z</time></trkpt><trkpt lat="38.81167456775831" lon="-9.266728076727267"><ele>236.59999999999997</ele><time>2026-05-01T09:01:28Z</time></trkpt><trkpt lat="38.81161795891863" lon="-9.2669052084176"><ele>237.79999999999998</ele><time>2026-05-01T09:01:30Z</time></trkpt><trkpt lat="38.81162892670106" lon="-9.267019942159203"><ele>239.0</ele><time>2026-05-01T09:01:31Z</time></trkpt><trkpt lat="38.81163972364504" lon="-9.26715098374223"><ele>241.5</ele><time>2026-05-01T09:01:32Z</time></trkpt><trkpt lat="38.81165457543655" lon="-9.267301267520034"><ele>244.0</ele><time>2026-05-01T09:01:33Z</time></trkpt><trkpt lat="38.811672244991286" lon="-9.267449380057812"><ele>246.5</ele><time>2026-05-01T09:01:34Z</time></trkpt><trkpt lat="38.81169216193556" lon="-9.267600177003212"><ele>249.0</ele><time>2026-05-01T09:01:35Z</time></trkpt><trkpt lat="38.81171725461697" lon="-9.267758327469979"><ele>249.0</ele><time>2026-05-01T09:01:36Z</time></trkpt><trkpt lat="38.81174719382724" lon="-9.267914766007156"><ele>249.0</ele><time>2026-05-01T09:01:37Z</time></trkpt><trkpt lat="38.81178080949715" lon="-9.268072987458407"><ele>249.0</ele><time>2026-05-01T09:01:38Z</time></trkpt><trkpt lat="38.81181368902558" lon="-9.268217292119466"><ele>249.0</ele><time>2026-05-01T09:01:39Z</time></trkpt><trkpt lat="38.81184604509679" lon="-9.26835686290825"><ele>249.39999999999998</ele><time>2026-05-01T09:01:40Z</time></trkpt><trkpt lat="38.81187773836116" lon="-9.268493827832346"><ele>249.79999999999998</ele><time>2026-05-01T09:01:41Z</time></trkpt><trkpt lat="38.81189868921471" lon="-9.268624713401781"><ele>250.20000000000002</ele><time>2026-05-01T09:01:42Z</time></trkpt><trkpt lat="38.8119073369337" lon="-9.268736205591482"><ele>250.60000000000002</ele><time>2026-05-01T09:01:43Z</time></trkpt><trkpt lat="38.811913887115935" lon="-9.268849080669831"><ele>251.0</ele><time>2026-05-01T09:01:44Z</time></trkpt><trkpt lat="38.81191803773237" lon="-9.268962682561106"><ele>251.83333333333334</ele><time>2026-05-01T09:01:45Z</time></trkpt><trkpt lat="38.811922409286105" lon="-9.269082647420023"><ele>252.66666666666669</ele><time>2026-05-01T09:01:46Z</time></trkpt><trkpt lat="38.81192673082931" lon="-9.269201756210746"><ele>253.5</ele><time>2026-05-01T09:01:47Z</time></trkpt><trkpt lat="38.811930523756416" lon="-9.269315822847837"><ele>254.33333333333331</ele><time>2026-05-01T09:01:48Z</time></trkpt><trkpt lat="38.811934013879295" lon="-9.26942556613881"><ele>255.16666666666666</ele><time>2026-05-01T09:01:49Z</time></trkpt><trkpt lat="38.81193721870944" lon="-9.269526338733703"><ele>256.0</ele><time>2026-05-01T09:01:50Z</time></trkpt><trkpt lat="38.8119400384687" lon="-9.269615003124194"><ele>255.99999999999997</ele><time>2026-05-01T09:01:51Z</time></trkpt><trkpt lat="38.81194265155005" lon="-9.269697168809456"><ele>256.0</ele><time>2026-05-01T09:01:52Z</time></trkpt><trkpt lat="38.81194543801737" lon="-9.269784786388081"><ele>256.0</ele><time>2026-05-01T09:01:54Z</time></trkpt><trkpt lat="38.81186099726845" lon="-9.26974979160861"><ele>256.0</ele><time>2026-05-01T09:02:01Z</time></trkpt><trkpt lat="38.81178342046496" lon="-9.269714049686232"><ele>255.99999999999997</ele><time>2026-05-01T09:02:05Z</time></trkpt><trkpt lat="38.8117147728934" lon="-9.26963292551067"><ele>256.0</ele><time>2026-05-01T09:02:07Z</time></trkpt><trkpt lat="38.81172791985045" lon="-9.269501145488235"><ele>256.66666666666663</ele><time>2026-05-01T09:02:09Z</time></trkpt><trkpt lat="38.81172076218552" lon="-9.26941308750486"><ele>257.3333333333333</ele><time>2026-05-01T09:02:10Z</time></trkpt><trkpt lat="38.81169687204103" lon="-9.269330965916602"><ele>258.0</ele><time>2026-05-01T09:02:11Z</time></trkpt><trkpt lat="38.81181108745302" lon="-9.269232935609276"><ele>258.6666666666667</ele><time>2026-05-01T09:02:12Z</time></trkpt><trkpt lat="38.81180788309475" lon="-9.269144618363782"><ele>259.33333333333337</ele><time>2026-05-01T09:02:13Z</time></trkpt><trkpt lat="38.81180362061286" lon="-9.269027255917202"><ele>260.0</ele><time>2026-05-01T09:02:14Z</time></trkpt><trkpt lat="38.81179891005301" lon="-9.268898328699398"><ele>260.0</ele><time>2026-05-01T09:02:15Z</time></trkpt><trkpt lat="38.81179227315647" lon="-9.268768074116213"><ele>260.0</ele><time>2026-05-01T09:02:16Z</time></trkpt><trkpt lat="38.811783323596586" lon="-9.26864900857865"><ele>260.0</ele><time>2026-05-01T09:02:17Z</time></trkpt><trkpt lat="38.81176395994295" lon="-9.268526850214085"><ele>260.0</ele><time>2026-05-01T09:02:18Z</time></trkpt><trkpt lat="38.81174046568179" lon="-9.268425787502617"><ele>260.0</ele><time>2026-05-01T09:02:19Z</time></trkpt><trkpt lat="38.81172207862648" lon="-9.26834781660595"><ele>260.0</ele><time>2026-05-01T09:02:20Z</time></trkpt><trkpt lat="38.81170391129659" lon="-9.26826872022876"><ele>260.0</ele><time>2026-05-01T09:02:21Z</time></trkpt><trkpt lat="38.811668560228455" lon="-9.268113568406799"><ele>260.0</ele><time>2026-05-01T09:02:23Z</time></trkpt><trkpt lat="38.81163434434242" lon="-9.267952519130757"><ele>260.0</ele><time>2026-05-01T09:02:25Z</time></trkpt><trkpt lat="38.811617547355794" lon="-9.267870003332364"><ele>260.0</ele><time>2026-05-01T09:02:26Z</time></trkpt><trkpt lat="38.81160251376156" lon="-9.267785815309884"><ele>260.0</ele><time>2026-05-01T09:02:27Z</time></trkpt><trkpt lat="38.8115873063721" lon="-9.267694626073006"><ele>258.1666666666667</ele><time>2026-05-01T09:02:28Z</time></trkpt><trkpt lat="38.811573337818984" lon="-9.267599127979489"><ele>256.33333333333337</ele><time>2026-05-01T09:02:29Z</time></trkpt><trkpt lat="38.81156069504272" lon="-9.267503428896086"><ele>254.5</ele><time>2026-05-01T09:02:30Z</time></trkpt><trkpt lat="38.81155055754886" lon="-9.267418452911215"><ele>252.66666666666669</ele><time>2026-05-01T09:02:31Z</time></trkpt><trkpt lat="38.811540796266584" lon="-9.267336630468554"><ele>250.83333333333334</ele><time>2026-05-01T09:02:32Z</time></trkpt><trkpt lat="38.81152718963276" lon="-9.267205038958519"><ele>249.0</ele><time>2026-05-01T09:02:34Z</time></trkpt><trkpt lat="38.811518683047225" lon="-9.267105519921138"><ele>249.0</ele><time>2026-05-01T09:02:37Z</time></trkpt><trkpt lat="38.81119308238369" lon="-9.267299957814684"><ele>249.0</ele><time>2026-05-01T09:02:40Z</time></trkpt><trkpt lat="38.811105658849186" lon="-9.267395240905287"><ele>249.0</ele><time>2026-05-01T09:02:42Z</time></trkpt><trkpt lat="38.811027391890626" lon="-9.267425530200773"><ele>249.0</ele><time>2026-05-01T09:02:44Z</time></trkpt><trkpt lat="38.81096439341582" lon="-9.267381203053912"><ele>249.0</ele><time>2026-05-01T09:02:46Z</time></trkpt><trkpt lat="38.81088213283653" lon="-9.267376337612268"><ele>249.0</ele><time>2026-05-01T09:02:48Z</time></trkpt><trkpt lat="38.81085829676886" lon="-9.267472110090168"><ele>249.0</ele><time>2026-05-01T09:02:50Z</time></trkpt><trkpt lat="38.81093889390071" lon="-9.267516091270483"><ele>249.0</ele><time>2026-05-01T09:03:02Z</time></trkpt><trkpt lat="38.81101266798253" lon="-9.267469181015876"><ele>249.0</ele><time>2026-05-01T09:03:15Z</time></trkpt><trkpt lat="38.81106242943082" lon="-9.267593246077306"><ele>249.0</ele><time>2026-05-01T09:03:17Z</time></trkpt><trkpt lat="38.811070281005456" lon="-9.267691122948499"><ele>249.0</ele><time>2026-05-01T09:03:18Z</time></trkpt><trkpt lat="38.81109519387826" lon="-9.267797939905295"><ele>249.0</ele><time>2026-05-01T09:03:19Z</time></trkpt><trkpt lat="38.811133085696056" lon="-9.267889842478114"><ele>249.0</ele><time>2026-05-01T09:03:20Z</time></trkpt><trkpt lat="38.81115614968124" lon="-9.26799368938225"><ele>249.0</ele><time>2026-05-01T09:03:21Z</time></trkpt><trkpt lat="38.81117274767968" lon="-9.26811320220647"><ele>251.2</ele><time>2026-05-01T09:03:22Z</time></trkpt><trkpt lat="38.81119192503205" lon="-9.268229783543827"><ele>253.39999999999998</ele><time>2026-05-01T09:03:23Z</time></trkpt><trkpt lat="38.811203332163444" lon="-9.268345632830027"><ele>255.6</ele><time>2026-05-01T09:03:24Z</time></trkpt><trkpt lat="38.81121071282484" lon="-9.268468359685619"><ele>257.8</ele><time>2026-05-01T09:03:25Z</time></trkpt><trkpt lat="38.81119915171722" lon="-9.268604843180475"><ele>260.0</ele><time>2026-05-01T09:03:26Z</time></trkpt><trkpt lat="38.81117331656395" lon="-9.26875015940356"><ele>260.0</ele><time>2026-05-01T09:03:27Z</time></trkpt><trkpt lat="38.81114745766412" lon="-9.268895041858565"><ele>260.0</ele><time>2026-05-01T09:03:28Z</time></trkpt><trkpt lat="38.811100539258426" lon="-9.269028924359532"><ele>260.0</ele><time>2026-05-01T09:03:29Z</time></trkpt><trkpt lat="38.811038634660264" lon="-9.269161148332065"><ele>260.0</ele><time>2026-05-01T09:03:30Z</time></trkpt><trkpt lat="38.81098324128121" lon="-9.26927198023306"><ele>260.6</ele><time>2026-05-01T09:03:31Z</time></trkpt><trkpt lat="38.81095898069429" lon="-9.269373186393736"><ele>261.2</ele><time>2026-05-01T09:03:32Z</time></trkpt><trkpt lat="38.81096678192458" lon="-9.269492049409113"><ele>261.8</ele><time>2026-05-01T09:03:33Z</time></trkpt><trkpt lat="38.810990319505116" lon="-9.269626403308092"><ele>262.4</ele><time>2026-05-01T09:03:34Z</time></trkpt><trkpt lat="38.81103865977685" lon="-9.26975724121156"><ele>263.0</ele><time>2026-05-01T09:03:35Z</time></trkpt><trkpt lat="38.81109764359156" lon="-9.269881661192997"><ele>263.0</ele><time>2026-05-01T09:03:36Z</time></trkpt><trkpt lat="38.811146587855426" lon="-9.270002769323543"><ele>263.0</ele><time>2026-05-01T09:03:37Z</time></trkpt><trkpt lat="38.8111953101199" lon="-9.270120938393667"><ele>263.0</ele><time>2026-05-01T09:03:38Z</time></trkpt><trkpt lat="38.811238773730075" lon="-9.270234156417507"><ele>263.0</ele><time>2026-05-01T09:03:39Z</time></trkpt><trkpt lat="38.811267223590995" lon="-9.270348430929307"><ele>263.0</ele><time>2026-05-01T09:03:40Z</time></trkpt><trkpt lat="38.81128559557666" lon="-9.270454355340652"><ele>263.0</ele><time>2026-05-01T09:03:41Z</time></trkpt><trkpt lat="38.81130015653721" lon="-9.270554913570562"><ele>263.0</ele><time>2026-05-01T09:03:42Z</time></trkpt><trkpt lat="38.811299160687" lon="-9.270648372057517"><ele>263.0</ele><time>2026-05-01T09:03:43Z</time></trkpt><trkpt lat="38.8113045863288" lon="-9.270831067115168"><ele>263.0</ele><time>2026-05-01T09:03:45Z</time></trkpt><trkpt lat="38.81131094670817" lon="-9.270942134549058"><ele>263.0</ele><time>2026-05-01T09:03:46Z</time></trkpt><trkpt lat="38.811310719187986" lon="-9.271050713447032"><ele>263.1666666666667</ele><time>2026-05-01T09:03:47Z</time></trkpt><trkpt lat="38.81132319015146" lon="-9.271163087222385"><ele>263.33333333333337</ele><time>2026-05-01T09:03:48Z</time></trkpt><trkpt lat="38.811344207557696" lon="-9.271258867105635"><ele>263.5</ele><time>2026-05-01T09:03:49Z</time></trkpt><trkpt lat="38.811345488247184" lon="-9.271350389563313"><ele>263.6666666666667</ele><time>2026-05-01T09:03:50Z</time></trkpt><trkpt lat="38.81135556501612" lon="-9.271441479195785"><ele>263.8333333333333</ele><time>2026-05-01T09:03:51Z</time></trkpt><trkpt lat="38.81138701626994" lon="-9.271535529369416"><ele>264.0</ele><time>2026-05-01T09:03:52Z</time></trkpt><trkpt lat="38.81142960685138" lon="-9.271645945386126"><ele>264.6666666666667</ele><time>2026-05-01T09:03:53Z</time></trkpt><trkpt lat="38.8114856944699" lon="-9.271753044156473"><ele>265.3333333333333</ele><time>2026-05-01T09:03:54Z</time></trkpt><trkpt lat="38.81155172971575" lon="-9.271837305880087"><ele>266.0</ele><time>2026-05-01T09:03:55Z</time></trkpt><trkpt lat="38.811620869387006" lon="-9.271899344559683"><ele>266.66666666666663</ele><time>2026-05-01T09:03:56Z</time></trkpt><trkpt lat="38.811675557560505" lon="-9.271939970064285"><ele>267.3333333333333</ele><time>2026-05-01T09:03:57Z</time></trkpt><trkpt lat="38.811761327957385" lon="-9.27199827795903"><ele>268.0</ele><time>2026-05-01T09:03:59Z</time></trkpt><trkpt lat="38.8118872375997" lon="-9.272055942365506"><ele>268.0</ele><time>2026-05-01T09:04:01Z</time></trkpt><trkpt lat="38.811967132725684" lon="-9.272071453970682"><ele>268.0</ele><time>2026-05-01T09:04:02Z</time></trkpt><trkpt lat="38.81204753111548" lon="-9.272094221959149"><ele>268.0</ele><time>2026-05-01T09:04:03Z</time></trkpt><trkpt lat="38.81211897192359" lon="-9.272119206799104"><ele>268.0</ele><time>2026-05-01T09:04:04Z</time></trkpt><trkpt lat="38.812188634975875" lon="-9.27215567746968"><ele>268.0</ele><time>2026-05-01T09:04:05Z</time></trkpt><trkpt lat="38.812265957876704" lon="-9.272184844244439"><ele>268.0</ele><time>2026-05-01T09:04:06Z</time></trkpt><trkpt lat="38.81233873104356" lon="-9.272217874129957"><ele>268.0</ele><time>2026-05-01T09:04:07Z</time></trkpt><trkpt lat="38.81240569178262" lon="-9.272243535134319"><ele>268.0</ele><time>2026-05-01T09:04:08Z</time></trkpt><trkpt lat="38.812472018704895" lon="-9.27226659380132"><ele>268.0</ele><time>2026-05-01T09:04:09Z</time></trkpt><trkpt lat="38.812543968252534" lon="-9.272290981610297"><ele>268.0</ele><time>2026-05-01T09:04:10Z</time></trkpt><trkpt lat="38.8126285627774" lon="-9.272330729674513"><ele>268.0</ele><time>2026-05-01T09:04:11Z</time></trkpt><trkpt lat="38.81271453843932" lon="-9.272369706203573"><ele>268.0</ele><time>2026-05-01T09:04:12Z</time></trkpt><trkpt lat="38.812812501128995" lon="-9.272414335389325"><ele>269.2</ele><time>2026-05-01T09:04:13Z</time></trkpt><trkpt lat="38.8129140747325" lon="-9.27246093980687"><ele>270.4</ele><time>2026-05-01T09:04:14Z</time></trkpt><trkpt lat="38.813017033385094" lon="-9.272505258039637"><ele>271.59999999999997</ele><time>2026-05-01T09:04:15Z</time></trkpt><trkpt lat="38.81311933776135" lon="-9.272547178709218"><ele>272.8</ele><time>2026-05-01T09:04:16Z</time></trkpt><trkpt lat="38.813216174449884" lon="-9.272583000125918"><ele>274.0</ele><time>2026-05-01T09:04:17Z</time></trkpt><trkpt lat="38.81331905476801" lon="-9.272629656473683"><ele>274.0</ele><time>2026-05-01T09:04:18Z</time></trkpt><trkpt lat="38.81340815025549" lon="-9.27266423262222"><ele>274.0</ele><time>2026-05-01T09:04:19Z</time></trkpt><trkpt lat="38.81348023328808" lon="-9.27268728502785"><ele>274.0</ele><time>2026-05-01T09:04:20Z</time></trkpt><trkpt lat="38.81354175516932" lon="-9.272713491619989"><ele>274.0</ele><time>2026-05-01T09:04:21Z</time></trkpt><trkpt lat="38.81363047130213" lon="-9.272743590404795"><ele>274.0</ele><time>2026-05-01T09:04:23Z</time></trkpt><trkpt lat="38.81370831238792" lon="-9.272722249911823"><ele>274.0</ele><time>2026-05-01T09:04:25Z</time></trkpt><trkpt lat="38.81370652677836" lon="-9.27260912521767"><ele>274.00000000000006</ele><time>2026-05-01T09:04:27Z</time></trkpt><trkpt lat="38.81364447397489" lon="-9.272630385576425"><ele>274.0</ele><time>2026-05-01T09:04:28Z</time></trkpt><trkpt lat="38.81361860874257" lon="-9.272710256400083"><ele>274.0</ele><time>2026-05-01T09:05:16Z</time></trkpt><trkpt lat="38.813541062970984" lon="-9.272712001928454"><ele>274.0</ele><time>2026-05-01T09:05:32Z</time></trkpt><trkpt lat="38.81347681906556" lon="-9.272691096347195"><ele>274.0</ele><time>2026-05-01T09:05:34Z</time></trkpt><trkpt lat="38.81341564484316" lon="-9.272665152196215"><ele>274.00000000000006</ele><time>2026-05-01T09:05:36Z</time></trkpt><trkpt lat="38.81334614400168" lon="-9.272646040069024"><ele>274.0</ele><time>2026-05-01T09:05:40Z</time></trkpt><trkpt lat="38.81341408842768" lon="-9.27266674882556"><ele>274.0</ele><time>2026-05-01T09:06:29Z</time></trkpt><trkpt lat="38.81350288644484" lon="-9.27269527319451"><ele>274.0</ele><time>2026-05-01T09:06:32Z</time></trkpt><trkpt lat="38.813577700953154" lon="-9.272707852947757"><ele>274.0</ele><time>2026-05-01T09:06:36Z</time></trkpt><trkpt lat="38.81365939319394" lon="-9.272764633171835"><ele>274.0</ele><time>2026-05-01T09:06:39Z</time></trkpt><trkpt lat="38.81370574627817" lon="-9.272703697671188"><ele>274.0</ele><time>2026-05-01T09:06:41Z</time></trkpt><trkpt lat="38.813662546369386" lon="-9.272629309808446"><ele>274.0</ele><time>2026-05-01T09:06:43Z</time></trkpt><trkpt lat="38.81359883197199" lon="-9.272607586929514"><ele>274.0</ele><time>2026-05-01T09:06:45Z</time></trkpt><trkpt lat="38.81355182681094" lon="-9.272664593550761"><ele>274.0</ele><time>2026-05-01T09:06:47Z</time></trkpt><trkpt lat="38.81347559633613" lon="-9.272683193886452"><ele>274.0</ele><time>2026-05-01T09:06:50Z</time></trkpt><trkpt lat="38.813401897320276" lon="-9.27267666039059"><ele>274.0</ele><time>2026-05-01T09:06:53Z</time></trkpt><trkpt lat="38.8133165290442" lon="-9.272647103554895"><ele>274.0</ele><time>2026-05-01T09:07:11Z</time></trkpt><trkpt lat="38.81324845496314" lon="-9.272692532698496"><ele>274.0</ele><time>2026-05-01T09:07:14Z</time></trkpt><trkpt lat="38.81336461313189" lon="-9.272725893047813"><ele>274.0</ele><time>2026-05-01T09:07:26Z</time></trkpt><trkpt lat="38.81349849588879" lon="-9.27272316258325"><ele>274.0</ele><time>2026-05-01T09:07:28Z</time></trkpt><trkpt lat="38.81358761558826" lon="-9.272710392226884"><ele>274.0</ele><time>2026-05-01T09:07:29Z</time></trkpt><trkpt lat="38.81370174751802" lon="-9.272725987439376"><ele>274.0</ele><time>2026-05-01T09:07:31Z</time></trkpt><trkpt lat="38.81375610612352" lon="-9.272768234785037"><ele>274.0</ele><time>2026-05-01T09:07:33Z</time></trkpt><trkpt lat="38.81371073170075" lon="-9.272856953147068"><ele>274.0</ele><time>2026-05-01T09:07:35Z</time></trkpt><trkpt lat="38.81364381136266" lon="-9.272948288259975"><ele>274.0</ele><time>2026-05-01T09:07:37Z</time></trkpt><trkpt lat="38.81355206464795" lon="-9.273036121352268"><ele>274.0</ele><time>2026-05-01T09:07:39Z</time></trkpt><trkpt lat="38.81341721804196" lon="-9.273024351085732"><ele>274.0</ele><time>2026-05-01T09:07:41Z</time></trkpt><trkpt lat="38.813345182785326" lon="-9.27301212697871"><ele>274.0</ele><time>2026-05-01T09:07:42Z</time></trkpt><trkpt lat="38.81326221950179" lon="-9.273007729762051"><ele>274.0</ele><time>2026-05-01T09:07:43Z</time></trkpt><trkpt lat="38.81317394372719" lon="-9.27301931254666"><ele>274.0</ele><time>2026-05-01T09:07:44Z</time></trkpt><trkpt lat="38.813089100510496" lon="-9.27301907993843"><ele>274.0</ele><time>2026-05-01T09:07:45Z</time></trkpt><trkpt lat="38.81300318239762" lon="-9.273040638602833"><ele>274.0</ele><time>2026-05-01T09:07:46Z</time></trkpt><trkpt lat="38.81292061961295" lon="-9.273057704681452"><ele>274.0</ele><time>2026-05-01T09:07:47Z</time></trkpt><trkpt lat="38.81282912626344" lon="-9.273063488266251"><ele>274.0</ele><time>2026-05-01T09:07:48Z</time></trkpt><trkpt lat="38.8127312564765" lon="-9.2730717728823"><ele>273.8</ele><time>2026-05-01T09:07:49Z</time></trkpt><trkpt lat="38.81263835066476" lon="-9.273095857399452"><ele>273.59999999999997</ele><time>2026-05-01T09:07:50Z</time></trkpt><trkpt lat="38.81254892899593" lon="-9.273086761935826"><ele>273.4</ele><time>2026-05-01T09:07:51Z</time></trkpt><trkpt lat="38.812459737718775" lon="-9.273060994754207"><ele>273.2</ele><time>2026-05-01T09:07:52Z</time></trkpt><trkpt lat="38.81236390302161" lon="-9.273055877878923"><ele>273.0</ele><time>2026-05-01T09:07:53Z</time></trkpt><trkpt lat="38.81225046342815" lon="-9.273039113357383"><ele>273.0</ele><time>2026-05-01T09:07:54Z</time></trkpt><trkpt lat="38.812148394156395" lon="-9.27300841357396"><ele>273.0</ele><time>2026-05-01T09:07:55Z</time></trkpt><trkpt lat="38.81204403099396" lon="-9.272971884620143"><ele>273.0</ele><time>2026-05-01T09:07:56Z</time></trkpt><trkpt lat="38.811945565653794" lon="-9.272916120574644"><ele>273.0</ele><time>2026-05-01T09:07:57Z</time></trkpt><trkpt lat="38.81185022662508" lon="-9.272859036175353"><ele>273.0</ele><time>2026-05-01T09:07:58Z</time></trkpt><trkpt lat="38.81175240295816" lon="-9.27284315808056"><ele>273.0</ele><time>2026-05-01T09:07:59Z</time></trkpt><trkpt lat="38.81165519049567" lon="-9.272810677977112"><ele>273.0</ele><time>2026-05-01T09:08:00Z</time></trkpt><trkpt lat="38.81154903346639" lon="-9.27277933962704"><ele>273.0</ele><time>2026-05-01T09:08:01Z</time></trkpt><trkpt lat="38.81144156924406" lon="-9.272745085675728"><ele>273.0</ele><time>2026-05-01T09:08:02Z</time></trkpt><trkpt lat="38.81133751910976" lon="-9.272706425523909"><ele>273.0</ele><time>2026-05-01T09:08:03Z</time></trkpt><trkpt lat="38.811236068583" lon="-9.272663653152383"><ele>273.0</ele><time>2026-05-01T09:08:04Z</time></trkpt><trkpt lat="38.81113897246857" lon="-9.272629038554289"><ele>273.0</ele><time>2026-05-01T09:08:05Z</time></trkpt><trkpt lat="38.811038784124655" lon="-9.272604725977114"><ele>273.0</ele><time>2026-05-01T09:08:06Z</time></trkpt><trkpt lat="38.81093662424685" lon="-9.272596487151286"><ele>273.0</ele><time>2026-05-01T09:08:07Z</time></trkpt><trkpt lat="38.81083320604238" lon="-9.272637527856078"><ele>273.0</ele><time>2026-05-01T09:08:08Z</time></trkpt><trkpt lat="38.810739225675825" lon="-9.272663196291493"><ele>272.6666666666667</ele><time>2026-05-01T09:08:09Z</time></trkpt><trkpt lat="38.81064860041301" lon="-9.27267101928551"><ele>272.3333333333333</ele><time>2026-05-01T09:08:10Z</time></trkpt><trkpt lat="38.81056097668261" lon="-9.272683523156243"><ele>272.0</ele><time>2026-05-01T09:08:11Z</time></trkpt><trkpt lat="38.81047746201121" lon="-9.272705855425064"><ele>271.66666666666663</ele><time>2026-05-01T09:08:12Z</time></trkpt><trkpt lat="38.81039987097025" lon="-9.272711689985453"><ele>271.3333333333333</ele><time>2026-05-01T09:08:13Z</time></trkpt><trkpt lat="38.81032274047042" lon="-9.272658847241004"><ele>271.0</ele><time>2026-05-01T09:08:14Z</time></trkpt><trkpt lat="38.81026757373745" lon="-9.272560805749436"><ele>271.0</ele><time>2026-05-01T09:08:15Z</time></trkpt><trkpt lat="38.81023253003953" lon="-9.27247083661765"><ele>271.0</ele><time>2026-05-01T09:08:16Z</time></trkpt><trkpt lat="38.81021246345055" lon="-9.272370741003355"><ele>271.0</ele><time>2026-05-01T09:08:17Z</time></trkpt><trkpt lat="38.81019988879238" lon="-9.272269850760082"><ele>271.0</ele><time>2026-05-01T09:08:18Z</time></trkpt><trkpt lat="38.810135093453916" lon="-9.272193149228187"><ele>271.0</ele><time>2026-05-01T09:08:20Z</time></trkpt><trkpt lat="38.81007784237968" lon="-9.272142241029028"><ele>271.0</ele><time>2026-05-01T09:08:22Z</time></trkpt><trkpt lat="38.809967187689175" lon="-9.272067928807715"><ele>269.2</ele><time>2026-05-01T09:08:24Z</time></trkpt><trkpt lat="38.80986430256794" lon="-9.272010904613476"><ele>267.40000000000003</ele><time>2026-05-01T09:08:26Z</time></trkpt><trkpt lat="38.80976399523659" lon="-9.271931997249409"><ele>265.6</ele><time>2026-05-01T09:08:28Z</time></trkpt><trkpt lat="38.809680782740685" lon="-9.271819511585571"><ele>263.8</ele><time>2026-05-01T09:08:30Z</time></trkpt><trkpt lat="38.809635959388935" lon="-9.271751697750403"><ele>262.0</ele><time>2026-05-01T09:08:31Z</time></trkpt><trkpt lat="38.80960095505162" lon="-9.271676381127781"><ele>262.0</ele><time>2026-05-01T09:08:32Z</time></trkpt><trkpt lat="38.80956800953939" lon="-9.271599138885884"><ele>262.0</ele><time>2026-05-01T09:08:33Z</time></trkpt><trkpt lat="38.80951920529674" lon="-9.27152784538368"><ele>262.0</ele><time>2026-05-01T09:08:34Z</time></trkpt><trkpt lat="38.80947195218436" lon="-9.271452369317007"><ele>262.0</ele><time>2026-05-01T09:08:35Z</time></trkpt><trkpt lat="38.809425409757424" lon="-9.271378054051702"><ele>262.0</ele><time>2026-05-01T09:08:36Z</time></trkpt><trkpt lat="38.809382359318576" lon="-9.27129959588145"><ele>262.0</ele><time>2026-05-01T09:08:37Z</time></trkpt><trkpt lat="38.809336400625085" lon="-9.271231003865202"><ele>262.0</ele><time>2026-05-01T09:08:38Z</time></trkpt><trkpt lat="38.80929231510091" lon="-9.27115284410042"><ele>260.66666666666663</ele><time>2026-05-01T09:08:39Z</time></trkpt><trkpt lat="38.80924601402763" lon="-9.271073765881882"><ele>259.3333333333333</ele><time>2026-05-01T09:08:40Z</time></trkpt><trkpt lat="38.809197125935256" lon="-9.271002567959645"><ele>258.0</ele><time>2026-05-01T09:08:41Z</time></trkpt><trkpt lat="38.80914120748926" lon="-9.270931999943127"><ele>256.6666666666667</ele><time>2026-05-01T09:08:42Z</time></trkpt><trkpt lat="38.8090896663762" lon="-9.270869198610468"><ele>255.33333333333334</ele><time>2026-05-01T09:08:43Z</time></trkpt><trkpt lat="38.80904283445879" lon="-9.270807940973302"><ele>254.0</ele><time>2026-05-01T09:08:44Z</time></trkpt><trkpt lat="38.80896356826878" lon="-9.270692289441778"><ele>253.14285714285717</ele><time>2026-05-01T09:08:46Z</time></trkpt><trkpt lat="38.80895631379933" lon="-9.270595372310435"><ele>252.28571428571428</ele><time>2026-05-01T09:08:47Z</time></trkpt><trkpt lat="38.80894213174114" lon="-9.270510157270392"><ele>251.42857142857144</ele><time>2026-05-01T09:08:48Z</time></trkpt><trkpt lat="38.808925411029435" lon="-9.270424719877097"><ele>250.57142857142858</ele><time>2026-05-01T09:08:49Z</time></trkpt><trkpt lat="38.808891398511484" lon="-9.27034167421213"><ele>249.71428571428572</ele><time>2026-05-01T09:08:50Z</time></trkpt><trkpt lat="38.80884454417207" lon="-9.27027345041694"><ele>248.85714285714286</ele><time>2026-05-01T09:08:51Z</time></trkpt><trkpt lat="38.80878344051502" lon="-9.270222380320273"><ele>248.0</ele><time>2026-05-01T09:08:52Z</time></trkpt><trkpt lat="38.80871407369319" lon="-9.270179051578628"><ele>248.0</ele><time>2026-05-01T09:08:53Z</time></trkpt><trkpt lat="38.80863554636405" lon="-9.270155471970948"><ele>248.00000000000003</ele><time>2026-05-01T09:08:54Z</time></trkpt><trkpt lat="38.80856086213647" lon="-9.270152719687825"><ele>248.0</ele><time>2026-05-01T09:08:55Z</time></trkpt><trkpt lat="38.80849159445697" lon="-9.270152063667846"><ele>248.0</ele><time>2026-05-01T09:08:56Z</time></trkpt><trkpt lat="38.80842174870766" lon="-9.270159234824506"><ele>248.00000000000003</ele><time>2026-05-01T09:08:57Z</time></trkpt><trkpt lat="38.808354810051824" lon="-9.270174736527252"><ele>248.0</ele><time>2026-05-01T09:08:58Z</time></trkpt><trkpt lat="38.80828687775348" lon="-9.270171362236653"><ele>248.0</ele><time>2026-05-01T09:08:59Z</time></trkpt><trkpt lat="38.808225511854154" lon="-9.270192578113505"><ele>249.2</ele><time>2026-05-01T09:09:00Z</time></trkpt><trkpt lat="38.80815760797291" lon="-9.270238686628405"><ele>250.4</ele><time>2026-05-01T09:09:01Z</time></trkpt><trkpt lat="38.80810147019036" lon="-9.2703493711285"><ele>251.59999999999997</ele><time>2026-05-01T09:09:02Z</time></trkpt><trkpt lat="38.80801746418739" lon="-9.270444701166477"><ele>252.79999999999998</ele><time>2026-05-01T09:09:03Z</time></trkpt><trkpt lat="38.80791852616053" lon="-9.270553078499868"><ele>254.0</ele><time>2026-05-01T09:09:04Z</time></trkpt><trkpt lat="38.80780694548962" lon="-9.270675485497756"><ele>254.33333333333334</ele><time>2026-05-01T09:09:05Z</time></trkpt><trkpt lat="38.80770738607707" lon="-9.270830004380224"><ele>254.66666666666669</ele><time>2026-05-01T09:09:06Z</time></trkpt><trkpt lat="38.80761528403258" lon="-9.270987262054389"><ele>255.0</ele><time>2026-05-01T09:09:07Z</time></trkpt><trkpt lat="38.807532223581816" lon="-9.271172671744583"><ele>255.4</ele><time>2026-05-01T09:09:08Z</time></trkpt><trkpt lat="38.8074670808277" lon="-9.271318998681089"><ele>255.8</ele><time>2026-05-01T09:09:09Z</time></trkpt><trkpt lat="38.80742542310432" lon="-9.27143223135909"><ele>256.2</ele><time>2026-05-01T09:09:10Z</time></trkpt><trkpt lat="38.80741255453081" lon="-9.271532944976784"><ele>256.6</ele><time>2026-05-01T09:09:11Z</time></trkpt><trkpt lat="38.80740605630513" lon="-9.271632973895342"><ele>257.0</ele><time>2026-05-01T09:09:12Z</time></trkpt><trkpt lat="38.80737687924939" lon="-9.271730453917748"><ele>257.0</ele><time>2026-05-01T09:09:13Z</time></trkpt><trkpt lat="38.807303849349765" lon="-9.271804400419736"><ele>257.0</ele><time>2026-05-01T09:09:14Z</time></trkpt><trkpt lat="38.807223359085945" lon="-9.271811364214708"><ele>257.0</ele><time>2026-05-01T09:09:15Z</time></trkpt><trkpt lat="38.80716088283163" lon="-9.2718375332129"><ele>257.0</ele><time>2026-05-01T09:09:16Z</time></trkpt><trkpt lat="38.80708675549336" lon="-9.271862103871642"><ele>257.0</ele><time>2026-05-01T09:09:17Z</time></trkpt><trkpt lat="38.80700115579111" lon="-9.271899703738795"><ele>257.0</ele><time>2026-05-01T09:09:18Z</time></trkpt><trkpt lat="38.80692672223002" lon="-9.271935450719113"><ele>257.2</ele><time>2026-05-01T09:09:19Z</time></trkpt><trkpt lat="38.80681408594526" lon="-9.271958754588075"><ele>257.4</ele><time>2026-05-01T09:09:21Z</time></trkpt><trkpt lat="38.80674498562454" lon="-9.272043655753626"><ele>257.6</ele><time>2026-05-01T09:09:23Z</time></trkpt><trkpt lat="38.8067130935749" lon="-9.272146869676467"><ele>257.8</ele><time>2026-05-01T09:09:25Z</time></trkpt><trkpt lat="38.80672193175336" lon="-9.272247579416568"><ele>258.0</ele><time>2026-05-01T09:09:28Z</time></trkpt><trkpt lat="38.80668686351851" lon="-9.272345167761118"><ele>257.2</ele><time>2026-05-01T09:09:31Z</time></trkpt><trkpt lat="38.80661514662308" lon="-9.272459943889288"><ele>256.4</ele><time>2026-05-01T09:09:33Z</time></trkpt><trkpt lat="38.80653213135345" lon="-9.272507409447218"><ele>255.59999999999997</ele><time>2026-05-01T09:09:35Z</time></trkpt><trkpt lat="38.806457364388876" lon="-9.272450013847951"><ele>254.79999999999998</ele><time>2026-05-01T09:09:37Z</time></trkpt><trkpt lat="38.80638862258829" lon="-9.272479414862618"><ele>254.0</ele><time>2026-05-01T09:09:39Z</time></trkpt><trkpt lat="38.80634345674972" lon="-9.272578133525952"><ele>254.0</ele><time>2026-05-01T09:09:41Z</time></trkpt><trkpt lat="38.80626536589414" lon="-9.272652550866228"><ele>253.99999999999997</ele><time>2026-05-01T09:09:43Z</time></trkpt><trkpt lat="38.80619952491758" lon="-9.272741049867797"><ele>253.99999999999997</ele><time>2026-05-01T09:09:45Z</time></trkpt><trkpt lat="38.80609463205743" lon="-9.272745620493932"><ele>254.0</ele><time>2026-05-01T09:09:47Z</time></trkpt><trkpt lat="38.80598735688238" lon="-9.272750636282218"><ele>254.0</ele><time>2026-05-01T09:09:49Z</time></trkpt><trkpt lat="38.80590919749425" lon="-9.272773242193542"><ele>254.16666666666669</ele><time>2026-05-01T09:09:52Z</time></trkpt><trkpt lat="38.80584080118331" lon="-9.272766686416869"><ele>254.33333333333334</ele><time>2026-05-01T09:10:15Z</time></trkpt><trkpt lat="38.80578503964027" lon="-9.272815379313503"><ele>254.5</ele><time>2026-05-01T09:10:23Z</time></trkpt><trkpt lat="38.80571548908078" lon="-9.2727491700984"><ele>254.66666666666669</ele><time>2026-05-01T09:11:48Z</time></trkpt><trkpt lat="38.80563747439044" lon="-9.272646534796023"><ele>254.83333333333334</ele><time>2026-05-01T09:11:50Z</time></trkpt><trkpt lat="38.80557184205909" lon="-9.272613848902948"><ele>255.0</ele><time>2026-05-01T09:11:51Z</time></trkpt><trkpt lat="38.80548520525885" lon="-9.272645413445687"><ele>255.0</ele><time>2026-05-01T09:11:52Z</time></trkpt><trkpt lat="38.80539859576407" lon="-9.272659123186983"><ele>255.0</ele><time>2026-05-01T09:11:53Z</time></trkpt><trkpt lat="38.805308631857905" lon="-9.272669620112593"><ele>255.0</ele><time>2026-05-01T09:11:54Z</time></trkpt><trkpt lat="38.80521298600446" lon="-9.272676418791276"><ele>255.0</ele><time>2026-05-01T09:11:55Z</time></trkpt><trkpt lat="38.80512042968409" lon="-9.272682390165423"><ele>255.0</ele><time>2026-05-01T09:11:56Z</time></trkpt><trkpt lat="38.80502563157641" lon="-9.272665115252055"><ele>254.8</ele><time>2026-05-01T09:11:57Z</time></trkpt><trkpt lat="38.80493588117858" lon="-9.272675053014042"><ele>254.6</ele><time>2026-05-01T09:11:58Z</time></trkpt><trkpt lat="38.804840342950754" lon="-9.272672286975288"><ele>254.39999999999998</ele><time>2026-05-01T09:11:59Z</time></trkpt><trkpt lat="38.80474290234062" lon="-9.272683682767289"><ele>254.2</ele><time>2026-05-01T09:12:00Z</time></trkpt><trkpt lat="38.80464689800842" lon="-9.272677768996882"><ele>254.0</ele><time>2026-05-01T09:12:01Z</time></trkpt><trkpt lat="38.80455070927079" lon="-9.272668580399493"><ele>254.0</ele><time>2026-05-01T09:12:02Z</time></trkpt><trkpt lat="38.80446123001272" lon="-9.272659448693933"><ele>253.99999999999997</ele><time>2026-05-01T09:12:03Z</time></trkpt><trkpt lat="38.804364198931374" lon="-9.272628234087419"><ele>253.99999999999997</ele><time>2026-05-01T09:12:04Z</time></trkpt><trkpt lat="38.80426764183203" lon="-9.272629115149218"><ele>254.0</ele><time>2026-05-01T09:12:05Z</time></trkpt><trkpt lat="38.80416872874347" lon="-9.272615809727897"><ele>254.0</ele><time>2026-05-01T09:12:06Z</time></trkpt><trkpt lat="38.80407176716611" lon="-9.2726002128488"><ele>253.39999999999998</ele><time>2026-05-01T09:12:07Z</time></trkpt><trkpt lat="38.803966080543" lon="-9.272589623890358"><ele>252.79999999999998</ele><time>2026-05-01T09:12:08Z</time></trkpt><trkpt lat="38.80385618998108" lon="-9.272579336508079"><ele>252.20000000000002</ele><time>2026-05-01T09:12:09Z</time></trkpt><trkpt lat="38.80374590934309" lon="-9.272573320189876"><ele>251.60000000000002</ele><time>2026-05-01T09:12:10Z</time></trkpt><trkpt lat="38.80363920129914" lon="-9.272560147479899"><ele>251.0</ele><time>2026-05-01T09:12:11Z</time></trkpt><trkpt lat="38.803527753208016" lon="-9.272545942308128"><ele>249.20000000000002</ele><time>2026-05-01T09:12:12Z</time></trkpt><trkpt lat="38.80341678800281" lon="-9.272542516811072"><ele>247.40000000000003</ele><time>2026-05-01T09:12:13Z</time></trkpt><trkpt lat="38.80330478708201" lon="-9.272529323975471"><ele>245.6</ele><time>2026-05-01T09:12:14Z</time></trkpt><trkpt lat="38.80319402261819" lon="-9.272515097595504"><ele>243.8</ele><time>2026-05-01T09:12:15Z</time></trkpt><trkpt lat="38.80308686036214" lon="-9.272523915655773"><ele>242.0</ele><time>2026-05-01T09:12:16Z</time></trkpt><trkpt lat="38.80298400457952" lon="-9.272511521091761"><ele>242.0</ele><time>2026-05-01T09:12:17Z</time></trkpt><trkpt lat="38.80288406779088" lon="-9.272500400752905"><ele>242.0</ele><time>2026-05-01T09:12:18Z</time></trkpt><trkpt lat="38.802788961622696" lon="-9.272489817927301"><ele>242.0</ele><time>2026-05-01T09:12:19Z</time></trkpt><trkpt lat="38.80269826228249" lon="-9.2724793811203"><ele>242.0</ele><time>2026-05-01T09:12:20Z</time></trkpt><trkpt lat="38.80261035456124" lon="-9.272468184020571"><ele>242.0</ele><time>2026-05-01T09:12:21Z</time></trkpt><trkpt lat="38.80251470323689" lon="-9.272437683671603"><ele>242.0</ele><time>2026-05-01T09:12:22Z</time></trkpt><trkpt lat="38.80241286467896" lon="-9.272435075077007"><ele>242.0</ele><time>2026-05-01T09:12:23Z</time></trkpt><trkpt lat="38.8023130497973" lon="-9.272425495605393"><ele>242.0</ele><time>2026-05-01T09:12:24Z</time></trkpt><trkpt lat="38.80221213042037" lon="-9.272416348606193"><ele>242.0</ele><time>2026-05-01T09:12:25Z</time></trkpt><trkpt lat="38.802111740040665" lon="-9.272405317782484"><ele>242.0</ele><time>2026-05-01T09:12:26Z</time></trkpt><trkpt lat="38.802016751169546" lon="-9.272393716470411"><ele>242.0</ele><time>2026-05-01T09:12:27Z</time></trkpt><trkpt lat="38.801914032956795" lon="-9.272379266767736"><ele>242.0</ele><time>2026-05-01T09:12:28Z</time></trkpt><trkpt lat="38.80181031439456" lon="-9.272368490104263"><ele>242.0</ele><time>2026-05-01T09:12:29Z</time></trkpt><trkpt lat="38.80170586961361" lon="-9.272362857332233"><ele>242.0</ele><time>2026-05-01T09:12:30Z</time></trkpt><trkpt lat="38.801596640571965" lon="-9.272352331758253"><ele>242.0</ele><time>2026-05-01T09:12:31Z</time></trkpt><trkpt lat="38.80148755346687" lon="-9.272361052030638"><ele>243.6</ele><time>2026-05-01T09:12:32Z</time></trkpt><trkpt lat="38.801376278345515" lon="-9.272351846506451"><ele>245.2</ele><time>2026-05-01T09:12:33Z</time></trkpt><trkpt lat="38.80127284439986" lon="-9.272343276393148"><ele>246.8</ele><time>2026-05-01T09:12:34Z</time></trkpt><trkpt lat="38.80117240770185" lon="-9.272314848211273"><ele>248.4</ele><time>2026-05-01T09:12:35Z</time></trkpt><trkpt lat="38.801068112908105" lon="-9.27232202511501"><ele>250.0</ele><time>2026-05-01T09:12:36Z</time></trkpt><trkpt lat="38.80096289062414" lon="-9.272318280040464"><ele>251.0</ele><time>2026-05-01T09:12:37Z</time></trkpt><trkpt lat="38.80086235549634" lon="-9.272312196354369"><ele>252.0</ele><time>2026-05-01T09:12:38Z</time></trkpt><trkpt lat="38.800784604303985" lon="-9.272303701999228"><ele>253.0</ele><time>2026-05-01T09:12:39Z</time></trkpt><trkpt lat="38.80071538471032" lon="-9.272313662759588"><ele>254.0</ele><time>2026-05-01T09:12:41Z</time></trkpt><trkpt lat="38.800750298921045" lon="-9.27212468871456"><ele>255.0</ele><time>2026-05-01T09:12:44Z</time></trkpt><trkpt lat="38.8008233522883" lon="-9.271996298773693"><ele>255.83333333333334</ele><time>2026-05-01T09:12:46Z</time></trkpt><trkpt lat="38.80088674645435" lon="-9.27193136706467"><ele>256.6666666666667</ele><time>2026-05-01T09:12:47Z</time></trkpt><trkpt lat="38.80094997091435" lon="-9.271873404124674"><ele>257.5</ele><time>2026-05-01T09:12:48Z</time></trkpt><trkpt lat="38.80099129314639" lon="-9.271802134673894"><ele>258.33333333333337</ele><time>2026-05-01T09:12:49Z</time></trkpt><trkpt lat="38.80094123576101" lon="-9.271711323395483"><ele>259.1666666666667</ele><time>2026-05-01T09:12:50Z</time></trkpt><trkpt lat="38.800941235764064" lon="-9.27160659940599"><ele>260.0</ele><time>2026-05-01T09:12:52Z</time></trkpt><trkpt lat="38.80092483624619" lon="-9.271502326867019"><ele>260.0</ele><time>2026-05-01T09:12:55Z</time></trkpt><trkpt lat="38.80094123577131" lon="-9.271424215166101"><ele>260.0</ele><time>2026-05-01T09:12:57Z</time></trkpt><trkpt lat="38.80094123577297" lon="-9.27133046689018"><ele>260.0</ele><time>2026-05-01T09:12:59Z</time></trkpt><trkpt lat="38.80082626722145" lon="-9.271295219717592"><ele>260.0</ele><time>2026-05-01T09:13:00Z</time></trkpt><trkpt lat="38.800871785480055" lon="-9.271358608805555"><ele>260.0</ele><time>2026-05-01T09:13:30Z</time></trkpt><trkpt lat="38.80087921395578" lon="-9.271440995018043"><ele>260.0</ele><time>2026-05-01T09:13:44Z</time></trkpt><trkpt lat="38.800914508688635" lon="-9.271518553008802"><ele>260.0</ele><time>2026-05-01T09:13:48Z</time></trkpt><trkpt lat="38.800941223291176" lon="-9.27159472430463"><ele>260.0</ele><time>2026-05-01T09:13:55Z</time></trkpt><trkpt lat="38.8009638009786" lon="-9.271680234860384"><ele>260.0</ele><time>2026-05-01T09:14:45Z</time></trkpt><trkpt lat="38.80098185963092" lon="-9.271760868594757"><ele>260.0</ele><time>2026-05-01T09:14:50Z</time></trkpt><trkpt lat="38.80090403199564" lon="-9.271939609328877"><ele>260.0</ele><time>2026-05-01T09:15:14Z</time></trkpt><trkpt lat="38.80082185745014" lon="-9.272036184804263"><ele>260.0</ele><time>2026-05-01T09:15:16Z</time></trkpt><trkpt lat="38.80077394568364" lon="-9.272111420964256"><ele>260.0</ele><time>2026-05-01T09:15:17Z</time></trkpt><trkpt lat="38.800745449257555" lon="-9.272191657876103"><ele>260.0</ele><time>2026-05-01T09:15:18Z</time></trkpt><trkpt lat="38.800728450849306" lon="-9.272272624960484"><ele>260.0</ele><time>2026-05-01T09:15:19Z</time></trkpt><trkpt lat="38.8005822218968" lon="-9.27231709969724"><ele>260.0</ele><time>2026-05-01T09:15:21Z</time></trkpt><trkpt lat="38.80049330924858" lon="-9.272310442617004"><ele>260.0</ele><time>2026-05-01T09:15:22Z</time></trkpt><trkpt lat="38.800401603835766" lon="-9.272299541720718"><ele>260.4</ele><time>2026-05-01T09:15:23Z</time></trkpt><trkpt lat="38.80032402672095" lon="-9.27230690399689"><ele>260.8</ele><time>2026-05-01T09:15:24Z</time></trkpt><trkpt lat="38.800250512032754" lon="-9.272330815252007"><ele>261.2</ele><time>2026-05-01T09:15:25Z</time></trkpt><trkpt lat="38.800188484772775" lon="-9.272380984047938"><ele>261.6</ele><time>2026-05-01T09:15:26Z</time></trkpt><trkpt lat="38.80014816451121" lon="-9.272452002325679"><ele>262.0</ele><time>2026-05-01T09:15:27Z</time></trkpt><trkpt lat="38.800041842439356" lon="-9.272223178088879"><ele>262.0</ele><time>2026-05-01T09:15:29Z</time></trkpt><trkpt lat="38.79997769227876" lon="-9.272200960773981"><ele>262.0</ele><time>2026-05-01T09:15:30Z</time></trkpt><trkpt lat="38.79989881961719" lon="-9.272246908966924"><ele>262.0</ele><time>2026-05-01T09:15:31Z</time></trkpt><trkpt lat="38.799834638691216" lon="-9.272166792072836"><ele>262.0</ele><time>2026-05-01T09:15:32Z</time></trkpt><trkpt lat="38.799768115611464" lon="-9.272090520405404"><ele>262.0</ele><time>2026-05-01T09:15:33Z</time></trkpt><trkpt lat="38.799709774539785" lon="-9.27200524535585"><ele>262.0</ele><time>2026-05-01T09:15:34Z</time></trkpt><trkpt lat="38.79967156990935" lon="-9.271901479468726"><ele>262.0</ele><time>2026-05-01T09:15:35Z</time></trkpt><trkpt lat="38.799614008199676" lon="-9.271806643946299"><ele>262.0</ele><time>2026-05-01T09:15:36Z</time></trkpt><trkpt lat="38.79958796886623" lon="-9.271680123565432"><ele>262.0</ele><time>2026-05-01T09:15:37Z</time></trkpt><trkpt lat="38.799534910433486" lon="-9.271569933961466"><ele>262.0</ele><time>2026-05-01T09:15:38Z</time></trkpt><trkpt lat="38.799497241680484" lon="-9.271459469269"><ele>262.0</ele><time>2026-05-01T09:15:39Z</time></trkpt><trkpt lat="38.79946795745725" lon="-9.27136037931188"><ele>262.0</ele><time>2026-05-01T09:15:40Z</time></trkpt><trkpt lat="38.7994490017671" lon="-9.2712695009791"><ele>262.0</ele><time>2026-05-01T09:15:41Z</time></trkpt><trkpt lat="38.79943703696263" lon="-9.271183454035217"><ele>262.0</ele><time>2026-05-01T09:15:43Z</time></trkpt><trkpt lat="38.799518135158706" lon="-9.271202938400194"><ele>262.0</ele><time>2026-05-01T09:15:47Z</time></trkpt><trkpt lat="38.79946000373621" lon="-9.271326274586839"><ele>262.0</ele><time>2026-05-01T09:15:48Z</time></trkpt><trkpt lat="38.799486977688936" lon="-9.27142539279123"><ele>262.0</ele><time>2026-05-01T09:15:49Z</time></trkpt><trkpt lat="38.799546994127326" lon="-9.27151611880465"><ele>262.0</ele><time>2026-05-01T09:15:50Z</time></trkpt><trkpt lat="38.79957439438713" lon="-9.27161261637703"><ele>262.0</ele><time>2026-05-01T09:15:51Z</time></trkpt><trkpt lat="38.79960900211478" lon="-9.271715156880006"><ele>262.0</ele><time>2026-05-01T09:15:52Z</time></trkpt><trkpt lat="38.79964745129565" lon="-9.271815592148117"><ele>262.0</ele><time>2026-05-01T09:15:53Z</time></trkpt><trkpt lat="38.79969288741621" lon="-9.27191649622084"><ele>262.0</ele><time>2026-05-01T09:15:54Z</time></trkpt><trkpt lat="38.79974614170402" lon="-9.272016606585604"><ele>262.0</ele><time>2026-05-01T09:15:55Z</time></trkpt><trkpt lat="38.7998149428251" lon="-9.272111793780136"><ele>262.0</ele><time>2026-05-01T09:15:56Z</time></trkpt><trkpt lat="38.799898683328394" lon="-9.272191957917757"><ele>262.0</ele><time>2026-05-01T09:15:57Z</time></trkpt><trkpt lat="38.79999868627599" lon="-9.272239249437156"><ele>262.0</ele><time>2026-05-01T09:15:58Z</time></trkpt><trkpt lat="38.800126970804165" lon="-9.272192076473512"><ele>262.0</ele><time>2026-05-01T09:15:59Z</time></trkpt><trkpt lat="38.800239393135044" lon="-9.272285407896502"><ele>260.25</ele><time>2026-05-01T09:16:01Z</time></trkpt><trkpt lat="38.80017601238089" lon="-9.27254629683706"><ele>258.5</ele><time>2026-05-01T09:16:03Z</time></trkpt><trkpt lat="38.80017361624942" lon="-9.272659883683813"><ele>256.75</ele><time>2026-05-01T09:16:04Z</time></trkpt><trkpt lat="38.80018993747798" lon="-9.272771130077476"><ele>255.0</ele><time>2026-05-01T09:16:05Z</time></trkpt><trkpt lat="38.800221166823334" lon="-9.272886955863068"><ele>255.0</ele><time>2026-05-01T09:16:06Z</time></trkpt><trkpt lat="38.80025290562594" lon="-9.27300858671518"><ele>255.0</ele><time>2026-05-01T09:16:07Z</time></trkpt><trkpt lat="38.80028096621874" lon="-9.27313776209392"><ele>255.0</ele><time>2026-05-01T09:16:08Z</time></trkpt><trkpt lat="38.80030759510808" lon="-9.273263926939064"><ele>255.0</ele><time>2026-05-01T09:16:09Z</time></trkpt><trkpt lat="38.80033978532288" lon="-9.273393375311743"><ele>255.0</ele><time>2026-05-01T09:16:10Z</time></trkpt><trkpt lat="38.800367775568446" lon="-9.27352810782962"><ele>253.2</ele><time>2026-05-01T09:16:11Z</time></trkpt><trkpt lat="38.800393873424426" lon="-9.273658947271407"><ele>251.4</ele><time>2026-05-01T09:16:12Z</time></trkpt><trkpt lat="38.80043987267958" lon="-9.27378612287275"><ele>249.60000000000002</ele><time>2026-05-01T09:16:13Z</time></trkpt><trkpt lat="38.80047405884964" lon="-9.273918953700221"><ele>247.8</ele><time>2026-05-01T09:16:14Z</time></trkpt><trkpt lat="38.80050837443734" lon="-9.274053784999252"><ele>246.0</ele><time>2026-05-01T09:16:15Z</time></trkpt><trkpt lat="38.800538332019784" lon="-9.274183042500113"><ele>244.20000000000002</ele><time>2026-05-01T09:16:16Z</time></trkpt><trkpt lat="38.80055782845394" lon="-9.27430083690495"><ele>242.40000000000003</ele><time>2026-05-01T09:16:17Z</time></trkpt><trkpt lat="38.80058609209784" lon="-9.274409012276598"><ele>240.6</ele><time>2026-05-01T09:16:18Z</time></trkpt><trkpt lat="38.80061071678357" lon="-9.274502234776264"><ele>238.8</ele><time>2026-05-01T09:16:19Z</time></trkpt><trkpt lat="38.80063564811958" lon="-9.274590937602637"><ele>237.0</ele><time>2026-05-01T09:16:20Z</time></trkpt><trkpt lat="38.800608945695195" lon="-9.27474282181542"><ele>235.5</ele><time>2026-05-01T09:16:22Z</time></trkpt><trkpt lat="38.80058718296135" lon="-9.274869142827384"><ele>234.0</ele><time>2026-05-01T09:16:24Z</time></trkpt><trkpt lat="38.80053081545943" lon="-9.274947211630732"><ele>232.5</ele><time>2026-05-01T09:16:26Z</time></trkpt><trkpt lat="38.80072471448474" lon="-9.275080192859756"><ele>231.0</ele><time>2026-05-01T09:16:27Z</time></trkpt><trkpt lat="38.800750542215" lon="-9.275214137172892"><ele>231.0</ele><time>2026-05-01T09:16:29Z</time></trkpt><trkpt lat="38.80078507075461" lon="-9.27536680727232"><ele>231.00000000000003</ele><time>2026-05-01T09:16:31Z</time></trkpt><trkpt lat="38.80079471279729" lon="-9.27544964937013"><ele>231.00000000000003</ele><time>2026-05-01T09:16:32Z</time></trkpt><trkpt lat="38.80082337473047" lon="-9.275595392753871"><ele>231.0</ele><time>2026-05-01T09:16:34Z</time></trkpt><trkpt lat="38.800856681134746" lon="-9.275735045267476"><ele>231.0</ele><time>2026-05-01T09:16:36Z</time></trkpt><trkpt lat="38.8008598322045" lon="-9.275916284310458"><ele>230.4</ele><time>2026-05-01T09:16:38Z</time></trkpt><trkpt lat="38.80087536120762" lon="-9.276034809375394"><ele>229.8</ele><time>2026-05-01T09:16:39Z</time></trkpt><trkpt lat="38.80090153451942" lon="-9.276144057506723"><ele>229.20000000000002</ele><time>2026-05-01T09:16:40Z</time></trkpt><trkpt lat="38.80091310173127" lon="-9.276261208959923"><ele>228.60000000000002</ele><time>2026-05-01T09:16:41Z</time></trkpt><trkpt lat="38.80092992834785" lon="-9.276378464476565"><ele>228.0</ele><time>2026-05-01T09:16:42Z</time></trkpt><trkpt lat="38.80095178188682" lon="-9.276486324522452"><ele>227.0</ele><time>2026-05-01T09:16:43Z</time></trkpt><trkpt lat="38.80097183553924" lon="-9.276598873414018"><ele>226.0</ele><time>2026-05-01T09:16:44Z</time></trkpt><trkpt lat="38.80099797471743" lon="-9.276713652184382"><ele>225.0</ele><time>2026-05-01T09:16:45Z</time></trkpt><trkpt lat="38.801010294197596" lon="-9.27681607277511"><ele>224.0</ele><time>2026-05-01T09:16:46Z</time></trkpt><trkpt lat="38.80102363822374" lon="-9.276918723031077"><ele>223.0</ele><time>2026-05-01T09:16:47Z</time></trkpt><trkpt lat="38.801035955444355" lon="-9.277005505552689"><ele>222.0</ele><time>2026-05-01T09:16:48Z</time></trkpt><trkpt lat="38.801063501530585" lon="-9.277144808277388"><ele>222.0</ele><time>2026-05-01T09:16:50Z</time></trkpt><trkpt lat="38.80104689227568" lon="-9.277059119203775"><ele>222.0</ele><time>2026-05-01T09:17:41Z</time></trkpt><trkpt lat="38.80105425162353" lon="-9.276962716494259"><ele>222.0</ele><time>2026-05-01T09:17:52Z</time></trkpt><trkpt lat="38.80102206629813" lon="-9.27688576541994"><ele>222.0</ele><time>2026-05-01T09:18:05Z</time></trkpt><trkpt lat="38.8009978535378" lon="-9.27674583432095"><ele>222.0</ele><time>2026-05-01T09:18:07Z</time></trkpt><trkpt lat="38.80098477074986" lon="-9.276656626991796"><ele>222.0</ele><time>2026-05-01T09:18:08Z</time></trkpt><trkpt lat="38.800971395457886" lon="-9.276563317854873"><ele>222.0</ele><time>2026-05-01T09:18:09Z</time></trkpt><trkpt lat="38.80095595226812" lon="-9.276468851707902"><ele>222.0</ele><time>2026-05-01T09:18:10Z</time></trkpt><trkpt lat="38.800938956216534" lon="-9.276366274036585"><ele>222.0</ele><time>2026-05-01T09:18:11Z</time></trkpt><trkpt lat="38.80092288625876" lon="-9.276259425990682"><ele>222.0</ele><time>2026-05-01T09:18:12Z</time></trkpt><trkpt lat="38.80090546570028" lon="-9.276157104525613"><ele>222.0</ele><time>2026-05-01T09:18:13Z</time></trkpt><trkpt lat="38.80088667937888" lon="-9.276048970565988"><ele>222.0</ele><time>2026-05-01T09:18:14Z</time></trkpt><trkpt lat="38.80086858892755" lon="-9.27593950887988"><ele>223.0</ele><time>2026-05-01T09:18:15Z</time></trkpt><trkpt lat="38.800847426882086" lon="-9.275831904425479"><ele>224.0</ele><time>2026-05-01T09:18:16Z</time></trkpt><trkpt lat="38.80083940299966" lon="-9.275727946065095"><ele>225.0</ele><time>2026-05-01T09:18:17Z</time></trkpt><trkpt lat="38.800842976069404" lon="-9.275638163814813"><ele>226.0</ele><time>2026-05-01T09:18:18Z</time></trkpt><trkpt lat="38.800823952569644" lon="-9.275560457381962"><ele>227.0</ele><time>2026-05-01T09:18:19Z</time></trkpt><trkpt lat="38.80079579321921" lon="-9.275469551923772"><ele>228.0</ele><time>2026-05-01T09:18:20Z</time></trkpt><trkpt lat="38.800789912467394" lon="-9.275366759458757"><ele>228.5</ele><time>2026-05-01T09:18:21Z</time></trkpt><trkpt lat="38.800775896385076" lon="-9.27527528286311"><ele>229.0</ele><time>2026-05-01T09:18:22Z</time></trkpt><trkpt lat="38.80075104646331" lon="-9.275180428853396"><ele>229.5</ele><time>2026-05-01T09:18:23Z</time></trkpt><trkpt lat="38.8007380415186" lon="-9.275093858054735"><ele>230.0</ele><time>2026-05-01T09:18:24Z</time></trkpt><trkpt lat="38.80071903486813" lon="-9.275016827991628"><ele>230.5</ele><time>2026-05-01T09:18:25Z</time></trkpt><trkpt lat="38.80070285920148" lon="-9.274931380396655"><ele>231.0</ele><time>2026-05-01T09:18:26Z</time></trkpt><trkpt lat="38.800681565231834" lon="-9.274764830784978"><ele>231.85714285714286</ele><time>2026-05-01T09:18:28Z</time></trkpt><trkpt lat="38.80065998731096" lon="-9.27468700830136"><ele>232.71428571428572</ele><time>2026-05-01T09:18:29Z</time></trkpt><trkpt lat="38.80058915007789" lon="-9.274644371293865"><ele>233.57142857142856</ele><time>2026-05-01T09:18:30Z</time></trkpt><trkpt lat="38.80050540288484" lon="-9.274639887059404"><ele>234.42857142857142</ele><time>2026-05-01T09:18:31Z</time></trkpt><trkpt lat="38.80044051637508" lon="-9.274668001428864"><ele>235.28571428571428</ele><time>2026-05-01T09:18:32Z</time></trkpt><trkpt lat="38.80038994678753" lon="-9.274732719850917"><ele>236.1428571428571</ele><time>2026-05-01T09:18:46Z</time></trkpt><trkpt lat="38.800315520805555" lon="-9.274689213550339"><ele>236.99999999999997</ele><time>2026-05-01T09:18:49Z</time></trkpt><trkpt lat="38.80036074239608" lon="-9.274757521896442"><ele>237.0</ele><time>2026-05-01T09:18:59Z</time></trkpt><trkpt lat="38.8003208635289" lon="-9.27482880780896"><ele>237.0</ele><time>2026-05-01T09:19:01Z</time></trkpt><trkpt lat="38.800308478204634" lon="-9.274725132529667"><ele>237.0</ele><time>2026-05-01T09:19:03Z</time></trkpt><trkpt lat="38.80042051382343" lon="-9.274705584590642"><ele>237.0</ele><time>2026-05-01T09:19:05Z</time></trkpt><trkpt lat="38.80053827880473" lon="-9.27465359803851"><ele>237.0</ele><time>2026-05-01T09:19:07Z</time></trkpt><trkpt lat="38.80062955251858" lon="-9.274617185460034"><ele>237.0</ele><time>2026-05-01T09:19:09Z</time></trkpt><trkpt lat="38.800691332946464" lon="-9.274733923134631"><ele>237.0</ele><time>2026-05-01T09:19:11Z</time></trkpt><trkpt lat="38.80064077071266" lon="-9.274789107812229"><ele>237.0</ele><time>2026-05-01T09:19:13Z</time></trkpt><trkpt lat="38.80054045998456" lon="-9.274755648708137"><ele>237.0</ele><time>2026-05-01T09:19:15Z</time></trkpt><trkpt lat="38.800452939268446" lon="-9.274714341892487"><ele>237.0</ele><time>2026-05-01T09:19:17Z</time></trkpt><trkpt lat="38.800384747985376" lon="-9.274702965989652"><ele>237.0</ele><time>2026-05-01T09:19:19Z</time></trkpt><trkpt lat="38.80032652816655" lon="-9.274756272266224"><ele>236.83333333333334</ele><time>2026-05-01T09:19:22Z</time></trkpt><trkpt lat="38.80024148172669" lon="-9.27480060351521"><ele>236.66666666666669</ele><time>2026-05-01T09:19:35Z</time></trkpt><trkpt lat="38.800131127408534" lon="-9.274856397331883"><ele>236.5</ele><time>2026-05-01T09:19:37Z</time></trkpt><trkpt lat="38.80006604071609" lon="-9.27489331507766"><ele>236.33333333333334</ele><time>2026-05-01T09:19:38Z</time></trkpt><trkpt lat="38.800009562795005" lon="-9.274929964924484"><ele>236.16666666666669</ele><time>2026-05-01T09:19:39Z</time></trkpt><trkpt lat="38.79994364874789" lon="-9.27495409279752"><ele>236.0</ele><time>2026-05-01T09:19:40Z</time></trkpt><trkpt lat="38.799825878539195" lon="-9.275018874962417"><ele>236.0</ele><time>2026-05-01T09:19:42Z</time></trkpt><trkpt lat="38.79974816511766" lon="-9.275056086551052"><ele>236.0</ele><time>2026-05-01T09:19:44Z</time></trkpt><trkpt lat="38.79977000721124" lon="-9.275261471091172"><ele>236.0</ele><time>2026-05-01T09:19:45Z</time></trkpt><trkpt lat="38.79979722822771" lon="-9.275388961992537"><ele>236.0</ele><time>2026-05-01T09:19:46Z</time></trkpt><trkpt lat="38.79982547976529" lon="-9.275516583288331"><ele>233.75</ele><time>2026-05-01T09:19:47Z</time></trkpt><trkpt lat="38.79985384652202" lon="-9.27565121613177"><ele>231.5</ele><time>2026-05-01T09:19:48Z</time></trkpt><trkpt lat="38.799884978699836" lon="-9.275795808797685"><ele>229.25</ele><time>2026-05-01T09:19:49Z</time></trkpt><trkpt lat="38.79991133663657" lon="-9.275950353785731"><ele>227.0</ele><time>2026-05-01T09:19:50Z</time></trkpt><trkpt lat="38.799936445466514" lon="-9.276107088912743"><ele>227.0</ele><time>2026-05-01T09:19:50.999Z</time></trkpt><trkpt lat="38.79995881882181" lon="-9.276272199941284"><ele>227.0</ele><time>2026-05-01T09:19:51.999Z</time></trkpt><trkpt lat="38.79998617639182" lon="-9.27644415798811"><ele>227.0</ele><time>2026-05-01T09:19:52.999Z</time></trkpt><trkpt lat="38.80001448461882" lon="-9.276618174391482"><ele>227.0</ele><time>2026-05-01T09:19:53.999Z</time></trkpt><trkpt lat="38.8000411786636" lon="-9.276795965819245"><ele>225.5</ele><time>2026-05-01T09:19:54.999Z</time></trkpt><trkpt lat="38.800072315668345" lon="-9.276975577194241"><ele>224.0</ele><time>2026-05-01T09:19:55.999Z</time></trkpt><trkpt lat="38.80009850803683" lon="-9.277161159068374"><ele>222.5</ele><time>2026-05-01T09:19:56.999Z</time></trkpt><trkpt lat="38.800120429203844" lon="-9.277348885108717"><ele>221.0</ele><time>2026-05-01T09:19:57.999Z</time></trkpt><trkpt lat="38.8001461723154" lon="-9.277537753875214"><ele>220.0</ele><time>2026-05-01T09:19:58.999Z</time></trkpt><trkpt lat="38.80017302790602" lon="-9.277725865007586"><ele>219.0</ele><time>2026-05-01T09:19:59.999Z</time></trkpt><trkpt lat="38.80020053784594" lon="-9.277915617106004"><ele>218.0</ele><time>2026-05-01T09:20:00.999Z</time></trkpt><trkpt lat="38.800229329876494" lon="-9.27810360367835"><ele>217.0</ele><time>2026-05-01T09:20:01.999Z</time></trkpt><trkpt lat="38.800260631856354" lon="-9.278292926766674"><ele>215.25</ele><time>2026-05-01T09:20:02.999Z</time></trkpt><trkpt lat="38.80029305524091" lon="-9.278475441998616"><ele>213.5</ele><time>2026-05-01T09:20:03.999Z</time></trkpt><trkpt lat="38.800324377450025" lon="-9.278658051265872"><ele>211.75</ele><time>2026-05-01T09:20:04.999Z</time></trkpt><trkpt lat="38.80035071898415" lon="-9.278840688888774"><ele>210.0</ele><time>2026-05-01T09:20:05.999Z</time></trkpt><trkpt lat="38.800383755148204" lon="-9.279023705923263"><ele>210.0</ele><time>2026-05-01T09:20:07Z</time></trkpt><trkpt lat="38.8004161099553" lon="-9.279211086939226"><ele>210.0</ele><time>2026-05-01T09:20:08Z</time></trkpt><trkpt lat="38.80044847934112" lon="-9.27940559196774"><ele>210.0</ele><time>2026-05-01T09:20:09Z</time></trkpt><trkpt lat="38.80048401180644" lon="-9.279594380510579"><ele>212.25</ele><time>2026-05-01T09:20:10Z</time></trkpt><trkpt lat="38.80052968852729" lon="-9.279781287303646"><ele>214.5</ele><time>2026-05-01T09:20:11Z</time></trkpt><trkpt lat="38.80057480099782" lon="-9.279965315317902"><ele>216.75</ele><time>2026-05-01T09:20:12Z</time></trkpt><trkpt lat="38.800624269626645" lon="-9.280140329785798"><ele>219.0</ele><time>2026-05-01T09:20:13Z</time></trkpt><trkpt lat="38.80068709477112" lon="-9.280307861248257"><ele>219.0</ele><time>2026-05-01T09:20:14Z</time></trkpt><trkpt lat="38.80076579402612" lon="-9.280439704702566"><ele>219.0</ele><time>2026-05-01T09:20:15Z</time></trkpt><trkpt lat="38.800844788591135" lon="-9.28058678756072"><ele>219.0</ele><time>2026-05-01T09:20:16Z</time></trkpt><trkpt lat="38.80092443341001" lon="-9.280744228387348"><ele>219.0</ele><time>2026-05-01T09:20:17Z</time></trkpt><trkpt lat="38.80102338367529" lon="-9.280897965594985"><ele>220.66666666666669</ele><time>2026-05-01T09:20:18Z</time></trkpt><trkpt lat="38.8011163794432" lon="-9.281057388334526"><ele>222.33333333333334</ele><time>2026-05-01T09:20:19Z</time></trkpt><trkpt lat="38.801204664947775" lon="-9.281213782775474"><ele>224.0</ele><time>2026-05-01T09:20:20Z</time></trkpt><trkpt lat="38.80129287359416" lon="-9.28137091734938"><ele>223.66666666666669</ele><time>2026-05-01T09:20:21Z</time></trkpt><trkpt lat="38.80138109909159" lon="-9.281538886224151"><ele>223.33333333333331</ele><time>2026-05-01T09:20:22Z</time></trkpt><trkpt lat="38.80146694683313" lon="-9.281708281467026"><ele>223.0</ele><time>2026-05-01T09:20:23Z</time></trkpt><trkpt lat="38.80154612234979" lon="-9.281875814269206"><ele>223.0</ele><time>2026-05-01T09:20:24Z</time></trkpt><trkpt lat="38.801626900741404" lon="-9.282048356922466"><ele>223.0</ele><time>2026-05-01T09:20:25Z</time></trkpt><trkpt lat="38.801696374744076" lon="-9.28222870998439"><ele>223.0</ele><time>2026-05-01T09:20:26Z</time></trkpt><trkpt lat="38.8017648397786" lon="-9.282412401628163"><ele>226.66666666666666</ele><time>2026-05-01T09:20:27Z</time></trkpt><trkpt lat="38.80182472417466" lon="-9.282595660554437"><ele>230.33333333333331</ele><time>2026-05-01T09:20:28Z</time></trkpt><trkpt lat="38.80188671751253" lon="-9.282780603669977"><ele>234.0</ele><time>2026-05-01T09:20:29Z</time></trkpt><trkpt lat="38.80195207008377" lon="-9.282955631763013"><ele>234.25</ele><time>2026-05-01T09:20:30Z</time></trkpt><trkpt lat="38.80201682662354" lon="-9.283120019080583"><ele>234.5</ele><time>2026-05-01T09:20:31Z</time></trkpt><trkpt lat="38.80210084774051" lon="-9.283278471848602"><ele>234.75</ele><time>2026-05-01T09:20:32Z</time></trkpt><trkpt lat="38.80218486875177" lon="-9.28343991823269"><ele>235.0</ele><time>2026-05-01T09:20:33Z</time></trkpt><trkpt lat="38.80227140779758" lon="-9.283608608611793"><ele>235.0</ele><time>2026-05-01T09:20:34Z</time></trkpt><trkpt lat="38.80236188313119" lon="-9.283784931917458"><ele>235.0</ele><time>2026-05-01T09:20:35Z</time></trkpt><trkpt lat="38.802462516268946" lon="-9.28397171593475"><ele>235.0</ele><time>2026-05-01T09:20:36Z</time></trkpt><trkpt lat="38.80256421517884" lon="-9.284157941873913"><ele>234.66666666666666</ele><time>2026-05-01T09:20:37Z</time></trkpt><trkpt lat="38.802649231404835" lon="-9.28433703683828"><ele>234.33333333333331</ele><time>2026-05-01T09:20:38Z</time></trkpt><trkpt lat="38.802734819617214" lon="-9.284510108527654"><ele>234.0</ele><time>2026-05-01T09:20:39Z</time></trkpt><trkpt lat="38.80282476808553" lon="-9.284683002318507"><ele>237.33333333333331</ele><time>2026-05-01T09:20:40Z</time></trkpt><trkpt lat="38.802910291501604" lon="-9.284850385574783"><ele>240.66666666666666</ele><time>2026-05-01T09:20:41Z</time></trkpt><trkpt lat="38.80299550552633" lon="-9.285012717899434"><ele>244.0</ele><time>2026-05-01T09:20:42Z</time></trkpt><trkpt lat="38.803076141247665" lon="-9.285187144127091"><ele>244.0</ele><time>2026-05-01T09:20:43Z</time></trkpt><trkpt lat="38.8031572690365" lon="-9.285355160208862"><ele>244.0</ele><time>2026-05-01T09:20:44Z</time></trkpt><trkpt lat="38.803238461579454" lon="-9.285526711791208"><ele>244.0</ele><time>2026-05-01T09:20:45Z</time></trkpt><trkpt lat="38.80333661513506" lon="-9.285660909270085"><ele>243.75</ele><time>2026-05-01T09:20:46Z</time></trkpt><trkpt lat="38.80344796950862" lon="-9.285771194874249"><ele>243.5</ele><time>2026-05-01T09:20:47Z</time></trkpt><trkpt lat="38.8035649279439" lon="-9.285891379796348"><ele>243.25</ele><time>2026-05-01T09:20:48Z</time></trkpt><trkpt lat="38.80370409657047" lon="-9.285987815450918"><ele>243.0</ele><time>2026-05-01T09:20:49Z</time></trkpt><trkpt lat="38.8038389604712" lon="-9.286097438232575"><ele>243.33333333333331</ele><time>2026-05-01T09:20:50Z</time></trkpt><trkpt lat="38.803973742846956" lon="-9.286204236485416"><ele>243.66666666666666</ele><time>2026-05-01T09:20:51Z</time></trkpt><trkpt lat="38.804107071523184" lon="-9.28631514678233"><ele>244.0</ele><time>2026-05-01T09:20:52Z</time></trkpt><trkpt lat="38.804239120837465" lon="-9.286430200462299"><ele>245.33333333333331</ele><time>2026-05-01T09:20:53Z</time></trkpt><trkpt lat="38.804370813309546" lon="-9.286561376978373"><ele>246.66666666666669</ele><time>2026-05-01T09:20:54Z</time></trkpt><trkpt lat="38.80449910392166" lon="-9.28670911788124"><ele>248.0</ele><time>2026-05-01T09:20:55Z</time></trkpt><trkpt lat="38.80462361610621" lon="-9.286854935897447"><ele>248.0</ele><time>2026-05-01T09:20:56Z</time></trkpt><trkpt lat="38.80474833174849" lon="-9.287005139969756"><ele>248.0</ele><time>2026-05-01T09:20:57Z</time></trkpt><trkpt lat="38.80488659139154" lon="-9.287120964426329"><ele>248.0</ele><time>2026-05-01T09:20:58Z</time></trkpt><trkpt lat="38.80502033779479" lon="-9.287235251845987"><ele>247.33333333333334</ele><time>2026-05-01T09:20:59Z</time></trkpt><trkpt lat="38.805155110047544" lon="-9.28734347646683"><ele>246.66666666666669</ele><time>2026-05-01T09:21:00Z</time></trkpt><trkpt lat="38.80528368382114" lon="-9.287459814817636"><ele>246.0</ele><time>2026-05-01T09:21:01Z</time></trkpt><trkpt lat="38.80542385040148" lon="-9.287539563685772"><ele>246.0</ele><time>2026-05-01T09:21:02Z</time></trkpt><trkpt lat="38.805559179749025" lon="-9.287627523230043"><ele>246.0</ele><time>2026-05-01T09:21:03Z</time></trkpt><trkpt lat="38.80569575276751" lon="-9.287699145722343"><ele>246.0</ele><time>2026-05-01T09:21:04Z</time></trkpt><trkpt lat="38.80583286316965" lon="-9.287757487231152"><ele>246.0</ele><time>2026-05-01T09:21:05Z</time></trkpt><trkpt lat="38.80595069901285" lon="-9.287803109132245"><ele>245.83333333333334</ele><time>2026-05-01T09:21:06Z</time></trkpt><trkpt lat="38.80603984196383" lon="-9.28783751432091"><ele>245.66666666666669</ele><time>2026-05-01T09:21:07Z</time></trkpt><trkpt lat="38.8061113252748" lon="-9.287860842436356"><ele>245.5</ele><time>2026-05-01T09:21:08Z</time></trkpt><trkpt lat="38.806205886475226" lon="-9.2878790793334"><ele>245.33333333333334</ele><time>2026-05-01T09:21:10Z</time></trkpt><trkpt lat="38.806310835025954" lon="-9.287914594515167"><ele>245.16666666666669</ele><time>2026-05-01T09:21:13Z</time></trkpt><trkpt lat="38.8063715451606" lon="-9.287939517915778"><ele>245.0</ele><time>2026-05-01T09:21:14Z</time></trkpt><trkpt lat="38.80643252443798" lon="-9.287964551520247"><ele>245.0</ele><time>2026-05-01T09:21:15Z</time></trkpt><trkpt lat="38.80653825398194" lon="-9.288008960305834"><ele>245.0</ele><time>2026-05-01T09:21:17Z</time></trkpt><trkpt lat="38.806599098350404" lon="-9.288034774433687"><ele>245.0</ele><time>2026-05-01T09:21:18Z</time></trkpt><trkpt lat="38.8067058944195" lon="-9.288080084270293"><ele>245.0</ele><time>2026-05-01T09:21:20Z</time></trkpt><trkpt lat="38.80679320629634" lon="-9.288116464843947"><ele>245.0</ele><time>2026-05-01T09:21:22Z</time></trkpt><trkpt lat="38.80689544084105" lon="-9.28815830444253"><ele>243.5</ele><time>2026-05-01T09:21:24Z</time></trkpt><trkpt lat="38.80699184329955" lon="-9.288236307704146"><ele>242.0</ele><time>2026-05-01T09:21:26Z</time></trkpt><trkpt lat="38.80685383533151" lon="-9.289031902381192"><ele>242.0</ele><time>2026-05-01T09:21:28Z</time></trkpt><trkpt lat="38.80682651329457" lon="-9.289139821415901"><ele>242.0</ele><time>2026-05-01T09:21:29Z</time></trkpt><trkpt lat="38.80684456115368" lon="-9.28925545882543"><ele>242.0</ele><time>2026-05-01T09:21:30Z</time></trkpt><trkpt lat="38.80685502039507" lon="-9.289400480242229"><ele>242.0</ele><time>2026-05-01T09:21:31Z</time></trkpt><trkpt lat="38.80687906114957" lon="-9.289559031722032"><ele>242.0</ele><time>2026-05-01T09:21:32Z</time></trkpt><trkpt lat="38.806891656342216" lon="-9.289732790273101"><ele>243.0</ele><time>2026-05-01T09:21:33Z</time></trkpt><trkpt lat="38.80691358712198" lon="-9.289911114895864"><ele>244.0</ele><time>2026-05-01T09:21:34Z</time></trkpt><trkpt lat="38.80693246341571" lon="-9.290070238725649"><ele>245.0</ele><time>2026-05-01T09:21:35Z</time></trkpt><trkpt lat="38.806945522324106" lon="-9.290192905161186"><ele>246.0</ele><time>2026-05-01T09:21:36Z</time></trkpt><trkpt lat="38.80695808274909" lon="-9.290292166830248"><ele>247.0</ele><time>2026-05-01T09:21:37Z</time></trkpt><trkpt lat="38.807023925922145" lon="-9.290398068111084"><ele>246.99999999999997</ele><time>2026-05-01T09:21:39Z</time></trkpt><trkpt lat="38.807090566938314" lon="-9.290450591933904"><ele>247.0</ele><time>2026-05-01T09:21:41Z</time></trkpt><trkpt lat="38.80714718540062" lon="-9.290526895577152"><ele>247.0</ele><time>2026-05-01T09:21:44Z</time></trkpt><trkpt lat="38.80715350540293" lon="-9.290614291189655"><ele>247.0</ele><time>2026-05-01T09:21:45.999Z</time></trkpt><trkpt lat="38.80717830970876" lon="-9.2906889532597"><ele>246.99999999999997</ele><time>2026-05-01T09:21:47.999Z</time></trkpt><trkpt lat="38.80721646168307" lon="-9.290801257921155"><ele>247.0</ele><time>2026-05-01T09:21:49.999Z</time></trkpt><trkpt lat="38.80727385988735" lon="-9.290922954596676"><ele>248.0</ele><time>2026-05-01T09:21:51.999Z</time></trkpt><trkpt lat="38.80731864951485" lon="-9.29098934942852"><ele>249.0</ele><time>2026-05-01T09:21:52.999Z</time></trkpt><trkpt lat="38.80738546822638" lon="-9.291079185542038"><ele>250.0</ele><time>2026-05-01T09:21:54.999Z</time></trkpt><trkpt lat="38.80746782432093" lon="-9.291168788465027"><ele>251.0</ele><time>2026-05-01T09:21:56.999Z</time></trkpt><trkpt lat="38.80756179196661" lon="-9.291246562615136"><ele>252.0</ele><time>2026-05-01T09:21:58.999Z</time></trkpt><trkpt lat="38.80765861365048" lon="-9.291287944886621"><ele>251.0</ele><time>2026-05-01T09:22:00.999Z</time></trkpt><trkpt lat="38.80777422626872" lon="-9.291326246073854"><ele>250.0</ele><time>2026-05-01T09:22:02.999Z</time></trkpt><trkpt lat="38.80786100198916" lon="-9.291354993956789"><ele>249.0</ele><time>2026-05-01T09:22:04.999Z</time></trkpt><trkpt lat="38.807916173001274" lon="-9.291250807534132"><ele>248.0</ele><time>2026-05-01T09:22:06.999Z</time></trkpt><trkpt lat="38.80796976008213" lon="-9.291181867580443"><ele>247.0</ele><time>2026-05-01T09:22:08.999Z</time></trkpt><trkpt lat="38.80799729015127" lon="-9.291096830318677"><ele>246.99999999999997</ele><time>2026-05-01T09:22:10.999Z</time></trkpt><trkpt lat="38.8080638462807" lon="-9.291040720989415"><ele>247.0</ele><time>2026-05-01T09:22:13Z</time></trkpt><trkpt lat="38.80815040644096" lon="-9.291034903117325"><ele>247.0</ele><time>2026-05-01T09:22:15Z</time></trkpt><trkpt lat="38.80821616813676" lon="-9.291075862848727"><ele>247.0</ele><time>2026-05-01T09:22:18Z</time></trkpt><trkpt lat="38.808287912396686" lon="-9.291146561386467"><ele>246.99999999999997</ele><time>2026-05-01T09:22:21Z</time></trkpt><trkpt lat="38.80834364724349" lon="-9.291208733669595"><ele>247.0</ele><time>2026-05-01T09:22:24Z</time></trkpt><trkpt lat="38.808426198857155" lon="-9.291260351149747"><ele>246.99999999999997</ele><time>2026-05-01T09:22:28Z</time></trkpt><trkpt lat="38.80849268567035" lon="-9.291308288371798"><ele>247.0</ele><time>2026-05-01T09:22:30Z</time></trkpt><trkpt lat="38.80854476537786" lon="-9.291385494973344"><ele>247.0</ele><time>2026-05-01T09:22:34Z</time></trkpt><trkpt lat="38.808607558136174" lon="-9.29145214709083"><ele>247.0</ele><time>2026-05-01T09:22:40Z</time></trkpt><trkpt lat="38.80865316841872" lon="-9.291515253943897"><ele>246.99999999999997</ele><time>2026-05-01T09:22:44Z</time></trkpt><trkpt lat="38.80869789311341" lon="-9.291592742302926"><ele>247.0</ele><time>2026-05-01T09:22:48Z</time></trkpt><trkpt lat="38.80873668282685" lon="-9.291669418453804"><ele>247.14285714285717</ele><time>2026-05-01T09:22:55Z</time></trkpt><trkpt lat="38.80878757535611" lon="-9.291727195634405"><ele>247.28571428571428</ele><time>2026-05-01T09:23:00Z</time></trkpt><trkpt lat="38.80882194440475" lon="-9.291800839678249"><ele>247.42857142857144</ele><time>2026-05-01T09:23:03Z</time></trkpt><trkpt lat="38.80887020849737" lon="-9.291863272923115"><ele>247.57142857142858</ele><time>2026-05-01T09:23:06Z</time></trkpt><trkpt lat="38.808912213976846" lon="-9.291924430339565"><ele>247.71428571428572</ele><time>2026-05-01T09:23:09Z</time></trkpt><trkpt lat="38.8089556500068" lon="-9.291996513326621"><ele>247.85714285714286</ele><time>2026-05-01T09:23:13Z</time></trkpt><trkpt lat="38.80901514114453" lon="-9.292045506736786"><ele>248.0</ele><time>2026-05-01T09:23:17Z</time></trkpt><trkpt lat="38.809101418852464" lon="-9.292106553712118"><ele>248.0</ele><time>2026-05-01T09:23:32Z</time></trkpt><trkpt lat="38.8091718054091" lon="-9.292160528128363"><ele>248.0</ele><time>2026-05-01T09:23:36Z</time></trkpt><trkpt lat="38.80924427150639" lon="-9.292191480439781"><ele>248.0</ele><time>2026-05-01T09:23:39Z</time></trkpt><trkpt lat="38.8093352640207" lon="-9.292216606728884"><ele>248.0</ele><time>2026-05-01T09:23:41Z</time></trkpt><trkpt lat="38.80941742498963" lon="-9.292263951922688"><ele>248.0</ele><time>2026-05-01T09:23:42.999Z</time></trkpt><trkpt lat="38.8095232729192" lon="-9.292332879557506"><ele>247.00000000000003</ele><time>2026-05-01T09:23:44.999Z</time></trkpt><trkpt lat="38.809597930901106" lon="-9.29240915780976"><ele>246.0</ele><time>2026-05-01T09:23:46.999Z</time></trkpt><trkpt lat="38.8096556536526" lon="-9.292470161211504"><ele>245.0</ele><time>2026-05-01T09:23:48.999Z</time></trkpt><trkpt lat="38.80972542906795" lon="-9.292526088519251"><ele>244.0</ele><time>2026-05-01T09:23:50.999Z</time></trkpt><trkpt lat="38.80979931551614" lon="-9.292568112974745"><ele>243.00000000000003</ele><time>2026-05-01T09:23:52.999Z</time></trkpt><trkpt lat="38.80985575727494" lon="-9.292614178527339"><ele>242.0</ele><time>2026-05-01T09:23:54.999Z</time></trkpt><trkpt lat="38.809924957365396" lon="-9.292639642429956"><ele>242.00000000000003</ele><time>2026-05-01T09:23:56.999Z</time></trkpt><trkpt lat="38.810016521184366" lon="-9.292743748094134"><ele>242.0</ele><time>2026-05-01T09:23:58.999Z</time></trkpt><trkpt lat="38.81008604532669" lon="-9.292828779955356"><ele>242.0</ele><time>2026-05-01T09:24:00.999Z</time></trkpt><trkpt lat="38.81014685641389" lon="-9.292864509486675"><ele>242.0</ele><time>2026-05-01T09:24:02.999Z</time></trkpt><trkpt lat="38.81021967013266" lon="-9.292873858879581"><ele>242.00000000000003</ele><time>2026-05-01T09:24:04.999Z</time></trkpt><trkpt lat="38.81029728541542" lon="-9.292893009183478"><ele>242.0</ele><time>2026-05-01T09:24:06.999Z</time></trkpt><trkpt lat="38.81035396439586" lon="-9.292971859342796"><ele>241.6</ele><time>2026-05-01T09:24:24Z</time></trkpt><trkpt lat="38.810414960452114" lon="-9.293042314359822"><ele>241.2</ele><time>2026-05-01T09:24:26Z</time></trkpt><trkpt lat="38.81048817458051" lon="-9.293133231522258"><ele>240.8</ele><time>2026-05-01T09:24:28Z</time></trkpt><trkpt lat="38.81055684677602" lon="-9.293225265936684"><ele>240.4</ele><time>2026-05-01T09:24:30Z</time></trkpt><trkpt lat="38.81063434810032" lon="-9.293296656506225"><ele>240.0</ele><time>2026-05-01T09:24:32Z</time></trkpt><trkpt lat="38.8106974841226" lon="-9.293346981605305"><ele>238.16666666666666</ele><time>2026-05-01T09:24:34Z</time></trkpt><trkpt lat="38.8107680832297" lon="-9.2934135426202"><ele>236.33333333333331</ele><time>2026-05-01T09:24:36Z</time></trkpt><trkpt lat="38.810843297852344" lon="-9.293489779756538"><ele>234.5</ele><time>2026-05-01T09:24:38Z</time></trkpt><trkpt lat="38.81089743673167" lon="-9.29355501004485"><ele>232.66666666666666</ele><time>2026-05-01T09:24:40Z</time></trkpt><trkpt lat="38.81095497623255" lon="-9.293611163053543"><ele>230.83333333333331</ele><time>2026-05-01T09:24:42Z</time></trkpt><trkpt lat="38.81102532693275" lon="-9.29369699652638"><ele>229.0</ele><time>2026-05-01T09:24:45Z</time></trkpt><trkpt lat="38.811016984508264" lon="-9.29378212682509"><ele>229.0</ele><time>2026-05-01T09:24:49Z</time></trkpt><trkpt lat="38.81095208871909" lon="-9.293775091123306"><ele>228.99999999999997</ele><time>2026-05-01T09:24:54Z</time></trkpt><trkpt lat="38.81086467222816" lon="-9.2938331709392"><ele>228.99999999999997</ele><time>2026-05-01T09:24:59Z</time></trkpt><trkpt lat="38.810898616906506" lon="-9.293982576364737"><ele>229.0</ele><time>2026-05-01T09:25:01Z</time></trkpt><trkpt lat="38.81096576465604" lon="-9.294056583118591"><ele>229.0</ele><time>2026-05-01T09:25:02Z</time></trkpt><trkpt lat="38.81103324777497" lon="-9.294128500306712"><ele>225.99999999999997</ele><time>2026-05-01T09:25:03Z</time></trkpt><trkpt lat="38.81105655279388" lon="-9.294233862321176"><ele>223.0</ele><time>2026-05-01T09:25:04Z</time></trkpt><trkpt lat="38.81106434331802" lon="-9.29433109054599"><ele>220.0</ele><time>2026-05-01T09:25:05Z</time></trkpt><trkpt lat="38.81106033109311" lon="-9.294458665212302"><ele>217.0</ele><time>2026-05-01T09:25:06Z</time></trkpt><trkpt lat="38.8110381953616" lon="-9.294563067388472"><ele>213.99999999999997</ele><time>2026-05-01T09:25:07Z</time></trkpt><trkpt lat="38.81101631492333" lon="-9.294691194232321"><ele>211.0</ele><time>2026-05-01T09:25:08Z</time></trkpt><trkpt lat="38.81097625660059" lon="-9.294792960539818"><ele>211.0</ele><time>2026-05-01T09:25:09Z</time></trkpt><trkpt lat="38.81092013378222" lon="-9.294889370983178"><ele>211.0</ele><time>2026-05-01T09:25:10Z</time></trkpt><trkpt lat="38.810848564888204" lon="-9.294983333780346"><ele>211.0</ele><time>2026-05-01T09:25:11Z</time></trkpt><trkpt lat="38.81074783936464" lon="-9.295078901089637"><ele>211.0</ele><time>2026-05-01T09:25:12Z</time></trkpt><trkpt lat="38.81065531800917" lon="-9.295173573391958"><ele>211.0</ele><time>2026-05-01T09:25:13Z</time></trkpt><trkpt lat="38.8105772454192" lon="-9.29525299718515"><ele>211.0</ele><time>2026-05-01T09:25:14Z</time></trkpt><trkpt lat="38.81053149947253" lon="-9.295365942876272"><ele>211.0</ele><time>2026-05-01T09:25:15Z</time></trkpt><trkpt lat="38.810511232223966" lon="-9.295496077039408"><ele>211.0</ele><time>2026-05-01T09:25:16Z</time></trkpt><trkpt lat="38.810485234576134" lon="-9.295631691867134"><ele>211.0</ele><time>2026-05-01T09:25:17Z</time></trkpt><trkpt lat="38.81044060345616" lon="-9.295756262864"><ele>211.0</ele><time>2026-05-01T09:25:18Z</time></trkpt><trkpt lat="38.81042223664669" lon="-9.295874749030915"><ele>208.0</ele><time>2026-05-01T09:25:19Z</time></trkpt><trkpt lat="38.81039882808479" lon="-9.296017575847756"><ele>205.0</ele><time>2026-05-01T09:25:20Z</time></trkpt><trkpt lat="38.81038386571362" lon="-9.296179409662647"><ele>202.0</ele><time>2026-05-01T09:25:21Z</time></trkpt><trkpt lat="38.81036707919216" lon="-9.296305263091249"><ele>199.0</ele><time>2026-05-01T09:25:22Z</time></trkpt><trkpt lat="38.81029428385499" lon="-9.296446237100936"><ele>198.2</ele><time>2026-05-01T09:25:23Z</time></trkpt><trkpt lat="38.8102430007104" lon="-9.296599036783217"><ele>197.39999999999998</ele><time>2026-05-01T09:25:24Z</time></trkpt><trkpt lat="38.810215351572786" lon="-9.29672868143325"><ele>196.6</ele><time>2026-05-01T09:25:25Z</time></trkpt><trkpt lat="38.81018363965736" lon="-9.296829431137969"><ele>195.8</ele><time>2026-05-01T09:25:26Z</time></trkpt><trkpt lat="38.810146322142785" lon="-9.296923895111647"><ele>195.0</ele><time>2026-05-01T09:25:28Z</time></trkpt><trkpt lat="38.81013373186341" lon="-9.297047466887157"><ele>196.0</ele><time>2026-05-01T09:25:39.999Z</time></trkpt><trkpt lat="38.81008686428121" lon="-9.297149237037642"><ele>197.0</ele><time>2026-05-01T09:25:41.999Z</time></trkpt><trkpt lat="38.81005420891326" lon="-9.297269540146814"><ele>198.0</ele><time>2026-05-01T09:25:43.999Z</time></trkpt><trkpt lat="38.810030801311136" lon="-9.297409992084557"><ele>199.0</ele><time>2026-05-01T09:25:45.999Z</time></trkpt><trkpt lat="38.81001137308469" lon="-9.297507789202387"><ele>200.0</ele><time>2026-05-01T09:25:47.999Z</time></trkpt><trkpt lat="38.80995209805033" lon="-9.297633608990173"><ele>200.00000000000003</ele><time>2026-05-01T09:25:49.999Z</time></trkpt><trkpt lat="38.80990269534097" lon="-9.297753962139105"><ele>200.0</ele><time>2026-05-01T09:25:51.999Z</time></trkpt><trkpt lat="38.80985444980534" lon="-9.297860168586805"><ele>200.0</ele><time>2026-05-01T09:25:53.999Z</time></trkpt><trkpt lat="38.80980442514111" lon="-9.297933104776135"><ele>200.0</ele><time>2026-05-01T09:25:55.999Z</time></trkpt><trkpt lat="38.80977741743733" lon="-9.298009225734091"><ele>200.00000000000003</ele><time>2026-05-01T09:25:57.999Z</time></trkpt><trkpt lat="38.8097343057208" lon="-9.298097346405681"><ele>200.0</ele><time>2026-05-01T09:25:59.999Z</time></trkpt><trkpt lat="38.80968045693827" lon="-9.298148876268472"><ele>197.8</ele><time>2026-05-01T09:26:01.999Z</time></trkpt><trkpt lat="38.80962884373244" lon="-9.298228703822991"><ele>195.6</ele><time>2026-05-01T09:26:03.999Z</time></trkpt><trkpt lat="38.80961564836887" lon="-9.298324489274725"><ele>193.39999999999998</ele><time>2026-05-01T09:26:05.999Z</time></trkpt><trkpt lat="38.80960152484751" lon="-9.29842534037988"><ele>191.2</ele><time>2026-05-01T09:26:07.999Z</time></trkpt><trkpt lat="38.80960399741807" lon="-9.29854823677574"><ele>189.0</ele><time>2026-05-01T09:26:09.999Z</time></trkpt><trkpt lat="38.80963671183687" lon="-9.298711904974043"><ele>189.0</ele><time>2026-05-01T09:26:11.999Z</time></trkpt><trkpt lat="38.80965987355598" lon="-9.298799895271726"><ele>189.0</ele><time>2026-05-01T09:26:12.999Z</time></trkpt><trkpt lat="38.80965594007054" lon="-9.298887748205118"><ele>189.0</ele><time>2026-05-01T09:26:13.999Z</time></trkpt><trkpt lat="38.80963113466085" lon="-9.299018104628365"><ele>189.0</ele><time>2026-05-01T09:26:15.999Z</time></trkpt><trkpt lat="38.80959845297333" lon="-9.299096144758266"><ele>189.0</ele><time>2026-05-01T09:26:17.999Z</time></trkpt><trkpt lat="38.8095443825722" lon="-9.299187533793836"><ele>189.0</ele><time>2026-05-01T09:26:19.999Z</time></trkpt><trkpt lat="38.809488637801515" lon="-9.29927864521268"><ele>189.0</ele><time>2026-05-01T09:26:21.999Z</time></trkpt><trkpt lat="38.80943632347412" lon="-9.299336388969325"><ele>189.0</ele><time>2026-05-01T09:26:23.999Z</time></trkpt><trkpt lat="38.8093687343156" lon="-9.299421599178256"><ele>189.0</ele><time>2026-05-01T09:26:27Z</time></trkpt><trkpt lat="38.80931505040996" lon="-9.299483134967478"><ele>189.0</ele><time>2026-05-01T09:26:29Z</time></trkpt><trkpt lat="38.80925225635165" lon="-9.299557098683225"><ele>189.0</ele><time>2026-05-01T09:28:10.999Z</time></trkpt><trkpt lat="38.8091816976565" lon="-9.299610744581491"><ele>189.0</ele><time>2026-05-01T09:28:12.999Z</time></trkpt><trkpt lat="38.80912385185914" lon="-9.29969096736068"><ele>188.33333333333334</ele><time>2026-05-01T09:28:14.999Z</time></trkpt><trkpt lat="38.80907777659104" lon="-9.299771431895765"><ele>187.66666666666666</ele><time>2026-05-01T09:28:16.999Z</time></trkpt><trkpt lat="38.809035493320195" lon="-9.299840993825596"><ele>187.0</ele><time>2026-05-01T09:28:19.999Z</time></trkpt><trkpt lat="38.80898189984673" lon="-9.299908801332533"><ele>186.33333333333331</ele><time>2026-05-01T09:28:23.999Z</time></trkpt><trkpt lat="38.80894302113817" lon="-9.30000217081975"><ele>185.66666666666666</ele><time>2026-05-01T09:28:26.999Z</time></trkpt><trkpt lat="38.80887743461566" lon="-9.300047781623121"><ele>185.0</ele><time>2026-05-01T09:28:29.999Z</time></trkpt><trkpt lat="38.80880171451113" lon="-9.300056663415871"><ele>185.0</ele><time>2026-05-01T09:28:32Z</time></trkpt><trkpt lat="38.80870008895209" lon="-9.300070240500496"><ele>185.0</ele><time>2026-05-01T09:28:35Z</time></trkpt><trkpt lat="38.80861973287773" lon="-9.300094933574725"><ele>185.0</ele><time>2026-05-01T09:28:38Z</time></trkpt><trkpt lat="38.808557355488055" lon="-9.300132601332887"><ele>185.0</ele><time>2026-05-01T09:30:46Z</time></trkpt><trkpt lat="38.80862361940342" lon="-9.300072190818998"><ele>185.0</ele><time>2026-05-01T09:31:11Z</time></trkpt><trkpt lat="38.80856323952366" lon="-9.300106869076139"><ele>185.0</ele><time>2026-05-01T09:32:06.999Z</time></trkpt><trkpt lat="38.80850263407703" lon="-9.300171829301162"><ele>184.99999999999997</ele><time>2026-05-01T09:32:59Z</time></trkpt><trkpt lat="38.8084586781435" lon="-9.30023403418457"><ele>185.0</ele><time>2026-05-01T09:33:14Z</time></trkpt><trkpt lat="38.8083874988727" lon="-9.300261019063594"><ele>185.0</ele><time>2026-05-01T09:33:19Z</time></trkpt><trkpt lat="38.80833891018573" lon="-9.300333516590412"><ele>185.0</ele><time>2026-05-01T09:33:22.999Z</time></trkpt><trkpt lat="38.80840720346963" lon="-9.300335152342459"><ele>185.0</ele><time>2026-05-01T09:34:11.999Z</time></trkpt><trkpt lat="38.808478350197674" lon="-9.300305037525336"><ele>184.99999999999997</ele><time>2026-05-01T09:34:14.999Z</time></trkpt><trkpt lat="38.80854022057191" lon="-9.300278127829388"><ele>185.0</ele><time>2026-05-01T09:34:16.999Z</time></trkpt><trkpt lat="38.80861228350843" lon="-9.300229205446838"><ele>184.99999999999997</ele><time>2026-05-01T09:34:19.999Z</time></trkpt><trkpt lat="38.80867345354321" lon="-9.300199144432261"><ele>185.0</ele><time>2026-05-01T09:34:23.999Z</time></trkpt><trkpt lat="38.808608102378535" lon="-9.300243463810812"><ele>185.0</ele><time>2026-05-01T09:34:31.999Z</time></trkpt><trkpt lat="38.80854797903393" lon="-9.300307030103971"><ele>185.0</ele><time>2026-05-01T09:34:35.999Z</time></trkpt><trkpt lat="38.80848580537548" lon="-9.30032487587549"><ele>185.0</ele><time>2026-05-01T09:34:38.999Z</time></trkpt><trkpt lat="38.80842205775251" lon="-9.300321565150705"><ele>184.99999999999997</ele><time>2026-05-01T09:34:42.999Z</time></trkpt><trkpt lat="38.80835377688968" lon="-9.300308871327728"><ele>185.0</ele><time>2026-05-01T09:34:54Z</time></trkpt><trkpt lat="38.80827528083929" lon="-9.300341358175379"><ele>186.0</ele><time>2026-05-01T09:35:04Z</time></trkpt><trkpt lat="38.80818578149919" lon="-9.300366089834068"><ele>187.0</ele><time>2026-05-01T09:35:06Z</time></trkpt><trkpt lat="38.80809505524189" lon="-9.300402446999671"><ele>188.0</ele><time>2026-05-01T09:35:08Z</time></trkpt><trkpt lat="38.80802043505402" lon="-9.30039548077615"><ele>189.0</ele><time>2026-05-01T09:35:10Z</time></trkpt><trkpt lat="38.807934610855206" lon="-9.300353104793663"><ele>190.0</ele><time>2026-05-01T09:35:13Z</time></trkpt><trkpt lat="38.80782697706561" lon="-9.300349290519193"><ele>190.0</ele><time>2026-05-01T09:35:15.999Z</time></trkpt><trkpt lat="38.80773251822567" lon="-9.300382186997812"><ele>190.0</ele><time>2026-05-01T09:35:17.999Z</time></trkpt><trkpt lat="38.807647539782046" lon="-9.30039695774031"><ele>190.0</ele><time>2026-05-01T09:35:19.999Z</time></trkpt><trkpt lat="38.80757944256927" lon="-9.300438384950922"><ele>190.0</ele><time>2026-05-01T09:35:21.999Z</time></trkpt><trkpt lat="38.80750968389175" lon="-9.300454323346194"><ele>190.0</ele><time>2026-05-01T09:35:23.999Z</time></trkpt><trkpt lat="38.80741911151637" lon="-9.300501630719145"><ele>190.0</ele><time>2026-05-01T09:35:26.999Z</time></trkpt><trkpt lat="38.807348729621594" lon="-9.300558676230443"><ele>189.0</ele><time>2026-05-01T09:35:28.999Z</time></trkpt><trkpt lat="38.807276850887575" lon="-9.300627242488186"><ele>188.0</ele><time>2026-05-01T09:35:30.999Z</time></trkpt><trkpt lat="38.80720406498673" lon="-9.30067387978767"><ele>187.0</ele><time>2026-05-01T09:35:32.999Z</time></trkpt><trkpt lat="38.807119241550254" lon="-9.300722347823347"><ele>186.0</ele><time>2026-05-01T09:35:34.999Z</time></trkpt><trkpt lat="38.80703584124676" lon="-9.300768760532561"><ele>185.0</ele><time>2026-05-01T09:35:36.999Z</time></trkpt><trkpt lat="38.80696424808278" lon="-9.300816544351429"><ele>184.0</ele><time>2026-05-01T09:35:38.999Z</time></trkpt><trkpt lat="38.80687411758369" lon="-9.300872028643923"><ele>185.16666666666669</ele><time>2026-05-01T09:35:41.999Z</time></trkpt><trkpt lat="38.80680819504301" lon="-9.300906984692162"><ele>186.33333333333334</ele><time>2026-05-01T09:35:43.999Z</time></trkpt><trkpt lat="38.80673403840092" lon="-9.300951726696711"><ele>187.5</ele><time>2026-05-01T09:35:45.999Z</time></trkpt><trkpt lat="38.806655091291866" lon="-9.300991879966869"><ele>188.66666666666666</ele><time>2026-05-01T09:35:47.999Z</time></trkpt><trkpt lat="38.80660075381708" lon="-9.301039796978692"><ele>189.83333333333331</ele><time>2026-05-01T09:35:49.999Z</time></trkpt><trkpt lat="38.806529052105866" lon="-9.301070177551349"><ele>191.0</ele><time>2026-05-01T09:35:51.999Z</time></trkpt><trkpt lat="38.806425311747745" lon="-9.301038549149393"><ele>191.0</ele><time>2026-05-01T09:35:56.999Z</time></trkpt><trkpt lat="38.80634043746743" lon="-9.301030691822433"><ele>191.0</ele><time>2026-05-01T09:35:58.999Z</time></trkpt><trkpt lat="38.80626435245143" lon="-9.301011804796998"><ele>191.0</ele><time>2026-05-01T09:36:00.999Z</time></trkpt><trkpt lat="38.80617518175228" lon="-9.300971193972327"><ele>191.0</ele><time>2026-05-01T09:36:02.999Z</time></trkpt><trkpt lat="38.80607215319236" lon="-9.300946446979937"><ele>191.0</ele><time>2026-05-01T09:36:04.999Z</time></trkpt><trkpt lat="38.805992793052546" lon="-9.300874395808847"><ele>191.4</ele><time>2026-05-01T09:36:06.999Z</time></trkpt><trkpt lat="38.80587013527235" lon="-9.30089751271529"><ele>191.8</ele><time>2026-05-01T09:36:08.999Z</time></trkpt><trkpt lat="38.80580682472067" lon="-9.30089956754638"><ele>192.20000000000002</ele><time>2026-05-01T09:36:09.999Z</time></trkpt><trkpt lat="38.80571203195036" lon="-9.300988786893418"><ele>192.60000000000002</ele><time>2026-05-01T09:36:11.999Z</time></trkpt><trkpt lat="38.80563519356111" lon="-9.30106725628416"><ele>193.0</ele><time>2026-05-01T09:36:13.999Z</time></trkpt><trkpt lat="38.80555684250832" lon="-9.301097699560687"><ele>192.99999999999997</ele><time>2026-05-01T09:36:15.999Z</time></trkpt><trkpt lat="38.805490232475236" lon="-9.301142556900862"><ele>193.0</ele><time>2026-05-01T09:36:17.999Z</time></trkpt><trkpt lat="38.80542426574543" lon="-9.301188299105059"><ele>193.0</ele><time>2026-05-01T09:36:19.999Z</time></trkpt><trkpt lat="38.80534321788455" lon="-9.301289535192641"><ele>193.0</ele><time>2026-05-01T09:36:21.999Z</time></trkpt><trkpt lat="38.80527419365262" lon="-9.301361731965967"><ele>192.99999999999997</ele><time>2026-05-01T09:36:23.999Z</time></trkpt><trkpt lat="38.80520607708533" lon="-9.301419349295276"><ele>193.0</ele><time>2026-05-01T09:36:25.999Z</time></trkpt><trkpt lat="38.80511965683825" lon="-9.301468337198768"><ele>193.2</ele><time>2026-05-01T09:36:27.999Z</time></trkpt><trkpt lat="38.805029008217474" lon="-9.301515633656285"><ele>193.4</ele><time>2026-05-01T09:36:29.999Z</time></trkpt><trkpt lat="38.80493314034184" lon="-9.30157445484228"><ele>193.6</ele><time>2026-05-01T09:36:31.999Z</time></trkpt><trkpt lat="38.80482923559722" lon="-9.301637543643146"><ele>193.79999999999998</ele><time>2026-05-01T09:36:33.999Z</time></trkpt><trkpt lat="38.80474274954711" lon="-9.301700032347672"><ele>194.0</ele><time>2026-05-01T09:36:35.999Z</time></trkpt><trkpt lat="38.8046885523034" lon="-9.30174901657265"><ele>194.00000000000003</ele><time>2026-05-01T09:36:37.999Z</time></trkpt><trkpt lat="38.804632685506014" lon="-9.301660636249354"><ele>194.0</ele><time>2026-05-01T09:37:55.999Z</time></trkpt><trkpt lat="38.80461459810826" lon="-9.301571635489205"><ele>194.0</ele><time>2026-05-01T09:37:56.999Z</time></trkpt><trkpt lat="38.80459578658823" lon="-9.301471003918367"><ele>194.0</ele><time>2026-05-01T09:37:57.999Z</time></trkpt><trkpt lat="38.8045698587787" lon="-9.301350162119634"><ele>194.00000000000003</ele><time>2026-05-01T09:37:58.999Z</time></trkpt><trkpt lat="38.80453561769768" lon="-9.301237287838802"><ele>194.0</ele><time>2026-05-01T09:37:59.999Z</time></trkpt><trkpt lat="38.80450491238914" lon="-9.301120058039135"><ele>195.6</ele><time>2026-05-01T09:38:00.999Z</time></trkpt><trkpt lat="38.804483187133016" lon="-9.30100763898402"><ele>197.2</ele><time>2026-05-01T09:38:01.999Z</time></trkpt><trkpt lat="38.80446304442452" lon="-9.300921316205434"><ele>198.79999999999998</ele><time>2026-05-01T09:38:02.999Z</time></trkpt><trkpt lat="38.80442053178067" lon="-9.30078326904907"><ele>200.39999999999998</ele><time>2026-05-01T09:38:04.999Z</time></trkpt><trkpt lat="38.804388025265595" lon="-9.30063024735586"><ele>202.0</ele><time>2026-05-01T09:38:06.999Z</time></trkpt><trkpt lat="38.8043454121123" lon="-9.300494257028213"><ele>206.66666666666666</ele><time>2026-05-01T09:38:08.999Z</time></trkpt><trkpt lat="38.80431583425981" lon="-9.300370199677639"><ele>211.33333333333331</ele><time>2026-05-01T09:38:10.999Z</time></trkpt><trkpt lat="38.804285401656166" lon="-9.300264814414115"><ele>216.0</ele><time>2026-05-01T09:38:12.999Z</time></trkpt><trkpt lat="38.80427099686575" lon="-9.300185511265468"><ele>220.66666666666669</ele><time>2026-05-01T09:38:14.999Z</time></trkpt><trkpt lat="38.80423415601771" lon="-9.300066013920429"><ele>225.33333333333334</ele><time>2026-05-01T09:38:16.999Z</time></trkpt><trkpt lat="38.80421941821086" lon="-9.299943229370081"><ele>230.0</ele><time>2026-05-01T09:38:18.999Z</time></trkpt><trkpt lat="38.80417549603644" lon="-9.299842819152634"><ele>232.50000000000003</ele><time>2026-05-01T09:38:20.999Z</time></trkpt><trkpt lat="38.80416455791748" lon="-9.299727061543132"><ele>235.0</ele><time>2026-05-01T09:38:22.999Z</time></trkpt><trkpt lat="38.8041329449912" lon="-9.299628359948407"><ele>237.5</ele><time>2026-05-01T09:38:24.999Z</time></trkpt><trkpt lat="38.804104964285486" lon="-9.299528250320801"><ele>240.0</ele><time>2026-05-01T09:38:26.999Z</time></trkpt><trkpt lat="38.804061910955944" lon="-9.299431599670408"><ele>242.50000000000003</ele><time>2026-05-01T09:38:28.999Z</time></trkpt><trkpt lat="38.8040502101033" lon="-9.299319745075172"><ele>245.0</ele><time>2026-05-01T09:38:30.999Z</time></trkpt><trkpt lat="38.8040190520696" lon="-9.299214698614152"><ele>245.00000000000003</ele><time>2026-05-01T09:38:32.999Z</time></trkpt><trkpt lat="38.80400208637626" lon="-9.299121178064896"><ele>245.0</ele><time>2026-05-01T09:38:34.999Z</time></trkpt><trkpt lat="38.8039657466827" lon="-9.299023998285152"><ele>245.0</ele><time>2026-05-01T09:38:36.999Z</time></trkpt><trkpt lat="38.80395502288884" lon="-9.298929788216062"><ele>245.0</ele><time>2026-05-01T09:38:37.999Z</time></trkpt><trkpt lat="38.80392445457617" lon="-9.298805301760428"><ele>245.00000000000003</ele><time>2026-05-01T09:38:39.999Z</time></trkpt><trkpt lat="38.80388491845775" lon="-9.29868095606471"><ele>245.0</ele><time>2026-05-01T09:38:41.999Z</time></trkpt><trkpt lat="38.803863654904575" lon="-9.2986041072692"><ele>246.28571428571428</ele><time>2026-05-01T09:38:44.999Z</time></trkpt><trkpt lat="38.803825081876184" lon="-9.298527481310336"><ele>247.57142857142856</ele><time>2026-05-01T10:01:18Z</time></trkpt><trkpt lat="38.80384695331905" lon="-9.298610365020266"><ele>248.85714285714286</ele><time>2026-05-01T10:01:50Z</time></trkpt><trkpt lat="38.803877799081064" lon="-9.298710681097518"><ele>250.14285714285714</ele><time>2026-05-01T10:01:53Z</time></trkpt><trkpt lat="38.803886885361116" lon="-9.298790850598953"><ele>251.42857142857142</ele><time>2026-05-01T10:01:57Z</time></trkpt><trkpt lat="38.80385732167448" lon="-9.298700203285211"><ele>252.71428571428572</ele><time>2026-05-01T10:02:56Z</time></trkpt><trkpt lat="38.8038441979251" lon="-9.298599263682606"><ele>254.0</ele><time>2026-05-01T10:03:00Z</time></trkpt><trkpt lat="38.80381046253122" lon="-9.298493351630952"><ele>254.00000000000003</ele><time>2026-05-01T10:04:24Z</time></trkpt><trkpt lat="38.80378781771986" lon="-9.298398926493016"><ele>254.0</ele><time>2026-05-01T10:04:26Z</time></trkpt><trkpt lat="38.803764358575684" lon="-9.298311157503624"><ele>254.0</ele><time>2026-05-01T10:04:28Z</time></trkpt><trkpt lat="38.80372803342352" lon="-9.298204779795613"><ele>254.0</ele><time>2026-05-01T10:04:30Z</time></trkpt><trkpt lat="38.80371920863435" lon="-9.29809620182256"><ele>254.00000000000003</ele><time>2026-05-01T10:04:32Z</time></trkpt><trkpt lat="38.80369234867511" lon="-9.298005350735746"><ele>254.0</ele><time>2026-05-01T10:04:36Z</time></trkpt><trkpt lat="38.80374062560655" lon="-9.29793533170248"><ele>255.00000000000003</ele><time>2026-05-01T10:04:38Z</time></trkpt><trkpt lat="38.80383212948051" lon="-9.29788528783083"><ele>256.0</ele><time>2026-05-01T10:04:41Z</time></trkpt><trkpt lat="38.80390320710633" lon="-9.297867015045675"><ele>257.0</ele><time>2026-05-01T10:04:43Z</time></trkpt><trkpt lat="38.80396573152684" lon="-9.297845859875961"><ele>258.0</ele><time>2026-05-01T10:04:45Z</time></trkpt><trkpt lat="38.804050499993934" lon="-9.29780427904893"><ele>259.0</ele><time>2026-05-01T10:04:48Z</time></trkpt><trkpt lat="38.80411044447267" lon="-9.297735995810617"><ele>260.0</ele><time>2026-05-01T10:04:51Z</time></trkpt><trkpt lat="38.80417477889402" lon="-9.297704548468095"><ele>260.00000000000006</ele><time>2026-05-01T10:04:53Z</time></trkpt><trkpt lat="38.804234167298304" lon="-9.297671530400422"><ele>260.0</ele><time>2026-05-01T10:04:55Z</time></trkpt><trkpt lat="38.804289411158855" lon="-9.297624523743176"><ele>260.0</ele><time>2026-05-01T10:04:57Z</time></trkpt><trkpt lat="38.80436565363923" lon="-9.297590372041935"><ele>260.0</ele><time>2026-05-01T10:04:59Z</time></trkpt><trkpt lat="38.80443555142989" lon="-9.297574568842562"><ele>260.0</ele><time>2026-05-01T10:05:01Z</time></trkpt><trkpt lat="38.80452176218845" lon="-9.297554861295302"><ele>260.00000000000006</ele><time>2026-05-01T10:05:04Z</time></trkpt><trkpt lat="38.80445991576301" lon="-9.297575626659592"><ele>260.0</ele><time>2026-05-01T10:05:37Z</time></trkpt><trkpt lat="38.80439589945072" lon="-9.297602707242028"><ele>260.00000000000006</ele><time>2026-05-01T10:05:41Z</time></trkpt><trkpt lat="38.80432600031907" lon="-9.297622544651343"><ele>260.0</ele><time>2026-05-01T10:05:45Z</time></trkpt><trkpt lat="38.80425510780598" lon="-9.297670039929754"><ele>260.0</ele><time>2026-05-01T10:05:50Z</time></trkpt><trkpt lat="38.80419252662651" lon="-9.297721180394248"><ele>260.0</ele><time>2026-05-01T10:05:55Z</time></trkpt><trkpt lat="38.80412764453605" lon="-9.297738493624587"><ele>260.0</ele><time>2026-05-01T10:05:59Z</time></trkpt><trkpt lat="38.80406982203396" lon="-9.29778347363584"><ele>260.00000000000006</ele><time>2026-05-01T10:06:03Z</time></trkpt><trkpt lat="38.80400575408162" lon="-9.297837214985805"><ele>260.0</ele><time>2026-05-01T10:06:08Z</time></trkpt><trkpt lat="38.80393579413897" lon="-9.297864886760838"><ele>260.00000000000006</ele><time>2026-05-01T10:06:13Z</time></trkpt><trkpt lat="38.80386947919817" lon="-9.297890418270228"><ele>260.0</ele><time>2026-05-01T10:06:18Z</time></trkpt><trkpt lat="38.80379841821991" lon="-9.297913039009531"><ele>260.0</ele><time>2026-05-01T10:09:18Z</time></trkpt><trkpt lat="38.80374316916715" lon="-9.297963602777228"><ele>260.0</ele><time>2026-05-01T10:09:24Z</time></trkpt><trkpt lat="38.80369338837701" lon="-9.298026787257326"><ele>260.0</ele><time>2026-05-01T10:09:28Z</time></trkpt><trkpt lat="38.803713975255306" lon="-9.298106163564805"><ele>260.00000000000006</ele><time>2026-05-01T10:09:37Z</time></trkpt><trkpt lat="38.803729347148185" lon="-9.298185324352351"><ele>260.0</ele><time>2026-05-01T10:09:41Z</time></trkpt><trkpt lat="38.80374392970471" lon="-9.298267525926791"><ele>259.14285714285717</ele><time>2026-05-01T10:09:44Z</time></trkpt><trkpt lat="38.80377326837337" lon="-9.298362713682994"><ele>258.2857142857143</ele><time>2026-05-01T10:09:48Z</time></trkpt><trkpt lat="38.803795491420885" lon="-9.29845462255598"><ele>257.42857142857144</ele><time>2026-05-01T10:09:51Z</time></trkpt><trkpt lat="38.80382370956557" lon="-9.29852811495547"><ele>256.57142857142856</ele><time>2026-05-01T10:09:54Z</time></trkpt><trkpt lat="38.80385625341496" lon="-9.298615807166405"><ele>255.71428571428572</ele><time>2026-05-01T10:09:57Z</time></trkpt><trkpt lat="38.803889743619195" lon="-9.298687258436305"><ele>254.85714285714286</ele><time>2026-05-01T10:09:59Z</time></trkpt><trkpt lat="38.803908489412294" lon="-9.298777602621483"><ele>254.0</ele><time>2026-05-01T10:10:09Z</time></trkpt><trkpt lat="38.80387156689496" lon="-9.29870051799587"><ele>254.0</ele><time>2026-05-01T10:10:37Z</time></trkpt><trkpt lat="38.80384911156402" lon="-9.29861536885904"><ele>254.0</ele><time>2026-05-01T10:10:41Z</time></trkpt><trkpt lat="38.80382201982311" lon="-9.298528854192046"><ele>254.0</ele><time>2026-05-01T10:10:46Z</time></trkpt><trkpt lat="38.80380023888407" lon="-9.29843522675216"><ele>254.0</ele><time>2026-05-01T10:10:50Z</time></trkpt><trkpt lat="38.80377699200745" lon="-9.298356535790509"><ele>254.0</ele><time>2026-05-01T10:10:54Z</time></trkpt><trkpt lat="38.80375572095826" lon="-9.298274554021786"><ele>254.0</ele><time>2026-05-01T10:10:58Z</time></trkpt><trkpt lat="38.80373587143854" lon="-9.298181128048357"><ele>254.0</ele><time>2026-05-01T10:11:02Z</time></trkpt><trkpt lat="38.80371764972629" lon="-9.298095514501885"><ele>254.85714285714286</ele><time>2026-05-01T10:11:06Z</time></trkpt><trkpt lat="38.80370370240519" lon="-9.298012254691146"><ele>255.71428571428572</ele><time>2026-05-01T10:11:10Z</time></trkpt><trkpt lat="38.80375200331294" lon="-9.297956641561465"><ele>256.57142857142856</ele><time>2026-05-01T10:11:14Z</time></trkpt><trkpt lat="38.80380554425214" lon="-9.298002310166156"><ele>257.42857142857144</ele><time>2026-05-01T10:11:18Z</time></trkpt><trkpt lat="38.803838046925044" lon="-9.297924315470972"><ele>258.2857142857143</ele><time>2026-05-01T10:11:20Z</time></trkpt><trkpt lat="38.80391555834981" lon="-9.297886393611325"><ele>259.14285714285717</ele><time>2026-05-01T10:11:25Z</time></trkpt><trkpt lat="38.803973705035745" lon="-9.297852789015081"><ele>260.0</ele><time>2026-05-01T10:11:29Z</time></trkpt><trkpt lat="38.80403892420665" lon="-9.297815711318048"><ele>260.00000000000006</ele><time>2026-05-01T10:11:34Z</time></trkpt><trkpt lat="38.80409416610887" lon="-9.29774866469729"><ele>260.0</ele><time>2026-05-01T10:11:39Z</time></trkpt><trkpt lat="38.80416566751118" lon="-9.297712963448609"><ele>260.0</ele><time>2026-05-01T10:11:44Z</time></trkpt><trkpt lat="38.80422901987562" lon="-9.297683511748586"><ele>260.0</ele><time>2026-05-01T10:11:49Z</time></trkpt><trkpt lat="38.80429096178623" lon="-9.297644452149296"><ele>260.0</ele><time>2026-05-01T10:11:54Z</time></trkpt><trkpt lat="38.80434887625487" lon="-9.297612563842495"><ele>260.00000000000006</ele><time>2026-05-01T10:11:58Z</time></trkpt><trkpt lat="38.80441078631665" lon="-9.29759762566437"><ele>260.0</ele><time>2026-05-01T10:12:02Z</time></trkpt><trkpt lat="38.80448334656959" lon="-9.297573064961119"><ele>260.14285714285717</ele><time>2026-05-01T10:12:07Z</time></trkpt><trkpt lat="38.80455397271609" lon="-9.297549109261446"><ele>260.2857142857143</ele><time>2026-05-01T10:12:11Z</time></trkpt><trkpt lat="38.80462851688841" lon="-9.297520313679062"><ele>260.42857142857144</ele><time>2026-05-01T10:12:16Z</time></trkpt><trkpt lat="38.80470247270497" lon="-9.297493636268447"><ele>260.57142857142856</ele><time>2026-05-01T10:12:21Z</time></trkpt><trkpt lat="38.804771720440364" lon="-9.297458748482846"><ele>260.7142857142857</ele><time>2026-05-01T10:12:26Z</time></trkpt><trkpt lat="38.804841672308484" lon="-9.297439146009918"><ele>260.8571428571429</ele><time>2026-05-01T10:12:31Z</time></trkpt><trkpt lat="38.8047817861999" lon="-9.297464753146977"><ele>261.0</ele><time>2026-05-01T10:12:42Z</time></trkpt><trkpt lat="38.80471734658263" lon="-9.297480168846919"><ele>261.0</ele><time>2026-05-01T10:12:46Z</time></trkpt><trkpt lat="38.80465751309177" lon="-9.297506911519053"><ele>261.0</ele><time>2026-05-01T10:12:50Z</time></trkpt><trkpt lat="38.80459210833384" lon="-9.297530190606059"><ele>261.0</ele><time>2026-05-01T10:12:54Z</time></trkpt><trkpt lat="38.80451855468876" lon="-9.297559091716723"><ele>261.0</ele><time>2026-05-01T10:12:58Z</time></trkpt><trkpt lat="38.80445482245486" lon="-9.297582648847325"><ele>261.0</ele><time>2026-05-01T10:13:02Z</time></trkpt><trkpt lat="38.80438696400554" lon="-9.297603114569434"><ele>261.0</ele><time>2026-05-01T10:13:06Z</time></trkpt><trkpt lat="38.80431807755876" lon="-9.297616051193353"><ele>261.0</ele><time>2026-05-01T10:13:10Z</time></trkpt><trkpt lat="38.80425577179821" lon="-9.297662202932383"><ele>260.8571428571429</ele><time>2026-05-01T10:13:14Z</time></trkpt><trkpt lat="38.804192587629885" lon="-9.297705329577854"><ele>260.7142857142857</ele><time>2026-05-01T10:13:18Z</time></trkpt><trkpt lat="38.804125686107476" lon="-9.297731378910107"><ele>260.57142857142856</ele><time>2026-05-01T10:13:22Z</time></trkpt><trkpt lat="38.80406691968116" lon="-9.297775611586639"><ele>260.42857142857144</ele><time>2026-05-01T10:13:26Z</time></trkpt><trkpt lat="38.80400991432879" lon="-9.297835610846699"><ele>260.2857142857143</ele><time>2026-05-01T10:13:29Z</time></trkpt><trkpt lat="38.80394648653049" lon="-9.29785685039563"><ele>260.14285714285717</ele><time>2026-05-01T10:13:32Z</time></trkpt><trkpt lat="38.8038852610436" lon="-9.29787855757046"><ele>260.0</ele><time>2026-05-01T10:13:36Z</time></trkpt><trkpt lat="38.803825440224216" lon="-9.29791393442414"><ele>260.00000000000006</ele><time>2026-05-01T10:13:41Z</time></trkpt><trkpt lat="38.8037532285623" lon="-9.297938041540453"><ele>260.0</ele><time>2026-05-01T10:13:46Z</time></trkpt><trkpt lat="38.80371288550375" lon="-9.298015141653766"><ele>260.0</ele><time>2026-05-01T10:13:50Z</time></trkpt><trkpt lat="38.8037268608772" lon="-9.298102652274803"><ele>260.0</ele><time>2026-05-01T10:13:54Z</time></trkpt><trkpt lat="38.803741940880656" lon="-9.298188814265776"><ele>260.0</ele><time>2026-05-01T10:13:58Z</time></trkpt><trkpt lat="38.80375281437193" lon="-9.298280502946017"><ele>260.00000000000006</ele><time>2026-05-01T10:14:02Z</time></trkpt><trkpt lat="38.8037812183057" lon="-9.298369583873043"><ele>260.0</ele><time>2026-05-01T10:14:07Z</time></trkpt><trkpt lat="38.803804376388264" lon="-9.298446946682203"><ele>259.14285714285717</ele><time>2026-05-01T10:14:11Z</time></trkpt><trkpt lat="38.8038189820234" lon="-9.298535491714857"><ele>258.2857142857143</ele><time>2026-05-01T10:14:15Z</time></trkpt><trkpt lat="38.80384694296744" lon="-9.298609964769433"><ele>257.42857142857144</ele><time>2026-05-01T10:14:19Z</time></trkpt><trkpt lat="38.80386336790469" lon="-9.298692197922568"><ele>256.57142857142856</ele><time>2026-05-01T10:14:23Z</time></trkpt><trkpt lat="38.80387898185135" lon="-9.29878410569146"><ele>255.71428571428572</ele><time>2026-05-01T10:14:28Z</time></trkpt><trkpt lat="38.803857117658346" lon="-9.298701350718208"><ele>254.85714285714286</ele><time>2026-05-01T10:16:53Z</time></trkpt><trkpt lat="38.80384063987358" lon="-9.298590092317255"><ele>254.0</ele><time>2026-05-01T10:18:30Z</time></trkpt><trkpt lat="38.803802440613154" lon="-9.298467336742734"><ele>254.00000000000003</ele><time>2026-05-01T10:18:32Z</time></trkpt><trkpt lat="38.80377779629709" lon="-9.298386976746302"><ele>254.0</ele><time>2026-05-01T10:18:34Z</time></trkpt><trkpt lat="38.803752150004954" lon="-9.298281190137821"><ele>254.0</ele><time>2026-05-01T10:18:36Z</time></trkpt><trkpt lat="38.80372217595351" lon="-9.29816719017266"><ele>254.0</ele><time>2026-05-01T10:18:38Z</time></trkpt><trkpt lat="38.803720753824884" lon="-9.298067757395797"><ele>254.00000000000003</ele><time>2026-05-01T10:18:40Z</time></trkpt><trkpt lat="38.803703557970586" lon="-9.297975957118263"><ele>254.0</ele><time>2026-05-01T10:18:50Z</time></trkpt><trkpt lat="38.803761918854406" lon="-9.297935222636402"><ele>255.00000000000003</ele><time>2026-05-01T10:18:54Z</time></trkpt><trkpt lat="38.80383715693591" lon="-9.29789138674637"><ele>256.0</ele><time>2026-05-01T10:18:57Z</time></trkpt><trkpt lat="38.803922680672734" lon="-9.297870750246764"><ele>257.0</ele><time>2026-05-01T10:18:59Z</time></trkpt><trkpt lat="38.80399294693233" lon="-9.297842172196468"><ele>258.0</ele><time>2026-05-01T10:19:01Z</time></trkpt><trkpt lat="38.8040707235411" lon="-9.297796895366783"><ele>259.0</ele><time>2026-05-01T10:19:03Z</time></trkpt><trkpt lat="38.80413163453988" lon="-9.297721372345173"><ele>260.0</ele><time>2026-05-01T10:19:05Z</time></trkpt><trkpt lat="38.80422307267724" lon="-9.297696168526068"><ele>260.0</ele><time>2026-05-01T10:19:07Z</time></trkpt><trkpt lat="38.80428962437432" lon="-9.297646110417187"><ele>260.0</ele><time>2026-05-01T10:19:09Z</time></trkpt><trkpt lat="38.80438650543282" lon="-9.297600572138204"><ele>260.0</ele><time>2026-05-01T10:19:11Z</time></trkpt><trkpt lat="38.80444999864214" lon="-9.297589203262568"><ele>260.0</ele><time>2026-05-01T10:19:12Z</time></trkpt><trkpt lat="38.80452854079216" lon="-9.297565481715367"><ele>260.0</ele><time>2026-05-01T10:19:13Z</time></trkpt><trkpt lat="38.80461521504964" lon="-9.297521739376464"><ele>260.0</ele><time>2026-05-01T10:19:15Z</time></trkpt><trkpt lat="38.804700855284366" lon="-9.297497278194204"><ele>260.1666666666667</ele><time>2026-05-01T10:19:17Z</time></trkpt><trkpt lat="38.80478394062205" lon="-9.297465509856844"><ele>260.33333333333337</ele><time>2026-05-01T10:19:19Z</time></trkpt><trkpt lat="38.80486582718509" lon="-9.297428754199974"><ele>260.5</ele><time>2026-05-01T10:19:22Z</time></trkpt><trkpt lat="38.80480660606047" lon="-9.297465698702206"><ele>260.6666666666667</ele><time>2026-05-01T10:20:05Z</time></trkpt><trkpt lat="38.8048666269676" lon="-9.29743240416889"><ele>260.8333333333333</ele><time>2026-05-01T10:21:20Z</time></trkpt><trkpt lat="38.804943438647726" lon="-9.297415110470752"><ele>261.0</ele><time>2026-05-01T10:21:24Z</time></trkpt><trkpt lat="38.805010642617994" lon="-9.297387497422166"><ele>261.0</ele><time>2026-05-01T10:21:28Z</time></trkpt><trkpt lat="38.804923898750914" lon="-9.297409542656327"><ele>261.0</ele><time>2026-05-01T10:21:35Z</time></trkpt><trkpt lat="38.804866387313155" lon="-9.297461896687008"><ele>261.0</ele><time>2026-05-01T10:21:40Z</time></trkpt><trkpt lat="38.8049169511556" lon="-9.297411208099673"><ele>261.0</ele><time>2026-05-01T10:22:23Z</time></trkpt><trkpt lat="38.804986118913696" lon="-9.297396362287468"><ele>261.0</ele><time>2026-05-01T10:22:29Z</time></trkpt><trkpt lat="38.80505059118425" lon="-9.29735942614382"><ele>261.0</ele><time>2026-05-01T10:22:35Z</time></trkpt><trkpt lat="38.80510971480444" lon="-9.29732938148512"><ele>261.0</ele><time>2026-05-01T10:22:50Z</time></trkpt><trkpt lat="38.80517581814335" lon="-9.2973364465774"><ele>261.0</ele><time>2026-05-01T10:23:02Z</time></trkpt><trkpt lat="38.80511080189987" lon="-9.297341340903108"><ele>261.0</ele><time>2026-05-01T10:23:22Z</time></trkpt><trkpt lat="38.80518592160831" lon="-9.297326854665448"><ele>261.0</ele><time>2026-05-01T10:24:38Z</time></trkpt><trkpt lat="38.80524762629804" lon="-9.297290967882782"><ele>261.0</ele><time>2026-05-01T10:24:48Z</time></trkpt><trkpt lat="38.80531568129821" lon="-9.297276605844525"><ele>261.0</ele><time>2026-05-01T10:25:10Z</time></trkpt><trkpt lat="38.80538901970169" lon="-9.297258821718124"><ele>261.0</ele><time>2026-05-01T10:25:36.999Z</time></trkpt><trkpt lat="38.80545327260476" lon="-9.297267283676947"><ele>261.0</ele><time>2026-05-01T10:25:41.999Z</time></trkpt><trkpt lat="38.80537892394658" lon="-9.297262188084966"><ele>262.14285714285717</ele><time>2026-05-01T10:26:23.999Z</time></trkpt><trkpt lat="38.80531715742138" lon="-9.297286858083108"><ele>263.2857142857143</ele><time>2026-05-01T10:26:28.999Z</time></trkpt><trkpt lat="38.805247646717525" lon="-9.297306757297415"><ele>264.42857142857144</ele><time>2026-05-01T10:26:35.999Z</time></trkpt><trkpt lat="38.80517865485698" lon="-9.297325789801286"><ele>265.57142857142856</ele><time>2026-05-01T10:26:41.999Z</time></trkpt><trkpt lat="38.805264041668806" lon="-9.297287678568642"><ele>266.7142857142857</ele><time>2026-05-01T10:34:11.001Z</time></trkpt><trkpt lat="38.80533525436633" lon="-9.297268374562169"><ele>267.8571428571429</ele><time>2026-05-01T10:34:17.001Z</time></trkpt><trkpt lat="38.805412755889634" lon="-9.297259755576237"><ele>269.0</ele><time>2026-05-01T10:34:22.001Z</time></trkpt><trkpt lat="38.805495039313975" lon="-9.297262232402186"><ele>269.0</ele><time>2026-05-01T10:34:29.001Z</time></trkpt><trkpt lat="38.80555994836509" lon="-9.297289466770556"><ele>269.0</ele><time>2026-05-01T10:35:33.001Z</time></trkpt><trkpt lat="38.805632979288696" lon="-9.297322124765948"><ele>269.0</ele><time>2026-05-01T10:35:36.001Z</time></trkpt><trkpt lat="38.805672275288494" lon="-9.297395350827237"><ele>269.0</ele><time>2026-05-01T10:36:21Z</time></trkpt><trkpt lat="38.805784996342304" lon="-9.297424268211572"><ele>269.0</ele><time>2026-05-01T10:36:25.001Z</time></trkpt><trkpt lat="38.805917916312104" lon="-9.297476892111867"><ele>269.0</ele><time>2026-05-01T10:36:27.001Z</time></trkpt><trkpt lat="38.806004780630026" lon="-9.297501257973753"><ele>269.0</ele><time>2026-05-01T10:36:28.001Z</time></trkpt><trkpt lat="38.806107898302415" lon="-9.297551695678745"><ele>269.0</ele><time>2026-05-01T10:36:29.001Z</time></trkpt><trkpt lat="38.80622306715681" lon="-9.297594187049684"><ele>269.0</ele><time>2026-05-01T10:36:30.001Z</time></trkpt><trkpt lat="38.80633017399561" lon="-9.297641796967666"><ele>269.0</ele><time>2026-05-01T10:36:31.001Z</time></trkpt><trkpt lat="38.80642121505867" lon="-9.297657053324988"><ele>269.0</ele><time>2026-05-01T10:36:32.001Z</time></trkpt><trkpt lat="38.80650355783825" lon="-9.297636655575017"><ele>269.0</ele><time>2026-05-01T10:36:33.001Z</time></trkpt><trkpt lat="38.80658914256696" lon="-9.297636211562157"><ele>269.0</ele><time>2026-05-01T10:36:34.001Z</time></trkpt><trkpt lat="38.80666270466064" lon="-9.297638339344395"><ele>269.0</ele><time>2026-05-01T10:36:35.001Z</time></trkpt><trkpt lat="38.80675007416323" lon="-9.2975772868957"><ele>269.0</ele><time>2026-05-01T10:36:37.001Z</time></trkpt><trkpt lat="38.806776210999" lon="-9.29746356366177"><ele>269.0</ele><time>2026-05-01T10:36:54.001Z</time></trkpt><trkpt lat="38.80675705444828" lon="-9.297375837204306"><ele>269.0</ele><time>2026-05-01T10:36:55.001Z</time></trkpt><trkpt lat="38.806743208709065" lon="-9.297292377513338"><ele>269.0</ele><time>2026-05-01T10:36:56.001Z</time></trkpt><trkpt lat="38.80672592007398" lon="-9.297205887302109"><ele>269.0</ele><time>2026-05-01T10:36:57.001Z</time></trkpt><trkpt lat="38.806717376682414" lon="-9.297059682129131"><ele>269.0</ele><time>2026-05-01T10:36:59.001Z</time></trkpt><trkpt lat="38.80667780774389" lon="-9.296918356786282"><ele>269.0</ele><time>2026-05-01T10:37:01.001Z</time></trkpt><trkpt lat="38.806661629752355" lon="-9.29683098576002"><ele>269.0</ele><time>2026-05-01T10:37:02.001Z</time></trkpt><trkpt lat="38.80663152801711" lon="-9.296737822343438"><ele>268.83333333333337</ele><time>2026-05-01T10:37:03.001Z</time></trkpt><trkpt lat="38.806607531964254" lon="-9.296639644218613"><ele>268.6666666666667</ele><time>2026-05-01T10:37:04.001Z</time></trkpt><trkpt lat="38.806576515157644" lon="-9.296564034957633"><ele>268.5</ele><time>2026-05-01T10:37:05.001Z</time></trkpt><trkpt lat="38.80648363492295" lon="-9.296496914312627"><ele>268.3333333333333</ele><time>2026-05-01T10:37:07.001Z</time></trkpt><trkpt lat="38.8063910692897" lon="-9.29642793830493"><ele>268.16666666666663</ele><time>2026-05-01T10:37:09.001Z</time></trkpt><trkpt lat="38.806340590974614" lon="-9.296370471648904"><ele>268.0</ele><time>2026-05-01T10:37:10.001Z</time></trkpt><trkpt lat="38.8062957338947" lon="-9.296310324660315"><ele>268.0</ele><time>2026-05-01T10:37:11.001Z</time></trkpt><trkpt lat="38.80624453832055" lon="-9.296246173295843"><ele>268.0</ele><time>2026-05-01T10:37:12.001Z</time></trkpt><trkpt lat="38.80616305084583" lon="-9.296184647754142"><ele>268.0</ele><time>2026-05-01T10:37:14.001Z</time></trkpt><trkpt lat="38.806237555184104" lon="-9.296212016288099"><ele>268.0</ele><time>2026-05-01T10:37:17.001Z</time></trkpt><trkpt lat="38.80627815952552" lon="-9.296290967828915"><ele>268.0</ele><time>2026-05-01T10:37:18.001Z</time></trkpt><trkpt lat="38.806329007644486" lon="-9.296348525826193"><ele>268.0</ele><time>2026-05-01T10:37:19.001Z</time></trkpt><trkpt lat="38.80641379029916" lon="-9.296432621779894"><ele>268.5</ele><time>2026-05-01T10:37:21.001Z</time></trkpt><trkpt lat="38.80648060136075" lon="-9.29652284027714"><ele>269.0</ele><time>2026-05-01T10:37:23.001Z</time></trkpt><trkpt lat="38.806547839076174" lon="-9.29657129990918"><ele>269.5</ele><time>2026-05-01T10:37:25.001Z</time></trkpt><trkpt lat="38.80659954056463" lon="-9.296637748178338"><ele>270.0</ele><time>2026-05-01T10:37:48Z</time></trkpt><trkpt lat="38.80666695438861" lon="-9.29660256563618"><ele>270.5</ele><time>2026-05-01T10:39:15.001Z</time></trkpt><trkpt lat="38.80671404139917" lon="-9.29650908869501"><ele>271.0</ele><time>2026-05-01T10:41:29.001Z</time></trkpt><trkpt lat="38.80665544778775" lon="-9.296541160118105"><ele>271.0</ele><time>2026-05-01T10:41:31.001Z</time></trkpt><trkpt lat="38.80672485458026" lon="-9.296631689401586"><ele>271.0</ele><time>2026-05-01T10:41:33.001Z</time></trkpt><trkpt lat="38.806822423500535" lon="-9.296671728535157"><ele>271.0</ele><time>2026-05-01T10:41:35.001Z</time></trkpt><trkpt lat="38.80688756413815" lon="-9.296669824286868"><ele>271.0</ele><time>2026-05-01T10:41:36.001Z</time></trkpt><trkpt lat="38.80696010754512" lon="-9.296680973787216"><ele>271.0</ele><time>2026-05-01T10:41:37.001Z</time></trkpt><trkpt lat="38.807023869521394" lon="-9.296664930894051"><ele>271.0</ele><time>2026-05-01T10:41:38.001Z</time></trkpt><trkpt lat="38.80707554548648" lon="-9.29661430249874"><ele>267.8</ele><time>2026-05-01T10:41:39.001Z</time></trkpt><trkpt lat="38.80716261445349" lon="-9.296584245929521"><ele>264.6</ele><time>2026-05-01T10:41:41.001Z</time></trkpt><trkpt lat="38.807208313111545" lon="-9.296524534663632"><ele>261.4</ele><time>2026-05-01T10:41:43.001Z</time></trkpt><trkpt lat="38.80709605405629" lon="-9.296483988427363"><ele>258.2</ele><time>2026-05-01T10:41:45.001Z</time></trkpt><trkpt lat="38.807021543396225" lon="-9.296425657048342"><ele>255.0</ele><time>2026-05-01T10:41:47.001Z</time></trkpt><trkpt lat="38.80694087667295" lon="-9.296346020863487"><ele>255.0</ele><time>2026-05-01T10:41:49.001Z</time></trkpt><trkpt lat="38.80689533029229" lon="-9.296242452555578"><ele>255.0</ele><time>2026-05-01T10:41:51.001Z</time></trkpt><trkpt lat="38.80688444547458" lon="-9.296116610096373"><ele>255.0</ele><time>2026-05-01T10:41:53.001Z</time></trkpt><trkpt lat="38.80688022818814" lon="-9.29601173784229"><ele>255.0</ele><time>2026-05-01T10:41:55.001Z</time></trkpt><trkpt lat="38.80695168906585" lon="-9.295925510452165"><ele>255.0</ele><time>2026-05-01T10:41:57.001Z</time></trkpt><trkpt lat="38.806999988026845" lon="-9.295846715308517"><ele>255.0</ele><time>2026-05-01T10:41:59Z</time></trkpt><trkpt lat="38.80705169538514" lon="-9.295759914902229"><ele>255.0</ele><time>2026-05-01T10:42:01Z</time></trkpt><trkpt lat="38.80713371068651" lon="-9.295658778873728"><ele>255.0</ele><time>2026-05-01T10:42:03Z</time></trkpt><trkpt lat="38.807210139276044" lon="-9.295560284693401"><ele>255.0</ele><time>2026-05-01T10:42:05Z</time></trkpt><trkpt lat="38.80726064567642" lon="-9.295455847969492"><ele>255.0</ele><time>2026-05-01T10:42:07Z</time></trkpt><trkpt lat="38.807269252920534" lon="-9.295307317711263"><ele>255.0</ele><time>2026-05-01T10:42:09Z</time></trkpt><trkpt lat="38.80728333456527" lon="-9.295225262093807"><ele>256.1666666666667</ele><time>2026-05-01T10:42:10Z</time></trkpt><trkpt lat="38.80731897490647" lon="-9.295098163988644"><ele>257.3333333333333</ele><time>2026-05-01T10:42:12Z</time></trkpt><trkpt lat="38.80731849493605" lon="-9.294985259240766"><ele>258.5</ele><time>2026-05-01T10:42:14Z</time></trkpt><trkpt lat="38.80727963691468" lon="-9.29488891124925"><ele>259.66666666666663</ele><time>2026-05-01T10:42:23Z</time></trkpt><trkpt lat="38.807273608210146" lon="-9.29480847318447"><ele>260.8333333333333</ele><time>2026-05-01T10:42:25Z</time></trkpt><trkpt lat="38.80723809997655" lon="-9.294693252567143"><ele>262.0</ele><time>2026-05-01T10:42:28Z</time></trkpt><trkpt lat="38.807164973941845" lon="-9.294541703011737"><ele>263.2</ele><time>2026-05-01T10:42:30Z</time></trkpt><trkpt lat="38.80711654428013" lon="-9.29437595863943"><ele>264.4</ele><time>2026-05-01T10:42:32Z</time></trkpt><trkpt lat="38.807098921413406" lon="-9.29425931369446"><ele>265.6</ele><time>2026-05-01T10:42:33Z</time></trkpt><trkpt lat="38.80710825604409" lon="-9.294136725590665"><ele>266.8</ele><time>2026-05-01T10:42:34Z</time></trkpt><trkpt lat="38.80712828011255" lon="-9.294029086149903"><ele>268.0</ele><time>2026-05-01T10:42:35Z</time></trkpt><trkpt lat="38.80717042723432" lon="-9.293910240786554"><ele>268.2857142857143</ele><time>2026-05-01T10:42:37Z</time></trkpt><trkpt lat="38.807157259340215" lon="-9.293826129771531"><ele>268.57142857142856</ele><time>2026-05-01T10:42:39Z</time></trkpt><trkpt lat="38.807100884345644" lon="-9.293780035316013"><ele>268.85714285714283</ele><time>2026-05-01T10:43:34.001Z</time></trkpt><trkpt lat="38.80715077700466" lon="-9.293830634623497"><ele>269.1428571428571</ele><time>2026-05-01T10:43:44.001Z</time></trkpt><trkpt lat="38.80722535434009" lon="-9.293837158076482"><ele>269.4285714285714</ele><time>2026-05-01T10:43:55.001Z</time></trkpt><trkpt lat="38.807135503491004" lon="-9.2937970310728"><ele>269.7142857142857</ele><time>2026-05-01T10:43:59.001Z</time></trkpt><trkpt lat="38.80707831912332" lon="-9.293763083632761"><ele>270.0</ele><time>2026-05-01T10:44:02.001Z</time></trkpt><trkpt lat="38.807006911494085" lon="-9.293724177115761"><ele>270.0</ele><time>2026-05-01T10:44:11Z</time></trkpt><trkpt lat="38.80691314286787" lon="-9.293654018474562"><ele>270.0</ele><time>2026-05-01T10:44:37Z</time></trkpt><trkpt lat="38.80688582656017" lon="-9.293546413659474"><ele>270.0</ele><time>2026-05-01T10:44:38Z</time></trkpt><trkpt lat="38.806861753407944" lon="-9.293395159189767"><ele>270.0</ele><time>2026-05-01T10:44:39Z</time></trkpt><trkpt lat="38.80682832368443" lon="-9.29322824803479"><ele>269.0</ele><time>2026-05-01T10:44:40Z</time></trkpt><trkpt lat="38.80677169902647" lon="-9.293040213641094"><ele>268.0</ele><time>2026-05-01T10:44:41Z</time></trkpt><trkpt lat="38.80673721101262" lon="-9.292843388633152"><ele>267.0</ele><time>2026-05-01T10:44:42Z</time></trkpt><trkpt lat="38.80668771344434" lon="-9.292654014196591"><ele>267.0</ele><time>2026-05-01T10:44:43Z</time></trkpt><trkpt lat="38.80664383576436" lon="-9.292441016177877"><ele>267.0</ele><time>2026-05-01T10:44:44Z</time></trkpt><trkpt lat="38.80659701452635" lon="-9.29224194428231"><ele>267.0</ele><time>2026-05-01T10:44:45Z</time></trkpt><trkpt lat="38.806573632057415" lon="-9.292048438580702"><ele>266.25</ele><time>2026-05-01T10:44:46Z</time></trkpt><trkpt lat="38.80654207772221" lon="-9.291857262672673"><ele>265.5</ele><time>2026-05-01T10:44:47Z</time></trkpt><trkpt lat="38.80651642039933" lon="-9.291677916793233"><ele>264.75</ele><time>2026-05-01T10:44:48Z</time></trkpt><trkpt lat="38.80648800000114" lon="-9.291523379142168"><ele>264.0</ele><time>2026-05-01T10:44:49Z</time></trkpt><trkpt lat="38.80646158746141" lon="-9.291336810820956"><ele>263.0</ele><time>2026-05-01T10:44:50Z</time></trkpt><trkpt lat="38.80643686370624" lon="-9.29115018928809"><ele>262.0</ele><time>2026-05-01T10:44:51Z</time></trkpt><trkpt lat="38.806413896150495" lon="-9.290941428299279"><ele>261.0</ele><time>2026-05-01T10:44:52Z</time></trkpt><trkpt lat="38.806380080453586" lon="-9.290751892401355"><ele>260.0</ele><time>2026-05-01T10:44:53Z</time></trkpt><trkpt lat="38.80633902714518" lon="-9.290556362385527"><ele>259.0</ele><time>2026-05-01T10:44:54Z</time></trkpt><trkpt lat="38.80630402411405" lon="-9.290340547988903"><ele>258.0</ele><time>2026-05-01T10:44:55Z</time></trkpt><trkpt lat="38.806277664342346" lon="-9.290114589688445"><ele>258.0</ele><time>2026-05-01T10:44:56Z</time></trkpt><trkpt lat="38.80624480875813" lon="-9.28991312084309"><ele>258.0</ele><time>2026-05-01T10:44:57Z</time></trkpt><trkpt lat="38.80621177434599" lon="-9.289716894093361"><ele>258.0</ele><time>2026-05-01T10:44:58Z</time></trkpt><trkpt lat="38.806164485914216" lon="-9.289526900012609"><ele>257.5</ele><time>2026-05-01T10:44:59Z</time></trkpt><trkpt lat="38.80613225925705" lon="-9.289341095785884"><ele>257.0</ele><time>2026-05-01T10:45:00Z</time></trkpt><trkpt lat="38.80610554182328" lon="-9.289176255710636"><ele>256.5</ele><time>2026-05-01T10:45:01Z</time></trkpt><trkpt lat="38.80608256685954" lon="-9.289018513196858"><ele>256.0</ele><time>2026-05-01T10:45:02Z</time></trkpt><trkpt lat="38.80606209460024" lon="-9.288869505297184"><ele>254.5</ele><time>2026-05-01T10:45:03Z</time></trkpt><trkpt lat="38.80604081317941" lon="-9.288710075818054"><ele>253.0</ele><time>2026-05-01T10:45:04Z</time></trkpt><trkpt lat="38.806032333120996" lon="-9.288533743963283"><ele>251.5</ele><time>2026-05-01T10:45:05Z</time></trkpt><trkpt lat="38.806009665092645" lon="-9.288378836491809"><ele>250.0</ele><time>2026-05-01T10:45:06Z</time></trkpt><trkpt lat="38.805990590303615" lon="-9.288237117602717"><ele>250.0</ele><time>2026-05-01T10:45:07Z</time></trkpt><trkpt lat="38.80601273413545" lon="-9.288124239622853"><ele>250.0</ele><time>2026-05-01T10:45:08Z</time></trkpt><trkpt lat="38.80608418028819" lon="-9.287983605775311"><ele>250.0</ele><time>2026-05-01T10:45:10Z</time></trkpt><trkpt lat="38.80613382359504" lon="-9.287920589126609"><ele>250.0</ele><time>2026-05-01T10:45:20Z</time></trkpt><trkpt lat="38.806163967024276" lon="-9.287846365511665"><ele>250.0</ele><time>2026-05-01T10:45:23Z</time></trkpt><trkpt lat="38.80630175242905" lon="-9.287893730619361"><ele>248.75</ele><time>2026-05-01T10:45:24Z</time></trkpt><trkpt lat="38.80639675764607" lon="-9.287920086245911"><ele>247.5</ele><time>2026-05-01T10:45:25Z</time></trkpt><trkpt lat="38.80649521279713" lon="-9.287970473561048"><ele>246.25</ele><time>2026-05-01T10:45:26Z</time></trkpt><trkpt lat="38.80661257332119" lon="-9.288023327704655"><ele>245.0</ele><time>2026-05-01T10:45:27Z</time></trkpt><trkpt lat="38.806741276216336" lon="-9.288090386776549"><ele>241.66666666666669</ele><time>2026-05-01T10:45:28Z</time></trkpt><trkpt lat="38.80689642224832" lon="-9.288163148722322"><ele>238.33333333333331</ele><time>2026-05-01T10:45:29Z</time></trkpt><trkpt lat="38.80707046978627" lon="-9.288255137187285"><ele>235.0</ele><time>2026-05-01T10:45:30Z</time></trkpt><trkpt lat="38.807253781767656" lon="-9.288345570779185"><ele>235.0</ele><time>2026-05-01T10:45:31Z</time></trkpt><trkpt lat="38.80744392709808" lon="-9.288440215507226"><ele>235.0</ele><time>2026-05-01T10:45:32Z</time></trkpt><trkpt lat="38.80763405902991" lon="-9.288573175846915"><ele>235.0</ele><time>2026-05-01T10:45:33Z</time></trkpt><trkpt lat="38.80782086123183" lon="-9.288736395723733"><ele>233.66666666666666</ele><time>2026-05-01T10:45:34Z</time></trkpt><trkpt lat="38.807989919981175" lon="-9.288896229310968"><ele>232.33333333333331</ele><time>2026-05-01T10:45:35Z</time></trkpt><trkpt lat="38.808139038978396" lon="-9.289053954091136"><ele>231.0</ele><time>2026-05-01T10:45:36.001Z</time></trkpt><trkpt lat="38.8082783334318" lon="-9.289203145844322"><ele>229.66666666666669</ele><time>2026-05-01T10:45:37.001Z</time></trkpt><trkpt lat="38.80840982710407" lon="-9.289341868803174"><ele>228.33333333333334</ele><time>2026-05-01T10:45:38.001Z</time></trkpt><trkpt lat="38.80853589728741" lon="-9.289471877600578"><ele>227.0</ele><time>2026-05-01T10:45:39.001Z</time></trkpt><trkpt lat="38.808671292612466" lon="-9.289601705211991"><ele>227.0</ele><time>2026-05-01T10:45:40.001Z</time></trkpt><trkpt lat="38.808794516313604" lon="-9.289698007985047"><ele>227.0</ele><time>2026-05-01T10:45:41.001Z</time></trkpt><trkpt lat="38.80893643792783" lon="-9.289812412546246"><ele>227.0</ele><time>2026-05-01T10:45:42.001Z</time></trkpt><trkpt lat="38.80907233794156" lon="-9.289921279879636"><ele>227.0</ele><time>2026-05-01T10:45:43.001Z</time></trkpt><trkpt lat="38.809201740022615" lon="-9.290036267392685"><ele>227.0</ele><time>2026-05-01T10:45:44.001Z</time></trkpt><trkpt lat="38.80934201516204" lon="-9.29015823460136"><ele>227.0</ele><time>2026-05-01T10:45:45.001Z</time></trkpt><trkpt lat="38.80948329596382" lon="-9.29028300657954"><ele>227.0</ele><time>2026-05-01T10:45:46.001Z</time></trkpt><trkpt lat="38.809631227222646" lon="-9.290408934234755"><ele>227.0</ele><time>2026-05-01T10:45:47.001Z</time></trkpt><trkpt lat="38.80977258769699" lon="-9.290532240620722"><ele>227.0</ele><time>2026-05-01T10:45:48.001Z</time></trkpt><trkpt lat="38.80991217524997" lon="-9.290644381017877"><ele>227.0</ele><time>2026-05-01T10:45:49.001Z</time></trkpt><trkpt lat="38.8100430353447" lon="-9.290759209767922"><ele>227.0</ele><time>2026-05-01T10:45:50.001Z</time></trkpt><trkpt lat="38.810179167624774" lon="-9.290863710288189"><ele>227.0</ele><time>2026-05-01T10:45:51.001Z</time></trkpt><trkpt lat="38.810315429805506" lon="-9.290980139894515"><ele>223.0</ele><time>2026-05-01T10:45:52.001Z</time></trkpt><trkpt lat="38.810460217404156" lon="-9.291078114273779"><ele>219.0</ele><time>2026-05-01T10:45:53.001Z</time></trkpt><trkpt lat="38.81060717360988" lon="-9.2911719189461"><ele>215.0</ele><time>2026-05-01T10:45:54.001Z</time></trkpt><trkpt lat="38.81075296184907" lon="-9.29125513779847"><ele>215.0</ele><time>2026-05-01T10:45:55.001Z</time></trkpt><trkpt lat="38.81089855706824" lon="-9.291333235887036"><ele>215.0</ele><time>2026-05-01T10:45:56.001Z</time></trkpt><trkpt lat="38.811047107112245" lon="-9.291412863098238"><ele>215.0</ele><time>2026-05-01T10:45:57.001Z</time></trkpt><trkpt lat="38.81120428429348" lon="-9.291468649726092"><ele>216.5</ele><time>2026-05-01T10:45:58.001Z</time></trkpt><trkpt lat="38.811332196258945" lon="-9.291540302915"><ele>218.0</ele><time>2026-05-01T10:45:59.001Z</time></trkpt><trkpt lat="38.81144478279304" lon="-9.291624931355624"><ele>219.5</ele><time>2026-05-01T10:46:00.001Z</time></trkpt><trkpt lat="38.81156084223989" lon="-9.291712773221045"><ele>221.0</ele><time>2026-05-01T10:46:01.001Z</time></trkpt><trkpt lat="38.81167478872286" lon="-9.291822466750473"><ele>221.0</ele><time>2026-05-01T10:46:02.001Z</time></trkpt><trkpt lat="38.811788746470576" lon="-9.29194251936618"><ele>221.0</ele><time>2026-05-01T10:46:03.001Z</time></trkpt><trkpt lat="38.811903554291575" lon="-9.292066154339395"><ele>221.0</ele><time>2026-05-01T10:46:04.001Z</time></trkpt><trkpt lat="38.812015718002996" lon="-9.292202571203369"><ele>218.25</ele><time>2026-05-01T10:46:05.001Z</time></trkpt><trkpt lat="38.81211491576602" lon="-9.292344571419994"><ele>215.5</ele><time>2026-05-01T10:46:06.001Z</time></trkpt><trkpt lat="38.812189856148905" lon="-9.29249163017976"><ele>212.75</ele><time>2026-05-01T10:46:07.001Z</time></trkpt><trkpt lat="38.81226382116133" lon="-9.292631973660008"><ele>210.0</ele><time>2026-05-01T10:46:08.001Z</time></trkpt><trkpt lat="38.812337364780326" lon="-9.292769362569203"><ele>210.0</ele><time>2026-05-01T10:46:09.001Z</time></trkpt><trkpt lat="38.812417153902935" lon="-9.292906426378398"><ele>210.0</ele><time>2026-05-01T10:46:10Z</time></trkpt><trkpt lat="38.81250891815619" lon="-9.293016883512426"><ele>210.0</ele><time>2026-05-01T10:46:11Z</time></trkpt><trkpt lat="38.81262749099358" lon="-9.293043160166315"><ele>210.0</ele><time>2026-05-01T10:46:12Z</time></trkpt><trkpt lat="38.812732420637836" lon="-9.293026801170129"><ele>208.5</ele><time>2026-05-01T10:46:13Z</time></trkpt><trkpt lat="38.81284507850923" lon="-9.292991270357168"><ele>207.0</ele><time>2026-05-01T10:46:14Z</time></trkpt><trkpt lat="38.81292701580489" lon="-9.292929479933928"><ele>205.5</ele><time>2026-05-01T10:46:15Z</time></trkpt><trkpt lat="38.813053104328894" lon="-9.292821743072112"><ele>204.0</ele><time>2026-05-01T10:46:16Z</time></trkpt><trkpt lat="38.813166014384166" lon="-9.292702914193159"><ele>204.0</ele><time>2026-05-01T10:46:17Z</time></trkpt><trkpt lat="38.81326787866198" lon="-9.292580866263561"><ele>204.0</ele><time>2026-05-01T10:46:18Z</time></trkpt><trkpt lat="38.81335614378812" lon="-9.292457940915284"><ele>204.0</ele><time>2026-05-01T10:46:19Z</time></trkpt><trkpt lat="38.81344557582185" lon="-9.292326102101502"><ele>204.0</ele><time>2026-05-01T10:46:20Z</time></trkpt><trkpt lat="38.813516391134456" lon="-9.292215126025065"><ele>205.39999999999998</ele><time>2026-05-01T10:46:21Z</time></trkpt><trkpt lat="38.81357757266551" lon="-9.292118269483849"><ele>206.8</ele><time>2026-05-01T10:46:22Z</time></trkpt><trkpt lat="38.813653968844946" lon="-9.292029679577023"><ele>208.2</ele><time>2026-05-01T10:46:23Z</time></trkpt><trkpt lat="38.813717851286974" lon="-9.291931208637964"><ele>209.60000000000002</ele><time>2026-05-01T10:46:24Z</time></trkpt><trkpt lat="38.813771994125965" lon="-9.291844431069809"><ele>211.0</ele><time>2026-05-01T10:46:25Z</time></trkpt><trkpt lat="38.813852785709415" lon="-9.29175473548613"><ele>211.0</ele><time>2026-05-01T10:46:26Z</time></trkpt><trkpt lat="38.81396078860215" lon="-9.29170729395442"><ele>211.0</ele><time>2026-05-01T10:46:27Z</time></trkpt><trkpt lat="38.814073990482186" lon="-9.29171492883902"><ele>211.0</ele><time>2026-05-01T10:46:28Z</time></trkpt><trkpt lat="38.81418976296207" lon="-9.291766053247335"><ele>211.0</ele><time>2026-05-01T10:46:29Z</time></trkpt><trkpt lat="38.814310986140065" lon="-9.291838467379714"><ele>212.75</ele><time>2026-05-01T10:46:30Z</time></trkpt><trkpt lat="38.81442747302861" lon="-9.291908738612165"><ele>214.5</ele><time>2026-05-01T10:46:31Z</time></trkpt><trkpt lat="38.814536581392986" lon="-9.291967063186684"><ele>216.25</ele><time>2026-05-01T10:46:32Z</time></trkpt><trkpt lat="38.814647058769516" lon="-9.29203176579835"><ele>218.0</ele><time>2026-05-01T10:46:33Z</time></trkpt><trkpt lat="38.8147577264573" lon="-9.292093641230974"><ele>218.0</ele><time>2026-05-01T10:46:34Z</time></trkpt><trkpt lat="38.81486235291241" lon="-9.292145036485527"><ele>218.0</ele><time>2026-05-01T10:46:35Z</time></trkpt><trkpt lat="38.81496049674026" lon="-9.29217342215506"><ele>218.0</ele><time>2026-05-01T10:46:36Z</time></trkpt><trkpt lat="38.81505284906555" lon="-9.292184633221874"><ele>218.0</ele><time>2026-05-01T10:46:37Z</time></trkpt><trkpt lat="38.815147677513366" lon="-9.29218557967176"><ele>218.0</ele><time>2026-05-01T10:46:38Z</time></trkpt><trkpt lat="38.81524594530443" lon="-9.292167879661902"><ele>219.0</ele><time>2026-05-01T10:46:39Z</time></trkpt><trkpt lat="38.81532300660103" lon="-9.292103694465313"><ele>220.0</ele><time>2026-05-01T10:46:40Z</time></trkpt><trkpt lat="38.8153583881761" lon="-9.291960756020355"><ele>221.0</ele><time>2026-05-01T10:46:41Z</time></trkpt><trkpt lat="38.81545125414096" lon="-9.291864664489903"><ele>222.0</ele><time>2026-05-01T10:46:42Z</time></trkpt><trkpt lat="38.81549759075422" lon="-9.291718993708756"><ele>222.0</ele><time>2026-05-01T10:46:43Z</time></trkpt><trkpt lat="38.81559672920704" lon="-9.291616703463646"><ele>222.0</ele><time>2026-05-01T10:46:44Z</time></trkpt><trkpt lat="38.815682468714726" lon="-9.2914983141109"><ele>222.0</ele><time>2026-05-01T10:46:45Z</time></trkpt><trkpt lat="38.815757824313266" lon="-9.291369737060295"><ele>222.0</ele><time>2026-05-01T10:46:46Z</time></trkpt><trkpt lat="38.81583978171067" lon="-9.291259917312866"><ele>222.0</ele><time>2026-05-01T10:46:47Z</time></trkpt><trkpt lat="38.815921845446596" lon="-9.291150283124297"><ele>222.0</ele><time>2026-05-01T10:46:48Z</time></trkpt><trkpt lat="38.81600184892557" lon="-9.291036362563652"><ele>222.0</ele><time>2026-05-01T10:46:49Z</time></trkpt><trkpt lat="38.81606841422821" lon="-9.29090525906467"><ele>222.0</ele><time>2026-05-01T10:46:50Z</time></trkpt><trkpt lat="38.816117915425956" lon="-9.29076004534667"><ele>222.25</ele><time>2026-05-01T10:46:51Z</time></trkpt><trkpt lat="38.8161562291214" lon="-9.290595473649244"><ele>222.5</ele><time>2026-05-01T10:46:52Z</time></trkpt><trkpt lat="38.816195610159596" lon="-9.290419454729523"><ele>222.75</ele><time>2026-05-01T10:46:53Z</time></trkpt><trkpt lat="38.81623544526186" lon="-9.290260961421149"><ele>223.0</ele><time>2026-05-01T10:46:54Z</time></trkpt><trkpt lat="38.81629468074639" lon="-9.29011271383831"><ele>223.0</ele><time>2026-05-01T10:46:55Z</time></trkpt><trkpt lat="38.81635221342517" lon="-9.289967341919303"><ele>223.0</ele><time>2026-05-01T10:46:56Z</time></trkpt><trkpt lat="38.81642246981831" lon="-9.289823687003208"><ele>223.0</ele><time>2026-05-01T10:46:57Z</time></trkpt><trkpt lat="38.8165175045346" lon="-9.289681287160121"><ele>223.0</ele><time>2026-05-01T10:46:58Z</time></trkpt><trkpt lat="38.81661598803343" lon="-9.289531537554375"><ele>222.25</ele><time>2026-05-01T10:46:59Z</time></trkpt><trkpt lat="38.81671138175302" lon="-9.289384630021345"><ele>221.5</ele><time>2026-05-01T10:47:00Z</time></trkpt><trkpt lat="38.816802196371796" lon="-9.289248916930989"><ele>220.75</ele><time>2026-05-01T10:47:01Z</time></trkpt><trkpt lat="38.81690058488583" lon="-9.289126077442704"><ele>220.0</ele><time>2026-05-01T10:47:02Z</time></trkpt><trkpt lat="38.817008246436096" lon="-9.289014824099382"><ele>220.5</ele><time>2026-05-01T10:47:03Z</time></trkpt><trkpt lat="38.8171117265528" lon="-9.288886447395669"><ele>221.0</ele><time>2026-05-01T10:47:04Z</time></trkpt><trkpt lat="38.817188398778455" lon="-9.28875529984164"><ele>221.5</ele><time>2026-05-01T10:47:05Z</time></trkpt><trkpt lat="38.81716628688744" lon="-9.28861073020731"><ele>222.0</ele><time>2026-05-01T10:47:06Z</time></trkpt><trkpt lat="38.81715463161939" lon="-9.288434791306727"><ele>222.0</ele><time>2026-05-01T10:47:07Z</time></trkpt><trkpt lat="38.81716509284252" lon="-9.288265186894074"><ele>222.0</ele><time>2026-05-01T10:47:08Z</time></trkpt><trkpt lat="38.817209986404954" lon="-9.288113094676275"><ele>222.0</ele><time>2026-05-01T10:47:09Z</time></trkpt><trkpt lat="38.817281117423136" lon="-9.28796959250424"><ele>222.0</ele><time>2026-05-01T10:47:10Z</time></trkpt><trkpt lat="38.81737954995706" lon="-9.287835908941364"><ele>222.5</ele><time>2026-05-01T10:47:11.001Z</time></trkpt><trkpt lat="38.81747413113339" lon="-9.28770229300816"><ele>223.0</ele><time>2026-05-01T10:47:12.001Z</time></trkpt><trkpt lat="38.81754048776874" lon="-9.287537303118155"><ele>223.5</ele><time>2026-05-01T10:47:13.001Z</time></trkpt><trkpt lat="38.81763476024057" lon="-9.287420214174226"><ele>224.0</ele><time>2026-05-01T10:47:14.001Z</time></trkpt><trkpt lat="38.817717214078954" lon="-9.287296552535327"><ele>224.2</ele><time>2026-05-01T10:47:15.001Z</time></trkpt><trkpt lat="38.817803575528096" lon="-9.287180591270161"><ele>224.39999999999998</ele><time>2026-05-01T10:47:16.001Z</time></trkpt><trkpt lat="38.81783784017189" lon="-9.287051541899327"><ele>224.6</ele><time>2026-05-01T10:47:17.001Z</time></trkpt><trkpt lat="38.8178276779232" lon="-9.286935974261834"><ele>224.8</ele><time>2026-05-01T10:47:18.001Z</time></trkpt><trkpt lat="38.81777553827577" lon="-9.286839949321562"><ele>225.0</ele><time>2026-05-01T10:47:19.001Z</time></trkpt><trkpt lat="38.81774295499758" lon="-9.286695224787936"><ele>225.0</ele><time>2026-05-01T10:47:20.001Z</time></trkpt><trkpt lat="38.81774201284518" lon="-9.286546861562043"><ele>225.0</ele><time>2026-05-01T10:47:21.001Z</time></trkpt><trkpt lat="38.81775345744332" lon="-9.286389365543423"><ele>225.0</ele><time>2026-05-01T10:47:22.001Z</time></trkpt><trkpt lat="38.81778480638255" lon="-9.286225576922133"><ele>225.0</ele><time>2026-05-01T10:47:23.001Z</time></trkpt><trkpt lat="38.817833506197104" lon="-9.286070572630205"><ele>225.0</ele><time>2026-05-01T10:47:24.001Z</time></trkpt><trkpt lat="38.81789806742223" lon="-9.285929674425649"><ele>225.0</ele><time>2026-05-01T10:47:25.001Z</time></trkpt><trkpt lat="38.81797467236225" lon="-9.285828946105083"><ele>225.0</ele><time>2026-05-01T10:47:26.001Z</time></trkpt><trkpt lat="38.81804867957223" lon="-9.285712200841168"><ele>225.0</ele><time>2026-05-01T10:47:27.001Z</time></trkpt><trkpt lat="38.81813538263349" lon="-9.28558538764744"><ele>225.75</ele><time>2026-05-01T10:47:28.001Z</time></trkpt><trkpt lat="38.81824113222514" lon="-9.285450210285877"><ele>226.5</ele><time>2026-05-01T10:47:29.001Z</time></trkpt><trkpt lat="38.818341835769104" lon="-9.285333344320076"><ele>227.25</ele><time>2026-05-01T10:47:30.001Z</time></trkpt><trkpt lat="38.81844184660319" lon="-9.285239734473523"><ele>228.0</ele><time>2026-05-01T10:47:31.001Z</time></trkpt><trkpt lat="38.81853916211777" lon="-9.28513950826875"><ele>228.0</ele><time>2026-05-01T10:47:32.001Z</time></trkpt><trkpt lat="38.81860742626833" lon="-9.285001662228305"><ele>228.0</ele><time>2026-05-01T10:47:33.001Z</time></trkpt><trkpt lat="38.81867364713706" lon="-9.284862581176819"><ele>228.0</ele><time>2026-05-01T10:47:34.001Z</time></trkpt><trkpt lat="38.81873230543638" lon="-9.284713284449856"><ele>228.0</ele><time>2026-05-01T10:47:35.001Z</time></trkpt><trkpt lat="38.81879826580986" lon="-9.284567469969979"><ele>227.75</ele><time>2026-05-01T10:47:36.001Z</time></trkpt><trkpt lat="38.818885449110184" lon="-9.284439963417055"><ele>227.5</ele><time>2026-05-01T10:47:37.001Z</time></trkpt><trkpt lat="38.81897129072164" lon="-9.284311917747642"><ele>227.25</ele><time>2026-05-01T10:47:38.001Z</time></trkpt><trkpt lat="38.81905135705826" lon="-9.284181041212966"><ele>227.0</ele><time>2026-05-01T10:47:39.001Z</time></trkpt><trkpt lat="38.81915523014536" lon="-9.284092493607092"><ele>227.0</ele><time>2026-05-01T10:47:40.001Z</time></trkpt><trkpt lat="38.819255733233184" lon="-9.283991867623701"><ele>227.0</ele><time>2026-05-01T10:47:41.001Z</time></trkpt><trkpt lat="38.81933161503822" lon="-9.283867888320462"><ele>227.0</ele><time>2026-05-01T10:47:42.001Z</time></trkpt><trkpt lat="38.81938476816812" lon="-9.283740373166362"><ele>227.0</ele><time>2026-05-01T10:47:43.001Z</time></trkpt><trkpt lat="38.81942355010072" lon="-9.283606999086752"><ele>228.5</ele><time>2026-05-01T10:47:44.001Z</time></trkpt><trkpt lat="38.81940967559074" lon="-9.283470023410551"><ele>230.0</ele><time>2026-05-01T10:47:45.001Z</time></trkpt><trkpt lat="38.819392293745004" lon="-9.283309564306393"><ele>231.5</ele><time>2026-05-01T10:47:46.001Z</time></trkpt><trkpt lat="38.81937300934135" lon="-9.283145172387579"><ele>233.0</ele><time>2026-05-01T10:47:47.001Z</time></trkpt><trkpt lat="38.81935779644357" lon="-9.282974659101354"><ele>234.25</ele><time>2026-05-01T10:47:48.001Z</time></trkpt><trkpt lat="38.81935909999147" lon="-9.28280267480805"><ele>235.5</ele><time>2026-05-01T10:47:49.001Z</time></trkpt><trkpt lat="38.81938990646886" lon="-9.282636976403314"><ele>236.75</ele><time>2026-05-01T10:47:50.001Z</time></trkpt><trkpt lat="38.81938988791469" lon="-9.282460826987947"><ele>238.0</ele><time>2026-05-01T10:47:51.001Z</time></trkpt><trkpt lat="38.819381844300864" lon="-9.28229539969161"><ele>238.5</ele><time>2026-05-01T10:47:52.001Z</time></trkpt><trkpt lat="38.8193466047924" lon="-9.28213813845846"><ele>239.0</ele><time>2026-05-01T10:47:53.001Z</time></trkpt><trkpt lat="38.819309865627346" lon="-9.281971568205996"><ele>239.5</ele><time>2026-05-01T10:47:54.001Z</time></trkpt><trkpt lat="38.819279861561334" lon="-9.281820377178349"><ele>240.0</ele><time>2026-05-01T10:47:55.001Z</time></trkpt><trkpt lat="38.819268652808304" lon="-9.28168255789604"><ele>239.5</ele><time>2026-05-01T10:47:56.001Z</time></trkpt><trkpt lat="38.81929352494586" lon="-9.28155518574773"><ele>239.0</ele><time>2026-05-01T10:47:57.001Z</time></trkpt><trkpt lat="38.81934474876239" lon="-9.281421269877017"><ele>238.5</ele><time>2026-05-01T10:47:58.001Z</time></trkpt><trkpt lat="38.81942935301032" lon="-9.281294733467947"><ele>238.0</ele><time>2026-05-01T10:47:59.001Z</time></trkpt><trkpt lat="38.81950298632021" lon="-9.28114970336469"><ele>238.0</ele><time>2026-05-01T10:48:00.001Z</time></trkpt><trkpt lat="38.819582163951196" lon="-9.280993811975998"><ele>238.0</ele><time>2026-05-01T10:48:01.001Z</time></trkpt><trkpt lat="38.81965735310637" lon="-9.28083693722517"><ele>238.0</ele><time>2026-05-01T10:48:02.001Z</time></trkpt><trkpt lat="38.81973094691608" lon="-9.280696749868014"><ele>238.0</ele><time>2026-05-01T10:48:03.001Z</time></trkpt><trkpt lat="38.81980239163076" lon="-9.280551902028645"><ele>237.75</ele><time>2026-05-01T10:48:04.001Z</time></trkpt><trkpt lat="38.81987971955266" lon="-9.28041039421165"><ele>237.5</ele><time>2026-05-01T10:48:05.001Z</time></trkpt><trkpt lat="38.819967921462926" lon="-9.280275961850666"><ele>237.25</ele><time>2026-05-01T10:48:06.001Z</time></trkpt><trkpt lat="38.820058516737824" lon="-9.280145908890505"><ele>237.0</ele><time>2026-05-01T10:48:07.001Z</time></trkpt><trkpt lat="38.820162858740154" lon="-9.28003891162551"><ele>237.5</ele><time>2026-05-01T10:48:08.001Z</time></trkpt><trkpt lat="38.8202788283833" lon="-9.27995589948189"><ele>238.0</ele><time>2026-05-01T10:48:09.001Z</time></trkpt><trkpt lat="38.82041078673297" lon="-9.279883418019018"><ele>238.5</ele><time>2026-05-01T10:48:10.001Z</time></trkpt><trkpt lat="38.82054463603049" lon="-9.279821316164353"><ele>239.0</ele><time>2026-05-01T10:48:11.001Z</time></trkpt><trkpt lat="38.8206485937966" lon="-9.27971044927141"><ele>239.0</ele><time>2026-05-01T10:48:12.001Z</time></trkpt><trkpt lat="38.82075685693319" lon="-9.279587314640478"><ele>239.0</ele><time>2026-05-01T10:48:13.001Z</time></trkpt><trkpt lat="38.82086832600979" lon="-9.279462091893322"><ele>239.0</ele><time>2026-05-01T10:48:14.001Z</time></trkpt><trkpt lat="38.820984790999276" lon="-9.279332251376044"><ele>239.0</ele><time>2026-05-01T10:48:15.001Z</time></trkpt><trkpt lat="38.82109752883078" lon="-9.279194337102222"><ele>238.75</ele><time>2026-05-01T10:48:16.001Z</time></trkpt><trkpt lat="38.82120441148212" lon="-9.279055662868913"><ele>238.5</ele><time>2026-05-01T10:48:17.001Z</time></trkpt><trkpt lat="38.82132455654611" lon="-9.278942516442216"><ele>238.25</ele><time>2026-05-01T10:48:18.001Z</time></trkpt><trkpt lat="38.82143991530851" lon="-9.278838434236738"><ele>238.0</ele><time>2026-05-01T10:48:19.001Z</time></trkpt><trkpt lat="38.82157039176697" lon="-9.278779924172955"><ele>238.0</ele><time>2026-05-01T10:48:20.001Z</time></trkpt><trkpt lat="38.82171469902317" lon="-9.278721163492246"><ele>238.0</ele><time>2026-05-01T10:48:21.001Z</time></trkpt><trkpt lat="38.82182639930906" lon="-9.278597009688253"><ele>238.0</ele><time>2026-05-01T10:48:22.001Z</time></trkpt><trkpt lat="38.82193733763161" lon="-9.278453769880175"><ele>240.0</ele><time>2026-05-01T10:48:23.001Z</time></trkpt><trkpt lat="38.82204565857876" lon="-9.27830730116465"><ele>242.0</ele><time>2026-05-01T10:48:24.001Z</time></trkpt><trkpt lat="38.822129264995134" lon="-9.278162475801748"><ele>244.0</ele><time>2026-05-01T10:48:25.001Z</time></trkpt><trkpt lat="38.82217388041663" lon="-9.278012706014183"><ele>246.0</ele><time>2026-05-01T10:48:26.001Z</time></trkpt><trkpt lat="38.822185463126345" lon="-9.277843688243744"><ele>246.0</ele><time>2026-05-01T10:48:27.001Z</time></trkpt><trkpt lat="38.82220141780308" lon="-9.277665525971987"><ele>246.0</ele><time>2026-05-01T10:48:28.001Z</time></trkpt><trkpt lat="38.82221483111891" lon="-9.277489985871341"><ele>246.0</ele><time>2026-05-01T10:48:29.001Z</time></trkpt><trkpt lat="38.8222343873117" lon="-9.277315742939528"><ele>246.0</ele><time>2026-05-01T10:48:30.001Z</time></trkpt><trkpt lat="38.82227492539309" lon="-9.277171503202805"><ele>246.4</ele><time>2026-05-01T10:48:31.001Z</time></trkpt><trkpt lat="38.822315054111144" lon="-9.277048986653726"><ele>246.8</ele><time>2026-05-01T10:48:32.001Z</time></trkpt><trkpt lat="38.82239100882787" lon="-9.276961760601987"><ele>247.20000000000002</ele><time>2026-05-01T10:48:33.001Z</time></trkpt><trkpt lat="38.82249673328082" lon="-9.27688767440556"><ele>247.60000000000002</ele><time>2026-05-01T10:48:34.001Z</time></trkpt><trkpt lat="38.822603242896015" lon="-9.27681613969745"><ele>248.0</ele><time>2026-05-01T10:48:35.001Z</time></trkpt><trkpt lat="38.82264977447355" lon="-9.276674991573023"><ele>251.0</ele><time>2026-05-01T10:48:36.001Z</time></trkpt><trkpt lat="38.8226663398983" lon="-9.276535034452342"><ele>254.0</ele><time>2026-05-01T10:48:37.001Z</time></trkpt><trkpt lat="38.82269311788228" lon="-9.276370777162564"><ele>257.0</ele><time>2026-05-01T10:48:38.001Z</time></trkpt><trkpt lat="38.82272399086598" lon="-9.276192119773228"><ele>260.0</ele><time>2026-05-01T10:48:39.001Z</time></trkpt><trkpt lat="38.822777918741025" lon="-9.276037826512404"><ele>260.0</ele><time>2026-05-01T10:48:40.001Z</time></trkpt><trkpt lat="38.822837651412186" lon="-9.275885156615242"><ele>260.0</ele><time>2026-05-01T10:48:41.001Z</time></trkpt><trkpt lat="38.82292893076446" lon="-9.27575647029816"><ele>260.0</ele><time>2026-05-01T10:48:42.001Z</time></trkpt><trkpt lat="38.82303081541231" lon="-9.275626888651422"><ele>260.0</ele><time>2026-05-01T10:48:43.001Z</time></trkpt><trkpt lat="38.8231357360928" lon="-9.275504850738821"><ele>260.0</ele><time>2026-05-01T10:48:44.001Z</time></trkpt><trkpt lat="38.82323539795176" lon="-9.275378870284085"><ele>260.0</ele><time>2026-05-01T10:48:45.001Z</time></trkpt><trkpt lat="38.823309954398454" lon="-9.275234330185576"><ele>260.0</ele><time>2026-05-01T10:48:46.001Z</time></trkpt><trkpt lat="38.82332256533892" lon="-9.275052620711682"><ele>260.0</ele><time>2026-05-01T10:48:47.001Z</time></trkpt><trkpt lat="38.823376579714164" lon="-9.274899264846328"><ele>260.0</ele><time>2026-05-01T10:48:48.001Z</time></trkpt><trkpt lat="38.82345019021042" lon="-9.274774213180201"><ele>260.0</ele><time>2026-05-01T10:48:49.001Z</time></trkpt><trkpt lat="38.823545658367976" lon="-9.27468601022928"><ele>260.0</ele><time>2026-05-01T10:48:50.001Z</time></trkpt><trkpt lat="38.823645089671196" lon="-9.2746155562228"><ele>260.0</ele><time>2026-05-01T10:48:51.001Z</time></trkpt><trkpt lat="38.82374467620377" lon="-9.274544929183593"><ele>259.8</ele><time>2026-05-01T10:48:52.001Z</time></trkpt><trkpt lat="38.823838478275796" lon="-9.274472166824403"><ele>259.6</ele><time>2026-05-01T10:48:53.001Z</time></trkpt><trkpt lat="38.82390249724381" lon="-9.274383018990573"><ele>259.4</ele><time>2026-05-01T10:48:54.001Z</time></trkpt><trkpt lat="38.823952962910916" lon="-9.274293770737126"><ele>259.2</ele><time>2026-05-01T10:48:55.001Z</time></trkpt><trkpt lat="38.82398654875304" lon="-9.274186841789515"><ele>259.0</ele><time>2026-05-01T10:48:56.001Z</time></trkpt><trkpt lat="38.82403079409911" lon="-9.274069718191681"><ele>259.0</ele><time>2026-05-01T10:48:57.001Z</time></trkpt><trkpt lat="38.82407879338513" lon="-9.273939983538039"><ele>259.0</ele><time>2026-05-01T10:48:58.001Z</time></trkpt><trkpt lat="38.82419665709317" lon="-9.273844198406424"><ele>259.0</ele><time>2026-05-01T10:48:59.001Z</time></trkpt><trkpt lat="38.824290609389976" lon="-9.273742078126043"><ele>259.0</ele><time>2026-05-01T10:49:00.001Z</time></trkpt><trkpt lat="38.82439648854777" lon="-9.273654742339557"><ele>260.0</ele><time>2026-05-01T10:49:01.001Z</time></trkpt><trkpt lat="38.82450535953844" lon="-9.273569147048823"><ele>261.0</ele><time>2026-05-01T10:49:02.001Z</time></trkpt><trkpt lat="38.82461030249333" lon="-9.273488729290126"><ele>262.0</ele><time>2026-05-01T10:49:03.001Z</time></trkpt><trkpt lat="38.824678827832315" lon="-9.273385848961473"><ele>263.0</ele><time>2026-05-01T10:49:04.001Z</time></trkpt><trkpt lat="38.824725317896544" lon="-9.273274088668247"><ele>263.0</ele><time>2026-05-01T10:49:05.001Z</time></trkpt><trkpt lat="38.8247556611423" lon="-9.273147325800556"><ele>263.0</ele><time>2026-05-01T10:49:06.001Z</time></trkpt><trkpt lat="38.824743992755764" lon="-9.273020515732279"><ele>263.0</ele><time>2026-05-01T10:49:07.001Z</time></trkpt><trkpt lat="38.824694842844245" lon="-9.272912645921688"><ele>263.0</ele><time>2026-05-01T10:49:08.001Z</time></trkpt><trkpt lat="38.82464037950188" lon="-9.272782742313694"><ele>263.0</ele><time>2026-05-01T10:49:09.001Z</time></trkpt><trkpt lat="38.82458396404391" lon="-9.27264544441084"><ele>264.5</ele><time>2026-05-01T10:49:10.001Z</time></trkpt><trkpt lat="38.82452051948568" lon="-9.272501617257172"><ele>266.0</ele><time>2026-05-01T10:49:11.001Z</time></trkpt><trkpt lat="38.82444881987767" lon="-9.272360173587668"><ele>267.5</ele><time>2026-05-01T10:49:12.001Z</time></trkpt><trkpt lat="38.82437336117258" lon="-9.27221454454016"><ele>269.0</ele><time>2026-05-01T10:49:13.001Z</time></trkpt><trkpt lat="38.82429316836307" lon="-9.272099188983308"><ele>269.0</ele><time>2026-05-01T10:49:14.001Z</time></trkpt><trkpt lat="38.824192472095504" lon="-9.271995213648447"><ele>269.0</ele><time>2026-05-01T10:49:15.001Z</time></trkpt><trkpt lat="38.82408518397011" lon="-9.271897508708106"><ele>269.0</ele><time>2026-05-01T10:49:16.001Z</time></trkpt><trkpt lat="38.82399852356965" lon="-9.271776060859825"><ele>269.0</ele><time>2026-05-01T10:49:17.001Z</time></trkpt><trkpt lat="38.82390721247413" lon="-9.27166874537408"><ele>269.0</ele><time>2026-05-01T10:49:18.001Z</time></trkpt><trkpt lat="38.82383931691036" lon="-9.27152172701031"><ele>269.0</ele><time>2026-05-01T10:49:19.001Z</time></trkpt><trkpt lat="38.823787645926785" lon="-9.271356700019657"><ele>269.0</ele><time>2026-05-01T10:49:20.001Z</time></trkpt><trkpt lat="38.82374402573911" lon="-9.271178418960162"><ele>269.0</ele><time>2026-05-01T10:49:21.001Z</time></trkpt><trkpt lat="38.823695359757004" lon="-9.271004173311386"><ele>269.75</ele><time>2026-05-01T10:49:22.001Z</time></trkpt><trkpt lat="38.82364579778395" lon="-9.270828183797812"><ele>270.5</ele><time>2026-05-01T10:49:23.001Z</time></trkpt><trkpt lat="38.82357326918365" lon="-9.270662358926751"><ele>271.25</ele><time>2026-05-01T10:49:24.001Z</time></trkpt><trkpt lat="38.82351021064902" lon="-9.270488240836105"><ele>272.0</ele><time>2026-05-01T10:49:25.001Z</time></trkpt><trkpt lat="38.8234464395326" lon="-9.270317886208161"><ele>269.6666666666667</ele><time>2026-05-01T10:49:26.001Z</time></trkpt><trkpt lat="38.823379858686664" lon="-9.270143297952304"><ele>267.3333333333333</ele><time>2026-05-01T10:49:27.001Z</time></trkpt><trkpt lat="38.82331203218361" lon="-9.269968496269824"><ele>265.0</ele><time>2026-05-01T10:49:28.001Z</time></trkpt><trkpt lat="38.82324588213579" lon="-9.269798708149908"><ele>267.0</ele><time>2026-05-01T10:49:29.001Z</time></trkpt><trkpt lat="38.82318134940052" lon="-9.269633928763875"><ele>269.0</ele><time>2026-05-01T10:49:30.001Z</time></trkpt><trkpt lat="38.82311837543795" lon="-9.269469567189242"><ele>271.0</ele><time>2026-05-01T10:49:31.001Z</time></trkpt><trkpt lat="38.82307077211129" lon="-9.269302273420674"><ele>273.0</ele><time>2026-05-01T10:49:32.001Z</time></trkpt><trkpt lat="38.823020341653184" lon="-9.269162562333848"><ele>273.0</ele><time>2026-05-01T10:49:33.001Z</time></trkpt><trkpt lat="38.82300854310403" lon="-9.269020051527882"><ele>273.0</ele><time>2026-05-01T10:49:34.001Z</time></trkpt><trkpt lat="38.82304649731898" lon="-9.268876243402472"><ele>273.0</ele><time>2026-05-01T10:49:35.001Z</time></trkpt><trkpt lat="38.82310621168561" lon="-9.268727520701601"><ele>273.0</ele><time>2026-05-01T10:49:36.001Z</time></trkpt><trkpt lat="38.823207250380484" lon="-9.268600459521762"><ele>273.25</ele><time>2026-05-01T10:49:37.001Z</time></trkpt><trkpt lat="38.82333708653447" lon="-9.268518967890738"><ele>273.5</ele><time>2026-05-01T10:49:38.001Z</time></trkpt><trkpt lat="38.82348620545165" lon="-9.268478140236825"><ele>273.75</ele><time>2026-05-01T10:49:39.001Z</time></trkpt><trkpt lat="38.823630114710866" lon="-9.26844156221664"><ele>274.0</ele><time>2026-05-01T10:49:40.001Z</time></trkpt><trkpt lat="38.823766354458584" lon="-9.268393723008955"><ele>276.0</ele><time>2026-05-01T10:49:41.001Z</time></trkpt><trkpt lat="38.82388015266544" lon="-9.268302774125086"><ele>278.0</ele><time>2026-05-01T10:49:42.001Z</time></trkpt><trkpt lat="38.82397299079074" lon="-9.268174817531762"><ele>280.0</ele><time>2026-05-01T10:49:43.001Z</time></trkpt><trkpt lat="38.82398372694105" lon="-9.267990474508515"><ele>282.0</ele><time>2026-05-01T10:49:44.001Z</time></trkpt><trkpt lat="38.823995490648045" lon="-9.267821618305824"><ele>283.0</ele><time>2026-05-01T10:49:45.001Z</time></trkpt><trkpt lat="38.824006518146064" lon="-9.267637288115864"><ele>284.0</ele><time>2026-05-01T10:49:46.001Z</time></trkpt><trkpt lat="38.82401949030255" lon="-9.267454957570042"><ele>285.0</ele><time>2026-05-01T10:49:47.001Z</time></trkpt><trkpt lat="38.824065936883294" lon="-9.267274566251718"><ele>286.0</ele><time>2026-05-01T10:49:48.001Z</time></trkpt><trkpt lat="38.82411667350145" lon="-9.267104240115918"><ele>287.0</ele><time>2026-05-01T10:49:49.001Z</time></trkpt><trkpt lat="38.82421068657097" lon="-9.266938557159225"><ele>288.0</ele><time>2026-05-01T10:49:50.001Z</time></trkpt><trkpt lat="38.82433652771522" lon="-9.26677764703011"><ele>289.0</ele><time>2026-05-01T10:49:51.001Z</time></trkpt><trkpt lat="38.82448673088208" lon="-9.266611850735757"><ele>290.0</ele><time>2026-05-01T10:49:52.001Z</time></trkpt><trkpt lat="38.82464007577145" lon="-9.266426609033466"><ele>291.0</ele><time>2026-05-01T10:49:53.001Z</time></trkpt><trkpt lat="38.82479233012448" lon="-9.266221172415325"><ele>292.0</ele><time>2026-05-01T10:49:54.001Z</time></trkpt><trkpt lat="38.82494026738547" lon="-9.266010876209025"><ele>292.0</ele><time>2026-05-01T10:49:55.001Z</time></trkpt><trkpt lat="38.82509306152537" lon="-9.265812289324487"><ele>292.0</ele><time>2026-05-01T10:49:56.001Z</time></trkpt><trkpt lat="38.82524403599329" lon="-9.265613508324778"><ele>292.0</ele><time>2026-05-01T10:49:57.001Z</time></trkpt><trkpt lat="38.82537225896604" lon="-9.265406632390597"><ele>294.75</ele><time>2026-05-01T10:49:58.001Z</time></trkpt><trkpt lat="38.82549260669337" lon="-9.265241624120721"><ele>297.5</ele><time>2026-05-01T10:49:59.001Z</time></trkpt><trkpt lat="38.82560090630846" lon="-9.26512246033033"><ele>300.25</ele><time>2026-05-01T10:50:00.001Z</time></trkpt><trkpt lat="38.82567556965865" lon="-9.26501713060196"><ele>303.0</ele><time>2026-05-01T10:50:01.001Z</time></trkpt><trkpt lat="38.825734956733115" lon="-9.264926005051741"><ele>303.0</ele><time>2026-05-01T10:50:02.001Z</time></trkpt><trkpt lat="38.825803034514934" lon="-9.26484149957676"><ele>303.0</ele><time>2026-05-01T10:50:03.001Z</time></trkpt><trkpt lat="38.82585942040531" lon="-9.264739076522284"><ele>303.0</ele><time>2026-05-01T10:50:04.001Z</time></trkpt><trkpt lat="38.825911000867734" lon="-9.264664797263462"><ele>303.0</ele><time>2026-05-01T10:50:05.001Z</time></trkpt><trkpt lat="38.825982097437134" lon="-9.264590871567428"><ele>303.0</ele><time>2026-05-01T10:50:07.001Z</time></trkpt><trkpt lat="38.826019488920466" lon="-9.264524500292913"><ele>303.0</ele><time>2026-05-01T10:50:09.001Z</time></trkpt><trkpt lat="38.826063513438335" lon="-9.26445742536102"><ele>303.4</ele><time>2026-05-01T10:50:13.001Z</time></trkpt><trkpt lat="38.82615369057458" lon="-9.26455215428494"><ele>303.8</ele><time>2026-05-01T10:50:14.001Z</time></trkpt><trkpt lat="38.82620493851397" lon="-9.264638337032673"><ele>304.2</ele><time>2026-05-01T10:50:15.001Z</time></trkpt><trkpt lat="38.826261389264175" lon="-9.264740683104328"><ele>304.6</ele><time>2026-05-01T10:50:16.001Z</time></trkpt><trkpt lat="38.82631015977018" lon="-9.264835400460422"><ele>305.0</ele><time>2026-05-01T10:50:17.001Z</time></trkpt><trkpt lat="38.82635755290556" lon="-9.26491212697876"><ele>301.75</ele><time>2026-05-01T10:50:18.001Z</time></trkpt><trkpt lat="38.82649243271244" lon="-9.26473731333306"><ele>298.5</ele><time>2026-05-01T10:50:21.001Z</time></trkpt><trkpt lat="38.82654434874039" lon="-9.2645962125834"><ele>295.25</ele><time>2026-05-01T10:50:22.001Z</time></trkpt><trkpt lat="38.82659190398632" lon="-9.264442179599678"><ele>292.0</ele><time>2026-05-01T10:50:23.001Z</time></trkpt><trkpt lat="38.82664404461837" lon="-9.264277474907805"><ele>292.0</ele><time>2026-05-01T10:50:24.001Z</time></trkpt><trkpt lat="38.826704723196215" lon="-9.264115298791424"><ele>292.0</ele><time>2026-05-01T10:50:25.001Z</time></trkpt><trkpt lat="38.826786552792264" lon="-9.263956912854452"><ele>292.0</ele><time>2026-05-01T10:50:26.001Z</time></trkpt><trkpt lat="38.82686390012693" lon="-9.263788826861756"><ele>292.0</ele><time>2026-05-01T10:50:27.001Z</time></trkpt><trkpt lat="38.826957753744516" lon="-9.263619432488154"><ele>288.0</ele><time>2026-05-01T10:50:28.001Z</time></trkpt><trkpt lat="38.82706725278956" lon="-9.263457008757523"><ele>284.0</ele><time>2026-05-01T10:50:29.001Z</time></trkpt><trkpt lat="38.82719061060959" lon="-9.263301495439961"><ele>280.0</ele><time>2026-05-01T10:50:30.001Z</time></trkpt><trkpt lat="38.827305788327564" lon="-9.263153396286363"><ele>278.0</ele><time>2026-05-01T10:50:31.001Z</time></trkpt><trkpt lat="38.82741169856874" lon="-9.262987773428971"><ele>276.0</ele><time>2026-05-01T10:50:32.001Z</time></trkpt><trkpt lat="38.82749490470979" lon="-9.26281071899371"><ele>274.0</ele><time>2026-05-01T10:50:33.001Z</time></trkpt><trkpt lat="38.82761136799524" lon="-9.262680389973857"><ele>274.25</ele><time>2026-05-01T10:50:34.001Z</time></trkpt><trkpt lat="38.82771852532654" lon="-9.262554195894472"><ele>274.5</ele><time>2026-05-01T10:50:35.001Z</time></trkpt><trkpt lat="38.827824926192754" lon="-9.262443329698465"><ele>274.75</ele><time>2026-05-01T10:50:36.001Z</time></trkpt><trkpt lat="38.82792766242656" lon="-9.262354696176546"><ele>275.0</ele><time>2026-05-01T10:50:37.001Z</time></trkpt><trkpt lat="38.82802927221344" lon="-9.262300037608906"><ele>274.6</ele><time>2026-05-01T10:50:38.001Z</time></trkpt><trkpt lat="38.828121802973584" lon="-9.262256692025696"><ele>274.2</ele><time>2026-05-01T10:50:39.001Z</time></trkpt><trkpt lat="38.82820857165937" lon="-9.262214894903552"><ele>273.8</ele><time>2026-05-01T10:50:40.001Z</time></trkpt><trkpt lat="38.82830886653071" lon="-9.262162201896862"><ele>273.4</ele><time>2026-05-01T10:50:41.001Z</time></trkpt><trkpt lat="38.82840336459084" lon="-9.262105970954213"><ele>273.0</ele><time>2026-05-01T10:50:42.001Z</time></trkpt><trkpt lat="38.828470936922045" lon="-9.262020306314112"><ele>272.8333333333333</ele><time>2026-05-01T10:50:43.001Z</time></trkpt><trkpt lat="38.828506348962016" lon="-9.261936490411296"><ele>272.6666666666667</ele><time>2026-05-01T10:50:44.001Z</time></trkpt><trkpt lat="38.82855690845926" lon="-9.261848247526036"><ele>272.5</ele><time>2026-05-01T10:50:45.001Z</time></trkpt><trkpt lat="38.828610917295194" lon="-9.26175332620959"><ele>272.33333333333337</ele><time>2026-05-01T10:50:46.001Z</time></trkpt><trkpt lat="38.82866033865349" lon="-9.261666584287799"><ele>272.1666666666667</ele><time>2026-05-01T10:50:47.001Z</time></trkpt><trkpt lat="38.828706187228974" lon="-9.261588323980884"><ele>272.0</ele><time>2026-05-01T10:50:48.001Z</time></trkpt><trkpt lat="38.82875161365232" lon="-9.261517054129035"><ele>272.0</ele><time>2026-05-01T10:50:50.001Z</time></trkpt><trkpt lat="38.82887756037186" lon="-9.261729933570942"><ele>272.0</ele><time>2026-05-01T10:50:52.001Z</time></trkpt><trkpt lat="38.82894462889352" lon="-9.261833035125587"><ele>272.0</ele><time>2026-05-01T10:50:53.001Z</time></trkpt><trkpt lat="38.82899100899411" lon="-9.261969635598142"><ele>272.0</ele><time>2026-05-01T10:50:54.001Z</time></trkpt><trkpt lat="38.829047154806545" lon="-9.262105517832047"><ele>272.0</ele><time>2026-05-01T10:50:55.001Z</time></trkpt><trkpt lat="38.82911359125109" lon="-9.262242357124784"><ele>272.0</ele><time>2026-05-01T10:50:56.001Z</time></trkpt><trkpt lat="38.829184593375956" lon="-9.26238875069438"><ele>272.0</ele><time>2026-05-01T10:50:57.001Z</time></trkpt><trkpt lat="38.829246487881036" lon="-9.262535026236147"><ele>272.0</ele><time>2026-05-01T10:50:58.001Z</time></trkpt><trkpt lat="38.82930548864434" lon="-9.262661997294387"><ele>270.5</ele><time>2026-05-01T10:50:59.001Z</time></trkpt><trkpt lat="38.82935290684476" lon="-9.262771903929165"><ele>269.0</ele><time>2026-05-01T10:51:00.001Z</time></trkpt><trkpt lat="38.829391719078636" lon="-9.26283965796145"><ele>267.5</ele><time>2026-05-01T10:51:01.001Z</time></trkpt><trkpt lat="38.82955308234421" lon="-9.262671252079121"><ele>266.0</ele><time>2026-05-01T10:51:04.001Z</time></trkpt><trkpt lat="38.82960784605277" lon="-9.262534295864649"><ele>266.0</ele><time>2026-05-01T10:51:05.001Z</time></trkpt><trkpt lat="38.82966466574506" lon="-9.262376547912835"><ele>266.0</ele><time>2026-05-01T10:51:06.001Z</time></trkpt><trkpt lat="38.82972756263521" lon="-9.262200980360333"><ele>266.0</ele><time>2026-05-01T10:51:07.001Z</time></trkpt><trkpt lat="38.82979868033339" lon="-9.262001263663482"><ele>265.33333333333337</ele><time>2026-05-01T10:51:08.001Z</time></trkpt><trkpt lat="38.82987244314394" lon="-9.261787395771458"><ele>264.6666666666667</ele><time>2026-05-01T10:51:09.001Z</time></trkpt><trkpt lat="38.829947008953106" lon="-9.26156704089627"><ele>264.0</ele><time>2026-05-01T10:51:10.001Z</time></trkpt><trkpt lat="38.83002610934757" lon="-9.26134899679414"><ele>263.3333333333333</ele><time>2026-05-01T10:51:11.001Z</time></trkpt><trkpt lat="38.83011034086423" lon="-9.26115882760065"><ele>262.66666666666663</ele><time>2026-05-01T10:51:12.001Z</time></trkpt><trkpt lat="38.83016956562368" lon="-9.260973831660015"><ele>262.0</ele><time>2026-05-01T10:51:13.001Z</time></trkpt><trkpt lat="38.83026637769506" lon="-9.260782764071331"><ele>260.0</ele><time>2026-05-01T10:51:14.001Z</time></trkpt><trkpt lat="38.83035940706202" lon="-9.260569660027443"><ele>258.0</ele><time>2026-05-01T10:51:15.001Z</time></trkpt><trkpt lat="38.83046654800085" lon="-9.260360086957064"><ele>256.0</ele><time>2026-05-01T10:51:16.001Z</time></trkpt><trkpt lat="38.83056894285755" lon="-9.260168780498233"><ele>256.0</ele><time>2026-05-01T10:51:17.001Z</time></trkpt><trkpt lat="38.83067440051118" lon="-9.25998115603305"><ele>256.0</ele><time>2026-05-01T10:51:18.001Z</time></trkpt><trkpt lat="38.8307636005251" lon="-9.259811865051452"><ele>256.0</ele><time>2026-05-01T10:51:19.001Z</time></trkpt><trkpt lat="38.83084917547723" lon="-9.259661330028907"><ele>256.25</ele><time>2026-05-01T10:51:20.001Z</time></trkpt><trkpt lat="38.83091480047359" lon="-9.259509558423943"><ele>256.5</ele><time>2026-05-01T10:51:21.001Z</time></trkpt><trkpt lat="38.8309801522149" lon="-9.259381047313802"><ele>256.75</ele><time>2026-05-01T10:51:22.001Z</time></trkpt><trkpt lat="38.831048056212566" lon="-9.259249746407216"><ele>257.0</ele><time>2026-05-01T10:51:23.001Z</time></trkpt><trkpt lat="38.831111994614226" lon="-9.259128495688953"><ele>257.0</ele><time>2026-05-01T10:51:24.001Z</time></trkpt><trkpt lat="38.83116930216424" lon="-9.259021013063617"><ele>257.0</ele><time>2026-05-01T10:51:25.001Z</time></trkpt><trkpt lat="38.831221716556385" lon="-9.258925097963646"><ele>257.0</ele><time>2026-05-01T10:51:26.001Z</time></trkpt><trkpt lat="38.831284574554836" lon="-9.258810664296295"><ele>257.0</ele><time>2026-05-01T10:51:28.001Z</time></trkpt><trkpt lat="38.83135489296307" lon="-9.25894129683356"><ele>257.0</ele><time>2026-05-01T10:51:30.001Z</time></trkpt><trkpt lat="38.8314173227723" lon="-9.259015602375657"><ele>257.0</ele><time>2026-05-01T10:51:32.001Z</time></trkpt><trkpt lat="38.831489749698214" lon="-9.259062810879078"><ele>257.0</ele><time>2026-05-01T10:51:34.001Z</time></trkpt><trkpt lat="38.83156319827763" lon="-9.259124698114082"><ele>257.0</ele><time>2026-05-01T10:51:36.001Z</time></trkpt><trkpt lat="38.83162479667639" lon="-9.259173199681685"><ele>257.0</ele><time>2026-05-01T10:51:38.001Z</time></trkpt><trkpt lat="38.83168940370351" lon="-9.259236537115731"><ele>257.0</ele><time>2026-05-01T10:51:41.001Z</time></trkpt><trkpt lat="38.83178114720633" lon="-9.259258570763109"><ele>257.0</ele><time>2026-05-01T10:51:43.001Z</time></trkpt><trkpt lat="38.831894192695906" lon="-9.259286205258599"><ele>257.0</ele><time>2026-05-01T10:51:45.001Z</time></trkpt><trkpt lat="38.83196406834482" lon="-9.259288886501766"><ele>257.0</ele><time>2026-05-01T10:51:47.001Z</time></trkpt><trkpt lat="38.83180177528185" lon="-9.259285470147947"><ele>257.0</ele><time>2026-05-01T10:51:51.001Z</time></trkpt><trkpt lat="38.83172122456738" lon="-9.259251777429382"><ele>257.0</ele><time>2026-05-01T10:51:52.001Z</time></trkpt><trkpt lat="38.83163184420052" lon="-9.259216875893518"><ele>257.0</ele><time>2026-05-01T10:51:53.001Z</time></trkpt><trkpt lat="38.83154084395556" lon="-9.259163297571341"><ele>257.0</ele><time>2026-05-01T10:51:54.001Z</time></trkpt><trkpt lat="38.83145530367147" lon="-9.25907554354241"><ele>257.0</ele><time>2026-05-01T10:51:55.001Z</time></trkpt><trkpt lat="38.8313656266707" lon="-9.258995670328975"><ele>257.0</ele><time>2026-05-01T10:51:56.001Z</time></trkpt><trkpt lat="38.831298368201" lon="-9.258935402737894"><ele>257.0</ele><time>2026-05-01T10:51:57.001Z</time></trkpt><trkpt lat="38.831237121550004" lon="-9.258893066136299"><ele>257.0</ele><time>2026-05-01T10:51:59.001Z</time></trkpt><trkpt lat="38.83131075497048" lon="-9.258941953729241"><ele>257.0</ele><time>2026-05-01T10:52:03.001Z</time></trkpt><trkpt lat="38.83137520781679" lon="-9.259000157298496"><ele>257.0</ele><time>2026-05-01T10:52:04.001Z</time></trkpt><trkpt lat="38.83144447487529" lon="-9.259063869259812"><ele>257.0</ele><time>2026-05-01T10:52:05.001Z</time></trkpt><trkpt lat="38.8315270012615" lon="-9.259141204130314"><ele>257.0</ele><time>2026-05-01T10:52:06.001Z</time></trkpt><trkpt lat="38.83162020070027" lon="-9.25922241782425"><ele>257.0</ele><time>2026-05-01T10:52:07.001Z</time></trkpt><trkpt lat="38.83173463221997" lon="-9.259285848033088"><ele>258.0</ele><time>2026-05-01T10:52:08.001Z</time></trkpt><trkpt lat="38.831867123253375" lon="-9.259302657433295"><ele>259.0</ele><time>2026-05-01T10:52:09.001Z</time></trkpt><trkpt lat="38.83200020917552" lon="-9.259339275314725"><ele>260.0</ele><time>2026-05-01T10:52:10.001Z</time></trkpt><trkpt lat="38.832155504491965" lon="-9.259350161361791"><ele>261.0</ele><time>2026-05-01T10:52:11.001Z</time></trkpt><trkpt lat="38.83230740192843" lon="-9.259411133042002"><ele>261.0</ele><time>2026-05-01T10:52:12.001Z</time></trkpt><trkpt lat="38.83246124346374" lon="-9.259489755277922"><ele>261.0</ele><time>2026-05-01T10:52:13.001Z</time></trkpt><trkpt lat="38.832628771409205" lon="-9.259526711924414"><ele>261.0</ele><time>2026-05-01T10:52:14.001Z</time></trkpt><trkpt lat="38.83279546974506" lon="-9.259568260378137"><ele>265.6666666666667</ele><time>2026-05-01T10:52:15.001Z</time></trkpt><trkpt lat="38.832962565346214" lon="-9.259618419012012"><ele>270.33333333333337</ele><time>2026-05-01T10:52:16.001Z</time></trkpt><trkpt lat="38.833112486227414" lon="-9.259692295901134"><ele>275.0</ele><time>2026-05-01T10:52:17.001Z</time></trkpt><trkpt lat="38.833227028345505" lon="-9.259734285477782"><ele>275.0</ele><time>2026-05-01T10:52:18.001Z</time></trkpt><trkpt lat="38.83331570413105" lon="-9.259763875667948"><ele>275.0</ele><time>2026-05-01T10:52:19.001Z</time></trkpt><trkpt lat="38.833400814608446" lon="-9.259800369163546"><ele>275.0</ele><time>2026-05-01T10:52:20.001Z</time></trkpt><trkpt lat="38.83347675723879" lon="-9.259825946461362"><ele>275.0</ele><time>2026-05-01T10:52:21.001Z</time></trkpt><trkpt lat="38.833550197115684" lon="-9.259831723409086"><ele>275.0</ele><time>2026-05-01T10:52:22.001Z</time></trkpt><trkpt lat="38.83360907649715" lon="-9.259865126976182"><ele>275.0</ele><time>2026-05-01T10:52:23.001Z</time></trkpt><trkpt lat="38.83374088975805" lon="-9.259904444057769"><ele>279.4</ele><time>2026-05-01T10:52:25.001Z</time></trkpt><trkpt lat="38.833824722357505" lon="-9.259935115600467"><ele>283.8</ele><time>2026-05-01T10:52:26.001Z</time></trkpt><trkpt lat="38.833918767272635" lon="-9.25994760430266"><ele>288.2</ele><time>2026-05-01T10:52:27.001Z</time></trkpt><trkpt lat="38.834013717456656" lon="-9.259993871409142"><ele>292.6</ele><time>2026-05-01T10:52:28.001Z</time></trkpt><trkpt lat="38.83411682291423" lon="-9.260019244843992"><ele>297.0</ele><time>2026-05-01T10:52:29.001Z</time></trkpt><trkpt lat="38.83422123355136" lon="-9.260040892472412"><ele>299.0</ele><time>2026-05-01T10:52:30.001Z</time></trkpt><trkpt lat="38.834330246745104" lon="-9.260064712164478"><ele>301.0</ele><time>2026-05-01T10:52:31.001Z</time></trkpt><trkpt lat="38.83443948955008" lon="-9.260088621452931"><ele>303.0</ele><time>2026-05-01T10:52:32.001Z</time></trkpt><trkpt lat="38.834548038641415" lon="-9.260099299413914"><ele>305.0</ele><time>2026-05-01T10:52:33.001Z</time></trkpt><trkpt lat="38.834649403687216" lon="-9.26013560901499"><ele>307.0</ele><time>2026-05-01T10:52:34.001Z</time></trkpt><trkpt lat="38.83474270730139" lon="-9.260150057610337"><ele>307.0</ele><time>2026-05-01T10:52:35.001Z</time></trkpt><trkpt lat="38.834815343322894" lon="-9.260142316238195"><ele>307.0</ele><time>2026-05-01T10:52:36.001Z</time></trkpt><trkpt lat="38.834914306513035" lon="-9.260124150396663"><ele>307.0</ele><time>2026-05-01T10:52:38.001Z</time></trkpt><trkpt lat="38.83499145113871" lon="-9.260016919748644"><ele>307.0</ele><time>2026-05-01T10:52:40.001Z</time></trkpt><trkpt lat="38.835058131782546" lon="-9.259986217138525"><ele>307.0</ele><time>2026-05-01T10:52:41.001Z</time></trkpt><trkpt lat="38.835166804586876" lon="-9.259919874340584"><ele>307.0</ele><time>2026-05-01T10:52:43.001Z</time></trkpt><trkpt lat="38.835232691837504" lon="-9.259891327797424"><ele>307.0</ele><time>2026-05-01T10:52:45.001Z</time></trkpt><trkpt lat="38.83530148832853" lon="-9.25982248035189"><ele>307.0</ele><time>2026-05-01T10:52:48.001Z</time></trkpt><trkpt lat="38.83541934774726" lon="-9.259741472089674"><ele>307.0</ele><time>2026-05-01T10:52:50.001Z</time></trkpt><trkpt lat="38.835520837156416" lon="-9.259668125252764"><ele>307.0</ele><time>2026-05-01T10:52:52.001Z</time></trkpt><trkpt lat="38.83557780032209" lon="-9.2596318361145"><ele>306.6</ele><time>2026-05-01T10:52:53.001Z</time></trkpt><trkpt lat="38.83569374128774" lon="-9.25958637461796"><ele>306.2</ele><time>2026-05-01T10:52:55.001Z</time></trkpt><trkpt lat="38.835826146908175" lon="-9.259615048111817"><ele>305.8</ele><time>2026-05-01T10:52:57.001Z</time></trkpt><trkpt lat="38.83590062157355" lon="-9.259616783212063"><ele>305.4</ele><time>2026-05-01T10:52:58.001Z</time></trkpt><trkpt lat="38.835985592416016" lon="-9.259604566277954"><ele>305.0</ele><time>2026-05-01T10:52:59.001Z</time></trkpt><trkpt lat="38.83605186844007" lon="-9.259558812529306"><ele>305.0</ele><time>2026-05-01T10:53:00.001Z</time></trkpt><trkpt lat="38.836123333178904" lon="-9.259523494687501"><ele>305.0</ele><time>2026-05-01T10:53:01.001Z</time></trkpt><trkpt lat="38.836190586873215" lon="-9.259463799998167"><ele>305.0</ele><time>2026-05-01T10:53:02Z</time></trkpt><trkpt lat="38.83624339367459" lon="-9.2594145373133"><ele>305.0</ele><time>2026-05-01T10:53:03Z</time></trkpt><trkpt lat="38.836335244251636" lon="-9.259344030089046"><ele>305.0</ele><time>2026-05-01T10:53:05Z</time></trkpt><trkpt lat="38.83638703973572" lon="-9.259288277713324"><ele>305.0</ele><time>2026-05-01T10:53:07Z</time></trkpt><trkpt lat="38.836437193757675" lon="-9.259224227809067"><ele>305.0</ele><time>2026-05-01T10:53:10Z</time></trkpt><trkpt lat="38.83648835489402" lon="-9.259138092257434"><ele>305.0</ele><time>2026-05-01T10:53:13Z</time></trkpt><trkpt lat="38.83659794500101" lon="-9.259002391767549"><ele>305.0</ele><time>2026-05-01T10:53:15Z</time></trkpt><trkpt lat="38.83670546826587" lon="-9.25897565022925"><ele>305.0</ele><time>2026-05-01T10:53:16Z</time></trkpt><trkpt lat="38.83681078268675" lon="-9.258942096497256"><ele>304.75</ele><time>2026-05-01T10:53:17Z</time></trkpt><trkpt lat="38.83691965987561" lon="-9.258882247477466"><ele>304.5</ele><time>2026-05-01T10:53:18Z</time></trkpt><trkpt lat="38.837031020711024" lon="-9.258818533068895"><ele>304.25</ele><time>2026-05-01T10:53:19Z</time></trkpt><trkpt lat="38.837133389297996" lon="-9.258733704894128"><ele>304.0</ele><time>2026-05-01T10:53:20Z</time></trkpt><trkpt lat="38.83722752723748" lon="-9.258624285887338"><ele>304.0</ele><time>2026-05-01T10:53:21Z</time></trkpt><trkpt lat="38.83733301040296" lon="-9.258500720713023"><ele>304.0</ele><time>2026-05-01T10:53:22Z</time></trkpt><trkpt lat="38.83743154371413" lon="-9.258395252547782"><ele>304.0</ele><time>2026-05-01T10:53:23Z</time></trkpt><trkpt lat="38.837532722703166" lon="-9.258318269371236"><ele>304.0</ele><time>2026-05-01T10:53:24Z</time></trkpt><trkpt lat="38.83765923792436" lon="-9.258278302835983"><ele>303.75</ele><time>2026-05-01T10:53:25Z</time></trkpt><trkpt lat="38.83780385431601" lon="-9.258250631566362"><ele>303.5</ele><time>2026-05-01T10:53:26Z</time></trkpt><trkpt lat="38.83793531181257" lon="-9.258164168600056"><ele>303.25</ele><time>2026-05-01T10:53:27Z</time></trkpt><trkpt lat="38.83804243177901" lon="-9.25804494704002"><ele>303.0</ele><time>2026-05-01T10:53:28Z</time></trkpt><trkpt lat="38.83815562552461" lon="-9.257938913350351"><ele>301.6</ele><time>2026-05-01T10:53:29Z</time></trkpt><trkpt lat="38.83826264825334" lon="-9.257877326645415"><ele>300.20000000000005</ele><time>2026-05-01T10:53:30Z</time></trkpt><trkpt lat="38.83835136254043" lon="-9.257824757093307"><ele>298.8</ele><time>2026-05-01T10:53:31Z</time></trkpt><trkpt lat="38.83845653524153" lon="-9.257825253857154"><ele>297.40000000000003</ele><time>2026-05-01T10:53:32Z</time></trkpt><trkpt lat="38.83857721625798" lon="-9.257862295228325"><ele>296.0</ele><time>2026-05-01T10:53:33Z</time></trkpt><trkpt lat="38.83869471897968" lon="-9.257907818168121"><ele>294.40000000000003</ele><time>2026-05-01T10:53:34Z</time></trkpt><trkpt lat="38.83878368677653" lon="-9.257911954051027"><ele>292.8</ele><time>2026-05-01T10:53:35Z</time></trkpt><trkpt lat="38.83882480486237" lon="-9.257818164621536"><ele>291.20000000000005</ele><time>2026-05-01T10:53:36Z</time></trkpt><trkpt lat="38.838804448972546" lon="-9.25768469872012"><ele>289.6</ele><time>2026-05-01T10:53:37Z</time></trkpt><trkpt lat="38.83884312328355" lon="-9.25753310667114"><ele>288.0</ele><time>2026-05-01T10:53:38Z</time></trkpt><trkpt lat="38.838864553363095" lon="-9.257355310843785"><ele>288.0</ele><time>2026-05-01T10:53:39Z</time></trkpt><trkpt lat="38.838876825147224" lon="-9.257163175981155"><ele>288.0</ele><time>2026-05-01T10:53:40Z</time></trkpt><trkpt lat="38.8388882302901" lon="-9.25698021838869"><ele>288.0</ele><time>2026-05-01T10:53:41Z</time></trkpt><trkpt lat="38.8389088504989" lon="-9.256797500836484"><ele>288.0</ele><time>2026-05-01T10:53:42Z</time></trkpt><trkpt lat="38.838940520533995" lon="-9.256618119500143"><ele>286.75</ele><time>2026-05-01T10:53:43Z</time></trkpt><trkpt lat="38.83897921834822" lon="-9.256443696309072"><ele>285.5</ele><time>2026-05-01T10:53:44Z</time></trkpt><trkpt lat="38.83901310698029" lon="-9.256275963731419"><ele>284.25</ele><time>2026-05-01T10:53:45Z</time></trkpt><trkpt lat="38.83904297747378" lon="-9.256114982179678"><ele>283.0</ele><time>2026-05-01T10:53:46Z</time></trkpt><trkpt lat="38.83906887754105" lon="-9.255975388386295"><ele>283.0</ele><time>2026-05-01T10:53:47Z</time></trkpt><trkpt lat="38.83909068171186" lon="-9.25586402396355"><ele>283.0</ele><time>2026-05-01T10:53:48Z</time></trkpt><trkpt lat="38.8391098542962" lon="-9.255768866922093"><ele>283.0</ele><time>2026-05-01T10:53:49Z</time></trkpt><trkpt lat="38.839131063051504" lon="-9.255667319792034"><ele>283.0</ele><time>2026-05-01T10:53:50Z</time></trkpt><trkpt lat="38.83914743669073" lon="-9.255556916485476"><ele>283.0</ele><time>2026-05-01T10:53:52Z</time></trkpt><trkpt lat="38.83920728290701" lon="-9.255530725003009"><ele>283.0</ele><time>2026-05-01T10:54:05Z</time></trkpt><trkpt lat="38.8392936212996" lon="-9.255517791950567"><ele>282.6</ele><time>2026-05-01T10:54:07Z</time></trkpt><trkpt lat="38.83940652479466" lon="-9.25559961947311"><ele>282.20000000000005</ele><time>2026-05-01T10:54:09Z</time></trkpt><trkpt lat="38.83947102280486" lon="-9.25562362168626"><ele>281.8</ele><time>2026-05-01T10:54:10Z</time></trkpt><trkpt lat="38.8395861031361" lon="-9.255674465108877"><ele>281.40000000000003</ele><time>2026-05-01T10:54:12Z</time></trkpt><trkpt lat="38.83969506681496" lon="-9.255732375824785"><ele>281.0</ele><time>2026-05-01T10:54:14Z</time></trkpt><trkpt lat="38.8397638193381" lon="-9.255747173985606"><ele>281.0</ele><time>2026-05-01T10:54:15Z</time></trkpt><trkpt lat="38.839824096835734" lon="-9.255775566266417"><ele>281.0</ele><time>2026-05-01T10:54:16Z</time></trkpt><trkpt lat="38.839896346259984" lon="-9.255809597919844"><ele>281.0</ele><time>2026-05-01T10:54:17Z</time></trkpt><trkpt lat="38.83997357689294" lon="-9.25584597561705"><ele>281.0</ele><time>2026-05-01T10:54:18Z</time></trkpt><trkpt lat="38.84005343705267" lon="-9.25588557690371"><ele>281.0</ele><time>2026-05-01T10:54:19Z</time></trkpt><trkpt lat="38.84013152645525" lon="-9.255924499457493"><ele>281.0</ele><time>2026-05-01T10:54:20Z</time></trkpt><trkpt lat="38.84019939869197" lon="-9.25597056785719"><ele>280.5</ele><time>2026-05-01T10:54:21Z</time></trkpt><trkpt lat="38.84026467649142" lon="-9.255966380952536"><ele>280.0</ele><time>2026-05-01T10:54:23Z</time></trkpt><trkpt lat="38.84034033155806" lon="-9.256025640815997"><ele>279.5</ele><time>2026-05-01T10:54:44.001Z</time></trkpt><trkpt lat="38.84040066455587" lon="-9.25605270321449"><ele>279.0</ele><time>2026-05-01T10:54:45.001Z</time></trkpt><trkpt lat="38.84046396199206" lon="-9.256096818163728"><ele>278.5</ele><time>2026-05-01T10:54:46.001Z</time></trkpt><trkpt lat="38.840534940271255" lon="-9.256145374256024"><ele>278.0</ele><time>2026-05-01T10:54:47.001Z</time></trkpt><trkpt lat="38.84061567594538" lon="-9.256193791551635"><ele>278.0</ele><time>2026-05-01T10:54:48.001Z</time></trkpt><trkpt lat="38.840702895041225" lon="-9.256263859183422"><ele>278.0</ele><time>2026-05-01T10:54:49.001Z</time></trkpt><trkpt lat="38.84079162471084" lon="-9.256333025331234"><ele>278.0</ele><time>2026-05-01T10:54:50.001Z</time></trkpt><trkpt lat="38.8408787303625" lon="-9.25641617622308"><ele>278.0</ele><time>2026-05-01T10:54:51.001Z</time></trkpt><trkpt lat="38.84096751712429" lon="-9.256503838129008"><ele>278.0</ele><time>2026-05-01T10:54:52.001Z</time></trkpt><trkpt lat="38.84106158392088" lon="-9.256600241754462"><ele>277.5</ele><time>2026-05-01T10:54:53.001Z</time></trkpt><trkpt lat="38.84115301668345" lon="-9.256696082669562"><ele>277.0</ele><time>2026-05-01T10:54:54.001Z</time></trkpt><trkpt lat="38.84124663431277" lon="-9.25679657432595"><ele>276.5</ele><time>2026-05-01T10:54:55.001Z</time></trkpt><trkpt lat="38.841352440991216" lon="-9.256887613377463"><ele>276.0</ele><time>2026-05-01T10:54:56Z</time></trkpt><trkpt lat="38.841464966749754" lon="-9.256961024579825"><ele>276.0</ele><time>2026-05-01T10:54:57Z</time></trkpt><trkpt lat="38.841578293164304" lon="-9.25703852649061"><ele>276.0</ele><time>2026-05-01T10:54:58Z</time></trkpt><trkpt lat="38.8416803772544" lon="-9.257140296215491"><ele>276.0</ele><time>2026-05-01T10:54:59Z</time></trkpt><trkpt lat="38.8417667935751" lon="-9.257268392065766"><ele>276.0</ele><time>2026-05-01T10:55:00Z</time></trkpt><trkpt lat="38.84185569334184" lon="-9.25738964398654"><ele>274.0</ele><time>2026-05-01T10:55:01Z</time></trkpt><trkpt lat="38.8419497150959" lon="-9.257502429054487"><ele>272.0</ele><time>2026-05-01T10:55:02Z</time></trkpt><trkpt lat="38.842046072673945" lon="-9.257621825424996"><ele>270.0</ele><time>2026-05-01T10:55:03Z</time></trkpt><trkpt lat="38.84215318759088" lon="-9.257679095936632"><ele>268.0</ele><time>2026-05-01T10:55:04Z</time></trkpt><trkpt lat="38.842264384906436" lon="-9.257719265753526"><ele>268.0</ele><time>2026-05-01T10:55:05Z</time></trkpt><trkpt lat="38.8423874695333" lon="-9.257779937384587"><ele>268.0</ele><time>2026-05-01T10:55:06Z</time></trkpt><trkpt lat="38.84252519319817" lon="-9.257809656907295"><ele>268.0</ele><time>2026-05-01T10:55:07Z</time></trkpt><trkpt lat="38.84266368931001" lon="-9.257848422796107"><ele>268.0</ele><time>2026-05-01T10:55:08Z</time></trkpt><trkpt lat="38.84279083059137" lon="-9.257902067482242"><ele>267.75</ele><time>2026-05-01T10:55:09Z</time></trkpt><trkpt lat="38.84291276399677" lon="-9.257939700005318"><ele>267.5</ele><time>2026-05-01T10:55:10Z</time></trkpt><trkpt lat="38.84303127477138" lon="-9.257986984094586"><ele>267.25</ele><time>2026-05-01T10:55:11Z</time></trkpt><trkpt lat="38.84314095313557" lon="-9.258061059923056"><ele>267.0</ele><time>2026-05-01T10:55:12Z</time></trkpt><trkpt lat="38.84323719789789" lon="-9.25814786486076"><ele>267.0</ele><time>2026-05-01T10:55:13Z</time></trkpt><trkpt lat="38.8433222276178" lon="-9.258246443921006"><ele>267.0</ele><time>2026-05-01T10:55:14Z</time></trkpt><trkpt lat="38.843399481947465" lon="-9.258346770770553"><ele>267.0</ele><time>2026-05-01T10:55:15Z</time></trkpt><trkpt lat="38.84347648736104" lon="-9.258446766071213"><ele>267.0</ele><time>2026-05-01T10:55:16Z</time></trkpt><trkpt lat="38.84356077913138" lon="-9.258558366577352"><ele>268.75</ele><time>2026-05-01T10:55:17Z</time></trkpt><trkpt lat="38.84364614500413" lon="-9.258687218463775"><ele>270.5</ele><time>2026-05-01T10:55:18Z</time></trkpt><trkpt lat="38.843718701902496" lon="-9.258841812617367"><ele>272.25</ele><time>2026-05-01T10:55:19Z</time></trkpt><trkpt lat="38.84377877766285" lon="-9.259010706448175"><ele>274.0</ele><time>2026-05-01T10:55:20Z</time></trkpt><trkpt lat="38.843846176057205" lon="-9.259175682646589"><ele>274.0</ele><time>2026-05-01T10:55:21Z</time></trkpt><trkpt lat="38.843903819644055" lon="-9.259337684160148"><ele>274.0</ele><time>2026-05-01T10:55:22Z</time></trkpt><trkpt lat="38.84395372019428" lon="-9.259485750056625"><ele>274.0</ele><time>2026-05-01T10:55:23Z</time></trkpt><trkpt lat="38.8440103372798" lon="-9.259622654759678"><ele>274.0</ele><time>2026-05-01T10:55:24Z</time></trkpt><trkpt lat="38.84405861429915" lon="-9.259762857087306"><ele>274.5</ele><time>2026-05-01T10:55:25Z</time></trkpt><trkpt lat="38.84410925364805" lon="-9.25990304213596"><ele>275.0</ele><time>2026-05-01T10:55:26Z</time></trkpt><trkpt lat="38.84415956638634" lon="-9.260037475285184"><ele>275.5</ele><time>2026-05-01T10:55:27Z</time></trkpt><trkpt lat="38.844210051098734" lon="-9.26017133292817"><ele>276.0</ele><time>2026-05-01T10:55:28Z</time></trkpt><trkpt lat="38.84426005897368" lon="-9.26030957763816"><ele>277.6</ele><time>2026-05-01T10:55:29Z</time></trkpt><trkpt lat="38.8443085974015" lon="-9.260439234813857"><ele>279.20000000000005</ele><time>2026-05-01T10:55:30Z</time></trkpt><trkpt lat="38.844365717831344" lon="-9.260560022858748"><ele>280.79999999999995</ele><time>2026-05-01T10:55:31Z</time></trkpt><trkpt lat="38.84445142245913" lon="-9.26064475318491"><ele>282.4</ele><time>2026-05-01T10:55:32Z</time></trkpt><trkpt lat="38.84452996805426" lon="-9.260747275182695"><ele>284.0</ele><time>2026-05-01T10:55:33Z</time></trkpt><trkpt lat="38.844654335800634" lon="-9.260767163281185"><ele>284.25</ele><time>2026-05-01T10:55:34Z</time></trkpt><trkpt lat="38.84476610321392" lon="-9.260812745961081"><ele>284.5</ele><time>2026-05-01T10:55:35Z</time></trkpt><trkpt lat="38.84487117137932" lon="-9.260865145579245"><ele>284.75</ele><time>2026-05-01T10:55:36Z</time></trkpt><trkpt lat="38.844999184111586" lon="-9.260910086233636"><ele>285.0</ele><time>2026-05-01T10:55:37Z</time></trkpt><trkpt lat="38.845144763456325" lon="-9.260941005962268"><ele>285.75</ele><time>2026-05-01T10:55:38Z</time></trkpt><trkpt lat="38.84526433527681" lon="-9.260982277917782"><ele>286.5</ele><time>2026-05-01T10:55:39Z</time></trkpt><trkpt lat="38.845369914289364" lon="-9.261018720038455"><ele>287.25</ele><time>2026-05-01T10:55:40Z</time></trkpt><trkpt lat="38.84548156505119" lon="-9.261056569081475"><ele>288.0</ele><time>2026-05-01T10:55:41Z</time></trkpt><trkpt lat="38.84561512087799" lon="-9.261111744822411"><ele>288.0</ele><time>2026-05-01T10:55:42Z</time></trkpt><trkpt lat="38.84577102200231" lon="-9.261157442604922"><ele>288.0</ele><time>2026-05-01T10:55:43Z</time></trkpt><trkpt lat="38.8459475586116" lon="-9.261224707796089"><ele>288.0</ele><time>2026-05-01T10:55:44Z</time></trkpt><trkpt lat="38.846134537715315" lon="-9.261293268043614"><ele>288.3333333333333</ele><time>2026-05-01T10:55:45Z</time></trkpt><trkpt lat="38.84633131132551" lon="-9.261369813357813"><ele>288.66666666666663</ele><time>2026-05-01T10:55:46Z</time></trkpt><trkpt lat="38.846519540015194" lon="-9.261437563458"><ele>289.0</ele><time>2026-05-01T10:55:47Z</time></trkpt><trkpt lat="38.84669195296622" lon="-9.261495317347881"><ele>287.0</ele><time>2026-05-01T10:55:48Z</time></trkpt><trkpt lat="38.846868889780815" lon="-9.261555339746304"><ele>285.0</ele><time>2026-05-01T10:55:49Z</time></trkpt><trkpt lat="38.847016299139895" lon="-9.261610484622171"><ele>283.0</ele><time>2026-05-01T10:55:50Z</time></trkpt><trkpt lat="38.8471579066486" lon="-9.261653408951444"><ele>283.0</ele><time>2026-05-01T10:55:51Z</time></trkpt><trkpt lat="38.847290187113344" lon="-9.261699735978663"><ele>283.0</ele><time>2026-05-01T10:55:52Z</time></trkpt><trkpt lat="38.84742500458393" lon="-9.261743533669692"><ele>283.0</ele><time>2026-05-01T10:55:53Z</time></trkpt><trkpt lat="38.84756292428111" lon="-9.261792866928912"><ele>283.0</ele><time>2026-05-01T10:55:54Z</time></trkpt><trkpt lat="38.84769618942946" lon="-9.261841565932652"><ele>282.2</ele><time>2026-05-01T10:55:55Z</time></trkpt><trkpt lat="38.84782078468051" lon="-9.261885787603935"><ele>281.4</ele><time>2026-05-01T10:55:56Z</time></trkpt><trkpt lat="38.847932029742495" lon="-9.2619362790763"><ele>280.59999999999997</ele><time>2026-05-01T10:55:57Z</time></trkpt><trkpt lat="38.84802395774753" lon="-9.261981438322792"><ele>279.8</ele><time>2026-05-01T10:55:58Z</time></trkpt><trkpt lat="38.848112653037155" lon="-9.2620277185527"><ele>279.0</ele><time>2026-05-01T10:55:59Z</time></trkpt><trkpt lat="38.84820112773515" lon="-9.26207108149284"><ele>279.0</ele><time>2026-05-01T10:56:00Z</time></trkpt><trkpt lat="38.84827576025546" lon="-9.26210684066194"><ele>279.0</ele><time>2026-05-01T10:56:01Z</time></trkpt><trkpt lat="38.84835922841775" lon="-9.262146904858543"><ele>279.0</ele><time>2026-05-01T10:56:02Z</time></trkpt><trkpt lat="38.84843816938092" lon="-9.262176220130257"><ele>279.0</ele><time>2026-05-01T10:56:03Z</time></trkpt><trkpt lat="38.84852166905447" lon="-9.262215733747142"><ele>279.0</ele><time>2026-05-01T10:56:04Z</time></trkpt><trkpt lat="38.84861779337312" lon="-9.262262705330047"><ele>279.0</ele><time>2026-05-01T10:56:05Z</time></trkpt><trkpt lat="38.84871098185428" lon="-9.262331503561082"><ele>279.0</ele><time>2026-05-01T10:56:06Z</time></trkpt><trkpt lat="38.848809748143196" lon="-9.26241893381686"><ele>279.0</ele><time>2026-05-01T10:56:07Z</time></trkpt><trkpt lat="38.84890282817947" lon="-9.26251382644106"><ele>279.0</ele><time>2026-05-01T10:56:08Z</time></trkpt><trkpt lat="38.84898144305557" lon="-9.262597596203774"><ele>279.0</ele><time>2026-05-01T10:56:09Z</time></trkpt><trkpt lat="38.84906711990802" lon="-9.262678444641843"><ele>279.0</ele><time>2026-05-01T10:56:10Z</time></trkpt><trkpt lat="38.849150753131866" lon="-9.262768311718881"><ele>279.0</ele><time>2026-05-01T10:56:11Z</time></trkpt><trkpt lat="38.84923134228319" lon="-9.262853463701056"><ele>279.0</ele><time>2026-05-01T10:56:12Z</time></trkpt><trkpt lat="38.84931238680573" lon="-9.262929079887092"><ele>279.0</ele><time>2026-05-01T10:56:13Z</time></trkpt><trkpt lat="38.84939045698251" lon="-9.263005689688196"><ele>279.0</ele><time>2026-05-01T10:56:14Z</time></trkpt><trkpt lat="38.84946798165637" lon="-9.263087437305893"><ele>279.0</ele><time>2026-05-01T10:56:15Z</time></trkpt><trkpt lat="38.849554151164895" lon="-9.263167531117888"><ele>278.2</ele><time>2026-05-01T10:56:16Z</time></trkpt><trkpt lat="38.8496372812171" lon="-9.263241931364332"><ele>277.4</ele><time>2026-05-01T10:56:17Z</time></trkpt><trkpt lat="38.849708426634656" lon="-9.263312856478272"><ele>276.6</ele><time>2026-05-01T10:56:18Z</time></trkpt><trkpt lat="38.8497843120092" lon="-9.263380114311248"><ele>275.8</ele><time>2026-05-01T10:56:19Z</time></trkpt><trkpt lat="38.84986255952801" lon="-9.263455042742361"><ele>275.0</ele><time>2026-05-01T10:56:20Z</time></trkpt><trkpt lat="38.84994288492811" lon="-9.263533091507984"><ele>275.0</ele><time>2026-05-01T10:56:21Z</time></trkpt><trkpt lat="38.850021719632444" lon="-9.263608528677079"><ele>275.0</ele><time>2026-05-01T10:56:22Z</time></trkpt><trkpt lat="38.85010474988662" lon="-9.26367708465687"><ele>275.0</ele><time>2026-05-01T10:56:23Z</time></trkpt><trkpt lat="38.85016666597005" lon="-9.263725865063773"><ele>275.0</ele><time>2026-05-01T10:56:24Z</time></trkpt><trkpt lat="38.850225667163286" lon="-9.263776045423912"><ele>275.0</ele><time>2026-05-01T10:56:25Z</time></trkpt><trkpt lat="38.85028515209473" lon="-9.263852100468812"><ele>275.0</ele><time>2026-05-01T10:56:26Z</time></trkpt><trkpt lat="38.85042530959281" lon="-9.263796751298294"><ele>274.0</ele><time>2026-05-01T10:56:27Z</time></trkpt><trkpt lat="38.85054606296878" lon="-9.26380844005866"><ele>273.0</ele><time>2026-05-01T10:56:28Z</time></trkpt><trkpt lat="38.85065827162132" lon="-9.263795630308719"><ele>272.0</ele><time>2026-05-01T10:56:29Z</time></trkpt><trkpt lat="38.850772928784565" lon="-9.263828281229527"><ele>271.0</ele><time>2026-05-01T10:56:30Z</time></trkpt><trkpt lat="38.85086912722419" lon="-9.263924137828024"><ele>271.25</ele><time>2026-05-01T10:56:31Z</time></trkpt><trkpt lat="38.85094855413322" lon="-9.264066787364"><ele>271.5</ele><time>2026-05-01T10:56:32Z</time></trkpt><trkpt lat="38.85100222940197" lon="-9.264233082520505"><ele>271.75</ele><time>2026-05-01T10:56:33Z</time></trkpt><trkpt lat="38.85101804923184" lon="-9.26441348025118"><ele>272.0</ele><time>2026-05-01T10:56:34Z</time></trkpt><trkpt lat="38.85101524257053" lon="-9.2645945303988"><ele>272.0</ele><time>2026-05-01T10:56:35Z</time></trkpt><trkpt lat="38.851013431349664" lon="-9.264755536273219"><ele>272.0</ele><time>2026-05-01T10:56:36Z</time></trkpt><trkpt lat="38.851006655383934" lon="-9.264904329898565"><ele>272.0</ele><time>2026-05-01T10:56:37Z</time></trkpt><trkpt lat="38.85100619168935" lon="-9.265046727807226"><ele>272.0</ele><time>2026-05-01T10:56:38Z</time></trkpt><trkpt lat="38.851013715840566" lon="-9.265155142257486"><ele>272.0</ele><time>2026-05-01T10:56:39.001Z</time></trkpt><trkpt lat="38.851054042442065" lon="-9.265224911359429"><ele>271.6</ele><time>2026-05-01T10:56:40.001Z</time></trkpt><trkpt lat="38.851180790472775" lon="-9.26512883023459"><ele>271.2</ele><time>2026-05-01T10:56:42.001Z</time></trkpt><trkpt lat="38.85126396087366" lon="-9.265122255793557"><ele>270.8</ele><time>2026-05-01T10:56:43.001Z</time></trkpt><trkpt lat="38.85133994287402" lon="-9.265114953238687"><ele>270.4</ele><time>2026-05-01T10:56:44.001Z</time></trkpt><trkpt lat="38.85141704623703" lon="-9.26510706051097"><ele>270.0</ele><time>2026-05-01T10:56:45.001Z</time></trkpt><trkpt lat="38.85149515496983" lon="-9.26510515543599"><ele>270.0</ele><time>2026-05-01T10:56:46.001Z</time></trkpt><trkpt lat="38.85156917312632" lon="-9.265123162148965"><ele>270.0</ele><time>2026-05-01T10:56:47.001Z</time></trkpt><trkpt lat="38.85164435087093" lon="-9.265115560838144"><ele>270.0</ele><time>2026-05-01T10:56:49.001Z</time></trkpt><trkpt lat="38.85175370952702" lon="-9.265173457375809"><ele>270.0</ele><time>2026-05-01T10:56:51Z</time></trkpt><trkpt lat="38.85182095846324" lon="-9.265289717462666"><ele>270.0</ele><time>2026-05-01T10:56:53Z</time></trkpt><trkpt lat="38.85189247446785" lon="-9.265389120721611"><ele>273.0</ele><time>2026-05-01T10:56:55Z</time></trkpt><trkpt lat="38.85195419470162" lon="-9.265539123679616"><ele>276.0</ele><time>2026-05-01T10:56:57Z</time></trkpt><trkpt lat="38.85200892098163" lon="-9.265637652533046"><ele>279.0</ele><time>2026-05-01T10:56:58Z</time></trkpt><trkpt lat="38.85206289003519" lon="-9.265774228451525"><ele>282.0</ele><time>2026-05-01T10:56:59Z</time></trkpt><trkpt lat="38.85211948971461" lon="-9.265898958881111"><ele>282.0</ele><time>2026-05-01T10:57:00Z</time></trkpt><trkpt lat="38.852183151185145" lon="-9.266010843246304"><ele>282.0</ele><time>2026-05-01T10:57:01Z</time></trkpt><trkpt lat="38.852232593976844" lon="-9.266145051625807"><ele>282.0</ele><time>2026-05-01T10:57:02Z</time></trkpt><trkpt lat="38.8523060948883" lon="-9.266274239494523"><ele>282.0</ele><time>2026-05-01T10:57:03Z</time></trkpt><trkpt lat="38.852367134453075" lon="-9.266404823097295"><ele>283.4</ele><time>2026-05-01T10:57:04Z</time></trkpt><trkpt lat="38.85242790722756" lon="-9.266495411474864"><ele>284.79999999999995</ele><time>2026-05-01T10:57:05Z</time></trkpt><trkpt lat="38.85250149528404" lon="-9.26652886052017"><ele>286.2</ele><time>2026-05-01T10:57:06Z</time></trkpt><trkpt lat="38.85259056575884" lon="-9.26657144523934"><ele>287.59999999999997</ele><time>2026-05-01T10:57:07Z</time></trkpt><trkpt lat="38.85269269457297" lon="-9.266659643776746"><ele>289.0</ele><time>2026-05-01T10:57:08Z</time></trkpt><trkpt lat="38.852786361429466" lon="-9.266717838834893"><ele>289.0</ele><time>2026-05-01T10:57:09Z</time></trkpt><trkpt lat="38.852868887681666" lon="-9.266782366876672"><ele>289.0</ele><time>2026-05-01T10:57:10Z</time></trkpt><trkpt lat="38.85294016526483" lon="-9.266823576142151"><ele>289.0</ele><time>2026-05-01T10:57:11Z</time></trkpt><trkpt lat="38.85302630714406" lon="-9.26688323792241"><ele>289.0</ele><time>2026-05-01T10:57:12Z</time></trkpt><trkpt lat="38.853116286587216" lon="-9.266953433496505"><ele>289.0</ele><time>2026-05-01T10:57:13Z</time></trkpt><trkpt lat="38.8532064925479" lon="-9.2669593074064"><ele>289.0</ele><time>2026-05-01T10:57:14Z</time></trkpt><trkpt lat="38.85330294333451" lon="-9.266973994607119"><ele>289.0</ele><time>2026-05-01T10:57:15Z</time></trkpt><trkpt lat="38.853409682839576" lon="-9.266989400279266"><ele>289.0</ele><time>2026-05-01T10:57:16Z</time></trkpt><trkpt lat="38.85349457153991" lon="-9.266996111835645"><ele>289.0</ele><time>2026-05-01T10:57:17Z</time></trkpt><trkpt lat="38.85363168633398" lon="-9.266993955964368"><ele>289.0</ele><time>2026-05-01T10:57:18Z</time></trkpt><trkpt lat="38.85375228864323" lon="-9.266984438473884"><ele>289.0</ele><time>2026-05-01T10:57:19Z</time></trkpt><trkpt lat="38.85387151138831" lon="-9.26696012674172"><ele>289.0</ele><time>2026-05-01T10:57:20Z</time></trkpt><trkpt lat="38.8539813336149" lon="-9.266943136782979"><ele>289.0</ele><time>2026-05-01T10:57:21Z</time></trkpt><trkpt lat="38.85408526771902" lon="-9.266942908082834"><ele>289.0</ele><time>2026-05-01T10:57:22Z</time></trkpt><trkpt lat="38.85419829525765" lon="-9.266943714611813"><ele>289.0</ele><time>2026-05-01T10:57:23Z</time></trkpt><trkpt lat="38.854295842663056" lon="-9.266952198822027"><ele>286.59999999999997</ele><time>2026-05-01T10:57:24Z</time></trkpt><trkpt lat="38.854372437668786" lon="-9.266920233518297"><ele>284.2</ele><time>2026-05-01T10:57:25Z</time></trkpt><trkpt lat="38.854444598546536" lon="-9.26690487936723"><ele>281.79999999999995</ele><time>2026-05-01T10:57:26Z</time></trkpt><trkpt lat="38.85452660552993" lon="-9.2668338970514"><ele>279.4</ele><time>2026-05-01T10:57:28Z</time></trkpt><trkpt lat="38.85446210057045" lon="-9.266767517060591"><ele>277.0</ele><time>2026-05-01T10:57:29Z</time></trkpt><trkpt lat="38.85465965796871" lon="-9.266997539156762"><ele>277.0</ele><time>2026-05-01T10:57:32Z</time></trkpt><trkpt lat="38.85473934309338" lon="-9.267013231318064"><ele>277.0</ele><time>2026-05-01T10:57:51Z</time></trkpt><trkpt lat="38.8548021735228" lon="-9.267019415959247"><ele>277.0</ele><time>2026-05-01T10:57:52Z</time></trkpt><trkpt lat="38.854867661563894" lon="-9.267012068009068"><ele>277.0</ele><time>2026-05-01T10:57:53Z</time></trkpt><trkpt lat="38.85497955316472" lon="-9.266935650234538"><ele>277.0</ele><time>2026-05-01T10:57:55Z</time></trkpt><trkpt lat="38.85507811323817" lon="-9.266858121414957"><ele>274.16666666666663</ele><time>2026-05-01T10:57:57Z</time></trkpt><trkpt lat="38.855192088665255" lon="-9.266784463810946"><ele>271.3333333333333</ele><time>2026-05-01T10:57:59Z</time></trkpt><trkpt lat="38.85524820968383" lon="-9.266745162665677"><ele>268.5</ele><time>2026-05-01T10:58:00Z</time></trkpt><trkpt lat="38.85535625656654" lon="-9.266678662113375"><ele>265.6666666666667</ele><time>2026-05-01T10:58:02Z</time></trkpt><trkpt lat="38.85541658030803" lon="-9.266650669668861"><ele>262.83333333333337</ele><time>2026-05-01T10:58:03Z</time></trkpt><trkpt lat="38.855481846102485" lon="-9.266614232560368"><ele>260.0</ele><time>2026-05-01T10:58:04Z</time></trkpt><trkpt lat="38.855583706269144" lon="-9.266537508120999"><ele>260.0</ele><time>2026-05-01T10:58:06Z</time></trkpt><trkpt lat="38.85566666304242" lon="-9.266480213781726"><ele>260.0</ele><time>2026-05-01T10:58:08Z</time></trkpt><trkpt lat="38.855768161862116" lon="-9.266495335769598"><ele>260.0</ele><time>2026-05-01T10:58:10Z</time></trkpt><trkpt lat="38.85586995464032" lon="-9.266509190232698"><ele>260.0</ele><time>2026-05-01T10:58:12Z</time></trkpt><trkpt lat="38.85597263973278" lon="-9.266539885233604"><ele>260.0</ele><time>2026-05-01T10:58:14Z</time></trkpt><trkpt lat="38.85606775322776" lon="-9.266568443434554"><ele>259.5</ele><time>2026-05-01T10:58:16Z</time></trkpt><trkpt lat="38.8561333821332" lon="-9.266590341365069"><ele>259.0</ele><time>2026-05-01T10:58:17Z</time></trkpt><trkpt lat="38.85624087784923" lon="-9.26653586767417"><ele>258.5</ele><time>2026-05-01T10:58:19Z</time></trkpt><trkpt lat="38.856297888951694" lon="-9.266494532582717"><ele>258.0</ele><time>2026-05-01T10:58:20Z</time></trkpt><trkpt lat="38.85636707940832" lon="-9.266449859162368"><ele>257.5</ele><time>2026-05-01T10:58:21Z</time></trkpt><trkpt lat="38.856474863417105" lon="-9.266375699824371"><ele>257.0</ele><time>2026-05-01T10:58:23Z</time></trkpt><trkpt lat="38.856562874843064" lon="-9.266296430066715"><ele>257.0</ele><time>2026-05-01T10:58:24Z</time></trkpt><trkpt lat="38.85666222850597" lon="-9.266242159350593"><ele>257.0</ele><time>2026-05-01T10:58:25Z</time></trkpt><trkpt lat="38.85674026347576" lon="-9.266200421711488"><ele>257.0</ele><time>2026-05-01T10:58:26Z</time></trkpt><trkpt lat="38.85682260279711" lon="-9.266140701540868"><ele>257.0</ele><time>2026-05-01T10:58:27Z</time></trkpt><trkpt lat="38.85686381652369" lon="-9.266053882460577"><ele>257.0</ele><time>2026-05-01T10:58:28Z</time></trkpt><trkpt lat="38.85688364814653" lon="-9.265958606922077"><ele>257.0</ele><time>2026-05-01T10:58:29Z</time></trkpt><trkpt lat="38.85690190924321" lon="-9.26583097772006"><ele>256.0</ele><time>2026-05-01T10:58:30Z</time></trkpt><trkpt lat="38.856922188022644" lon="-9.26568076302614"><ele>255.0</ele><time>2026-05-01T10:58:31Z</time></trkpt><trkpt lat="38.85695015799366" lon="-9.265551997812672"><ele>254.0</ele><time>2026-05-01T10:58:32Z</time></trkpt><trkpt lat="38.85698558648011" lon="-9.265412154204672"><ele>253.0</ele><time>2026-05-01T10:58:33Z</time></trkpt><trkpt lat="38.85701512946741" lon="-9.265273635885766"><ele>252.0</ele><time>2026-05-01T10:58:34Z</time></trkpt><trkpt lat="38.85703070563186" lon="-9.265153496208585"><ele>252.0</ele><time>2026-05-01T10:58:35Z</time></trkpt><trkpt lat="38.85703692725386" lon="-9.265018789633146"><ele>252.0</ele><time>2026-05-01T10:58:36Z</time></trkpt><trkpt lat="38.857060427227424" lon="-9.26487438201767"><ele>252.0</ele><time>2026-05-01T10:58:37Z</time></trkpt><trkpt lat="38.857078133086674" lon="-9.26478099678385"><ele>252.0</ele><time>2026-05-01T10:58:38Z</time></trkpt><trkpt lat="38.85708673396027" lon="-9.264681539723396"><ele>252.0</ele><time>2026-05-01T10:58:39Z</time></trkpt><trkpt lat="38.85712318896379" lon="-9.264597122483677"><ele>252.0</ele><time>2026-05-01T10:58:40Z</time></trkpt><trkpt lat="38.857192491615514" lon="-9.264529486842267"><ele>253.42857142857144</ele><time>2026-05-01T10:58:41Z</time></trkpt><trkpt lat="38.857267534169246" lon="-9.264497487995202"><ele>254.85714285714286</ele><time>2026-05-01T10:58:42Z</time></trkpt><trkpt lat="38.85733143891089" lon="-9.264512767577274"><ele>256.2857142857143</ele><time>2026-05-01T10:58:43Z</time></trkpt><trkpt lat="38.85738778790798" lon="-9.264553753699003"><ele>257.7142857142857</ele><time>2026-05-01T10:59:01Z</time></trkpt><trkpt lat="38.857454167454435" lon="-9.264560152359893"><ele>259.14285714285717</ele><time>2026-05-01T10:59:02Z</time></trkpt><trkpt lat="38.85752123491126" lon="-9.264577638905113"><ele>260.57142857142856</ele><time>2026-05-01T10:59:03Z</time></trkpt><trkpt lat="38.857605364075084" lon="-9.264571127917398"><ele>262.0</ele><time>2026-05-01T10:59:04Z</time></trkpt><trkpt lat="38.85766996902434" lon="-9.264568526471074"><ele>263.0</ele><time>2026-05-01T10:59:05Z</time></trkpt><trkpt lat="38.85773137355937" lon="-9.264549745088019"><ele>264.0</ele><time>2026-05-01T10:59:06Z</time></trkpt><trkpt lat="38.85779615401395" lon="-9.264534266489152"><ele>265.0</ele><time>2026-05-01T10:59:07Z</time></trkpt><trkpt lat="38.857858190286215" lon="-9.264518237269812"><ele>266.0</ele><time>2026-05-01T10:59:08Z</time></trkpt><trkpt lat="38.85798193902829" lon="-9.264497690634942"><ele>267.0</ele><time>2026-05-01T10:59:10Z</time></trkpt><trkpt lat="38.85805586985376" lon="-9.264514664295024"><ele>268.0</ele><time>2026-05-01T10:59:11Z</time></trkpt><trkpt lat="38.85812226141001" lon="-9.264553380027227"><ele>268.0</ele><time>2026-05-01T10:59:12Z</time></trkpt><trkpt lat="38.85817515135774" lon="-9.264604382017746"><ele>268.0</ele><time>2026-05-01T10:59:13Z</time></trkpt><trkpt lat="38.85824879893645" lon="-9.264611516013515"><ele>268.0</ele><time>2026-05-01T10:59:14Z</time></trkpt><trkpt lat="38.85833248997732" lon="-9.26456784557785"><ele>268.0</ele><time>2026-05-01T10:59:15Z</time></trkpt><trkpt lat="38.85839705523186" lon="-9.264506340806182"><ele>268.0</ele><time>2026-05-01T10:59:16Z</time></trkpt><trkpt lat="38.858452238331466" lon="-9.26442931497863"><ele>268.0</ele><time>2026-05-01T10:59:17Z</time></trkpt><trkpt lat="38.85850703688964" lon="-9.264335116052438"><ele>267.3333333333333</ele><time>2026-05-01T10:59:18Z</time></trkpt><trkpt lat="38.858578145945714" lon="-9.26425838458756"><ele>266.66666666666663</ele><time>2026-05-01T10:59:19Z</time></trkpt><trkpt lat="38.85865419392343" lon="-9.264137873981554"><ele>266.0</ele><time>2026-05-01T10:59:21Z</time></trkpt><trkpt lat="38.858704450698006" lon="-9.264067791889254"><ele>265.3333333333333</ele><time>2026-05-01T10:59:22Z</time></trkpt><trkpt lat="38.85875292419732" lon="-9.26398386407631"><ele>264.6666666666667</ele><time>2026-05-01T10:59:23Z</time></trkpt><trkpt lat="38.85878855421686" lon="-9.263906862393819"><ele>264.0</ele><time>2026-05-01T10:59:24Z</time></trkpt><trkpt lat="38.85884637669091" lon="-9.26384146647092"><ele>263.1666666666667</ele><time>2026-05-01T10:59:25Z</time></trkpt><trkpt lat="38.85894628807507" lon="-9.263735617419158"><ele>262.3333333333333</ele><time>2026-05-01T10:59:27Z</time></trkpt><trkpt lat="38.858998699957816" lon="-9.263690728403057"><ele>261.5</ele><time>2026-05-01T10:59:28Z</time></trkpt><trkpt lat="38.859058392770805" lon="-9.263629753726006"><ele>260.66666666666663</ele><time>2026-05-01T10:59:29Z</time></trkpt><trkpt lat="38.85911487549011" lon="-9.263574223061818"><ele>259.8333333333333</ele><time>2026-05-01T10:59:30Z</time></trkpt><trkpt lat="38.85916542822569" lon="-9.263516958418807"><ele>259.0</ele><time>2026-05-01T10:59:31Z</time></trkpt><trkpt lat="38.8592131047692" lon="-9.263457450567508"><ele>259.0</ele><time>2026-05-01T10:59:32Z</time></trkpt><trkpt lat="38.85924723870913" lon="-9.263378548893261"><ele>259.0</ele><time>2026-05-01T10:59:33Z</time></trkpt><trkpt lat="38.85931070236073" lon="-9.26325008041949"><ele>259.0</ele><time>2026-05-01T10:59:35Z</time></trkpt><trkpt lat="38.85935801630367" lon="-9.263131973034373"><ele>259.0</ele><time>2026-05-01T10:59:37Z</time></trkpt><trkpt lat="38.85937058954785" lon="-9.26299059913253"><ele>259.0</ele><time>2026-05-01T10:59:39Z</time></trkpt><trkpt lat="38.8593758873424" lon="-9.26289252806"><ele>257.66666666666663</ele><time>2026-05-01T10:59:40Z</time></trkpt><trkpt lat="38.859375626351" lon="-9.262790508877899"><ele>256.3333333333333</ele><time>2026-05-01T10:59:41Z</time></trkpt><trkpt lat="38.859378197853296" lon="-9.262675195539293"><ele>255.0</ele><time>2026-05-01T10:59:42Z</time></trkpt><trkpt lat="38.859388157011566" lon="-9.262554368111456"><ele>253.66666666666669</ele><time>2026-05-01T10:59:43Z</time></trkpt><trkpt lat="38.8593984643402" lon="-9.262432461599637"><ele>252.33333333333334</ele><time>2026-05-01T10:59:44Z</time></trkpt><trkpt lat="38.859421571791174" lon="-9.262321801460578"><ele>251.0</ele><time>2026-05-01T10:59:45Z</time></trkpt><trkpt lat="38.85946715238481" lon="-9.262216937072008"><ele>251.0</ele><time>2026-05-01T10:59:46Z</time></trkpt><trkpt lat="38.85954881078533" lon="-9.262101802263102"><ele>251.0</ele><time>2026-05-01T10:59:47Z</time></trkpt><trkpt lat="38.85961637122788" lon="-9.261966550538116"><ele>251.0</ele><time>2026-05-01T10:59:48Z</time></trkpt><trkpt lat="38.85967161407755" lon="-9.261845771350234"><ele>251.0</ele><time>2026-05-01T10:59:49Z</time></trkpt><trkpt lat="38.85973836832008" lon="-9.261722042182365"><ele>251.0</ele><time>2026-05-01T10:59:50Z</time></trkpt><trkpt lat="38.8598048844122" lon="-9.261585343949799"><ele>251.0</ele><time>2026-05-01T10:59:51Z</time></trkpt><trkpt lat="38.85986735409326" lon="-9.26143911418332"><ele>251.0</ele><time>2026-05-01T10:59:52Z</time></trkpt><trkpt lat="38.85992160423509" lon="-9.261308662689663"><ele>251.0</ele><time>2026-05-01T10:59:53Z</time></trkpt><trkpt lat="38.85997506275539" lon="-9.261204674346798"><ele>251.25</ele><time>2026-05-01T10:59:54Z</time></trkpt><trkpt lat="38.86004446105252" lon="-9.261113267303816"><ele>251.5</ele><time>2026-05-01T10:59:55Z</time></trkpt><trkpt lat="38.860152028801735" lon="-9.26101800740263"><ele>251.75</ele><time>2026-05-01T10:59:56Z</time></trkpt><trkpt lat="38.860249097020706" lon="-9.260927523216859"><ele>252.0</ele><time>2026-05-01T10:59:57Z</time></trkpt><trkpt lat="38.8603314863457" lon="-9.26083665233279"><ele>251.5</ele><time>2026-05-01T10:59:58Z</time></trkpt><trkpt lat="38.86043179896633" lon="-9.260774850477008"><ele>251.0</ele><time>2026-05-01T10:59:59Z</time></trkpt><trkpt lat="38.86053851270916" lon="-9.260690264717727"><ele>250.5</ele><time>2026-05-01T11:00:00Z</time></trkpt><trkpt lat="38.86064345097627" lon="-9.26059343767251"><ele>250.0</ele><time>2026-05-01T11:00:01Z</time></trkpt><trkpt lat="38.860733178318014" lon="-9.260519803862758"><ele>250.5</ele><time>2026-05-01T11:00:02Z</time></trkpt><trkpt lat="38.860810065618345" lon="-9.260458991534144"><ele>251.0</ele><time>2026-05-01T11:00:03Z</time></trkpt><trkpt lat="38.8609020979618" lon="-9.260364634716195"><ele>251.5</ele><time>2026-05-01T11:00:04Z</time></trkpt><trkpt lat="38.86097772103184" lon="-9.260221210264959"><ele>252.0</ele><time>2026-05-01T11:00:05Z</time></trkpt><trkpt lat="38.86107562557235" lon="-9.2600923599213"><ele>252.0</ele><time>2026-05-01T11:00:06Z</time></trkpt><trkpt lat="38.86119071994013" lon="-9.259977316551407"><ele>252.0</ele><time>2026-05-01T11:00:07Z</time></trkpt><trkpt lat="38.86131628537002" lon="-9.2598479592122"><ele>252.0</ele><time>2026-05-01T11:00:08Z</time></trkpt><trkpt lat="38.861442879890056" lon="-9.259700758224579"><ele>253.0</ele><time>2026-05-01T11:00:09Z</time></trkpt><trkpt lat="38.861578166259505" lon="-9.259563748130292"><ele>254.0</ele><time>2026-05-01T11:00:10Z</time></trkpt><trkpt lat="38.86170868287115" lon="-9.259419910487603"><ele>255.0</ele><time>2026-05-01T11:00:11Z</time></trkpt><trkpt lat="38.86182277708745" lon="-9.259300014028325"><ele>255.0</ele><time>2026-05-01T11:00:12Z</time></trkpt><trkpt lat="38.86195544471617" lon="-9.259169401530125"><ele>255.0</ele><time>2026-05-01T11:00:13Z</time></trkpt><trkpt lat="38.86208224519947" lon="-9.25905783530566"><ele>255.0</ele><time>2026-05-01T11:00:14Z</time></trkpt><trkpt lat="38.86221317257101" lon="-9.2589368788602"><ele>255.0</ele><time>2026-05-01T11:00:15Z</time></trkpt><trkpt lat="38.86233827497027" lon="-9.258830157301542"><ele>255.0</ele><time>2026-05-01T11:00:16Z</time></trkpt><trkpt lat="38.86244972018783" lon="-9.258746261743028"><ele>255.0</ele><time>2026-05-01T11:00:17Z</time></trkpt><trkpt lat="38.86256346156166" lon="-9.258665340188045"><ele>255.0</ele><time>2026-05-01T11:00:18Z</time></trkpt><trkpt lat="38.86266689484294" lon="-9.258567288321611"><ele>255.0</ele><time>2026-05-01T11:00:19Z</time></trkpt><trkpt lat="38.86275296329813" lon="-9.25843754865672"><ele>255.0</ele><time>2026-05-01T11:00:20Z</time></trkpt><trkpt lat="38.862840424008134" lon="-9.258318712834749"><ele>255.0</ele><time>2026-05-01T11:00:21Z</time></trkpt><trkpt lat="38.862907841517874" lon="-9.258203975765502"><ele>255.0</ele><time>2026-05-01T11:00:22Z</time></trkpt><trkpt lat="38.86296710765747" lon="-9.258088646961363"><ele>255.4</ele><time>2026-05-01T11:00:23Z</time></trkpt><trkpt lat="38.86303504017034" lon="-9.257960040927664"><ele>255.8</ele><time>2026-05-01T11:00:24Z</time></trkpt><trkpt lat="38.86309533154753" lon="-9.257825621232358"><ele>256.2</ele><time>2026-05-01T11:00:25Z</time></trkpt><trkpt lat="38.863129030159556" lon="-9.257716085258215"><ele>256.6</ele><time>2026-05-01T11:00:26Z</time></trkpt><trkpt lat="38.86313693209625" lon="-9.257609014877776"><ele>257.0</ele><time>2026-05-01T11:00:27Z</time></trkpt><trkpt lat="38.86320316258485" lon="-9.257511963720585"><ele>257.0</ele><time>2026-05-01T11:00:28Z</time></trkpt><trkpt lat="38.863283055945175" lon="-9.25744752428461"><ele>257.0</ele><time>2026-05-01T11:00:29Z</time></trkpt><trkpt lat="38.86333827258628" lon="-9.257391816357224"><ele>257.0</ele><time>2026-05-01T11:00:30Z</time></trkpt><trkpt lat="38.8634049723266" lon="-9.257334262996972"><ele>257.0</ele><time>2026-05-01T11:00:32Z</time></trkpt><trkpt lat="38.86335073881601" lon="-9.257387830254123"><ele>257.0</ele><time>2026-05-01T11:00:34Z</time></trkpt><trkpt lat="38.863459078766795" lon="-9.257408406902984"><ele>257.0</ele><time>2026-05-01T11:01:28Z</time></trkpt><trkpt lat="38.8636011944154" lon="-9.25738592270829"><ele>257.6</ele><time>2026-05-01T11:01:30Z</time></trkpt><trkpt lat="38.86368090029583" lon="-9.257338337960766"><ele>258.2</ele><time>2026-05-01T11:01:31Z</time></trkpt><trkpt lat="38.863790857429315" lon="-9.257315568691816"><ele>258.8</ele><time>2026-05-01T11:01:32Z</time></trkpt><trkpt lat="38.86389909379098" lon="-9.257287084983837"><ele>259.4</ele><time>2026-05-01T11:01:33Z</time></trkpt><trkpt lat="38.86401482704165" lon="-9.257256521770747"><ele>260.0</ele><time>2026-05-01T11:01:34Z</time></trkpt><trkpt lat="38.8641198270912" lon="-9.257197356976969"><ele>260.5</ele><time>2026-05-01T11:01:35Z</time></trkpt><trkpt lat="38.86424187558927" lon="-9.257143643032984"><ele>261.0</ele><time>2026-05-01T11:01:36Z</time></trkpt><trkpt lat="38.86436914007941" lon="-9.25710551563229"><ele>261.5</ele><time>2026-05-01T11:01:37Z</time></trkpt><trkpt lat="38.86447557097935" lon="-9.257058570243856"><ele>262.0</ele><time>2026-05-01T11:01:38Z</time></trkpt><trkpt lat="38.86459875596547" lon="-9.257006305369114"><ele>264.0</ele><time>2026-05-01T11:01:39Z</time></trkpt><trkpt lat="38.864719918453645" lon="-9.256966746035253"><ele>266.0</ele><time>2026-05-01T11:01:40Z</time></trkpt><trkpt lat="38.86484594057649" lon="-9.256925528740641"><ele>268.0</ele><time>2026-05-01T11:01:41Z</time></trkpt><trkpt lat="38.864971266251054" lon="-9.256893682118628"><ele>270.0</ele><time>2026-05-01T11:01:42Z</time></trkpt><trkpt lat="38.86509032787189" lon="-9.256852412005687"><ele>271.0</ele><time>2026-05-01T11:01:43Z</time></trkpt><trkpt lat="38.86518699893193" lon="-9.256807706765086"><ele>272.0</ele><time>2026-05-01T11:01:44Z</time></trkpt><trkpt lat="38.865278545821766" lon="-9.256757962155083"><ele>273.0</ele><time>2026-05-01T11:01:45Z</time></trkpt><trkpt lat="38.86537810122821" lon="-9.256752532535092"><ele>274.0</ele><time>2026-05-01T11:01:46Z</time></trkpt><trkpt lat="38.865478975062686" lon="-9.256802666003614"><ele>275.0</ele><time>2026-05-01T11:01:47Z</time></trkpt><trkpt lat="38.86555835246793" lon="-9.256814714499997"><ele>275.0</ele><time>2026-05-01T11:01:48Z</time></trkpt><trkpt lat="38.86563221198403" lon="-9.25676753520484"><ele>275.0</ele><time>2026-05-01T11:01:49Z</time></trkpt><trkpt lat="38.86572961649105" lon="-9.256725790898471"><ele>275.0</ele><time>2026-05-01T11:01:50Z</time></trkpt><trkpt lat="38.86583417006848" lon="-9.256683921437272"><ele>275.0</ele><time>2026-05-01T11:01:51Z</time></trkpt><trkpt lat="38.865948189498255" lon="-9.256656817648238"><ele>275.0</ele><time>2026-05-01T11:01:52Z</time></trkpt><trkpt lat="38.866059273096106" lon="-9.256607598168614"><ele>276.0</ele><time>2026-05-01T11:01:53Z</time></trkpt><trkpt lat="38.866185868540434" lon="-9.256613282685976"><ele>277.0</ele><time>2026-05-01T11:01:54Z</time></trkpt><trkpt lat="38.866321907377845" lon="-9.256617566272334"><ele>278.0</ele><time>2026-05-01T11:01:55Z</time></trkpt><trkpt lat="38.8664463580231" lon="-9.25664405146968"><ele>279.0</ele><time>2026-05-01T11:01:56Z</time></trkpt><trkpt lat="38.86657247837455" lon="-9.256706652724032"><ele>279.0</ele><time>2026-05-01T11:01:57Z</time></trkpt><trkpt lat="38.86669312660205" lon="-9.25677717023496"><ele>279.0</ele><time>2026-05-01T11:01:58Z</time></trkpt><trkpt lat="38.86679497396004" lon="-9.256832014770701"><ele>279.0</ele><time>2026-05-01T11:01:59Z</time></trkpt><trkpt lat="38.866899498713444" lon="-9.256828018405818"><ele>279.0</ele><time>2026-05-01T11:02:00Z</time></trkpt><trkpt lat="38.86700737919975" lon="-9.256843481127468"><ele>280.25</ele><time>2026-05-01T11:02:01Z</time></trkpt><trkpt lat="38.867131928689346" lon="-9.256870444153627"><ele>281.5</ele><time>2026-05-01T11:02:02Z</time></trkpt><trkpt lat="38.867252028844824" lon="-9.256924320113932"><ele>282.75</ele><time>2026-05-01T11:02:03Z</time></trkpt><trkpt lat="38.867377716130555" lon="-9.256970576650119"><ele>284.0</ele><time>2026-05-01T11:02:04Z</time></trkpt><trkpt lat="38.867511793504605" lon="-9.257001110410004"><ele>284.0</ele><time>2026-05-01T11:02:05Z</time></trkpt><trkpt lat="38.86764224842166" lon="-9.257036391621948"><ele>284.0</ele><time>2026-05-01T11:02:06Z</time></trkpt><trkpt lat="38.86775342547059" lon="-9.25707810194726"><ele>284.0</ele><time>2026-05-01T11:02:07Z</time></trkpt><trkpt lat="38.86784848502681" lon="-9.257130887852801"><ele>284.0</ele><time>2026-05-01T11:02:08Z</time></trkpt><trkpt lat="38.86793591345275" lon="-9.257174298696173"><ele>284.0</ele><time>2026-05-01T11:02:09Z</time></trkpt><trkpt lat="38.86803781445081" lon="-9.257122522704694"><ele>284.0</ele><time>2026-05-01T11:02:10Z</time></trkpt><trkpt lat="38.86809778644562" lon="-9.257152976078753"><ele>284.0</ele><time>2026-05-01T11:02:11Z</time></trkpt><trkpt lat="38.86817190640634" lon="-9.257190613693218"><ele>284.0</ele><time>2026-05-01T11:02:13Z</time></trkpt><trkpt lat="38.868251014755984" lon="-9.257230784377644"><ele>284.0</ele><time>2026-05-01T11:02:17Z</time></trkpt><trkpt lat="38.86830226153042" lon="-9.257281573627917"><ele>284.0</ele><time>2026-05-01T11:02:18Z</time></trkpt><trkpt lat="38.86838320583594" lon="-9.25729328946479"><ele>284.0</ele><time>2026-05-01T11:02:19Z</time></trkpt><trkpt lat="38.8684803028" lon="-9.257293732416485"><ele>283.0</ele><time>2026-05-01T11:02:20Z</time></trkpt><trkpt lat="38.86858731106508" lon="-9.257319469348612"><ele>282.0</ele><time>2026-05-01T11:02:21Z</time></trkpt><trkpt lat="38.86870234321022" lon="-9.257322626818489"><ele>281.0</ele><time>2026-05-01T11:02:22Z</time></trkpt><trkpt lat="38.868819346269895" lon="-9.257321738272772"><ele>280.0</ele><time>2026-05-01T11:02:23Z</time></trkpt><trkpt lat="38.8689301897522" lon="-9.257301511898977"><ele>280.0</ele><time>2026-05-01T11:02:24Z</time></trkpt><trkpt lat="38.8690382422256" lon="-9.257294234608173"><ele>280.0</ele><time>2026-05-01T11:02:25Z</time></trkpt><trkpt lat="38.869121885865354" lon="-9.257279029836223"><ele>280.0</ele><time>2026-05-01T11:02:26Z</time></trkpt><trkpt lat="38.86921273713156" lon="-9.257264252921816"><ele>280.0</ele><time>2026-05-01T11:02:27Z</time></trkpt><trkpt lat="38.8692967447205" lon="-9.257242563393097"><ele>280.0</ele><time>2026-05-01T11:02:28Z</time></trkpt><trkpt lat="38.8693586839539" lon="-9.257216603812903"><ele>280.0</ele><time>2026-05-01T11:02:29Z</time></trkpt><trkpt lat="38.869393691826595" lon="-9.257118267990348"><ele>279.0</ele><time>2026-05-01T11:02:31Z</time></trkpt><trkpt lat="38.86949500719293" lon="-9.25705835774023"><ele>278.0</ele><time>2026-05-01T11:02:41Z</time></trkpt><trkpt lat="38.86959793213913" lon="-9.257073060328946"><ele>277.0</ele><time>2026-05-01T11:02:42Z</time></trkpt><trkpt lat="38.869705989318604" lon="-9.257074620519875"><ele>276.0</ele><time>2026-05-01T11:02:43Z</time></trkpt><trkpt lat="38.86982670505414" lon="-9.257086655630873"><ele>275.0</ele><time>2026-05-01T11:02:44Z</time></trkpt><trkpt lat="38.86994376941693" lon="-9.25709749222092"><ele>275.0</ele><time>2026-05-01T11:02:45Z</time></trkpt><trkpt lat="38.870064835093" lon="-9.257133349924835"><ele>275.0</ele><time>2026-05-01T11:02:46Z</time></trkpt><trkpt lat="38.870184827092785" lon="-9.257197697919631"><ele>275.0</ele><time>2026-05-01T11:02:47Z</time></trkpt><trkpt lat="38.87029629139906" lon="-9.257280504035245"><ele>275.0</ele><time>2026-05-01T11:02:48Z</time></trkpt><trkpt lat="38.870412417356235" lon="-9.257377386749464"><ele>274.2</ele><time>2026-05-01T11:02:49Z</time></trkpt><trkpt lat="38.87052700246548" lon="-9.257476913034516"><ele>273.4</ele><time>2026-05-01T11:02:50Z</time></trkpt><trkpt lat="38.87062817371113" lon="-9.257570492314773"><ele>272.6</ele><time>2026-05-01T11:02:51Z</time></trkpt><trkpt lat="38.870708275192115" lon="-9.257641350981272"><ele>271.8</ele><time>2026-05-01T11:02:52Z</time></trkpt><trkpt lat="38.870769362207646" lon="-9.257694378097968"><ele>271.0</ele><time>2026-05-01T11:02:53Z</time></trkpt><trkpt lat="38.870833562462515" lon="-9.257735346825974"><ele>271.0</ele><time>2026-05-01T11:02:55Z</time></trkpt><trkpt lat="38.870764234931656" lon="-9.25792748462826"><ele>271.0</ele><time>2026-05-01T11:02:56Z</time></trkpt><trkpt lat="38.870700794316036" lon="-9.258045831939192"><ele>271.0</ele><time>2026-05-01T11:02:57Z</time></trkpt><trkpt lat="38.87065011934828" lon="-9.258170403415043"><ele>271.0</ele><time>2026-05-01T11:02:58Z</time></trkpt><trkpt lat="38.87060453343246" lon="-9.258295686926722"><ele>270.25</ele><time>2026-05-01T11:02:59Z</time></trkpt><trkpt lat="38.87054529837093" lon="-9.258416757191434"><ele>269.5</ele><time>2026-05-01T11:03:00Z</time></trkpt><trkpt lat="38.870461711598956" lon="-9.258520767604853"><ele>268.75</ele><time>2026-05-01T11:03:01Z</time></trkpt><trkpt lat="38.87035666316587" lon="-9.258604048184552"><ele>268.0</ele><time>2026-05-01T11:03:02Z</time></trkpt><trkpt lat="38.87024049723103" lon="-9.258663590865318"><ele>268.0</ele><time>2026-05-01T11:03:03Z</time></trkpt><trkpt lat="38.87012839668858" lon="-9.258728225368467"><ele>268.0</ele><time>2026-05-01T11:03:04Z</time></trkpt><trkpt lat="38.87002900688068" lon="-9.258821429878376"><ele>268.0</ele><time>2026-05-01T11:03:05Z</time></trkpt><trkpt lat="38.86994267793233" lon="-9.25893896182922"><ele>268.0</ele><time>2026-05-01T11:03:06Z</time></trkpt><trkpt lat="38.869846036649264" lon="-9.259038390644188"><ele>267.75</ele><time>2026-05-01T11:03:07Z</time></trkpt><trkpt lat="38.86974212830452" lon="-9.259127633172298"><ele>267.5</ele><time>2026-05-01T11:03:08Z</time></trkpt><trkpt lat="38.86961668668914" lon="-9.259175303939058"><ele>267.25</ele><time>2026-05-01T11:03:09Z</time></trkpt><trkpt lat="38.86949075767845" lon="-9.259203029589097"><ele>267.0</ele><time>2026-05-01T11:03:10Z</time></trkpt><trkpt lat="38.86939777732536" lon="-9.259258538634443"><ele>267.0</ele><time>2026-05-01T11:03:11Z</time></trkpt><trkpt lat="38.869329262382685" lon="-9.259296410568492"><ele>267.0</ele><time>2026-05-01T11:03:12Z</time></trkpt><trkpt lat="38.86933577965948" lon="-9.259473371527237"><ele>267.0</ele><time>2026-05-01T11:03:13Z</time></trkpt><trkpt lat="38.869301475062315" lon="-9.259552308333884"><ele>267.0</ele><time>2026-05-01T11:03:14Z</time></trkpt><trkpt lat="38.86927941037871" lon="-9.259638293901032"><ele>267.0</ele><time>2026-05-01T11:03:15Z</time></trkpt><trkpt lat="38.86923964786874" lon="-9.259713404199264"><ele>267.0</ele><time>2026-05-01T11:03:16Z</time></trkpt><trkpt lat="38.869250853860606" lon="-9.259795205399419"><ele>266.1666666666667</ele><time>2026-05-01T11:03:17Z</time></trkpt><trkpt lat="38.86938223372088" lon="-9.259839898936844"><ele>265.3333333333333</ele><time>2026-05-01T11:03:18Z</time></trkpt><trkpt lat="38.86942456404546" lon="-9.259900309837917"><ele>264.5</ele><time>2026-05-01T11:03:19Z</time></trkpt><trkpt lat="38.8694761107403" lon="-9.25994684493074"><ele>263.66666666666663</ele><time>2026-05-01T11:03:20Z</time></trkpt><trkpt lat="38.8695352719938" lon="-9.259987856622917"><ele>262.8333333333333</ele><time>2026-05-01T11:03:21Z</time></trkpt><trkpt lat="38.86960301557442" lon="-9.25988515852126"><ele>262.0</ele><time>2026-05-01T11:03:22Z</time></trkpt><trkpt lat="38.86967092426415" lon="-9.25985621338175"><ele>262.0</ele><time>2026-05-01T11:03:23Z</time></trkpt><trkpt lat="38.869748848501736" lon="-9.259826729921286"><ele>262.0</ele><time>2026-05-01T11:03:24Z</time></trkpt><trkpt lat="38.86984198918777" lon="-9.25979331359765"><ele>262.0</ele><time>2026-05-01T11:03:25Z</time></trkpt><trkpt lat="38.86995134380398" lon="-9.259762301090616"><ele>262.0</ele><time>2026-05-01T11:03:26Z</time></trkpt><trkpt lat="38.87006907020523" lon="-9.259756727812478"><ele>262.0</ele><time>2026-05-01T11:03:27Z</time></trkpt><trkpt lat="38.87017107746428" lon="-9.259755987828463"><ele>262.0</ele><time>2026-05-01T11:03:28Z</time></trkpt><trkpt lat="38.87027739450653" lon="-9.259777387235692"><ele>262.0</ele><time>2026-05-01T11:03:29Z</time></trkpt><trkpt lat="38.87036898459167" lon="-9.259807182204183"><ele>262.0</ele><time>2026-05-01T11:03:30Z</time></trkpt><trkpt lat="38.870449039938244" lon="-9.25986023241014"><ele>262.0</ele><time>2026-05-01T11:03:31Z</time></trkpt><trkpt lat="38.87052870444383" lon="-9.259894531822162"><ele>262.0</ele><time>2026-05-01T11:03:32Z</time></trkpt><trkpt lat="38.87059326738358" lon="-9.259960181380736"><ele>260.8333333333333</ele><time>2026-05-01T11:03:33Z</time></trkpt><trkpt lat="38.87066874381113" lon="-9.260002719553956"><ele>259.66666666666663</ele><time>2026-05-01T11:03:34Z</time></trkpt><trkpt lat="38.87071956856557" lon="-9.26007095092034"><ele>258.5</ele><time>2026-05-01T11:03:35Z</time></trkpt><trkpt lat="38.87078794292258" lon="-9.260115960862777"><ele>257.3333333333333</ele><time>2026-05-01T11:03:36Z</time></trkpt><trkpt lat="38.87085835394503" lon="-9.260204901801218"><ele>256.1666666666667</ele><time>2026-05-01T11:03:37Z</time></trkpt><trkpt lat="38.87094682694418" lon="-9.260284440500765"><ele>255.0</ele><time>2026-05-01T11:03:38Z</time></trkpt><trkpt lat="38.87103517416118" lon="-9.260372352144909"><ele>254.16666666666666</ele><time>2026-05-01T11:03:39Z</time></trkpt><trkpt lat="38.87111754110993" lon="-9.2604445772173"><ele>253.33333333333331</ele><time>2026-05-01T11:03:40Z</time></trkpt><trkpt lat="38.87119278151814" lon="-9.260507887199697"><ele>252.5</ele><time>2026-05-01T11:03:41Z</time></trkpt><trkpt lat="38.87126132728112" lon="-9.260566473823365"><ele>251.66666666666666</ele><time>2026-05-01T11:03:42Z</time></trkpt><trkpt lat="38.87131350174579" lon="-9.260633889014066"><ele>250.83333333333331</ele><time>2026-05-01T11:03:43Z</time></trkpt><trkpt lat="38.87136756328497" lon="-9.2606944905042"><ele>250.0</ele><time>2026-05-01T11:03:44Z</time></trkpt><trkpt lat="38.87142696097497" lon="-9.26073615472598"><ele>249.49999999999997</ele><time>2026-05-01T11:03:45Z</time></trkpt><trkpt lat="38.87148219361885" lon="-9.260787914736234"><ele>249.0</ele><time>2026-05-01T11:03:46Z</time></trkpt><trkpt lat="38.87158826116389" lon="-9.260893036483203"><ele>248.5</ele><time>2026-05-01T11:03:48Z</time></trkpt><trkpt lat="38.87165029727595" lon="-9.26092833324219"><ele>248.0</ele><time>2026-05-01T11:03:49Z</time></trkpt><trkpt lat="38.87170974624628" lon="-9.260969071725476"><ele>247.49999999999997</ele><time>2026-05-01T11:03:50Z</time></trkpt><trkpt lat="38.87177254051684" lon="-9.261003558487202"><ele>247.0</ele><time>2026-05-01T11:03:51Z</time></trkpt><trkpt lat="38.87183356777247" lon="-9.261065425341576"><ele>246.99999999999997</ele><time>2026-05-01T11:03:52Z</time></trkpt><trkpt lat="38.87191030007956" lon="-9.26112348838158"><ele>247.0</ele><time>2026-05-01T11:03:53Z</time></trkpt><trkpt lat="38.871981996137336" lon="-9.261177778928166"><ele>247.0</ele><time>2026-05-01T11:03:54Z</time></trkpt><trkpt lat="38.8720610339295" lon="-9.261238085879203"><ele>247.0</ele><time>2026-05-01T11:03:55Z</time></trkpt><trkpt lat="38.872134404119" lon="-9.261303780010186"><ele>246.99999999999997</ele><time>2026-05-01T11:03:56Z</time></trkpt><trkpt lat="38.87220637325778" lon="-9.261368156255795"><ele>247.0</ele><time>2026-05-01T11:03:57Z</time></trkpt><trkpt lat="38.872273083835765" lon="-9.261446161957563"><ele>245.0</ele><time>2026-05-01T11:03:58Z</time></trkpt><trkpt lat="38.87234982355497" lon="-9.261508921308561"><ele>243.0</ele><time>2026-05-01T11:03:59Z</time></trkpt><trkpt lat="38.87246008753094" lon="-9.261564730468999"><ele>241.0</ele><time>2026-05-01T11:04:00Z</time></trkpt><trkpt lat="38.872589379654855" lon="-9.26164093489949"><ele>239.0</ele><time>2026-05-01T11:04:01Z</time></trkpt><trkpt lat="38.87273809373954" lon="-9.26171830933336"><ele>238.33333333333334</ele><time>2026-05-01T11:04:02Z</time></trkpt><trkpt lat="38.87289052460881" lon="-9.261815477908794"><ele>237.66666666666669</ele><time>2026-05-01T11:04:03Z</time></trkpt><trkpt lat="38.87305444394581" lon="-9.261914277431522"><ele>237.0</ele><time>2026-05-01T11:04:04Z</time></trkpt><trkpt lat="38.87322607517208" lon="-9.26200288293755"><ele>237.0</ele><time>2026-05-01T11:04:05Z</time></trkpt><trkpt lat="38.87340663378098" lon="-9.262076462506304"><ele>237.0</ele><time>2026-05-01T11:04:06Z</time></trkpt><trkpt lat="38.87359326999552" lon="-9.262134602866993"><ele>237.0</ele><time>2026-05-01T11:04:07Z</time></trkpt><trkpt lat="38.87375547549677" lon="-9.262182879110453"><ele>238.0</ele><time>2026-05-01T11:04:08Z</time></trkpt><trkpt lat="38.87390658783473" lon="-9.262234889494474"><ele>239.0</ele><time>2026-05-01T11:04:09Z</time></trkpt><trkpt lat="38.874062682759615" lon="-9.262321894688261"><ele>240.0</ele><time>2026-05-01T11:04:10Z</time></trkpt><trkpt lat="38.874218517185355" lon="-9.262430513189134"><ele>240.66666666666669</ele><time>2026-05-01T11:04:11Z</time></trkpt><trkpt lat="38.874373339485324" lon="-9.26256604410435"><ele>241.33333333333334</ele><time>2026-05-01T11:04:12Z</time></trkpt><trkpt lat="38.87453350610736" lon="-9.262713901112805"><ele>242.0</ele><time>2026-05-01T11:04:13Z</time></trkpt><trkpt lat="38.87468443637788" lon="-9.262854330005078"><ele>242.0</ele><time>2026-05-01T11:04:14Z</time></trkpt><trkpt lat="38.874812905881896" lon="-9.26295564067883"><ele>242.0</ele><time>2026-05-01T11:04:15Z</time></trkpt><trkpt lat="38.874904873438815" lon="-9.263017924263623"><ele>242.0</ele><time>2026-05-01T11:04:16Z</time></trkpt><trkpt lat="38.87497234822543" lon="-9.263067735468137"><ele>242.0</ele><time>2026-05-01T11:04:17Z</time></trkpt><trkpt lat="38.875038228886616" lon="-9.262915788749508"><ele>242.75</ele><time>2026-05-01T11:04:18Z</time></trkpt><trkpt lat="38.87513074061259" lon="-9.262860515879625"><ele>243.5</ele><time>2026-05-01T11:04:19Z</time></trkpt><trkpt lat="38.875264783363754" lon="-9.262883471373721"><ele>244.25</ele><time>2026-05-01T11:04:20Z</time></trkpt><trkpt lat="38.875384533671536" lon="-9.262895271374646"><ele>245.0</ele><time>2026-05-01T11:04:21Z</time></trkpt><trkpt lat="38.875513714439045" lon="-9.26293642329375"><ele>245.0</ele><time>2026-05-01T11:04:22Z</time></trkpt><trkpt lat="38.87563857710713" lon="-9.262993221589307"><ele>245.0</ele><time>2026-05-01T11:04:23Z</time></trkpt><trkpt lat="38.87575827006308" lon="-9.263058773151663"><ele>245.0</ele><time>2026-05-01T11:04:24Z</time></trkpt><trkpt lat="38.87587821863186" lon="-9.263112237511853"><ele>245.0</ele><time>2026-05-01T11:04:25Z</time></trkpt><trkpt lat="38.875978847559786" lon="-9.263146616633502"><ele>245.00000000000003</ele><time>2026-05-01T11:04:26Z</time></trkpt><trkpt lat="38.876055340404285" lon="-9.263164375092952"><ele>245.0</ele><time>2026-05-01T11:04:27Z</time></trkpt><trkpt lat="38.87614832424554" lon="-9.263180495068898"><ele>245.0</ele><time>2026-05-01T11:04:29Z</time></trkpt><trkpt lat="38.876213660321916" lon="-9.2632019792961"><ele>245.0</ele><time>2026-05-01T11:05:06Z</time></trkpt><trkpt lat="38.87614933528938" lon="-9.263217247329322"><ele>245.00000000000003</ele><time>2026-05-01T11:06:26Z</time></trkpt><trkpt lat="38.87607813441621" lon="-9.263210250017012"><ele>245.0</ele><time>2026-05-01T11:06:30Z</time></trkpt><trkpt lat="38.87600397001984" lon="-9.263175604194734"><ele>245.00000000000003</ele><time>2026-05-01T11:06:33Z</time></trkpt><trkpt lat="38.87591645079196" lon="-9.263150156363503"><ele>245.0</ele><time>2026-05-01T11:06:37Z</time></trkpt><trkpt lat="38.87583424205118" lon="-9.263123753720594"><ele>245.0</ele><time>2026-05-01T11:06:39Z</time></trkpt><trkpt lat="38.87574884896043" lon="-9.263095055545326"><ele>245.0</ele><time>2026-05-01T11:06:41Z</time></trkpt><trkpt lat="38.8758534808619" lon="-9.263074416632907"><ele>245.00000000000003</ele><time>2026-05-01T11:06:46Z</time></trkpt><trkpt lat="38.87590985879687" lon="-9.263111092078535"><ele>245.0</ele><time>2026-05-01T11:06:47Z</time></trkpt><trkpt lat="38.87597017702674" lon="-9.263141243949528"><ele>245.00000000000003</ele><time>2026-05-01T11:06:48Z</time></trkpt><trkpt lat="38.87603854939762" lon="-9.263166972411607"><ele>245.0</ele><time>2026-05-01T11:06:49Z</time></trkpt><trkpt lat="38.87610724182318" lon="-9.263164287563683"><ele>245.0</ele><time>2026-05-01T11:06:50Z</time></trkpt><trkpt lat="38.87618303711725" lon="-9.263193088183678"><ele>245.0</ele><time>2026-05-01T11:07:04Z</time></trkpt><trkpt lat="38.87629910791487" lon="-9.26321702221546"><ele>245.00000000000003</ele><time>2026-05-01T11:07:06Z</time></trkpt><trkpt lat="38.87636149585691" lon="-9.263228721109837"><ele>245.0</ele><time>2026-05-01T11:07:07Z</time></trkpt><trkpt lat="38.876428772597535" lon="-9.263227410047456"><ele>245.4</ele><time>2026-05-01T11:07:08Z</time></trkpt><trkpt lat="38.876452408222015" lon="-9.262989925709398"><ele>245.8</ele><time>2026-05-01T11:07:11Z</time></trkpt><trkpt lat="38.87641451912517" lon="-9.262903262228326"><ele>246.2</ele><time>2026-05-01T11:07:12Z</time></trkpt><trkpt lat="38.87637772620305" lon="-9.262810305434085"><ele>246.6</ele><time>2026-05-01T11:07:13Z</time></trkpt><trkpt lat="38.87634412647922" lon="-9.262716436969189"><ele>247.0</ele><time>2026-05-01T11:07:14Z</time></trkpt><trkpt lat="38.87630314805872" lon="-9.262618039104257"><ele>247.0</ele><time>2026-05-01T11:07:15Z</time></trkpt><trkpt lat="38.876286264232654" lon="-9.262508677108983"><ele>247.0</ele><time>2026-05-01T11:07:16Z</time></trkpt><trkpt lat="38.87622953421767" lon="-9.262403435555706"><ele>247.0</ele><time>2026-05-01T11:07:17Z</time></trkpt><trkpt lat="38.8761880468899" lon="-9.262291107319239"><ele>247.0</ele><time>2026-05-01T11:07:18Z</time></trkpt><trkpt lat="38.87614344296896" lon="-9.262171251097236"><ele>247.0</ele><time>2026-05-01T11:07:19Z</time></trkpt><trkpt lat="38.8761034350617" lon="-9.262047078585141"><ele>247.8</ele><time>2026-05-01T11:07:20Z</time></trkpt><trkpt lat="38.876060555512254" lon="-9.261916662954"><ele>248.6</ele><time>2026-05-01T11:07:21Z</time></trkpt><trkpt lat="38.8760246062611" lon="-9.261798002521342"><ele>249.40000000000003</ele><time>2026-05-01T11:07:22Z</time></trkpt><trkpt lat="38.87598723661003" lon="-9.261689719088148"><ele>250.20000000000002</ele><time>2026-05-01T11:07:23Z</time></trkpt><trkpt lat="38.87596308032642" lon="-9.261605533131045"><ele>251.0</ele><time>2026-05-01T11:07:24Z</time></trkpt><trkpt lat="38.8761187631078" lon="-9.261510250390238"><ele>251.0</ele><time>2026-05-01T11:07:27Z</time></trkpt><trkpt lat="38.87619550333394" lon="-9.261543890295155"><ele>251.00000000000003</ele><time>2026-05-01T11:07:28Z</time></trkpt><trkpt lat="38.87626749938732" lon="-9.261640773450267"><ele>251.00000000000003</ele><time>2026-05-01T11:07:29Z</time></trkpt><trkpt lat="38.87635506949225" lon="-9.26172758558195"><ele>251.0</ele><time>2026-05-01T11:07:30Z</time></trkpt><trkpt lat="38.876456813131426" lon="-9.261797047953362"><ele>251.0</ele><time>2026-05-01T11:07:31Z</time></trkpt><trkpt lat="38.876548300729894" lon="-9.261862678193914"><ele>251.0</ele><time>2026-05-01T11:07:32Z</time></trkpt><trkpt lat="38.87663516049989" lon="-9.261922055990391"><ele>251.0</ele><time>2026-05-01T11:07:33Z</time></trkpt><trkpt lat="38.87672929121961" lon="-9.261991621215614"><ele>251.0</ele><time>2026-05-01T11:07:34Z</time></trkpt><trkpt lat="38.87683427610333" lon="-9.262073891221641"><ele>251.0</ele><time>2026-05-01T11:07:35Z</time></trkpt><trkpt lat="38.8769371248432" lon="-9.262166739559857"><ele>250.75</ele><time>2026-05-01T11:07:36Z</time></trkpt><trkpt lat="38.8770229093619" lon="-9.26226695580374"><ele>250.5</ele><time>2026-05-01T11:07:37Z</time></trkpt><trkpt lat="38.877108689579785" lon="-9.26239186820054"><ele>250.25</ele><time>2026-05-01T11:07:38Z</time></trkpt><trkpt lat="38.87718110736677" lon="-9.262543072787016"><ele>250.0</ele><time>2026-05-01T11:07:39Z</time></trkpt><trkpt lat="38.87722937951591" lon="-9.26270496195967"><ele>250.0</ele><time>2026-05-01T11:07:40Z</time></trkpt><trkpt lat="38.87738533716888" lon="-9.262801231104946"><ele>250.0</ele><time>2026-05-01T11:07:41Z</time></trkpt><trkpt lat="38.87747307925094" lon="-9.262936745507748"><ele>250.0</ele><time>2026-05-01T11:07:42Z</time></trkpt><trkpt lat="38.87757743608541" lon="-9.263053791839821"><ele>250.0</ele><time>2026-05-01T11:07:43Z</time></trkpt><trkpt lat="38.877673341983765" lon="-9.263181639470766"><ele>250.25</ele><time>2026-05-01T11:07:44Z</time></trkpt><trkpt lat="38.8777802783772" lon="-9.263304471570072"><ele>250.5</ele><time>2026-05-01T11:07:45Z</time></trkpt><trkpt lat="38.8778917938007" lon="-9.263437422054443"><ele>250.75</ele><time>2026-05-01T11:07:46Z</time></trkpt><trkpt lat="38.8779972305452" lon="-9.263566576765465"><ele>251.0</ele><time>2026-05-01T11:07:47Z</time></trkpt><trkpt lat="38.878102103756284" lon="-9.263695580006337"><ele>251.0</ele><time>2026-05-01T11:07:48Z</time></trkpt><trkpt lat="38.87820061161121" lon="-9.263833030675567"><ele>251.0</ele><time>2026-05-01T11:07:49Z</time></trkpt><trkpt lat="38.878280568458344" lon="-9.263981558657052"><ele>251.0</ele><time>2026-05-01T11:07:50Z</time></trkpt><trkpt lat="38.878340354423436" lon="-9.264138475178989"><ele>251.0</ele><time>2026-05-01T11:07:51Z</time></trkpt><trkpt lat="38.87840092365453" lon="-9.264297853216457"><ele>251.5</ele><time>2026-05-01T11:07:52Z</time></trkpt><trkpt lat="38.87844997223762" lon="-9.26443735749866"><ele>252.0</ele><time>2026-05-01T11:07:53Z</time></trkpt><trkpt lat="38.87850892960357" lon="-9.264549017297359"><ele>252.5</ele><time>2026-05-01T11:07:54Z</time></trkpt><trkpt lat="38.87861575524994" lon="-9.264579638637215"><ele>253.0</ele><time>2026-05-01T11:07:55Z</time></trkpt><trkpt lat="38.87871040398826" lon="-9.264676684460316"><ele>253.0</ele><time>2026-05-01T11:07:56Z</time></trkpt><trkpt lat="38.87882443733878" lon="-9.26474073100592"><ele>253.0</ele><time>2026-05-01T11:07:57Z</time></trkpt><trkpt lat="38.87894452500698" lon="-9.264808047229453"><ele>253.0</ele><time>2026-05-01T11:07:58Z</time></trkpt><trkpt lat="38.87906376020127" lon="-9.264873821222741"><ele>253.0</ele><time>2026-05-01T11:07:59Z</time></trkpt><trkpt lat="38.87917739665084" lon="-9.264944113151463"><ele>252.75</ele><time>2026-05-01T11:08:00Z</time></trkpt><trkpt lat="38.87929352059649" lon="-9.265016158531623"><ele>252.5</ele><time>2026-05-01T11:08:01Z</time></trkpt><trkpt lat="38.8794148958212" lon="-9.265089758725217"><ele>252.25</ele><time>2026-05-01T11:08:02Z</time></trkpt><trkpt lat="38.879535999443846" lon="-9.26516721844389"><ele>252.0</ele><time>2026-05-01T11:08:03Z</time></trkpt><trkpt lat="38.87965973096805" lon="-9.26524140818321"><ele>252.0</ele><time>2026-05-01T11:08:04Z</time></trkpt><trkpt lat="38.87979205758637" lon="-9.26531250783529"><ele>252.0</ele><time>2026-05-01T11:08:05Z</time></trkpt><trkpt lat="38.879922936200636" lon="-9.265397005408776"><ele>252.0</ele><time>2026-05-01T11:08:06Z</time></trkpt><trkpt lat="38.880053632360436" lon="-9.265480205203374"><ele>252.0</ele><time>2026-05-01T11:08:07Z</time></trkpt><trkpt lat="38.880186246135125" lon="-9.265553362798753"><ele>252.0</ele><time>2026-05-01T11:08:08Z</time></trkpt><trkpt lat="38.88032004664394" lon="-9.265640271392996"><ele>252.0</ele><time>2026-05-01T11:08:09Z</time></trkpt><trkpt lat="38.880457289165456" lon="-9.265730140880118"><ele>252.0</ele><time>2026-05-01T11:08:10Z</time></trkpt><trkpt lat="38.88058565726375" lon="-9.26583175264495"><ele>252.0</ele><time>2026-05-01T11:08:11Z</time></trkpt><trkpt lat="38.88070307796268" lon="-9.265948703585334"><ele>252.0</ele><time>2026-05-01T11:08:12Z</time></trkpt><trkpt lat="38.880815067139665" lon="-9.266081393143471"><ele>252.0</ele><time>2026-05-01T11:08:13Z</time></trkpt><trkpt lat="38.880924173945395" lon="-9.26620928983549"><ele>252.0</ele><time>2026-05-01T11:08:14Z</time></trkpt><trkpt lat="38.88103419304957" lon="-9.266322590603579"><ele>253.5</ele><time>2026-05-01T11:08:15Z</time></trkpt><trkpt lat="38.881147513798666" lon="-9.266432480997983"><ele>255.0</ele><time>2026-05-01T11:08:16Z</time></trkpt><trkpt lat="38.88126644586122" lon="-9.266532043838433"><ele>256.5</ele><time>2026-05-01T11:08:17Z</time></trkpt><trkpt lat="38.881378034957024" lon="-9.266643857693799"><ele>258.0</ele><time>2026-05-01T11:08:18Z</time></trkpt><trkpt lat="38.881481335506955" lon="-9.266768015983383"><ele>259.0</ele><time>2026-05-01T11:08:19Z</time></trkpt><trkpt lat="38.881582211426014" lon="-9.266893477569855"><ele>260.0</ele><time>2026-05-01T11:08:20Z</time></trkpt><trkpt lat="38.88168163944631" lon="-9.267034010253171"><ele>261.0</ele><time>2026-05-01T11:08:21Z</time></trkpt><trkpt lat="38.88178384667715" lon="-9.267165028788805"><ele>262.0</ele><time>2026-05-01T11:08:22Z</time></trkpt><trkpt lat="38.88191433776585" lon="-9.267256724900648"><ele>262.25</ele><time>2026-05-01T11:08:23Z</time></trkpt><trkpt lat="38.88203421816431" lon="-9.267354929727288"><ele>262.5</ele><time>2026-05-01T11:08:24Z</time></trkpt><trkpt lat="38.882155719626" lon="-9.26746939693047"><ele>262.75</ele><time>2026-05-01T11:08:25Z</time></trkpt><trkpt lat="38.8822644237234" lon="-9.267606330741186"><ele>263.0</ele><time>2026-05-01T11:08:26Z</time></trkpt><trkpt lat="38.882386523578994" lon="-9.267725956173134"><ele>263.0</ele><time>2026-05-01T11:08:27Z</time></trkpt><trkpt lat="38.88251232983035" lon="-9.267787173847475"><ele>263.0</ele><time>2026-05-01T11:08:28Z</time></trkpt><trkpt lat="38.88263375179576" lon="-9.267807614578508"><ele>263.0</ele><time>2026-05-01T11:08:29Z</time></trkpt><trkpt lat="38.882769064774884" lon="-9.267842431816742"><ele>263.0</ele><time>2026-05-01T11:08:30Z</time></trkpt><trkpt lat="38.882862354706425" lon="-9.267872591804586"><ele>262.8</ele><time>2026-05-01T11:08:31Z</time></trkpt><trkpt lat="38.88295127316692" lon="-9.267877260796045"><ele>262.6</ele><time>2026-05-01T11:08:33Z</time></trkpt><trkpt lat="38.882972788219305" lon="-9.267711417713311"><ele>262.4</ele><time>2026-05-01T11:08:34Z</time></trkpt><trkpt lat="38.883037891689305" lon="-9.26763803342956"><ele>262.2</ele><time>2026-05-01T11:08:35Z</time></trkpt><trkpt lat="38.88311466665166" lon="-9.267573597467727"><ele>262.0</ele><time>2026-05-01T11:08:36Z</time></trkpt><trkpt lat="38.88318496600163" lon="-9.267497096787391"><ele>262.0</ele><time>2026-05-01T11:08:37Z</time></trkpt><trkpt lat="38.8832622183307" lon="-9.267421081046262"><ele>262.0</ele><time>2026-05-01T11:08:38Z</time></trkpt><trkpt lat="38.883311004719104" lon="-9.267324710897308"><ele>262.0</ele><time>2026-05-01T11:08:39Z</time></trkpt><trkpt lat="38.88336869737051" lon="-9.26724059818407"><ele>262.0</ele><time>2026-05-01T11:08:40Z</time></trkpt><trkpt lat="38.88343682805087" lon="-9.267136970296754"><ele>262.0</ele><time>2026-05-01T11:08:41Z</time></trkpt><trkpt lat="38.88350200261284" lon="-9.26703216929576"><ele>260.8</ele><time>2026-05-01T11:08:42Z</time></trkpt><trkpt lat="38.88356565530276" lon="-9.266923070584477"><ele>259.6</ele><time>2026-05-01T11:08:43Z</time></trkpt><trkpt lat="38.883633047717865" lon="-9.266836938589933"><ele>258.40000000000003</ele><time>2026-05-01T11:08:44Z</time></trkpt><trkpt lat="38.883678935823596" lon="-9.266741195763984"><ele>257.2</ele><time>2026-05-01T11:08:45Z</time></trkpt><trkpt lat="38.88375668967212" lon="-9.266698660895889"><ele>256.0</ele><time>2026-05-01T11:08:46Z</time></trkpt><trkpt lat="38.88385512616038" lon="-9.266679873212311"><ele>256.0</ele><time>2026-05-01T11:08:47Z</time></trkpt><trkpt lat="38.8839654981037" lon="-9.266633066901987"><ele>256.0</ele><time>2026-05-01T11:08:48Z</time></trkpt><trkpt lat="38.88408543808538" lon="-9.266614808306091"><ele>256.0</ele><time>2026-05-01T11:08:49Z</time></trkpt><trkpt lat="38.88422044541978" lon="-9.266566645563278"><ele>256.0</ele><time>2026-05-01T11:08:50Z</time></trkpt><trkpt lat="38.884337148631985" lon="-9.266517590797784"><ele>256.0</ele><time>2026-05-01T11:08:51Z</time></trkpt><trkpt lat="38.884432720353374" lon="-9.266515719490053"><ele>256.0</ele><time>2026-05-01T11:08:52Z</time></trkpt><trkpt lat="38.88452907294981" lon="-9.266528638198311"><ele>256.0</ele><time>2026-05-01T11:08:53Z</time></trkpt><trkpt lat="38.884650427002924" lon="-9.266543653940467"><ele>256.0</ele><time>2026-05-01T11:08:54Z</time></trkpt><trkpt lat="38.8847544556793" lon="-9.266574496871344"><ele>256.0</ele><time>2026-05-01T11:08:55Z</time></trkpt><trkpt lat="38.884850677404" lon="-9.26663637522528"><ele>256.0</ele><time>2026-05-01T11:08:56Z</time></trkpt><trkpt lat="38.88495872975348" lon="-9.266715929920785"><ele>256.0</ele><time>2026-05-01T11:08:57Z</time></trkpt><trkpt lat="38.88508005487092" lon="-9.266801846350221"><ele>256.0</ele><time>2026-05-01T11:08:58Z</time></trkpt><trkpt lat="38.88519806973931" lon="-9.2668984792479"><ele>256.0</ele><time>2026-05-01T11:08:59Z</time></trkpt><trkpt lat="38.88530213541616" lon="-9.266988152354964"><ele>256.3333333333333</ele><time>2026-05-01T11:09:00Z</time></trkpt><trkpt lat="38.88539042217352" lon="-9.267030652618793"><ele>256.66666666666663</ele><time>2026-05-01T11:09:01Z</time></trkpt><trkpt lat="38.88546583326501" lon="-9.267063927709232"><ele>257.0</ele><time>2026-05-01T11:09:02Z</time></trkpt><trkpt lat="38.88550254301438" lon="-9.2671688187874"><ele>257.3333333333333</ele><time>2026-05-01T11:09:04Z</time></trkpt><trkpt lat="38.88545993578889" lon="-9.267103018686624"><ele>257.6666666666667</ele><time>2026-05-01T11:09:07.999Z</time></trkpt><trkpt lat="38.88542424769577" lon="-9.267195750277741"><ele>258.0</ele><time>2026-05-01T11:09:20Z</time></trkpt><trkpt lat="38.88530774769842" lon="-9.26729339048401"><ele>258.8</ele><time>2026-05-01T11:09:22Z</time></trkpt><trkpt lat="38.88523541363225" lon="-9.267354268914577"><ele>259.6</ele><time>2026-05-01T11:09:23Z</time></trkpt><trkpt lat="38.88515610403109" lon="-9.267422002592232"><ele>260.4</ele><time>2026-05-01T11:09:24Z</time></trkpt><trkpt lat="38.88506650580541" lon="-9.267500630129915"><ele>261.2</ele><time>2026-05-01T11:09:25Z</time></trkpt><trkpt lat="38.88498209836809" lon="-9.267573431415908"><ele>262.0</ele><time>2026-05-01T11:09:26Z</time></trkpt><trkpt lat="38.88489808512145" lon="-9.267647831986771"><ele>262.0</ele><time>2026-05-01T11:09:27Z</time></trkpt><trkpt lat="38.88481724472691" lon="-9.267722831925354"><ele>262.0</ele><time>2026-05-01T11:09:28Z</time></trkpt><trkpt lat="38.884739063686816" lon="-9.267818869203904"><ele>262.0</ele><time>2026-05-01T11:09:29Z</time></trkpt><trkpt lat="38.884668532869085" lon="-9.267928111682615"><ele>262.0</ele><time>2026-05-01T11:09:30Z</time></trkpt><trkpt lat="38.88459548708138" lon="-9.268044184879672"><ele>262.0</ele><time>2026-05-01T11:09:31Z</time></trkpt><trkpt lat="38.88451009450546" lon="-9.26813411980545"><ele>262.0</ele><time>2026-05-01T11:09:32Z</time></trkpt><trkpt lat="38.88443130248174" lon="-9.268247739586544"><ele>262.0</ele><time>2026-05-01T11:09:33Z</time></trkpt><trkpt lat="38.88433928831301" lon="-9.268348128440763"><ele>262.0</ele><time>2026-05-01T11:09:34Z</time></trkpt><trkpt lat="38.88424209020884" lon="-9.268433418580143"><ele>262.0</ele><time>2026-05-01T11:09:35Z</time></trkpt><trkpt lat="38.884150297130056" lon="-9.268474095784946"><ele>262.0</ele><time>2026-05-01T11:09:36Z</time></trkpt><trkpt lat="38.88405958436526" lon="-9.268483943124982"><ele>262.0</ele><time>2026-05-01T11:09:37Z</time></trkpt><trkpt lat="38.88395739891625" lon="-9.268440041974578"><ele>262.0</ele><time>2026-05-01T11:09:38Z</time></trkpt><trkpt lat="38.88386324406364" lon="-9.268366329020614"><ele>262.0</ele><time>2026-05-01T11:09:39Z</time></trkpt><trkpt lat="38.88375987800155" lon="-9.268260697879029"><ele>262.0</ele><time>2026-05-01T11:09:40Z</time></trkpt><trkpt lat="38.883628300745805" lon="-9.268166972336791"><ele>262.0</ele><time>2026-05-01T11:09:41Z</time></trkpt><trkpt lat="38.883487174630126" lon="-9.268076919844502"><ele>262.0</ele><time>2026-05-01T11:09:42Z</time></trkpt><trkpt lat="38.88334149097021" lon="-9.26802704128174"><ele>262.0</ele><time>2026-05-01T11:09:43Z</time></trkpt><trkpt lat="38.88320895949344" lon="-9.26798129791155"><ele>262.0</ele><time>2026-05-01T11:09:44Z</time></trkpt><trkpt lat="38.883067411339646" lon="-9.267968172561792"><ele>262.0</ele><time>2026-05-01T11:09:45Z</time></trkpt><trkpt lat="38.882905771068806" lon="-9.26792860578137"><ele>262.0</ele><time>2026-05-01T11:09:46Z</time></trkpt><trkpt lat="38.882736566687946" lon="-9.267861532413214"><ele>262.0</ele><time>2026-05-01T11:09:47Z</time></trkpt><trkpt lat="38.88258107630128" lon="-9.267834935684894"><ele>262.2</ele><time>2026-05-01T11:09:48Z</time></trkpt><trkpt lat="38.882468416799696" lon="-9.267815715946105"><ele>262.4</ele><time>2026-05-01T11:09:49Z</time></trkpt><trkpt lat="38.88240513725483" lon="-9.267803800303314"><ele>262.6</ele><time>2026-05-01T11:09:50Z</time></trkpt><trkpt lat="38.882338231752776" lon="-9.267787980288901"><ele>262.8</ele><time>2026-05-01T11:09:52Z</time></trkpt><trkpt lat="38.882330679801974" lon="-9.267685502637315"><ele>263.0</ele><time>2026-05-01T11:09:55Z</time></trkpt><trkpt lat="38.88245746024442" lon="-9.267740330970671"><ele>263.0</ele><time>2026-05-01T11:09:57Z</time></trkpt><trkpt lat="38.882534264008086" lon="-9.26778545446741"><ele>263.0</ele><time>2026-05-01T11:09:58Z</time></trkpt><trkpt lat="38.88262959487858" lon="-9.267817554645326"><ele>263.0</ele><time>2026-05-01T11:09:59Z</time></trkpt><trkpt lat="38.882731811469455" lon="-9.267838810984204"><ele>263.0</ele><time>2026-05-01T11:10:00Z</time></trkpt><trkpt lat="38.88285109195423" lon="-9.267865533377655"><ele>263.0</ele><time>2026-05-01T11:10:01Z</time></trkpt><trkpt lat="38.8829774692898" lon="-9.26789821953054"><ele>262.75</ele><time>2026-05-01T11:10:02Z</time></trkpt><trkpt lat="38.8831138760446" lon="-9.267928498370233"><ele>262.5</ele><time>2026-05-01T11:10:03Z</time></trkpt><trkpt lat="38.88324496206365" lon="-9.267943721060616"><ele>262.25</ele><time>2026-05-01T11:10:04Z</time></trkpt><trkpt lat="38.883375224250976" lon="-9.267972725508281"><ele>262.0</ele><time>2026-05-01T11:10:05Z</time></trkpt><trkpt lat="38.883507129645544" lon="-9.268038067289966"><ele>262.0</ele><time>2026-05-01T11:10:06Z</time></trkpt><trkpt lat="38.88363936211234" lon="-9.268116566226263"><ele>262.0</ele><time>2026-05-01T11:10:07Z</time></trkpt><trkpt lat="38.883769375730935" lon="-9.268207207513303"><ele>262.0</ele><time>2026-05-01T11:10:08Z</time></trkpt><trkpt lat="38.88388610172283" lon="-9.268291112181924"><ele>262.0</ele><time>2026-05-01T11:10:09Z</time></trkpt><trkpt lat="38.88397959585759" lon="-9.26837510798985"><ele>262.0</ele><time>2026-05-01T11:10:10Z</time></trkpt><trkpt lat="38.884057103997506" lon="-9.268435194555849"><ele>262.0</ele><time>2026-05-01T11:10:11Z</time></trkpt><trkpt lat="38.88413218980691" lon="-9.26844307358887"><ele>262.0</ele><time>2026-05-01T11:10:12Z</time></trkpt><trkpt lat="38.88420552054451" lon="-9.268485224110986"><ele>262.0</ele><time>2026-05-01T11:10:14Z</time></trkpt><trkpt lat="38.8841463742675" lon="-9.268739161980092"><ele>262.0</ele><time>2026-05-01T11:10:15Z</time></trkpt><trkpt lat="38.88410909662742" lon="-9.268876029343888"><ele>262.0</ele><time>2026-05-01T11:10:16Z</time></trkpt><trkpt lat="38.88409828138836" lon="-9.269009041384125"><ele>262.0</ele><time>2026-05-01T11:10:17Z</time></trkpt><trkpt lat="38.8841455386398" lon="-9.269128005458418"><ele>262.0</ele><time>2026-05-01T11:10:18Z</time></trkpt><trkpt lat="38.88422072175141" lon="-9.269248292942494"><ele>262.0</ele><time>2026-05-01T11:10:19Z</time></trkpt><trkpt lat="38.88428250212928" lon="-9.269377094265659"><ele>262.2</ele><time>2026-05-01T11:10:20Z</time></trkpt><trkpt lat="38.88434457318195" lon="-9.269513230998786"><ele>262.4</ele><time>2026-05-01T11:10:21Z</time></trkpt><trkpt lat="38.8844000570298" lon="-9.26963829779406"><ele>262.6</ele><time>2026-05-01T11:10:22Z</time></trkpt><trkpt lat="38.884432425232426" lon="-9.269746167951364"><ele>262.8</ele><time>2026-05-01T11:10:23Z</time></trkpt><trkpt lat="38.88442213482023" lon="-9.269865265853378"><ele>263.0</ele><time>2026-05-01T11:10:24Z</time></trkpt><trkpt lat="38.88438305060148" lon="-9.270012851176302"><ele>263.0</ele><time>2026-05-01T11:10:25Z</time></trkpt><trkpt lat="38.88434224952157" lon="-9.270175071264292"><ele>263.0</ele><time>2026-05-01T11:10:26Z</time></trkpt><trkpt lat="38.8843131203075" lon="-9.270307152332464"><ele>263.0</ele><time>2026-05-01T11:10:27Z</time></trkpt><trkpt lat="38.88423282366977" lon="-9.270435504717373"><ele>263.0</ele><time>2026-05-01T11:10:28Z</time></trkpt><trkpt lat="38.88418341607868" lon="-9.27059184108922"><ele>262.8</ele><time>2026-05-01T11:10:29Z</time></trkpt><trkpt lat="38.88416593947009" lon="-9.270722706550712"><ele>262.6</ele><time>2026-05-01T11:10:30Z</time></trkpt><trkpt lat="38.88415414737066" lon="-9.270851438117548"><ele>262.4</ele><time>2026-05-01T11:10:31Z</time></trkpt><trkpt lat="38.88415069031208" lon="-9.2709799968394"><ele>262.2</ele><time>2026-05-01T11:10:32Z</time></trkpt><trkpt lat="38.88415363759128" lon="-9.27107630983563"><ele>262.0</ele><time>2026-05-01T11:10:33Z</time></trkpt><trkpt lat="38.88417027551835" lon="-9.27119409995678"><ele>262.0</ele><time>2026-05-01T11:10:35Z</time></trkpt><trkpt lat="38.88415599490505" lon="-9.271275854510433"><ele>262.0</ele><time>2026-05-01T11:10:48Z</time></trkpt><trkpt lat="38.88413054689524" lon="-9.271409597312184"><ele>262.0</ele><time>2026-05-01T11:10:50Z</time></trkpt><trkpt lat="38.88407996593177" lon="-9.271564448967327"><ele>262.0</ele><time>2026-05-01T11:10:52Z</time></trkpt><trkpt lat="38.88404960836626" lon="-9.271644580227717"><ele>262.0</ele><time>2026-05-01T11:10:53Z</time></trkpt><trkpt lat="38.88400765552428" lon="-9.271716017107538"><ele>262.0</ele><time>2026-05-01T11:10:54Z</time></trkpt><trkpt lat="38.88396398328721" lon="-9.271782091024564"><ele>262.0</ele><time>2026-05-01T11:10:55Z</time></trkpt><trkpt lat="38.883914634872944" lon="-9.27183759906702"><ele>262.0</ele><time>2026-05-01T11:10:56Z</time></trkpt><trkpt lat="38.88385891091683" lon="-9.271898921036598"><ele>262.0</ele><time>2026-05-01T11:10:57Z</time></trkpt><trkpt lat="38.88379126163041" lon="-9.271958607661057"><ele>262.0</ele><time>2026-05-01T11:10:58Z</time></trkpt><trkpt lat="38.88373482629164" lon="-9.272026801322083"><ele>262.0</ele><time>2026-05-01T11:10:59Z</time></trkpt><trkpt lat="38.88368160212868" lon="-9.27210296640437"><ele>262.0</ele><time>2026-05-01T11:11:00Z</time></trkpt><trkpt lat="38.883634461932616" lon="-9.272182634852353"><ele>262.0</ele><time>2026-05-01T11:11:01Z</time></trkpt><trkpt lat="38.88359578777336" lon="-9.272267788068838"><ele>262.0</ele><time>2026-05-01T11:11:02Z</time></trkpt><trkpt lat="38.88357157483898" lon="-9.272362295067632"><ele>262.0</ele><time>2026-05-01T11:11:03Z</time></trkpt><trkpt lat="38.8835560894102" lon="-9.27245346017442"><ele>262.0</ele><time>2026-05-01T11:11:04Z</time></trkpt><trkpt lat="38.883504984338884" lon="-9.27258471857086"><ele>262.0</ele><time>2026-05-01T11:11:06Z</time></trkpt><trkpt lat="38.88343821414892" lon="-9.272653787468187"><ele>262.0</ele><time>2026-05-01T11:11:08Z</time></trkpt><trkpt lat="38.883394683440535" lon="-9.272715059829006"><ele>261.6</ele><time>2026-05-01T11:11:12Z</time></trkpt><trkpt lat="38.88333488386283" lon="-9.272758957166038"><ele>261.2</ele><time>2026-05-01T11:11:15Z</time></trkpt><trkpt lat="38.88326360186817" lon="-9.272821812050584"><ele>260.8</ele><time>2026-05-01T11:11:17Z</time></trkpt><trkpt lat="38.88318479812514" lon="-9.272880870523442"><ele>260.4</ele><time>2026-05-01T11:11:18.999Z</time></trkpt><trkpt lat="38.88308888546469" lon="-9.27296258554389"><ele>260.0</ele><time>2026-05-01T11:11:21Z</time></trkpt><trkpt lat="38.883020703197495" lon="-9.273047054942616"><ele>260.5</ele><time>2026-05-01T11:11:23Z</time></trkpt><trkpt lat="38.882981763606885" lon="-9.273123811285028"><ele>261.0</ele><time>2026-05-01T11:11:25Z</time></trkpt><trkpt lat="38.88295156134492" lon="-9.273258232485004"><ele>261.5</ele><time>2026-05-01T11:11:27Z</time></trkpt><trkpt lat="38.88293498547392" lon="-9.27335062640865"><ele>262.0</ele><time>2026-05-01T11:11:28Z</time></trkpt><trkpt lat="38.882911659819804" lon="-9.273450334060376"><ele>262.5</ele><time>2026-05-01T11:11:29Z</time></trkpt><trkpt lat="38.8828862527859" lon="-9.27354255626233"><ele>263.0</ele><time>2026-05-01T11:11:30Z</time></trkpt><trkpt lat="38.88287969880093" lon="-9.273631950313034"><ele>263.0</ele><time>2026-05-01T11:11:31Z</time></trkpt><trkpt lat="38.88286201313407" lon="-9.273745941511667"><ele>263.0</ele><time>2026-05-01T11:11:32Z</time></trkpt><trkpt lat="38.88284377228975" lon="-9.273887924823612"><ele>263.0</ele><time>2026-05-01T11:11:33Z</time></trkpt><trkpt lat="38.88282614681669" lon="-9.27400162722052"><ele>263.0</ele><time>2026-05-01T11:11:34Z</time></trkpt><trkpt lat="38.88277734842335" lon="-9.27411716442785"><ele>263.0</ele><time>2026-05-01T11:11:36Z</time></trkpt><trkpt lat="38.88273119997158" lon="-9.274177885884004"><ele>263.4</ele><time>2026-05-01T11:12:01Z</time></trkpt><trkpt lat="38.88266133784121" lon="-9.27419277867161"><ele>263.8</ele><time>2026-05-01T11:12:05Z</time></trkpt><trkpt lat="38.88254819393855" lon="-9.274231424813731"><ele>264.2</ele><time>2026-05-01T11:12:07Z</time></trkpt><trkpt lat="38.88247708655118" lon="-9.274261379364887"><ele>264.6</ele><time>2026-05-01T11:12:08Z</time></trkpt><trkpt lat="38.882381958864755" lon="-9.274286369902802"><ele>265.0</ele><time>2026-05-01T11:12:09Z</time></trkpt><trkpt lat="38.88228336205406" lon="-9.274335119538321"><ele>261.75</ele><time>2026-05-01T11:12:10Z</time></trkpt><trkpt lat="38.88216716339779" lon="-9.274365541375746"><ele>258.5</ele><time>2026-05-01T11:12:11Z</time></trkpt><trkpt lat="38.88205075092782" lon="-9.274375798442433"><ele>255.25</ele><time>2026-05-01T11:12:12Z</time></trkpt><trkpt lat="38.88192459000449" lon="-9.274409018982006"><ele>252.0</ele><time>2026-05-01T11:12:13Z</time></trkpt><trkpt lat="38.88179649513127" lon="-9.274439769336716"><ele>250.25</ele><time>2026-05-01T11:12:14Z</time></trkpt><trkpt lat="38.8816647400805" lon="-9.27449042922312"><ele>248.5</ele><time>2026-05-01T11:12:15Z</time></trkpt><trkpt lat="38.881545538429975" lon="-9.274520059282384"><ele>246.75</ele><time>2026-05-01T11:12:16Z</time></trkpt><trkpt lat="38.88143305173113" lon="-9.274550945778016"><ele>245.0</ele><time>2026-05-01T11:12:17Z</time></trkpt><trkpt lat="38.881329381580414" lon="-9.274576840275275"><ele>245.0</ele><time>2026-05-01T11:12:18Z</time></trkpt><trkpt lat="38.881233396543884" lon="-9.274584265238229"><ele>245.0</ele><time>2026-05-01T11:12:19Z</time></trkpt><trkpt lat="38.88115449122813" lon="-9.274602188395708"><ele>245.0</ele><time>2026-05-01T11:12:20Z</time></trkpt><trkpt lat="38.88106173455516" lon="-9.274656320573914"><ele>245.0</ele><time>2026-05-01T11:12:22Z</time></trkpt><trkpt lat="38.8810255902298" lon="-9.274749437866296"><ele>245.0</ele><time>2026-05-01T11:12:23Z</time></trkpt><trkpt lat="38.88097816793141" lon="-9.274870782399747"><ele>242.75</ele><time>2026-05-01T11:12:24Z</time></trkpt><trkpt lat="38.88090610960762" lon="-9.274998685225604"><ele>240.5</ele><time>2026-05-01T11:12:25Z</time></trkpt><trkpt lat="38.88081114942524" lon="-9.275124108303606"><ele>238.25</ele><time>2026-05-01T11:12:26Z</time></trkpt><trkpt lat="38.88070759799497" lon="-9.275251978019648"><ele>236.0</ele><time>2026-05-01T11:12:27Z</time></trkpt><trkpt lat="38.88061656618056" lon="-9.27538961437414"><ele>236.0</ele><time>2026-05-01T11:12:28Z</time></trkpt><trkpt lat="38.880547044763716" lon="-9.275547013785802"><ele>236.0</ele><time>2026-05-01T11:12:29Z</time></trkpt><trkpt lat="38.88049735686851" lon="-9.275702403462258"><ele>236.0</ele><time>2026-05-01T11:12:30Z</time></trkpt><trkpt lat="38.88041488658402" lon="-9.27581577696056"><ele>236.0</ele><time>2026-05-01T11:12:31Z</time></trkpt><trkpt lat="38.88030177394093" lon="-9.275898666192758"><ele>235.5</ele><time>2026-05-01T11:12:32Z</time></trkpt><trkpt lat="38.88017808662596" lon="-9.275962675422056"><ele>235.0</ele><time>2026-05-01T11:12:33Z</time></trkpt><trkpt lat="38.88003899561661" lon="-9.276031476207416"><ele>234.5</ele><time>2026-05-01T11:12:34Z</time></trkpt><trkpt lat="38.87990269230762" lon="-9.276124635781505"><ele>234.0</ele><time>2026-05-01T11:12:35Z</time></trkpt><trkpt lat="38.87976718035502" lon="-9.27624503494228"><ele>232.25</ele><time>2026-05-01T11:12:36Z</time></trkpt><trkpt lat="38.87965491331751" lon="-9.276357347993377"><ele>230.5</ele><time>2026-05-01T11:12:37Z</time></trkpt><trkpt lat="38.87955567946439" lon="-9.276455901235822"><ele>228.75</ele><time>2026-05-01T11:12:38Z</time></trkpt><trkpt lat="38.879448761231984" lon="-9.276503916361243"><ele>227.0</ele><time>2026-05-01T11:12:39Z</time></trkpt><trkpt lat="38.87934726936853" lon="-9.276519025878574"><ele>226.0</ele><time>2026-05-01T11:12:40Z</time></trkpt><trkpt lat="38.879280502174176" lon="-9.276522523272893"><ele>225.0</ele><time>2026-05-01T11:12:41Z</time></trkpt><trkpt lat="38.87927090122837" lon="-9.27665172164938"><ele>224.0</ele><time>2026-05-01T11:12:43Z</time></trkpt><trkpt lat="38.87921690596918" lon="-9.276777447795505"><ele>223.0</ele><time>2026-05-01T11:12:45Z</time></trkpt><trkpt lat="38.87916487279648" lon="-9.27691475801822"><ele>222.0</ele><time>2026-05-01T11:12:47Z</time></trkpt><trkpt lat="38.87912861440327" lon="-9.276982397960165"><ele>221.8</ele><time>2026-05-01T11:12:48Z</time></trkpt><trkpt lat="38.87907857067353" lon="-9.277066714264762"><ele>221.6</ele><time>2026-05-01T11:12:49Z</time></trkpt><trkpt lat="38.879024295633116" lon="-9.277172780188632"><ele>221.40000000000003</ele><time>2026-05-01T11:12:50Z</time></trkpt><trkpt lat="38.87897156061834" lon="-9.277290134460834"><ele>221.20000000000002</ele><time>2026-05-01T11:12:51Z</time></trkpt><trkpt lat="38.87891609120763" lon="-9.277416712776438"><ele>221.0</ele><time>2026-05-01T11:12:52Z</time></trkpt><trkpt lat="38.87885203881007" lon="-9.277523821396876"><ele>220.5</ele><time>2026-05-01T11:12:53Z</time></trkpt><trkpt lat="38.878785142988015" lon="-9.277653772429668"><ele>220.0</ele><time>2026-05-01T11:12:54Z</time></trkpt><trkpt lat="38.87871643051355" lon="-9.277780882219217"><ele>219.5</ele><time>2026-05-01T11:12:55Z</time></trkpt><trkpt lat="38.878644727503406" lon="-9.277902037540137"><ele>219.0</ele><time>2026-05-01T11:12:56Z</time></trkpt><trkpt lat="38.878573903547235" lon="-9.278027070514186"><ele>218.79999999999998</ele><time>2026-05-01T11:12:57Z</time></trkpt><trkpt lat="38.87850684514017" lon="-9.278146550684399"><ele>218.59999999999997</ele><time>2026-05-01T11:12:58Z</time></trkpt><trkpt lat="38.878461816136735" lon="-9.278244391806563"><ele>218.4</ele><time>2026-05-01T11:12:59Z</time></trkpt><trkpt lat="38.87841917284754" lon="-9.278320312546425"><ele>218.2</ele><time>2026-05-01T11:13:00Z</time></trkpt><trkpt lat="38.878374222500504" lon="-9.278409170192731"><ele>218.0</ele><time>2026-05-01T11:13:02Z</time></trkpt><trkpt lat="38.87826572736095" lon="-9.278340255080455"><ele>218.00000000000003</ele><time>2026-05-01T11:13:04Z</time></trkpt><trkpt lat="38.8783293712446" lon="-9.278366737540745"><ele>218.0</ele><time>2026-05-01T11:14:53Z</time></trkpt><trkpt lat="38.87826556323867" lon="-9.278321184984511"><ele>218.0</ele><time>2026-05-01T11:15:09Z</time></trkpt><trkpt lat="38.878190815228" lon="-9.278296693859506"><ele>218.0</ele><time>2026-05-01T11:15:24.999Z</time></trkpt><trkpt lat="38.878245858694626" lon="-9.278213098127605"><ele>218.00000000000003</ele><time>2026-05-01T11:15:32.039Z</time></trkpt><trkpt lat="38.878262698312845" lon="-9.278087517290588"><ele>218.0</ele><time>2026-05-01T11:15:35.039Z</time></trkpt><trkpt lat="38.87816566201516" lon="-9.278314134188754"><ele>218.00000000000003</ele><time>2026-05-01T11:15:44.037Z</time></trkpt><trkpt lat="38.87808536848253" lon="-9.27830724930131"><ele>218.0</ele><time>2026-05-01T11:15:46.033Z</time></trkpt><trkpt lat="38.8780219959898" lon="-9.27829720215374"><ele>218.0</ele><time>2026-05-01T11:15:49.034Z</time></trkpt><trkpt lat="38.878132877169385" lon="-9.27831713920788"><ele>218.0</ele><time>2026-05-01T11:15:51.03Z</time></trkpt><trkpt lat="38.87806518196007" lon="-9.278314788389892"><ele>218.00000000000003</ele><time>2026-05-01T11:15:55.034Z</time></trkpt><trkpt lat="38.878108334494186" lon="-9.278234081534482"><ele>218.0</ele><time>2026-05-01T11:15:56.028Z</time></trkpt><trkpt lat="38.87818666563705" lon="-9.27841816526997"><ele>218.0</ele><time>2026-05-01T11:16:00.013Z</time></trkpt><trkpt lat="38.87825357398974" lon="-9.27840569089834"><ele>218.0</ele><time>2026-05-01T11:16:03.01Z</time></trkpt><trkpt lat="38.87812323966066" lon="-9.278368628452714"><ele>218.0</ele><time>2026-05-01T11:16:05.013Z</time></trkpt><trkpt lat="38.87820215340697" lon="-9.27811609495771"><ele>218.0</ele><time>2026-05-01T11:16:06.021Z</time></trkpt><trkpt lat="38.878377940561045" lon="-9.278179241241741"><ele>218.2</ele><time>2026-05-01T11:16:11.999Z</time></trkpt><trkpt lat="38.87849208502046" lon="-9.278092138726013"><ele>218.4</ele><time>2026-05-01T11:16:22.999Z</time></trkpt><trkpt lat="38.87844404435706" lon="-9.278176661275175"><ele>218.59999999999997</ele><time>2026-05-01T11:16:26.999Z</time></trkpt><trkpt lat="38.87846860186225" lon="-9.278095798935494"><ele>218.79999999999998</ele><time>2026-05-01T11:16:31.999Z</time></trkpt><trkpt lat="38.87852457815622" lon="-9.278001305661567"><ele>219.0</ele><time>2026-05-01T11:16:33.999Z</time></trkpt><trkpt lat="38.878610138832904" lon="-9.277930224171282"><ele>219.0</ele><time>2026-05-01T11:16:36.999Z</time></trkpt><trkpt lat="38.8786710896327" lon="-9.277848308278713"><ele>219.0</ele><time>2026-05-01T11:16:38.999Z</time></trkpt><trkpt lat="38.87869337858528" lon="-9.27777147849937"><ele>219.0</ele><time>2026-05-01T11:16:41.999Z</time></trkpt><trkpt lat="38.87870497697924" lon="-9.277690816701087"><ele>219.0</ele><time>2026-05-01T11:16:45.999Z</time></trkpt><trkpt lat="38.87874239212613" lon="-9.277575495080363"><ele>219.0</ele><time>2026-05-01T11:16:47.999Z</time></trkpt><trkpt lat="38.87875483684262" lon="-9.277485280685747"><ele>219.0</ele><time>2026-05-01T11:16:49.999Z</time></trkpt><trkpt lat="38.87870948654721" lon="-9.277607348472783"><ele>219.0</ele><time>2026-05-01T11:16:50.999Z</time></trkpt><trkpt lat="38.8787945023505" lon="-9.27754132440621"><ele>219.0</ele><time>2026-05-01T11:16:53.999Z</time></trkpt><trkpt lat="38.878607552075344" lon="-9.277784334878211"><ele>219.0</ele><time>2026-05-01T11:16:59.999Z</time></trkpt><trkpt lat="38.87851299144519" lon="-9.277653725566513"><ele>219.0</ele><time>2026-05-01T11:17:05.999Z</time></trkpt><trkpt lat="38.87848842157817" lon="-9.27778064287439"><ele>219.0</ele><time>2026-05-01T11:17:08.999Z</time></trkpt><trkpt lat="38.87836540666662" lon="-9.27805750757019"><ele>219.0</ele><time>2026-05-01T11:17:10.999Z</time></trkpt><trkpt lat="38.87832784885827" lon="-9.278150848350315"><ele>219.0</ele><time>2026-05-01T11:17:11.999Z</time></trkpt><trkpt lat="38.878291804061845" lon="-9.278249370368162"><ele>218.83333333333334</ele><time>2026-05-01T11:17:14.999Z</time></trkpt><trkpt lat="38.87834268381535" lon="-9.278373343304473"><ele>218.66666666666669</ele><time>2026-05-01T11:26:13.999Z</time></trkpt><trkpt lat="38.878279788473655" lon="-9.27834560511733"><ele>218.5</ele><time>2026-05-01T11:26:19.999Z</time></trkpt><trkpt lat="38.87821183772484" lon="-9.278345810911427"><ele>218.33333333333334</ele><time>2026-05-01T11:27:27.999Z</time></trkpt><trkpt lat="38.87815323138508" lon="-9.278310582505577"><ele>218.16666666666669</ele><time>2026-05-01T11:27:36.999Z</time></trkpt><trkpt lat="38.878090891901444" lon="-9.278279022025545"><ele>218.0</ele><time>2026-05-01T11:27:39.999Z</time></trkpt><trkpt lat="38.878012180494196" lon="-9.278252691924711"><ele>218.00000000000003</ele><time>2026-05-01T11:27:42.999Z</time></trkpt><trkpt lat="38.877939737085434" lon="-9.278238004022345"><ele>218.0</ele><time>2026-05-01T11:27:45.999Z</time></trkpt><trkpt lat="38.877876223859026" lon="-9.278228455676857"><ele>218.0</ele><time>2026-05-01T11:27:48.999Z</time></trkpt><trkpt lat="38.8777842524488" lon="-9.278203443397773"><ele>218.0</ele><time>2026-05-01T11:27:50.999Z</time></trkpt><trkpt lat="38.87771244085314" lon="-9.278162135454533"><ele>218.00000000000003</ele><time>2026-05-01T11:27:52.999Z</time></trkpt><trkpt lat="38.8776172920598" lon="-9.278112114755972"><ele>218.0</ele><time>2026-05-01T11:27:54.999Z</time></trkpt><trkpt lat="38.87755882939268" lon="-9.27807960771724"><ele>218.00000000000003</ele><time>2026-05-01T11:27:56.999Z</time></trkpt><trkpt lat="38.87760624341009" lon="-9.277989092242095"><ele>218.0</ele><time>2026-05-01T11:27:58.999Z</time></trkpt><trkpt lat="38.87767011087997" lon="-9.278107457571842"><ele>218.0</ele><time>2026-05-01T11:28:00.999Z</time></trkpt><trkpt lat="38.87772995644431" lon="-9.278182958466036"><ele>218.0</ele><time>2026-05-01T11:28:02.999Z</time></trkpt><trkpt lat="38.877801559399025" lon="-9.278160195797781"><ele>218.00000000000003</ele><time>2026-05-01T11:28:04.999Z</time></trkpt><trkpt lat="38.87785163403976" lon="-9.278220739432726"><ele>218.0</ele><time>2026-05-01T11:28:13.999Z</time></trkpt><trkpt lat="38.877926117001046" lon="-9.278230016917208"><ele>218.00000000000003</ele><time>2026-05-01T11:28:15.999Z</time></trkpt><trkpt lat="38.877996125976104" lon="-9.278243729075013"><ele>218.0</ele><time>2026-05-01T11:28:17.999Z</time></trkpt><trkpt lat="38.8780613254734" lon="-9.27826163297453"><ele>218.0</ele><time>2026-05-01T11:28:20.999Z</time></trkpt><trkpt lat="38.87800592153864" lon="-9.278202136069567"><ele>218.0</ele><time>2026-05-01T11:28:31.999Z</time></trkpt><trkpt lat="38.87790433309464" lon="-9.27820190701886"><ele>218.00000000000003</ele><time>2026-05-01T11:28:33.999Z</time></trkpt><trkpt lat="38.8777773788811" lon="-9.27817494051063"><ele>218.0</ele><time>2026-05-01T11:28:35.999Z</time></trkpt><trkpt lat="38.87771420920092" lon="-9.278151598402202"><ele>218.0</ele><time>2026-05-01T11:28:36.999Z</time></trkpt><trkpt lat="38.877646541510465" lon="-9.278134090973698"><ele>218.0</ele><time>2026-05-01T11:28:37.999Z</time></trkpt><trkpt lat="38.877595026833085" lon="-9.278082693694522"><ele>218.0</ele><time>2026-05-01T11:28:39.999Z</time></trkpt><trkpt lat="38.87770283289212" lon="-9.277941868342847"><ele>218.0</ele><time>2026-05-01T11:28:40.999Z</time></trkpt><trkpt lat="38.87778236997243" lon="-9.277899260557648"><ele>218.0</ele><time>2026-05-01T11:28:41.999Z</time></trkpt><trkpt lat="38.877854562674244" lon="-9.277841165926265"><ele>218.33333333333334</ele><time>2026-05-01T11:28:42.999Z</time></trkpt><trkpt lat="38.87792982335559" lon="-9.277773293979362"><ele>218.66666666666669</ele><time>2026-05-01T11:28:43.999Z</time></trkpt><trkpt lat="38.87799520446435" lon="-9.277710694728682"><ele>219.0</ele><time>2026-05-01T11:28:44.999Z</time></trkpt><trkpt lat="38.87804378670068" lon="-9.277629998722807"><ele>219.33333333333331</ele><time>2026-05-01T11:28:45.999Z</time></trkpt><trkpt lat="38.87811033661228" lon="-9.277563362706301"><ele>219.66666666666666</ele><time>2026-05-01T11:28:46.999Z</time></trkpt><trkpt lat="38.8781807008798" lon="-9.277510203950765"><ele>220.0</ele><time>2026-05-01T11:28:47.999Z</time></trkpt><trkpt lat="38.878251610160106" lon="-9.277467438154725"><ele>219.99999999999997</ele><time>2026-05-01T11:28:48.999Z</time></trkpt><trkpt lat="38.878339072311704" lon="-9.277474432200604"><ele>220.0</ele><time>2026-05-01T11:28:49.999Z</time></trkpt><trkpt lat="38.87842011219946" lon="-9.277513144374952"><ele>220.0</ele><time>2026-05-01T11:28:50.999Z</time></trkpt><trkpt lat="38.878499701163" lon="-9.277552983394388"><ele>220.0</ele><time>2026-05-01T11:28:51.999Z</time></trkpt><trkpt lat="38.878570690394355" lon="-9.277623607128469"><ele>219.99999999999997</ele><time>2026-05-01T11:28:52.999Z</time></trkpt><trkpt lat="38.87863538227134" lon="-9.277689125784953"><ele>220.0</ele><time>2026-05-01T11:28:53.999Z</time></trkpt><trkpt lat="38.87871408642639" lon="-9.277733556195347"><ele>219.8</ele><time>2026-05-01T11:28:55.999Z</time></trkpt><trkpt lat="38.87874590057717" lon="-9.277616322539515"><ele>219.6</ele><time>2026-05-01T11:28:56.999Z</time></trkpt><trkpt lat="38.878797596390534" lon="-9.277517811087774"><ele>219.39999999999998</ele><time>2026-05-01T11:28:57.999Z</time></trkpt><trkpt lat="38.87885580630077" lon="-9.27740688613745"><ele>219.2</ele><time>2026-05-01T11:28:58.999Z</time></trkpt><trkpt lat="38.878924729062696" lon="-9.277275548624077"><ele>219.0</ele><time>2026-05-01T11:28:59.999Z</time></trkpt><trkpt lat="38.879014800661636" lon="-9.277142314106538"><ele>219.5</ele><time>2026-05-01T11:29:00.999Z</time></trkpt><trkpt lat="38.879088642392375" lon="-9.276995361582548"><ele>220.0</ele><time>2026-05-01T11:29:01.999Z</time></trkpt><trkpt lat="38.87916663125099" lon="-9.27685133100627"><ele>220.5</ele><time>2026-05-01T11:29:02.999Z</time></trkpt><trkpt lat="38.879218245746046" lon="-9.276699348390222"><ele>221.0</ele><time>2026-05-01T11:29:03.999Z</time></trkpt><trkpt lat="38.87925285157364" lon="-9.276555792303752"><ele>221.0</ele><time>2026-05-01T11:29:04.999Z</time></trkpt><trkpt lat="38.8792380266496" lon="-9.276441760024934"><ele>221.00000000000003</ele><time>2026-05-01T11:29:05.999Z</time></trkpt><trkpt lat="38.879202843634474" lon="-9.276314004395786"><ele>221.00000000000003</ele><time>2026-05-01T11:29:06.999Z</time></trkpt><trkpt lat="38.87910701055269" lon="-9.276239216045166"><ele>221.0</ele><time>2026-05-01T11:29:07.999Z</time></trkpt><trkpt lat="38.879007177513756" lon="-9.276153102949598"><ele>221.0</ele><time>2026-05-01T11:29:08.999Z</time></trkpt><trkpt lat="38.87889976203752" lon="-9.27605189033992"><ele>222.0</ele><time>2026-05-01T11:29:09.999Z</time></trkpt><trkpt lat="38.87879123777659" lon="-9.275949634158907"><ele>223.0</ele><time>2026-05-01T11:29:10.999Z</time></trkpt><trkpt lat="38.87867852303433" lon="-9.275841987770043"><ele>224.0</ele><time>2026-05-01T11:29:11.999Z</time></trkpt><trkpt lat="38.87857659970728" lon="-9.275709115442673"><ele>225.0</ele><time>2026-05-01T11:29:12.999Z</time></trkpt><trkpt lat="38.87847805829467" lon="-9.275591332064476"><ele>225.5</ele><time>2026-05-01T11:29:13.999Z</time></trkpt><trkpt lat="38.87839763831764" lon="-9.275446157809277"><ele>226.0</ele><time>2026-05-01T11:29:14.999Z</time></trkpt><trkpt lat="38.878337820989444" lon="-9.275281872941585"><ele>226.5</ele><time>2026-05-01T11:29:15.999Z</time></trkpt><trkpt lat="38.87829228622086" lon="-9.275103906588246"><ele>227.0</ele><time>2026-05-01T11:29:16.999Z</time></trkpt><trkpt lat="38.87827560274403" lon="-9.274915606837686"><ele>227.66666666666669</ele><time>2026-05-01T11:29:17.999Z</time></trkpt><trkpt lat="38.87828323686974" lon="-9.274722671608853"><ele>228.33333333333331</ele><time>2026-05-01T11:29:18.999Z</time></trkpt><trkpt lat="38.878300983051616" lon="-9.274527502293584"><ele>229.0</ele><time>2026-05-01T11:29:19.999Z</time></trkpt><trkpt lat="38.878320561526074" lon="-9.274306538584852"><ele>229.0</ele><time>2026-05-01T11:29:20.999Z</time></trkpt><trkpt lat="38.87833258935821" lon="-9.274090595604724"><ele>229.0</ele><time>2026-05-01T11:29:21.999Z</time></trkpt><trkpt lat="38.87831706308148" lon="-9.273867839370741"><ele>229.0</ele><time>2026-05-01T11:29:22.999Z</time></trkpt><trkpt lat="38.878243579311544" lon="-9.273663135838797"><ele>229.33333333333331</ele><time>2026-05-01T11:29:23.999Z</time></trkpt><trkpt lat="38.87816858147494" lon="-9.273453170211793"><ele>229.66666666666669</ele><time>2026-05-01T11:29:24.999Z</time></trkpt><trkpt lat="38.8780745241903" lon="-9.273234573611669"><ele>230.0</ele><time>2026-05-01T11:29:25.999Z</time></trkpt><trkpt lat="38.8779842137636" lon="-9.273002336496019"><ele>230.33333333333334</ele><time>2026-05-01T11:29:26.999Z</time></trkpt><trkpt lat="38.87786563250775" lon="-9.272788165230095"><ele>230.66666666666669</ele><time>2026-05-01T11:29:27.999Z</time></trkpt><trkpt lat="38.87775239607188" lon="-9.27254623001198"><ele>231.0</ele><time>2026-05-01T11:29:28.999Z</time></trkpt><trkpt lat="38.87764494372041" lon="-9.272308779973505"><ele>232.66666666666669</ele><time>2026-05-01T11:29:29.999Z</time></trkpt><trkpt lat="38.87756003873159" lon="-9.272050075229984"><ele>234.33333333333334</ele><time>2026-05-01T11:29:30.999Z</time></trkpt><trkpt lat="38.87746719440692" lon="-9.271790391894214"><ele>236.0</ele><time>2026-05-01T11:29:31.999Z</time></trkpt><trkpt lat="38.877397475765044" lon="-9.271518901112353"><ele>237.0</ele><time>2026-05-01T11:29:32.999Z</time></trkpt><trkpt lat="38.877351073167084" lon="-9.27122085629886"><ele>238.0</ele><time>2026-05-01T11:29:33.999Z</time></trkpt><trkpt lat="38.87732320171964" lon="-9.270915056940515"><ele>238.0</ele><time>2026-05-01T11:29:34.999Z</time></trkpt><trkpt lat="38.8773035360286" lon="-9.2706109153678"><ele>238.0</ele><time>2026-05-01T11:29:35.999Z</time></trkpt><trkpt lat="38.87728429956224" lon="-9.270302513167904"><ele>238.0</ele><time>2026-05-01T11:29:36.999Z</time></trkpt><trkpt lat="38.87726450292018" lon="-9.269994581119855"><ele>238.0</ele><time>2026-05-01T11:29:37.999Z</time></trkpt><trkpt lat="38.87723968207432" lon="-9.269690056661467"><ele>239.0</ele><time>2026-05-01T11:29:38.999Z</time></trkpt><trkpt lat="38.877215025086024" lon="-9.269411900996882"><ele>240.0</ele><time>2026-05-01T11:29:39.999Z</time></trkpt><trkpt lat="38.877191783597496" lon="-9.269189353153019"><ele>241.0</ele><time>2026-05-01T11:29:40.999Z</time></trkpt><trkpt lat="38.87718144113318" lon="-9.269029117445422"><ele>240.99999999999997</ele><time>2026-05-01T11:29:41.999Z</time></trkpt><trkpt lat="38.877170058232984" lon="-9.268926174757025"><ele>241.0</ele><time>2026-05-01T11:29:42.999Z</time></trkpt><trkpt lat="38.877234347414095" lon="-9.269011433003964"><ele>241.0</ele><time>2026-05-01T11:29:45.999Z</time></trkpt><trkpt lat="38.877320675068795" lon="-9.269055482567756"><ele>241.0</ele><time>2026-05-01T11:29:47.999Z</time></trkpt><trkpt lat="38.87735353319749" lon="-9.269160020464081"><ele>240.99999999999997</ele><time>2026-05-01T11:29:49.999Z</time></trkpt><trkpt lat="38.87736046570546" lon="-9.269246383697324"><ele>241.0</ele><time>2026-05-01T11:29:52.999Z</time></trkpt><trkpt lat="38.877362933486715" lon="-9.26933281935629"><ele>241.0</ele><time>2026-05-01T11:33:16Z</time></trkpt><trkpt lat="38.87738116940633" lon="-9.269410401707393"><ele>241.00000000000003</ele><time>2026-05-01T11:33:21Z</time></trkpt><trkpt lat="38.877396949181275" lon="-9.269490486445182"><ele>241.0</ele><time>2026-05-01T11:33:28Z</time></trkpt><trkpt lat="38.877373284146515" lon="-9.269410734870435"><ele>241.0</ele><time>2026-05-01T11:33:44Z</time></trkpt><trkpt lat="38.87740244446896" lon="-9.26932229829922"><ele>241.00000000000003</ele><time>2026-05-01T11:33:50Z</time></trkpt><trkpt lat="38.8774025895762" lon="-9.26918578378153"><ele>241.0</ele><time>2026-05-01T11:34:23Z</time></trkpt><trkpt lat="38.8773791453194" lon="-9.269270816851112"><ele>241.0</ele><time>2026-05-01T11:35:20Z</time></trkpt><trkpt lat="38.87736267823181" lon="-9.269377214715764"><ele>241.0</ele><time>2026-05-01T11:35:30Z</time></trkpt><trkpt lat="38.87733306531704" lon="-9.2694502360608"><ele>241.00000000000003</ele><time>2026-05-01T11:35:32Z</time></trkpt><trkpt lat="38.87730440333727" lon="-9.269543031164313"><ele>241.0</ele><time>2026-05-01T11:35:36Z</time></trkpt><trkpt lat="38.87733924301253" lon="-9.269463425508329"><ele>241.0</ele><time>2026-05-01T11:35:47Z</time></trkpt><trkpt lat="38.87736284129594" lon="-9.269382869300342"><ele>241.00000000000003</ele><time>2026-05-01T11:35:53Z</time></trkpt><trkpt lat="38.87733516356468" lon="-9.269456731611964"><ele>241.0</ele><time>2026-05-01T11:36:01Z</time></trkpt><trkpt lat="38.87731593949168" lon="-9.26954741023403"><ele>241.0</ele><time>2026-05-01T11:36:04Z</time></trkpt><trkpt lat="38.87728031687255" lon="-9.26966588533987"><ele>240.49999999999997</ele><time>2026-05-01T11:37:05Z</time></trkpt><trkpt lat="38.877285634054765" lon="-9.26980953546452"><ele>240.0</ele><time>2026-05-01T11:37:07Z</time></trkpt><trkpt lat="38.8772934371526" lon="-9.2698980805068"><ele>239.5</ele><time>2026-05-01T11:37:08Z</time></trkpt><trkpt lat="38.87730581259685" lon="-9.270000211268984"><ele>239.0</ele><time>2026-05-01T11:37:09Z</time></trkpt><trkpt lat="38.87730988840074" lon="-9.270094003366449"><ele>238.49999999999997</ele><time>2026-05-01T11:37:10Z</time></trkpt><trkpt lat="38.87731397256702" lon="-9.270204262230877"><ele>238.0</ele><time>2026-05-01T11:37:11Z</time></trkpt><trkpt lat="38.877321298452635" lon="-9.270321672244732"><ele>238.0</ele><time>2026-05-01T11:37:12Z</time></trkpt><trkpt lat="38.87733662753098" lon="-9.270445711366788"><ele>238.0</ele><time>2026-05-01T11:37:13Z</time></trkpt><trkpt lat="38.87735201557562" lon="-9.270573125342786"><ele>238.0</ele><time>2026-05-01T11:37:14Z</time></trkpt><trkpt lat="38.877369985878026" lon="-9.270713719739161"><ele>238.0</ele><time>2026-05-01T11:37:15Z</time></trkpt><trkpt lat="38.8773871311057" lon="-9.270852989046919"><ele>238.0</ele><time>2026-05-01T11:37:16Z</time></trkpt><trkpt lat="38.87739744236078" lon="-9.2709859650321"><ele>238.0</ele><time>2026-05-01T11:37:17Z</time></trkpt><trkpt lat="38.877413904937" lon="-9.27112975457436"><ele>238.0</ele><time>2026-05-01T11:37:18Z</time></trkpt><trkpt lat="38.87742810696503" lon="-9.271268555575704"><ele>238.0</ele><time>2026-05-01T11:37:19Z</time></trkpt><trkpt lat="38.877446302224094" lon="-9.271415258523442"><ele>238.0</ele><time>2026-05-01T11:37:20Z</time></trkpt><trkpt lat="38.877471526417104" lon="-9.271567445631835"><ele>237.5</ele><time>2026-05-01T11:37:21Z</time></trkpt><trkpt lat="38.877504232824634" lon="-9.271724627484568"><ele>237.0</ele><time>2026-05-01T11:37:22Z</time></trkpt><trkpt lat="38.87754100183975" lon="-9.27187557058724"><ele>236.5</ele><time>2026-05-01T11:37:23Z</time></trkpt><trkpt lat="38.877584348119484" lon="-9.272009114522549"><ele>236.0</ele><time>2026-05-01T11:37:24Z</time></trkpt><trkpt lat="38.87763614588466" lon="-9.272137966215457"><ele>234.75</ele><time>2026-05-01T11:37:25Z</time></trkpt><trkpt lat="38.87768862588729" lon="-9.272273881447656"><ele>233.5</ele><time>2026-05-01T11:37:26Z</time></trkpt><trkpt lat="38.87774291460533" lon="-9.27240761301143"><ele>232.25</ele><time>2026-05-01T11:37:27Z</time></trkpt><trkpt lat="38.87780024270191" lon="-9.272538894563613"><ele>231.0</ele><time>2026-05-01T11:37:28Z</time></trkpt><trkpt lat="38.877862842109735" lon="-9.272674859876048"><ele>231.0</ele><time>2026-05-01T11:37:29Z</time></trkpt><trkpt lat="38.877923899512545" lon="-9.272811397640476"><ele>231.0</ele><time>2026-05-01T11:37:30Z</time></trkpt><trkpt lat="38.87798717614883" lon="-9.272952113751657"><ele>231.0</ele><time>2026-05-01T11:37:31Z</time></trkpt><trkpt lat="38.8780523195597" lon="-9.273093049511424"><ele>231.0</ele><time>2026-05-01T11:37:32Z</time></trkpt><trkpt lat="38.87812130659007" lon="-9.273238257322264"><ele>230.75</ele><time>2026-05-01T11:37:33Z</time></trkpt><trkpt lat="38.87818383750968" lon="-9.273382075867005"><ele>230.5</ele><time>2026-05-01T11:37:34Z</time></trkpt><trkpt lat="38.878242214439545" lon="-9.273533917134502"><ele>230.25</ele><time>2026-05-01T11:37:35Z</time></trkpt><trkpt lat="38.878291486619695" lon="-9.273689167613059"><ele>230.0</ele><time>2026-05-01T11:37:36Z</time></trkpt><trkpt lat="38.87834289188585" lon="-9.273828301973671"><ele>229.75</ele><time>2026-05-01T11:37:37Z</time></trkpt><trkpt lat="38.87838528066731" lon="-9.273949956818898"><ele>229.5</ele><time>2026-05-01T11:37:38Z</time></trkpt><trkpt lat="38.878522254498876" lon="-9.273967349053484"><ele>229.25</ele><time>2026-05-01T11:37:39Z</time></trkpt><trkpt lat="38.878655092326554" lon="-9.273986556585578"><ele>229.0</ele><time>2026-05-01T11:37:40Z</time></trkpt><trkpt lat="38.878812563580524" lon="-9.274013071504347"><ele>229.66666666666666</ele><time>2026-05-01T11:37:41Z</time></trkpt><trkpt lat="38.87897662381562" lon="-9.274062522478093"><ele>230.33333333333331</ele><time>2026-05-01T11:37:42Z</time></trkpt><trkpt lat="38.87914910455878" lon="-9.274068505416029"><ele>231.0</ele><time>2026-05-01T11:37:43Z</time></trkpt><trkpt lat="38.87933020449928" lon="-9.274093084663692"><ele>231.0</ele><time>2026-05-01T11:37:44Z</time></trkpt><trkpt lat="38.87951157058795" lon="-9.274120644741615"><ele>231.0</ele><time>2026-05-01T11:37:45Z</time></trkpt><trkpt lat="38.87969474129242" lon="-9.274155558586905"><ele>231.0</ele><time>2026-05-01T11:37:46Z</time></trkpt><trkpt lat="38.87986271835327" lon="-9.274220822744091"><ele>231.0</ele><time>2026-05-01T11:37:47Z</time></trkpt><trkpt lat="38.88001618092744" lon="-9.274261153177484"><ele>231.0</ele><time>2026-05-01T11:37:48Z</time></trkpt><trkpt lat="38.88013765015671" lon="-9.274268199951477"><ele>231.0</ele><time>2026-05-01T11:37:49Z</time></trkpt><trkpt lat="38.88024100201646" lon="-9.274230015851698"><ele>231.0</ele><time>2026-05-01T11:37:50Z</time></trkpt><trkpt lat="38.88036649013453" lon="-9.274178486005699"><ele>232.5</ele><time>2026-05-01T11:37:51Z</time></trkpt><trkpt lat="38.88048938282736" lon="-9.274106271606327"><ele>234.0</ele><time>2026-05-01T11:37:52Z</time></trkpt><trkpt lat="38.880610408440724" lon="-9.274014292853678"><ele>235.5</ele><time>2026-05-01T11:37:53Z</time></trkpt><trkpt lat="38.88070504446093" lon="-9.273927981638545"><ele>237.0</ele><time>2026-05-01T11:37:54Z</time></trkpt><trkpt lat="38.880763292524485" lon="-9.273856876118286"><ele>237.0</ele><time>2026-05-01T11:37:55Z</time></trkpt><trkpt lat="38.880849283052044" lon="-9.273786207354773"><ele>237.0</ele><time>2026-05-01T11:37:57Z</time></trkpt><trkpt lat="38.88092688256984" lon="-9.274089340965759"><ele>237.0</ele><time>2026-05-01T11:37:58Z</time></trkpt><trkpt lat="38.880988467637934" lon="-9.274220991287658"><ele>238.6</ele><time>2026-05-01T11:37:59Z</time></trkpt><trkpt lat="38.88105345114301" lon="-9.274349463175085"><ele>240.2</ele><time>2026-05-01T11:38:00Z</time></trkpt><trkpt lat="38.88111586942924" lon="-9.27447141747822"><ele>241.8</ele><time>2026-05-01T11:38:01Z</time></trkpt><trkpt lat="38.881155250034276" lon="-9.274567055811728"><ele>243.4</ele><time>2026-05-01T11:38:02Z</time></trkpt><trkpt lat="38.881224951638046" lon="-9.27464248749815"><ele>245.0</ele><time>2026-05-01T11:38:03Z</time></trkpt><trkpt lat="38.881058341399374" lon="-9.27477012556154"><ele>245.75</ele><time>2026-05-01T11:38:04Z</time></trkpt><trkpt lat="38.88099680606109" lon="-9.274887293769979"><ele>246.5</ele><time>2026-05-01T11:38:05Z</time></trkpt><trkpt lat="38.88095382197529" lon="-9.274986962926224"><ele>247.25</ele><time>2026-05-01T11:38:06Z</time></trkpt><trkpt lat="38.88103604657941" lon="-9.2751461307446"><ele>248.0</ele><time>2026-05-01T11:38:08Z</time></trkpt><trkpt lat="38.881113168405705" lon="-9.27524761814992"><ele>248.0</ele><time>2026-05-01T11:38:09Z</time></trkpt><trkpt lat="38.88119774370971" lon="-9.275360469699823"><ele>248.0</ele><time>2026-05-01T11:38:10Z</time></trkpt><trkpt lat="38.881286574730254" lon="-9.275483695736481"><ele>248.0</ele><time>2026-05-01T11:38:11Z</time></trkpt><trkpt lat="38.88137566077742" lon="-9.275621923468954"><ele>248.0</ele><time>2026-05-01T11:38:12Z</time></trkpt><trkpt lat="38.88148333070874" lon="-9.275758868116492"><ele>247.75</ele><time>2026-05-01T11:38:13Z</time></trkpt><trkpt lat="38.881593292439064" lon="-9.275880227406944"><ele>247.5</ele><time>2026-05-01T11:38:14Z</time></trkpt><trkpt lat="38.88169471970781" lon="-9.275975918117572"><ele>247.25</ele><time>2026-05-01T11:38:15Z</time></trkpt><trkpt lat="38.88176319589458" lon="-9.276076665402357"><ele>247.0</ele><time>2026-05-01T11:38:16Z</time></trkpt><trkpt lat="38.881826604918984" lon="-9.276139943396588"><ele>247.0</ele><time>2026-05-01T11:38:17Z</time></trkpt><trkpt lat="38.88189354586361" lon="-9.276167812030199"><ele>247.0</ele><time>2026-05-01T11:38:18Z</time></trkpt><trkpt lat="38.881934364143696" lon="-9.276288429319882"><ele>247.0</ele><time>2026-05-01T11:38:19Z</time></trkpt><trkpt lat="38.882097672270504" lon="-9.276117625293557"><ele>247.0</ele><time>2026-05-01T11:38:20Z</time></trkpt><trkpt lat="38.88220240834132" lon="-9.276091239872034"><ele>247.0</ele><time>2026-05-01T11:38:21Z</time></trkpt><trkpt lat="38.88232824763655" lon="-9.2760497604558"><ele>247.0</ele><time>2026-05-01T11:38:22Z</time></trkpt><trkpt lat="38.88245934237332" lon="-9.276002417874484"><ele>247.0</ele><time>2026-05-01T11:38:23Z</time></trkpt><trkpt lat="38.882595428011406" lon="-9.275981020873092"><ele>247.0</ele><time>2026-05-01T11:38:24Z</time></trkpt><trkpt lat="38.88271140251354" lon="-9.275950728179922"><ele>248.2</ele><time>2026-05-01T11:38:25Z</time></trkpt><trkpt lat="38.882804846458505" lon="-9.275925199118545"><ele>249.39999999999998</ele><time>2026-05-01T11:38:26Z</time></trkpt><trkpt lat="38.882901515952675" lon="-9.275933076916283"><ele>250.60000000000002</ele><time>2026-05-01T11:38:27Z</time></trkpt><trkpt lat="38.882992790782694" lon="-9.275964758303745"><ele>251.8</ele><time>2026-05-01T11:38:28Z</time></trkpt><trkpt lat="38.88308147724066" lon="-9.276036401944816"><ele>253.0</ele><time>2026-05-01T11:38:29Z</time></trkpt><trkpt lat="38.88318944525515" lon="-9.276123681558943"><ele>253.0</ele><time>2026-05-01T11:38:30Z</time></trkpt><trkpt lat="38.88328994090089" lon="-9.276223642467368"><ele>253.0</ele><time>2026-05-01T11:38:31Z</time></trkpt><trkpt lat="38.88339430944394" lon="-9.276315011603295"><ele>253.0</ele><time>2026-05-01T11:38:32Z</time></trkpt><trkpt lat="38.883500694668776" lon="-9.276366540479861"><ele>253.0</ele><time>2026-05-01T11:38:33Z</time></trkpt><trkpt lat="38.88359570715869" lon="-9.276418856252697"><ele>253.8</ele><time>2026-05-01T11:38:34Z</time></trkpt><trkpt lat="38.88369038055384" lon="-9.276454914716487"><ele>254.60000000000002</ele><time>2026-05-01T11:38:35Z</time></trkpt><trkpt lat="38.88378184774287" lon="-9.276484380102273"><ele>255.39999999999998</ele><time>2026-05-01T11:38:36Z</time></trkpt><trkpt lat="38.88386875102479" lon="-9.27650960346254"><ele>256.2</ele><time>2026-05-01T11:38:37Z</time></trkpt><trkpt lat="38.88394755326858" lon="-9.276529167509683"><ele>257.0</ele><time>2026-05-01T11:38:38Z</time></trkpt><trkpt lat="38.88403684847393" lon="-9.276550282319324"><ele>257.0</ele><time>2026-05-01T11:38:39Z</time></trkpt><trkpt lat="38.88412705963878" lon="-9.276582944142813"><ele>257.0</ele><time>2026-05-01T11:38:40Z</time></trkpt><trkpt lat="38.884213050817735" lon="-9.276610849286696"><ele>257.0</ele><time>2026-05-01T11:38:41Z</time></trkpt><trkpt lat="38.88430567831734" lon="-9.276648761632957"><ele>257.0</ele><time>2026-05-01T11:38:42Z</time></trkpt><trkpt lat="38.88436739693965" lon="-9.276674832314963"><ele>257.0</ele><time>2026-05-01T11:38:43Z</time></trkpt><trkpt lat="38.88443976339678" lon="-9.276512410290893"><ele>257.0</ele><time>2026-05-01T11:38:44Z</time></trkpt><trkpt lat="38.884544277307285" lon="-9.276421090154864"><ele>257.0</ele><time>2026-05-01T11:38:45Z</time></trkpt><trkpt lat="38.884644982713304" lon="-9.27632117827084"><ele>257.0</ele><time>2026-05-01T11:38:46Z</time></trkpt><trkpt lat="38.88472863424248" lon="-9.276224245217565"><ele>257.0</ele><time>2026-05-01T11:38:47Z</time></trkpt><trkpt lat="38.8847926281099" lon="-9.276111259489769"><ele>257.0</ele><time>2026-05-01T11:38:48Z</time></trkpt><trkpt lat="38.88485573847935" lon="-9.275979266517897"><ele>257.0</ele><time>2026-05-01T11:38:49Z</time></trkpt><trkpt lat="38.884914605812924" lon="-9.275861688591917"><ele>257.0</ele><time>2026-05-01T11:38:50Z</time></trkpt><trkpt lat="38.8850033748736" lon="-9.275743252524407"><ele>257.0</ele><time>2026-05-01T11:38:51Z</time></trkpt><trkpt lat="38.88510014867332" lon="-9.275623487429206"><ele>258.0</ele><time>2026-05-01T11:38:52Z</time></trkpt><trkpt lat="38.88521281624909" lon="-9.275512853598707"><ele>259.0</ele><time>2026-05-01T11:38:53Z</time></trkpt><trkpt lat="38.88534441150083" lon="-9.275412906819339"><ele>260.0</ele><time>2026-05-01T11:38:54Z</time></trkpt><trkpt lat="38.88544285411599" lon="-9.275297095807833"><ele>261.0</ele><time>2026-05-01T11:38:55Z</time></trkpt><trkpt lat="38.88551762626102" lon="-9.275207041024016"><ele>261.0</ele><time>2026-05-01T11:38:56Z</time></trkpt><trkpt lat="38.88558353340952" lon="-9.27511741579285"><ele>261.0</ele><time>2026-05-01T11:38:57Z</time></trkpt><trkpt lat="38.88563617016039" lon="-9.275046921357568"><ele>261.0</ele><time>2026-05-01T11:38:58Z</time></trkpt><trkpt lat="38.88568935264025" lon="-9.27499981586888"><ele>261.0</ele><time>2026-05-01T11:38:59Z</time></trkpt><trkpt lat="38.8857426583708" lon="-9.274937103936846"><ele>261.0</ele><time>2026-05-01T11:39:01Z</time></trkpt><trkpt lat="38.885841953881446" lon="-9.275143639901131"><ele>261.0</ele><time>2026-05-01T11:39:02Z</time></trkpt><trkpt lat="38.885909109147384" lon="-9.275241548079162"><ele>261.0</ele><time>2026-05-01T11:39:03Z</time></trkpt><trkpt lat="38.88596165846913" lon="-9.275316602151523"><ele>261.0</ele><time>2026-05-01T11:39:04Z</time></trkpt><trkpt lat="38.88601382424837" lon="-9.275393749218383"><ele>261.0</ele><time>2026-05-01T11:39:05Z</time></trkpt><trkpt lat="38.88606165129119" lon="-9.275453034393056"><ele>261.0</ele><time>2026-05-01T11:39:06Z</time></trkpt><trkpt lat="38.886153933190634" lon="-9.275520191597874"><ele>261.0</ele><time>2026-05-01T11:39:08Z</time></trkpt><trkpt lat="38.88624281138731" lon="-9.275610738218221"><ele>260.5</ele><time>2026-05-01T11:39:10Z</time></trkpt><trkpt lat="38.88630809306263" lon="-9.275656448003222"><ele>260.0</ele><time>2026-05-01T11:39:11Z</time></trkpt><trkpt lat="38.886378409863916" lon="-9.275701840643658"><ele>259.5</ele><time>2026-05-01T11:39:12Z</time></trkpt><trkpt lat="38.886444950442176" lon="-9.275743156400639"><ele>259.0</ele><time>2026-05-01T11:39:13Z</time></trkpt><trkpt lat="38.8865052138677" lon="-9.275780573678166"><ele>258.5</ele><time>2026-05-01T11:39:14Z</time></trkpt><trkpt lat="38.88657178036241" lon="-9.2758219043132"><ele>258.0</ele><time>2026-05-01T11:39:15Z</time></trkpt><trkpt lat="38.88674325049409" lon="-9.275577002014048"><ele>258.2</ele><time>2026-05-01T11:39:16Z</time></trkpt><trkpt lat="38.886843543243096" lon="-9.275561560087695"><ele>258.4</ele><time>2026-05-01T11:39:17Z</time></trkpt><trkpt lat="38.88694249914921" lon="-9.275553728272362"><ele>258.59999999999997</ele><time>2026-05-01T11:39:18Z</time></trkpt><trkpt lat="38.88704644165792" lon="-9.275544559062626"><ele>258.8</ele><time>2026-05-01T11:39:19Z</time></trkpt><trkpt lat="38.88712844590785" lon="-9.275539340823897"><ele>259.0</ele><time>2026-05-01T11:39:20Z</time></trkpt><trkpt lat="38.88720797173312" lon="-9.275545205919988"><ele>259.0</ele><time>2026-05-01T11:39:21Z</time></trkpt><trkpt lat="38.88727984561981" lon="-9.275538930215125"><ele>259.0</ele><time>2026-05-01T11:39:22Z</time></trkpt><trkpt lat="38.887345919847675" lon="-9.275535759616924"><ele>259.0</ele><time>2026-05-01T11:39:23Z</time></trkpt><trkpt lat="38.88741488691298" lon="-9.275535695301018"><ele>259.0</ele><time>2026-05-01T11:39:24Z</time></trkpt><trkpt lat="38.88748524231675" lon="-9.275530971023093"><ele>259.0</ele><time>2026-05-01T11:39:25Z</time></trkpt><trkpt lat="38.887598297360185" lon="-9.27558506315389"><ele>259.0</ele><time>2026-05-01T11:39:27Z</time></trkpt><trkpt lat="38.887622586919015" lon="-9.275722811591594"><ele>257.8</ele><time>2026-05-01T11:39:29Z</time></trkpt><trkpt lat="38.88759104483161" lon="-9.275794453962428"><ele>256.59999999999997</ele><time>2026-05-01T11:39:30Z</time></trkpt><trkpt lat="38.8874684093174" lon="-9.27580848333346"><ele>255.4</ele><time>2026-05-01T11:39:32Z</time></trkpt><trkpt lat="38.887362363970496" lon="-9.275866076946569"><ele>254.2</ele><time>2026-05-01T11:39:34Z</time></trkpt><trkpt lat="38.88726179706723" lon="-9.275936178188939"><ele>253.0</ele><time>2026-05-01T11:39:36Z</time></trkpt><trkpt lat="38.88717923853412" lon="-9.276009959681339"><ele>253.0</ele><time>2026-05-01T11:39:38Z</time></trkpt><trkpt lat="38.88709843841176" lon="-9.276091763554609"><ele>253.0</ele><time>2026-05-01T11:39:40Z</time></trkpt><trkpt lat="38.88703007208518" lon="-9.276202684993525"><ele>253.0</ele><time>2026-05-01T11:39:42Z</time></trkpt><trkpt lat="38.88693523103237" lon="-9.276315076797305"><ele>253.0</ele><time>2026-05-01T11:39:44Z</time></trkpt><trkpt lat="38.8868894891446" lon="-9.276377577035227"><ele>253.0</ele><time>2026-05-01T11:39:45Z</time></trkpt><trkpt lat="38.88679463673839" lon="-9.276484147095118"><ele>250.99999999999997</ele><time>2026-05-01T11:39:47Z</time></trkpt><trkpt lat="38.88674103994656" lon="-9.276540440427702"><ele>249.0</ele><time>2026-05-01T11:39:48Z</time></trkpt><trkpt lat="38.88668789831256" lon="-9.276598622499296"><ele>247.0</ele><time>2026-05-01T11:39:49Z</time></trkpt><trkpt lat="38.88662734683753" lon="-9.27666713697766"><ele>245.0</ele><time>2026-05-01T11:39:50Z</time></trkpt><trkpt lat="38.88655925862798" lon="-9.276727976374767"><ele>242.99999999999997</ele><time>2026-05-01T11:39:51Z</time></trkpt><trkpt lat="38.886486653161036" lon="-9.276782368066522"><ele>241.0</ele><time>2026-05-01T11:39:52Z</time></trkpt><trkpt lat="38.88641550383237" lon="-9.276841268674557"><ele>240.99999999999997</ele><time>2026-05-01T11:39:53Z</time></trkpt><trkpt lat="38.88634561834273" lon="-9.276912089580321"><ele>241.0</ele><time>2026-05-01T11:39:54Z</time></trkpt><trkpt lat="38.88629040814016" lon="-9.276973025758897"><ele>241.0</ele><time>2026-05-01T11:39:55Z</time></trkpt><trkpt lat="38.88624720310834" lon="-9.277033947677062"><ele>241.0</ele><time>2026-05-01T11:39:56Z</time></trkpt><trkpt lat="38.8861861621484" lon="-9.277162113125526"><ele>240.99999999999997</ele><time>2026-05-01T11:39:58Z</time></trkpt><trkpt lat="38.88611514664719" lon="-9.27720967878712"><ele>241.0</ele><time>2026-05-01T11:40:00Z</time></trkpt><trkpt lat="38.88608438990214" lon="-9.277300069414787"><ele>241.33333333333331</ele><time>2026-05-01T11:40:03Z</time></trkpt><trkpt lat="38.88605871396412" lon="-9.277375732856758"><ele>241.66666666666666</ele><time>2026-05-01T11:40:05Z</time></trkpt><trkpt lat="38.88601717968385" lon="-9.27744209662116"><ele>242.0</ele><time>2026-05-01T11:40:07Z</time></trkpt><trkpt lat="38.8859345570048" lon="-9.27746859923942"><ele>242.33333333333331</ele><time>2026-05-01T11:40:09Z</time></trkpt><trkpt lat="38.8858848961123" lon="-9.277579664486492"><ele>242.66666666666666</ele><time>2026-05-01T11:40:11Z</time></trkpt><trkpt lat="38.88581903724995" lon="-9.277692400815925"><ele>243.0</ele><time>2026-05-01T11:40:13Z</time></trkpt><trkpt lat="38.88574476356521" lon="-9.277761807315155"><ele>242.0</ele><time>2026-05-01T11:40:15Z</time></trkpt><trkpt lat="38.88569066504883" lon="-9.277828782732065"><ele>241.0</ele><time>2026-05-01T11:40:18Z</time></trkpt><trkpt lat="38.88566371114762" lon="-9.277942243833667"><ele>240.0</ele><time>2026-05-01T11:40:22Z</time></trkpt><trkpt lat="38.88563549396886" lon="-9.278024676905883"><ele>239.0</ele><time>2026-05-01T11:40:24Z</time></trkpt><trkpt lat="38.88561357478473" lon="-9.278135846049514"><ele>238.0</ele><time>2026-05-01T11:40:26Z</time></trkpt><trkpt lat="38.88557602804003" lon="-9.27826439807235"><ele>237.0</ele><time>2026-05-01T11:40:28Z</time></trkpt><trkpt lat="38.88554377884246" lon="-9.278393229114709"><ele>236.25</ele><time>2026-05-01T11:40:30Z</time></trkpt><trkpt lat="38.88547564842243" lon="-9.278529634180503"><ele>235.5</ele><time>2026-05-01T11:40:32Z</time></trkpt><trkpt lat="38.88546767576244" lon="-9.278666726161639"><ele>234.75</ele><time>2026-05-01T11:40:34Z</time></trkpt><trkpt lat="38.88537404750718" lon="-9.278805477041246"><ele>234.0</ele><time>2026-05-01T11:40:36Z</time></trkpt><trkpt lat="38.88531733294115" lon="-9.278873481947013"><ele>233.79999999999998</ele><time>2026-05-01T11:40:37Z</time></trkpt><trkpt lat="38.8852789902106" lon="-9.278949470452265"><ele>233.59999999999997</ele><time>2026-05-01T11:40:38Z</time></trkpt><trkpt lat="38.885219556553146" lon="-9.279075283105854"><ele>233.4</ele><time>2026-05-01T11:40:40Z</time></trkpt><trkpt lat="38.8851552249544" lon="-9.27917179758947"><ele>233.2</ele><time>2026-05-01T11:40:42Z</time></trkpt><trkpt lat="38.88511239360847" lon="-9.27932189408293"><ele>233.0</ele><time>2026-05-01T11:40:44Z</time></trkpt><trkpt lat="38.88508040455221" lon="-9.2794196573352"><ele>232.66666666666669</ele><time>2026-05-01T11:40:45Z</time></trkpt><trkpt lat="38.88504392696823" lon="-9.27952155578233"><ele>232.33333333333334</ele><time>2026-05-01T11:40:46Z</time></trkpt><trkpt lat="38.88501112674008" lon="-9.279607230982512"><ele>232.0</ele><time>2026-05-01T11:40:47Z</time></trkpt><trkpt lat="38.88499298674302" lon="-9.27969657734862"><ele>231.66666666666669</ele><time>2026-05-01T11:40:48Z</time></trkpt><trkpt lat="38.88497497853924" lon="-9.279785514910621"><ele>231.33333333333334</ele><time>2026-05-01T11:40:49Z</time></trkpt><trkpt lat="38.88496575766515" lon="-9.279884184616453"><ele>231.0</ele><time>2026-05-01T11:40:50Z</time></trkpt><trkpt lat="38.884957916500554" lon="-9.280001019951996"><ele>229.8</ele><time>2026-05-01T11:40:51Z</time></trkpt><trkpt lat="38.88494315015356" lon="-9.280137025598798"><ele>228.60000000000002</ele><time>2026-05-01T11:40:52Z</time></trkpt><trkpt lat="38.88490482504689" lon="-9.280250409630696"><ele>227.4</ele><time>2026-05-01T11:40:53Z</time></trkpt><trkpt lat="38.88484513361894" lon="-9.28037051213616"><ele>226.2</ele><time>2026-05-01T11:40:54Z</time></trkpt><trkpt lat="38.884781939261586" lon="-9.280470634474893"><ele>225.0</ele><time>2026-05-01T11:40:55Z</time></trkpt><trkpt lat="38.8847321134255" lon="-9.280535837067474"><ele>225.0</ele><time>2026-05-01T11:40:56Z</time></trkpt><trkpt lat="38.88468433642447" lon="-9.280594908358712"><ele>225.0</ele><time>2026-05-01T11:40:57Z</time></trkpt><trkpt lat="38.88462143531163" lon="-9.28068471630242"><ele>225.0</ele><time>2026-05-01T11:40:58Z</time></trkpt><trkpt lat="38.88455601802811" lon="-9.2807691817415"><ele>225.0</ele><time>2026-05-01T11:40:59Z</time></trkpt><trkpt lat="38.884503393989114" lon="-9.280849188974296"><ele>225.0</ele><time>2026-05-01T11:41:00Z</time></trkpt><trkpt lat="38.88445411225502" lon="-9.280955787990653"><ele>225.0</ele><time>2026-05-01T11:41:01Z</time></trkpt><trkpt lat="38.88441124272139" lon="-9.281053082449068"><ele>224.8571428571429</ele><time>2026-05-01T11:41:02Z</time></trkpt><trkpt lat="38.88436223573986" lon="-9.281147425161747"><ele>224.71428571428572</ele><time>2026-05-01T11:41:04Z</time></trkpt><trkpt lat="38.884391472986806" lon="-9.28107481991728"><ele>224.57142857142858</ele><time>2026-05-01T11:41:11Z</time></trkpt><trkpt lat="38.884436549015014" lon="-9.281016695505025"><ele>224.42857142857144</ele><time>2026-05-01T11:45:11Z</time></trkpt><trkpt lat="38.884496858398755" lon="-9.28098481479944"><ele>224.28571428571428</ele><time>2026-05-01T11:45:20Z</time></trkpt><trkpt lat="38.88443460339979" lon="-9.281024505468313"><ele>224.14285714285714</ele><time>2026-05-01T11:45:37.001Z</time></trkpt><trkpt lat="38.8844120320151" lon="-9.281100051173548"><ele>224.0</ele><time>2026-05-01T11:47:11Z</time></trkpt><trkpt lat="38.88435138619187" lon="-9.281122576560257"><ele>224.0</ele><time>2026-05-01T12:25:50Z</time></trkpt><trkpt lat="38.88424665483699" lon="-9.281132736342649"><ele>223.99999999999997</ele><time>2026-05-01T12:26:00Z</time></trkpt><trkpt lat="38.88434673317354" lon="-9.281115941783279"><ele>223.99999999999997</ele><time>2026-05-01T12:26:32.001Z</time></trkpt><trkpt lat="38.88442538686201" lon="-9.281060906051259"><ele>224.0</ele><time>2026-05-01T12:39:59.001Z</time></trkpt><trkpt lat="38.88440234183868" lon="-9.281160587373947"><ele>224.0</ele><time>2026-05-01T12:52:49Z</time></trkpt><trkpt lat="38.884377493522756" lon="-9.281259826910135"><ele>224.0</ele><time>2026-05-01T12:52:52Z</time></trkpt><trkpt lat="38.88435659896331" lon="-9.281341961211346"><ele>224.0</ele><time>2026-05-01T12:52:56Z</time></trkpt><trkpt lat="38.884350813134716" lon="-9.281425585345964"><ele>224.0</ele><time>2026-05-01T12:52:59Z</time></trkpt><trkpt lat="38.884361903700935" lon="-9.28151626871164"><ele>224.0</ele><time>2026-05-01T12:53:14Z</time></trkpt><trkpt lat="38.884368531770896" lon="-9.281600786955996"><ele>224.0</ele><time>2026-05-01T12:53:17Z</time></trkpt><trkpt lat="38.88438155395954" lon="-9.281683935556918"><ele>224.0</ele><time>2026-05-01T12:53:22Z</time></trkpt><trkpt lat="38.8843963945824" lon="-9.281803638633466"><ele>224.0</ele><time>2026-05-01T12:53:39Z</time></trkpt><trkpt lat="38.88439724384468" lon="-9.281891163010236"><ele>223.83333333333334</ele><time>2026-05-01T12:53:41Z</time></trkpt><trkpt lat="38.884385683683824" lon="-9.281986095272035"><ele>223.66666666666669</ele><time>2026-05-01T12:53:43Z</time></trkpt><trkpt lat="38.884379249815474" lon="-9.282085097858985"><ele>223.5</ele><time>2026-05-01T12:53:45Z</time></trkpt><trkpt lat="38.88437748795572" lon="-9.282210415250125"><ele>223.33333333333331</ele><time>2026-05-01T12:53:47Z</time></trkpt><trkpt lat="38.88438710919434" lon="-9.282315342169083"><ele>223.16666666666666</ele><time>2026-05-01T12:53:49Z</time></trkpt><trkpt lat="38.88440294437921" lon="-9.282442838918014"><ele>223.0</ele><time>2026-05-01T12:53:51Z</time></trkpt><trkpt lat="38.88441541886294" lon="-9.282560979030348"><ele>223.0</ele><time>2026-05-01T12:53:53Z</time></trkpt><trkpt lat="38.8844191556504" lon="-9.282682217975992"><ele>223.0</ele><time>2026-05-01T12:53:55Z</time></trkpt><trkpt lat="38.88443564335187" lon="-9.282825038153454"><ele>223.0</ele><time>2026-05-01T12:53:57Z</time></trkpt><trkpt lat="38.88445062767704" lon="-9.282928162414064"><ele>223.0</ele><time>2026-05-01T12:53:59Z</time></trkpt><trkpt lat="38.884465417633166" lon="-9.283040466400857"><ele>223.0</ele><time>2026-05-01T12:54:01Z</time></trkpt><trkpt lat="38.88448968213198" lon="-9.283166369639611"><ele>220.8</ele><time>2026-05-01T12:54:03Z</time></trkpt><trkpt lat="38.88451614606831" lon="-9.283289509416317"><ele>218.60000000000002</ele><time>2026-05-01T12:54:05Z</time></trkpt><trkpt lat="38.884545562212644" lon="-9.283417047548925"><ele>216.39999999999998</ele><time>2026-05-01T12:54:07Z</time></trkpt><trkpt lat="38.88454456399704" lon="-9.28355382150153"><ele>214.2</ele><time>2026-05-01T12:54:09Z</time></trkpt><trkpt lat="38.88446567261475" lon="-9.283663862628098"><ele>212.0</ele><time>2026-05-01T12:54:11Z</time></trkpt><trkpt lat="38.88438418988607" lon="-9.283784547690681"><ele>212.00000000000003</ele><time>2026-05-01T12:54:13Z</time></trkpt><trkpt lat="38.884348609156916" lon="-9.283857215934962"><ele>212.0</ele><time>2026-05-01T12:54:14Z</time></trkpt><trkpt lat="38.8842784361827" lon="-9.283975032561342"><ele>212.0</ele><time>2026-05-01T12:54:16Z</time></trkpt><trkpt lat="38.8842107780275" lon="-9.28406595370259"><ele>212.0</ele><time>2026-05-01T12:54:18Z</time></trkpt><trkpt lat="38.88415540325533" lon="-9.284108030862761"><ele>212.00000000000003</ele><time>2026-05-01T12:54:19Z</time></trkpt><trkpt lat="38.88409777467475" lon="-9.284145201838026"><ele>212.0</ele><time>2026-05-01T12:54:20Z</time></trkpt><trkpt lat="38.88402966246405" lon="-9.284172366822197"><ele>211.2</ele><time>2026-05-01T12:54:21Z</time></trkpt><trkpt lat="38.88393293674774" lon="-9.284249091284531"><ele>210.39999999999998</ele><time>2026-05-01T12:54:23Z</time></trkpt><trkpt lat="38.883870804747204" lon="-9.28434612651067"><ele>209.60000000000002</ele><time>2026-05-01T12:54:25Z</time></trkpt><trkpt lat="38.88380130249295" lon="-9.284436906190342"><ele>208.8</ele><time>2026-05-01T12:54:27Z</time></trkpt><trkpt lat="38.88373309407158" lon="-9.284558191931303"><ele>208.0</ele><time>2026-05-01T12:54:29Z</time></trkpt><trkpt lat="38.88370268799778" lon="-9.284683870559604"><ele>207.66666666666666</ele><time>2026-05-01T12:54:31Z</time></trkpt><trkpt lat="38.883685560518934" lon="-9.28476377878803"><ele>207.33333333333331</ele><time>2026-05-01T12:54:32Z</time></trkpt><trkpt lat="38.88363960878566" lon="-9.284911067097115"><ele>207.0</ele><time>2026-05-01T12:54:34Z</time></trkpt><trkpt lat="38.88361224863632" lon="-9.284995059978732"><ele>206.66666666666669</ele><time>2026-05-01T12:54:35Z</time></trkpt><trkpt lat="38.88359078171572" lon="-9.285074103223103"><ele>206.33333333333334</ele><time>2026-05-01T12:54:36Z</time></trkpt><trkpt lat="38.8835640660175" lon="-9.285153172765707"><ele>206.0</ele><time>2026-05-01T12:54:37Z</time></trkpt><trkpt lat="38.88353131467358" lon="-9.285226435772174"><ele>206.00000000000003</ele><time>2026-05-01T12:54:38Z</time></trkpt><trkpt lat="38.88344924388994" lon="-9.285350601320717"><ele>206.0</ele><time>2026-05-01T12:54:40Z</time></trkpt><trkpt lat="38.883410286325066" lon="-9.285420532784153"><ele>206.0</ele><time>2026-05-01T12:54:41Z</time></trkpt><trkpt lat="38.883363728244376" lon="-9.28548464545999"><ele>206.0</ele><time>2026-05-01T12:54:42Z</time></trkpt><trkpt lat="38.88331868146396" lon="-9.28555583698247"><ele>206.00000000000003</ele><time>2026-05-01T12:54:43Z</time></trkpt><trkpt lat="38.88325813534742" lon="-9.285614267350349"><ele>206.0</ele><time>2026-05-01T12:54:44Z</time></trkpt><trkpt lat="38.88320541946333" lon="-9.285685612953625"><ele>205.4</ele><time>2026-05-01T12:54:45Z</time></trkpt><trkpt lat="38.88314325858122" lon="-9.285759582302925"><ele>204.8</ele><time>2026-05-01T12:54:46Z</time></trkpt><trkpt lat="38.88307333602161" lon="-9.285831599140177"><ele>204.20000000000002</ele><time>2026-05-01T12:54:47Z</time></trkpt><trkpt lat="38.88300376953013" lon="-9.28591326718401"><ele>203.60000000000002</ele><time>2026-05-01T12:54:48Z</time></trkpt><trkpt lat="38.88292511348956" lon="-9.286002209038493"><ele>203.0</ele><time>2026-05-01T12:54:49Z</time></trkpt><trkpt lat="38.882847143722536" lon="-9.28609198006248"><ele>203.0</ele><time>2026-05-01T12:54:50Z</time></trkpt><trkpt lat="38.88274717574535" lon="-9.286159371746077"><ele>203.0</ele><time>2026-05-01T12:54:51Z</time></trkpt><trkpt lat="38.8826523477639" lon="-9.286242709398673"><ele>203.0</ele><time>2026-05-01T12:54:52Z</time></trkpt><trkpt lat="38.882564782672176" lon="-9.286339181263727"><ele>203.0</ele><time>2026-05-01T12:54:53Z</time></trkpt><trkpt lat="38.88247323570254" lon="-9.286435650946778"><ele>203.0</ele><time>2026-05-01T12:54:54Z</time></trkpt><trkpt lat="38.882383655673365" lon="-9.28654701672649"><ele>203.0</ele><time>2026-05-01T12:54:55Z</time></trkpt><trkpt lat="38.88230646599382" lon="-9.286671966593508"><ele>203.0</ele><time>2026-05-01T12:54:56Z</time></trkpt><trkpt lat="38.882248991350664" lon="-9.286753737739742"><ele>203.0</ele><time>2026-05-01T12:54:57Z</time></trkpt><trkpt lat="38.882287843076014" lon="-9.286931076287408"><ele>203.0</ele><time>2026-05-01T12:54:58Z</time></trkpt><trkpt lat="38.8822141928091" lon="-9.286820588313219"><ele>203.0</ele><time>2026-05-01T12:55:31Z</time></trkpt><trkpt lat="38.88216428756525" lon="-9.286901314028043"><ele>203.0</ele><time>2026-05-01T12:56:54Z</time></trkpt><trkpt lat="38.88209464203213" lon="-9.287037278574234"><ele>203.0</ele><time>2026-05-01T12:56:56Z</time></trkpt><trkpt lat="38.882094545073194" lon="-9.287175164848856"><ele>203.0</ele><time>2026-05-01T12:56:58Z</time></trkpt><trkpt lat="38.88200953895417" lon="-9.287258106012459"><ele>202.50000000000003</ele><time>2026-05-01T12:57:00Z</time></trkpt><trkpt lat="38.88196623029499" lon="-9.287339010328532"><ele>202.0</ele><time>2026-05-01T12:57:01Z</time></trkpt><trkpt lat="38.88190271317644" lon="-9.287392423778764"><ele>201.5</ele><time>2026-05-01T12:57:02Z</time></trkpt><trkpt lat="38.881836628437306" lon="-9.287414062571912"><ele>201.0</ele><time>2026-05-01T12:57:03Z</time></trkpt><trkpt lat="38.881765271268634" lon="-9.287432136626025"><ele>200.50000000000003</ele><time>2026-05-01T12:57:04Z</time></trkpt><trkpt lat="38.88169545707808" lon="-9.287483452934197"><ele>200.0</ele><time>2026-05-01T12:57:05Z</time></trkpt><trkpt lat="38.88162040240913" lon="-9.287508877487069"><ele>199.57142857142858</ele><time>2026-05-01T12:57:06Z</time></trkpt><trkpt lat="38.881543249464656" lon="-9.287522230943676"><ele>199.14285714285714</ele><time>2026-05-01T12:57:07Z</time></trkpt><trkpt lat="38.88147080030224" lon="-9.287506070522157"><ele>198.71428571428572</ele><time>2026-05-01T12:57:08Z</time></trkpt><trkpt lat="38.881395233381376" lon="-9.287496781010994"><ele>198.28571428571428</ele><time>2026-05-01T12:57:09Z</time></trkpt><trkpt lat="38.88132308184583" lon="-9.28747443466312"><ele>197.85714285714286</ele><time>2026-05-01T12:57:10Z</time></trkpt><trkpt lat="38.88124782705067" lon="-9.287453207865607"><ele>197.42857142857144</ele><time>2026-05-01T12:57:11Z</time></trkpt><trkpt lat="38.881178654636514" lon="-9.287440024066758"><ele>197.0</ele><time>2026-05-01T12:57:12Z</time></trkpt><trkpt lat="38.88110374236252" lon="-9.287426998615144"><ele>197.0</ele><time>2026-05-01T12:57:13Z</time></trkpt><trkpt lat="38.88102802368999" lon="-9.287437784334287"><ele>197.0</ele><time>2026-05-01T12:57:14Z</time></trkpt><trkpt lat="38.88095426553082" lon="-9.287427025703806"><ele>197.0</ele><time>2026-05-01T12:57:15Z</time></trkpt><trkpt lat="38.88085997981681" lon="-9.287412783764122"><ele>197.0</ele><time>2026-05-01T12:57:16Z</time></trkpt><trkpt lat="38.88075063246421" lon="-9.287396700463768"><ele>197.0</ele><time>2026-05-01T12:57:17Z</time></trkpt><trkpt lat="38.88064294454183" lon="-9.287380739358102"><ele>195.8</ele><time>2026-05-01T12:57:18Z</time></trkpt><trkpt lat="38.88053502500162" lon="-9.287326347976572"><ele>194.6</ele><time>2026-05-01T12:57:19Z</time></trkpt><trkpt lat="38.88043046308309" lon="-9.287298524884928"><ele>193.4</ele><time>2026-05-01T12:57:20Z</time></trkpt><trkpt lat="38.88032575437337" lon="-9.287284511600978"><ele>192.20000000000002</ele><time>2026-05-01T12:57:21Z</time></trkpt><trkpt lat="38.88021835279192" lon="-9.287273104313513"><ele>191.0</ele><time>2026-05-01T12:57:22Z</time></trkpt><trkpt lat="38.880118169226385" lon="-9.28726622780922"><ele>190.5</ele><time>2026-05-01T12:57:23Z</time></trkpt><trkpt lat="38.88002645105547" lon="-9.287251598008949"><ele>190.0</ele><time>2026-05-01T12:57:24Z</time></trkpt><trkpt lat="38.87993817026146" lon="-9.287262492344194"><ele>189.5</ele><time>2026-05-01T12:57:25Z</time></trkpt><trkpt lat="38.87985762202215" lon="-9.28726172065339"><ele>189.0</ele><time>2026-05-01T12:57:26Z</time></trkpt><trkpt lat="38.879786747754125" lon="-9.287263523394515"><ele>188.5</ele><time>2026-05-01T12:57:27Z</time></trkpt><trkpt lat="38.87968561292271" lon="-9.287273605029794"><ele>188.0</ele><time>2026-05-01T12:57:29Z</time></trkpt><trkpt lat="38.87960279306292" lon="-9.287305937701905"><ele>188.0</ele><time>2026-05-01T12:57:47Z</time></trkpt><trkpt lat="38.879552661772884" lon="-9.287232839631017"><ele>188.0</ele><time>2026-05-01T12:57:48Z</time></trkpt><trkpt lat="38.87949566600243" lon="-9.287179601925576"><ele>188.0</ele><time>2026-05-01T12:57:49Z</time></trkpt><trkpt lat="38.879441918099744" lon="-9.287119703142"><ele>188.0</ele><time>2026-05-01T12:57:50Z</time></trkpt><trkpt lat="38.87938825163908" lon="-9.287033034347502"><ele>188.0</ele><time>2026-05-01T12:57:51Z</time></trkpt><trkpt lat="38.87931673432402" lon="-9.286924862081774"><ele>188.0</ele><time>2026-05-01T12:57:52Z</time></trkpt><trkpt lat="38.8792528576248" lon="-9.286797245357082"><ele>188.0</ele><time>2026-05-01T12:57:53Z</time></trkpt><trkpt lat="38.879184900457375" lon="-9.28665590665734"><ele>188.0</ele><time>2026-05-01T12:57:54Z</time></trkpt><trkpt lat="38.879122049403115" lon="-9.286497445120704"><ele>188.0</ele><time>2026-05-01T12:57:55Z</time></trkpt><trkpt lat="38.879027163581625" lon="-9.286347571140388"><ele>188.0</ele><time>2026-05-01T12:57:56Z</time></trkpt><trkpt lat="38.87894146492703" lon="-9.286173454409607"><ele>189.33333333333331</ele><time>2026-05-01T12:57:57Z</time></trkpt><trkpt lat="38.878854667630215" lon="-9.285997264323655"><ele>190.66666666666666</ele><time>2026-05-01T12:57:58Z</time></trkpt><trkpt lat="38.878762942528624" lon="-9.285815801093053"><ele>192.0</ele><time>2026-05-01T12:57:59Z</time></trkpt><trkpt lat="38.878670402394086" lon="-9.285634366105114"><ele>194.0</ele><time>2026-05-01T12:58:00Z</time></trkpt><trkpt lat="38.878579890179076" lon="-9.28545865846179"><ele>196.0</ele><time>2026-05-01T12:58:01Z</time></trkpt><trkpt lat="38.87849209780126" lon="-9.285286156945283"><ele>198.0</ele><time>2026-05-01T12:58:02Z</time></trkpt><trkpt lat="38.87840483580592" lon="-9.285116709619178"><ele>198.66666666666669</ele><time>2026-05-01T12:58:03Z</time></trkpt><trkpt lat="38.87831671738614" lon="-9.284948913521042"><ele>199.33333333333334</ele><time>2026-05-01T12:58:04Z</time></trkpt><trkpt lat="38.87822431007469" lon="-9.284776671929572"><ele>200.0</ele><time>2026-05-01T12:58:05Z</time></trkpt><trkpt lat="38.878140404233406" lon="-9.284614807160022"><ele>200.0</ele><time>2026-05-01T12:58:06Z</time></trkpt><trkpt lat="38.878066182617786" lon="-9.284467542743014"><ele>200.0</ele><time>2026-05-01T12:58:07Z</time></trkpt><trkpt lat="38.87800499347421" lon="-9.284329387354456"><ele>200.0</ele><time>2026-05-01T12:58:08Z</time></trkpt><trkpt lat="38.87797765987448" lon="-9.28417940954635"><ele>200.0</ele><time>2026-05-01T12:58:09Z</time></trkpt><trkpt lat="38.87796350895312" lon="-9.284036632949164"><ele>200.25</ele><time>2026-05-01T12:58:10Z</time></trkpt><trkpt lat="38.87798960761432" lon="-9.283890086589217"><ele>200.5</ele><time>2026-05-01T12:58:11Z</time></trkpt><trkpt lat="38.87805397183593" lon="-9.283745801312104"><ele>200.75</ele><time>2026-05-01T12:58:12Z</time></trkpt><trkpt lat="38.878132901757986" lon="-9.283613566125402"><ele>201.0</ele><time>2026-05-01T12:58:13Z</time></trkpt><trkpt lat="38.87816884730951" lon="-9.28350638754195"><ele>201.0</ele><time>2026-05-01T12:58:14Z</time></trkpt><trkpt lat="38.87821363114846" lon="-9.28338033734984"><ele>201.0</ele><time>2026-05-01T12:58:16Z</time></trkpt><trkpt lat="38.878097588925435" lon="-9.283362298469923"><ele>201.0</ele><time>2026-05-01T12:58:18Z</time></trkpt><trkpt lat="38.87803265809248" lon="-9.283299478304684"><ele>201.0</ele><time>2026-05-01T12:58:19Z</time></trkpt><trkpt lat="38.87795113626082" lon="-9.283243627170854"><ele>201.0</ele><time>2026-05-01T12:58:20Z</time></trkpt><trkpt lat="38.87786661352801" lon="-9.283173011335704"><ele>201.75</ele><time>2026-05-01T12:58:21Z</time></trkpt><trkpt lat="38.87777954770909" lon="-9.283093523466716"><ele>202.5</ele><time>2026-05-01T12:58:22Z</time></trkpt><trkpt lat="38.87768067252811" lon="-9.283018314986403"><ele>203.25</ele><time>2026-05-01T12:58:23Z</time></trkpt><trkpt lat="38.877567710651704" lon="-9.282989365874602"><ele>204.0</ele><time>2026-05-01T12:58:24Z</time></trkpt><trkpt lat="38.8774465289443" lon="-9.282928533803007"><ele>204.25</ele><time>2026-05-01T12:58:25Z</time></trkpt><trkpt lat="38.87732059744931" lon="-9.282889936260617"><ele>204.5</ele><time>2026-05-01T12:58:26Z</time></trkpt><trkpt lat="38.87717919226279" lon="-9.282857166159369"><ele>204.75</ele><time>2026-05-01T12:58:27Z</time></trkpt><trkpt lat="38.87704287784472" lon="-9.282830667740827"><ele>205.0</ele><time>2026-05-01T12:58:28Z</time></trkpt><trkpt lat="38.87691407774263" lon="-9.282784859065377"><ele>205.0</ele><time>2026-05-01T12:58:29Z</time></trkpt><trkpt lat="38.87682064588233" lon="-9.282696200175165"><ele>205.0</ele><time>2026-05-01T12:58:30Z</time></trkpt><trkpt lat="38.876715988117105" lon="-9.282584287603584"><ele>205.0</ele><time>2026-05-01T12:58:31Z</time></trkpt><trkpt lat="38.87661971338259" lon="-9.282497594975695"><ele>205.0</ele><time>2026-05-01T12:58:32Z</time></trkpt><trkpt lat="38.87653886288764" lon="-9.282430813519674"><ele>204.6</ele><time>2026-05-01T12:58:33Z</time></trkpt><trkpt lat="38.87648306329803" lon="-9.282389793872046"><ele>204.2</ele><time>2026-05-01T12:58:34Z</time></trkpt><trkpt lat="38.87640014716578" lon="-9.282379385554327"><ele>203.8</ele><time>2026-05-01T12:58:37Z</time></trkpt><trkpt lat="38.87637919917315" lon="-9.282506201448959"><ele>203.4</ele><time>2026-05-01T12:58:38Z</time></trkpt><trkpt lat="38.87633338951221" lon="-9.282614423843228"><ele>203.0</ele><time>2026-05-01T12:58:39Z</time></trkpt><trkpt lat="38.87628727798742" lon="-9.282743893296448"><ele>203.0</ele><time>2026-05-01T12:58:40Z</time></trkpt><trkpt lat="38.87623267196072" lon="-9.282875476781044"><ele>203.0</ele><time>2026-05-01T12:58:41Z</time></trkpt><trkpt lat="38.87616534989181" lon="-9.283034345415748"><ele>203.0</ele><time>2026-05-01T12:58:42Z</time></trkpt><trkpt lat="38.876091801680005" lon="-9.283208262983104"><ele>203.0</ele><time>2026-05-01T12:58:43Z</time></trkpt><trkpt lat="38.87602745890509" lon="-9.28337362070498"><ele>203.0</ele><time>2026-05-01T12:58:44Z</time></trkpt><trkpt lat="38.87595567794187" lon="-9.283518270991676"><ele>203.0</ele><time>2026-05-01T12:58:45Z</time></trkpt><trkpt lat="38.87588394767596" lon="-9.283642875630603"><ele>203.0</ele><time>2026-05-01T12:58:46Z</time></trkpt><trkpt lat="38.87581572219713" lon="-9.283747202351694"><ele>203.0</ele><time>2026-05-01T12:58:47Z</time></trkpt><trkpt lat="38.87574283456918" lon="-9.283848634541954"><ele>204.0</ele><time>2026-05-01T12:58:48Z</time></trkpt><trkpt lat="38.87565281714092" lon="-9.283952481372067"><ele>205.0</ele><time>2026-05-01T12:58:49Z</time></trkpt><trkpt lat="38.87555807779577" lon="-9.284040206219709"><ele>206.0</ele><time>2026-05-01T12:58:50Z</time></trkpt><trkpt lat="38.87544135172466" lon="-9.284124125970017"><ele>207.0</ele><time>2026-05-01T12:58:51Z</time></trkpt><trkpt lat="38.87528821118035" lon="-9.284208087131207"><ele>207.0</ele><time>2026-05-01T12:58:52Z</time></trkpt><trkpt lat="38.87512081626021" lon="-9.284279622400119"><ele>207.0</ele><time>2026-05-01T12:58:53Z</time></trkpt><trkpt lat="38.87494238988199" lon="-9.284347727597716"><ele>207.0</ele><time>2026-05-01T12:58:54Z</time></trkpt><trkpt lat="38.87475949260886" lon="-9.284409739953649"><ele>207.33333333333331</ele><time>2026-05-01T12:58:55Z</time></trkpt><trkpt lat="38.87457823972079" lon="-9.284458536449854"><ele>207.66666666666666</ele><time>2026-05-01T12:58:56Z</time></trkpt><trkpt lat="38.87438953511794" lon="-9.28448866852128"><ele>208.0</ele><time>2026-05-01T12:58:57Z</time></trkpt><trkpt lat="38.874188973891975" lon="-9.284528118016441"><ele>206.33333333333331</ele><time>2026-05-01T12:58:58Z</time></trkpt><trkpt lat="38.873986365185246" lon="-9.284587263564044"><ele>204.66666666666669</ele><time>2026-05-01T12:58:59Z</time></trkpt><trkpt lat="38.87378664503871" lon="-9.284679274369593"><ele>203.0</ele><time>2026-05-01T12:59:00Z</time></trkpt><trkpt lat="38.873582374049086" lon="-9.284798740344772"><ele>205.5</ele><time>2026-05-01T12:59:01Z</time></trkpt><trkpt lat="38.87338957925852" lon="-9.284945400729018"><ele>208.0</ele><time>2026-05-01T12:59:02Z</time></trkpt><trkpt lat="38.87320445026772" lon="-9.285117636795686"><ele>208.0</ele><time>2026-05-01T12:59:03Z</time></trkpt><trkpt lat="38.8730377663004" lon="-9.285289146123027"><ele>208.0</ele><time>2026-05-01T12:59:04Z</time></trkpt><trkpt lat="38.87291013737787" lon="-9.285482743503358"><ele>208.0</ele><time>2026-05-01T12:59:05Z</time></trkpt><trkpt lat="38.87276823412105" lon="-9.285625819661732"><ele>208.33333333333331</ele><time>2026-05-01T12:59:06Z</time></trkpt><trkpt lat="38.87261970930765" lon="-9.285742339621228"><ele>208.66666666666669</ele><time>2026-05-01T12:59:07Z</time></trkpt><trkpt lat="38.87246928669747" lon="-9.285872852208495"><ele>209.0</ele><time>2026-05-01T12:59:08Z</time></trkpt><trkpt lat="38.8722939276622" lon="-9.285978441073217"><ele>209.0</ele><time>2026-05-01T12:59:09Z</time></trkpt><trkpt lat="38.872115629490146" lon="-9.28607424573826"><ele>209.0</ele><time>2026-05-01T12:59:10Z</time></trkpt><trkpt lat="38.87192862299473" lon="-9.286119561870166"><ele>209.0</ele><time>2026-05-01T12:59:11Z</time></trkpt><trkpt lat="38.87172940536416" lon="-9.286153267314965"><ele>207.0</ele><time>2026-05-01T12:59:12Z</time></trkpt><trkpt lat="38.87153824235616" lon="-9.286183571053543"><ele>205.0</ele><time>2026-05-01T12:59:13Z</time></trkpt><trkpt lat="38.87137406284682" lon="-9.286221302918916"><ele>203.0</ele><time>2026-05-01T12:59:14Z</time></trkpt><trkpt lat="38.871217881597815" lon="-9.286264808141217"><ele>203.0</ele><time>2026-05-01T12:59:15Z</time></trkpt><trkpt lat="38.87106529659564" lon="-9.286294061552853"><ele>203.0</ele><time>2026-05-01T12:59:16Z</time></trkpt><trkpt lat="38.870912312880854" lon="-9.286338313245615"><ele>203.0</ele><time>2026-05-01T12:59:17Z</time></trkpt><trkpt lat="38.87075382875156" lon="-9.286397399322434"><ele>200.0</ele><time>2026-05-01T12:59:18Z</time></trkpt><trkpt lat="38.87059494478785" lon="-9.286482418549074"><ele>197.0</ele><time>2026-05-01T12:59:19Z</time></trkpt><trkpt lat="38.870448096579175" lon="-9.286577629206727"><ele>194.0</ele><time>2026-05-01T12:59:20Z</time></trkpt><trkpt lat="38.87028469497272" lon="-9.28670830031126"><ele>194.0</ele><time>2026-05-01T12:59:21Z</time></trkpt><trkpt lat="38.870133298754155" lon="-9.286878617942019"><ele>194.0</ele><time>2026-05-01T12:59:22Z</time></trkpt><trkpt lat="38.87000002155293" lon="-9.287081804949993"><ele>194.0</ele><time>2026-05-01T12:59:23Z</time></trkpt><trkpt lat="38.8698873540604" lon="-9.287306290863276"><ele>191.0</ele><time>2026-05-01T12:59:24Z</time></trkpt><trkpt lat="38.869792586643726" lon="-9.287553093947677"><ele>188.0</ele><time>2026-05-01T12:59:25Z</time></trkpt><trkpt lat="38.86972239632381" lon="-9.28781581452937"><ele>185.0</ele><time>2026-05-01T12:59:26Z</time></trkpt><trkpt lat="38.869695138742486" lon="-9.288095918372562"><ele>182.5</ele><time>2026-05-01T12:59:27Z</time></trkpt><trkpt lat="38.869684267159826" lon="-9.288383145286145"><ele>180.0</ele><time>2026-05-01T12:59:28Z</time></trkpt><trkpt lat="38.869681764425664" lon="-9.288678665745806"><ele>178.5</ele><time>2026-05-01T12:59:29Z</time></trkpt><trkpt lat="38.869674953610925" lon="-9.288976999478335"><ele>177.0</ele><time>2026-05-01T12:59:30Z</time></trkpt><trkpt lat="38.86968331038366" lon="-9.289270187064984"><ele>177.0</ele><time>2026-05-01T12:59:31Z</time></trkpt><trkpt lat="38.869688192875984" lon="-9.289557333103925"><ele>177.0</ele><time>2026-05-01T12:59:32Z</time></trkpt><trkpt lat="38.86969427757111" lon="-9.289844458514708"><ele>177.0</ele><time>2026-05-01T12:59:33Z</time></trkpt><trkpt lat="38.869701284546686" lon="-9.290130041299967"><ele>177.0</ele><time>2026-05-01T12:59:34Z</time></trkpt><trkpt lat="38.869709309790906" lon="-9.290384270553847"><ele>177.0</ele><time>2026-05-01T12:59:35Z</time></trkpt><trkpt lat="38.86971966847558" lon="-9.29060109061081"><ele>177.0</ele><time>2026-05-01T12:59:36Z</time></trkpt><trkpt lat="38.86970973940797" lon="-9.290797687045048"><ele>176.0</ele><time>2026-05-01T12:59:37Z</time></trkpt><trkpt lat="38.86966507850948" lon="-9.290953870813572"><ele>175.0</ele><time>2026-05-01T12:59:38Z</time></trkpt><trkpt lat="38.869583545839546" lon="-9.291119456534137"><ele>174.0</ele><time>2026-05-01T12:59:39Z</time></trkpt><trkpt lat="38.86947231157317" lon="-9.291275370233668"><ele>173.0</ele><time>2026-05-01T12:59:40Z</time></trkpt><trkpt lat="38.86930306592553" lon="-9.291330959011377"><ele>172.66666666666666</ele><time>2026-05-01T12:59:41Z</time></trkpt><trkpt lat="38.86913932082242" lon="-9.291407747615462"><ele>172.33333333333334</ele><time>2026-05-01T12:59:42Z</time></trkpt><trkpt lat="38.868963985690954" lon="-9.291450673478575"><ele>172.0</ele><time>2026-05-01T12:59:43Z</time></trkpt><trkpt lat="38.868777140205324" lon="-9.291483146082467"><ele>172.0</ele><time>2026-05-01T12:59:44Z</time></trkpt><trkpt lat="38.86858060588126" lon="-9.29150901627305"><ele>172.0</ele><time>2026-05-01T12:59:45Z</time></trkpt><trkpt lat="38.86838531148284" lon="-9.291535943567991"><ele>172.0</ele><time>2026-05-01T12:59:46Z</time></trkpt><trkpt lat="38.86818810152571" lon="-9.291594120967265"><ele>174.0</ele><time>2026-05-01T12:59:47Z</time></trkpt><trkpt lat="38.86798872516857" lon="-9.291631991941006"><ele>176.0</ele><time>2026-05-01T12:59:48Z</time></trkpt><trkpt lat="38.86779563428174" lon="-9.291698143710494"><ele>178.0</ele><time>2026-05-01T12:59:49Z</time></trkpt><trkpt lat="38.867609907846436" lon="-9.291782499866963"><ele>180.0</ele><time>2026-05-01T12:59:50Z</time></trkpt><trkpt lat="38.86743221326644" lon="-9.29188485007629"><ele>182.0</ele><time>2026-05-01T12:59:51Z</time></trkpt><trkpt lat="38.867259770790156" lon="-9.292003778749809"><ele>184.0</ele><time>2026-05-01T12:59:52Z</time></trkpt><trkpt lat="38.86710541442734" lon="-9.292132209152506"><ele>183.66666666666669</ele><time>2026-05-01T12:59:53Z</time></trkpt><trkpt lat="38.866958849096164" lon="-9.292266946486738"><ele>183.33333333333334</ele><time>2026-05-01T12:59:54Z</time></trkpt><trkpt lat="38.86682470513843" lon="-9.29241836505962"><ele>183.0</ele><time>2026-05-01T12:59:55Z</time></trkpt><trkpt lat="38.86670212447425" lon="-9.292580662351003"><ele>183.0</ele><time>2026-05-01T12:59:56Z</time></trkpt><trkpt lat="38.8665861791124" lon="-9.292736900653711"><ele>183.0</ele><time>2026-05-01T12:59:57Z</time></trkpt><trkpt lat="38.866490839489124" lon="-9.292903866819561"><ele>183.0</ele><time>2026-05-01T12:59:58Z</time></trkpt><trkpt lat="38.86640774812387" lon="-9.29308959363306"><ele>181.33333333333334</ele><time>2026-05-01T12:59:59Z</time></trkpt><trkpt lat="38.86631480705688" lon="-9.29326500559668"><ele>179.66666666666669</ele><time>2026-05-01T13:00:00Z</time></trkpt><trkpt lat="38.86623852011857" lon="-9.293449079592678"><ele>178.0</ele><time>2026-05-01T13:00:01Z</time></trkpt><trkpt lat="38.866162467708314" lon="-9.293635396495343"><ele>178.0</ele><time>2026-05-01T13:00:02Z</time></trkpt><trkpt lat="38.8660846005403" lon="-9.293820851486391"><ele>178.0</ele><time>2026-05-01T13:00:03Z</time></trkpt><trkpt lat="38.866000598885236" lon="-9.294002352176518"><ele>178.0</ele><time>2026-05-01T13:00:04Z</time></trkpt><trkpt lat="38.86591340682776" lon="-9.294191946560879"><ele>176.0</ele><time>2026-05-01T13:00:05Z</time></trkpt><trkpt lat="38.865835167579455" lon="-9.29438459518758"><ele>174.0</ele><time>2026-05-01T13:00:06Z</time></trkpt><trkpt lat="38.86576132185077" lon="-9.294574706209788"><ele>172.0</ele><time>2026-05-01T13:00:07Z</time></trkpt><trkpt lat="38.86569249207757" lon="-9.294750330244016"><ele>171.0</ele><time>2026-05-01T13:00:08Z</time></trkpt><trkpt lat="38.865628750249385" lon="-9.294909320179388"><ele>170.0</ele><time>2026-05-01T13:00:09Z</time></trkpt><trkpt lat="38.86556262136765" lon="-9.29505618875573"><ele>169.0</ele><time>2026-05-01T13:00:10Z</time></trkpt><trkpt lat="38.86550456399585" lon="-9.29520799650487"><ele>168.0</ele><time>2026-05-01T13:00:11Z</time></trkpt><trkpt lat="38.86544352527446" lon="-9.295349013896395"><ele>168.0</ele><time>2026-05-01T13:00:12Z</time></trkpt><trkpt lat="38.86539902870512" lon="-9.29545491898229"><ele>168.0</ele><time>2026-05-01T13:00:13Z</time></trkpt><trkpt lat="38.86534173467415" lon="-9.295601316434842"><ele>168.0</ele><time>2026-05-01T13:00:15Z</time></trkpt><trkpt lat="38.86531257403853" lon="-9.295698372595242"><ele>168.0</ele><time>2026-05-01T13:00:16Z</time></trkpt><trkpt lat="38.86527383387285" lon="-9.295787467431175"><ele>168.0</ele><time>2026-05-01T13:00:17Z</time></trkpt><trkpt lat="38.86522903671134" lon="-9.295877180899437"><ele>167.66666666666666</ele><time>2026-05-01T13:00:18Z</time></trkpt><trkpt lat="38.86518494363335" lon="-9.295964759175483"><ele>167.33333333333334</ele><time>2026-05-01T13:00:19Z</time></trkpt><trkpt lat="38.86514716788795" lon="-9.296053881549891"><ele>167.0</ele><time>2026-05-01T13:00:20Z</time></trkpt><trkpt lat="38.8651049341239" lon="-9.296157750794885"><ele>166.66666666666669</ele><time>2026-05-01T13:00:22Z</time></trkpt><trkpt lat="38.86513010798555" lon="-9.296078326778732"><ele>166.33333333333334</ele><time>2026-05-01T13:00:26Z</time></trkpt><trkpt lat="38.86511290270767" lon="-9.295974626405174"><ele>166.0</ele><time>2026-05-01T13:00:27Z</time></trkpt><trkpt lat="38.8650697994824" lon="-9.296038024007029"><ele>166.0</ele><time>2026-05-01T13:00:39Z</time></trkpt><trkpt lat="38.86513191936521" lon="-9.295980979273123"><ele>166.0</ele><time>2026-05-01T13:01:44Z</time></trkpt><trkpt lat="38.86517244643085" lon="-9.295914199990337"><ele>166.0</ele><time>2026-05-01T13:01:45Z</time></trkpt><trkpt lat="38.86520627112491" lon="-9.295831682764279"><ele>166.0</ele><time>2026-05-01T13:01:46Z</time></trkpt><trkpt lat="38.865251245285776" lon="-9.295725318879342"><ele>166.0</ele><time>2026-05-01T13:01:47Z</time></trkpt><trkpt lat="38.86528311545267" lon="-9.295609435789176"><ele>166.0</ele><time>2026-05-01T13:01:48Z</time></trkpt><trkpt lat="38.865331687494354" lon="-9.295490833296483"><ele>166.5</ele><time>2026-05-01T13:01:49Z</time></trkpt><trkpt lat="38.865387081074005" lon="-9.295356651111167"><ele>167.0</ele><time>2026-05-01T13:01:50Z</time></trkpt><trkpt lat="38.86543772390618" lon="-9.295234555051069"><ele>167.5</ele><time>2026-05-01T13:01:51Z</time></trkpt><trkpt lat="38.86549469488043" lon="-9.295097039168493"><ele>168.0</ele><time>2026-05-01T13:01:52Z</time></trkpt><trkpt lat="38.86555136412864" lon="-9.294959289984108"><ele>168.0</ele><time>2026-05-01T13:01:53Z</time></trkpt><trkpt lat="38.865610061143485" lon="-9.29481744424196"><ele>168.0</ele><time>2026-05-01T13:01:54Z</time></trkpt><trkpt lat="38.8656710723616" lon="-9.294672820109549"><ele>168.0</ele><time>2026-05-01T13:01:55Z</time></trkpt><trkpt lat="38.86572914491302" lon="-9.294536904513064"><ele>168.0</ele><time>2026-05-01T13:01:56Z</time></trkpt><trkpt lat="38.86578159391965" lon="-9.294414911747522"><ele>168.8</ele><time>2026-05-01T13:01:57Z</time></trkpt><trkpt lat="38.865834576259594" lon="-9.294290904541665"><ele>169.60000000000002</ele><time>2026-05-01T13:01:58Z</time></trkpt><trkpt lat="38.86588692752871" lon="-9.294168374580877"><ele>170.39999999999998</ele><time>2026-05-01T13:01:59Z</time></trkpt><trkpt lat="38.86593977451187" lon="-9.294046111237103"><ele>171.2</ele><time>2026-05-01T13:02:00Z</time></trkpt><trkpt lat="38.86600573639353" lon="-9.293934924944372"><ele>172.0</ele><time>2026-05-01T13:02:01Z</time></trkpt><trkpt lat="38.86605240429308" lon="-9.293806996868003"><ele>173.5</ele><time>2026-05-01T13:02:02Z</time></trkpt><trkpt lat="38.8661087662295" lon="-9.293691567321442"><ele>175.0</ele><time>2026-05-01T13:02:03Z</time></trkpt><trkpt lat="38.86616138439832" lon="-9.293569177682503"><ele>176.5</ele><time>2026-05-01T13:02:04Z</time></trkpt><trkpt lat="38.86621986839939" lon="-9.293439801909049"><ele>178.0</ele><time>2026-05-01T13:02:05Z</time></trkpt><trkpt lat="38.86627969039096" lon="-9.293304400378302"><ele>178.0</ele><time>2026-05-01T13:02:06Z</time></trkpt><trkpt lat="38.86633708258901" lon="-9.293169209233545"><ele>178.0</ele><time>2026-05-01T13:02:07Z</time></trkpt><trkpt lat="38.866404351358774" lon="-9.293037178630476"><ele>178.0</ele><time>2026-05-01T13:02:08Z</time></trkpt><trkpt lat="38.86647272327198" lon="-9.29291226548572"><ele>178.0</ele><time>2026-05-01T13:02:09Z</time></trkpt><trkpt lat="38.86654677952408" lon="-9.292789316165795"><ele>179.25</ele><time>2026-05-01T13:02:10Z</time></trkpt><trkpt lat="38.866626125472095" lon="-9.29266067304039"><ele>180.5</ele><time>2026-05-01T13:02:11Z</time></trkpt><trkpt lat="38.86671007182557" lon="-9.292535562076143"><ele>181.75</ele><time>2026-05-01T13:02:12Z</time></trkpt><trkpt lat="38.86678876066283" lon="-9.292418883924032"><ele>183.0</ele><time>2026-05-01T13:02:13Z</time></trkpt><trkpt lat="38.86687431648206" lon="-9.292326253390266"><ele>183.0</ele><time>2026-05-01T13:02:14Z</time></trkpt><trkpt lat="38.86693090704394" lon="-9.292253127495865"><ele>183.0</ele><time>2026-05-01T13:02:15Z</time></trkpt><trkpt lat="38.86697635735859" lon="-9.292193379375385"><ele>183.0</ele><time>2026-05-01T13:02:16Z</time></trkpt><trkpt lat="38.867061230817555" lon="-9.292140599563478"><ele>183.0</ele><time>2026-05-01T13:02:19Z</time></trkpt><trkpt lat="38.86696015125638" lon="-9.29223930629203"><ele>183.0</ele><time>2026-05-01T13:02:20Z</time></trkpt><trkpt lat="38.866940559723034" lon="-9.292355107246841"><ele>183.0</ele><time>2026-05-01T13:02:21Z</time></trkpt><trkpt lat="38.86686794701703" lon="-9.292435481616682"><ele>183.0</ele><time>2026-05-01T13:02:22Z</time></trkpt><trkpt lat="38.86678806157497" lon="-9.292534980352205"><ele>183.0</ele><time>2026-05-01T13:02:23Z</time></trkpt><trkpt lat="38.8666983541438" lon="-9.29262200428446"><ele>183.0</ele><time>2026-05-01T13:02:24Z</time></trkpt><trkpt lat="38.86662801917917" lon="-9.292725135743742"><ele>183.0</ele><time>2026-05-01T13:02:25Z</time></trkpt><trkpt lat="38.86656479392722" lon="-9.292852322060131"><ele>183.0</ele><time>2026-05-01T13:02:26Z</time></trkpt><trkpt lat="38.86648663014868" lon="-9.292973194453724"><ele>183.0</ele><time>2026-05-01T13:02:27Z</time></trkpt><trkpt lat="38.8664162676765" lon="-9.293093931140044"><ele>183.0</ele><time>2026-05-01T13:02:28Z</time></trkpt><trkpt lat="38.86636241153864" lon="-9.293196759056181"><ele>183.0</ele><time>2026-05-01T13:02:29Z</time></trkpt><trkpt lat="38.86631644622173" lon="-9.293290376832372"><ele>183.0</ele><time>2026-05-01T13:02:30Z</time></trkpt><trkpt lat="38.866278963271434" lon="-9.29336763256687"><ele>182.0</ele><time>2026-05-01T13:02:31Z</time></trkpt><trkpt lat="38.86623883288707" lon="-9.293458939460292"><ele>181.0</ele><time>2026-05-01T13:02:32Z</time></trkpt><trkpt lat="38.86621135896722" lon="-9.293541070294548"><ele>180.0</ele><time>2026-05-01T13:02:33Z</time></trkpt><trkpt lat="38.86618485366358" lon="-9.293619711761133"><ele>179.0</ele><time>2026-05-01T13:02:34Z</time></trkpt><trkpt lat="38.866131027683835" lon="-9.293763814268958"><ele>178.0</ele><time>2026-05-01T13:02:36Z</time></trkpt><trkpt lat="38.86606853479742" lon="-9.293881663124578"><ele>177.5</ele><time>2026-05-01T13:02:38Z</time></trkpt><trkpt lat="38.866022944638516" lon="-9.294026028510002"><ele>177.0</ele><time>2026-05-01T13:02:40Z</time></trkpt><trkpt lat="38.86596780056733" lon="-9.294113163400636"><ele>176.5</ele><time>2026-05-01T13:02:42Z</time></trkpt><trkpt lat="38.86593222198932" lon="-9.2941957056811"><ele>176.0</ele><time>2026-05-01T13:02:44Z</time></trkpt><trkpt lat="38.86590069589508" lon="-9.29426949367512"><ele>175.5</ele><time>2026-05-01T13:02:46Z</time></trkpt><trkpt lat="38.86588707736445" lon="-9.294365053842764"><ele>175.0</ele><time>2026-05-01T13:02:49Z</time></trkpt><trkpt lat="38.86585587438346" lon="-9.29445194068707"><ele>174.5</ele><time>2026-05-01T13:02:52Z</time></trkpt><trkpt lat="38.865796100555755" lon="-9.294556140263742"><ele>174.0</ele><time>2026-05-01T13:02:54Z</time></trkpt><trkpt lat="38.865761248640275" lon="-9.294641790895255"><ele>173.5</ele><time>2026-05-01T13:02:56Z</time></trkpt><trkpt lat="38.865726549105695" lon="-9.294737743524152"><ele>173.0</ele><time>2026-05-01T13:05:41Z</time></trkpt><trkpt lat="38.86568464342297" lon="-9.294814770967008"><ele>172.5</ele><time>2026-05-01T13:05:44Z</time></trkpt><trkpt lat="38.865616969183094" lon="-9.294932843701602"><ele>172.0</ele><time>2026-05-01T13:05:46Z</time></trkpt><trkpt lat="38.86557673159496" lon="-9.295013857939459"><ele>171.2</ele><time>2026-05-01T13:05:47Z</time></trkpt><trkpt lat="38.86553954777587" lon="-9.295105287742581"><ele>170.39999999999998</ele><time>2026-05-01T13:05:48Z</time></trkpt><trkpt lat="38.86549784232284" lon="-9.295207502816117"><ele>169.60000000000002</ele><time>2026-05-01T13:05:49Z</time></trkpt><trkpt lat="38.8654502782153" lon="-9.295316032655528"><ele>168.8</ele><time>2026-05-01T13:05:50Z</time></trkpt><trkpt lat="38.86539430203588" lon="-9.295436166262757"><ele>168.0</ele><time>2026-05-01T13:05:51Z</time></trkpt><trkpt lat="38.86534182534473" lon="-9.295560428034893"><ele>167.5</ele><time>2026-05-01T13:05:52Z</time></trkpt><trkpt lat="38.8652911396116" lon="-9.295694520852832"><ele>167.0</ele><time>2026-05-01T13:05:53Z</time></trkpt><trkpt lat="38.86523507469815" lon="-9.295846366715628"><ele>166.5</ele><time>2026-05-01T13:05:54Z</time></trkpt><trkpt lat="38.86517921987483" lon="-9.295995510252004"><ele>166.0</ele><time>2026-05-01T13:05:55Z</time></trkpt><trkpt lat="38.86512196571472" lon="-9.29614478460078"><ele>166.0</ele><time>2026-05-01T13:05:56Z</time></trkpt><trkpt lat="38.86506943764252" lon="-9.296312958712052"><ele>166.0</ele><time>2026-05-01T13:05:57Z</time></trkpt><trkpt lat="38.865019153420384" lon="-9.296490350180274"><ele>166.0</ele><time>2026-05-01T13:05:58Z</time></trkpt><trkpt lat="38.86498038440008" lon="-9.296666351361218"><ele>166.0</ele><time>2026-05-01T13:05:59Z</time></trkpt><trkpt lat="38.86494202084247" lon="-9.29684918857312"><ele>165.33333333333334</ele><time>2026-05-01T13:06:00Z</time></trkpt><trkpt lat="38.86491917809231" lon="-9.297042765553957"><ele>164.66666666666666</ele><time>2026-05-01T13:06:01Z</time></trkpt><trkpt lat="38.86489462653966" lon="-9.297240746912294"><ele>164.0</ele><time>2026-05-01T13:06:02Z</time></trkpt><trkpt lat="38.86486833649025" lon="-9.29744406102855"><ele>164.0</ele><time>2026-05-01T13:06:03Z</time></trkpt><trkpt lat="38.86484003949047" lon="-9.297648482810896"><ele>164.0</ele><time>2026-05-01T13:06:04Z</time></trkpt><trkpt lat="38.864815189607384" lon="-9.29785292590545"><ele>164.0</ele><time>2026-05-01T13:06:05Z</time></trkpt><trkpt lat="38.86479168670602" lon="-9.298061088678761"><ele>164.0</ele><time>2026-05-01T13:06:06Z</time></trkpt><trkpt lat="38.864767214763226" lon="-9.298252918808043"><ele>164.0</ele><time>2026-05-01T13:06:07Z</time></trkpt><trkpt lat="38.86475133460327" lon="-9.298429949863214"><ele>164.0</ele><time>2026-05-01T13:06:08Z</time></trkpt><trkpt lat="38.86473698198008" lon="-9.298585095874836"><ele>164.0</ele><time>2026-05-01T13:06:09Z</time></trkpt><trkpt lat="38.864731294418654" lon="-9.298738135951131"><ele>164.0</ele><time>2026-05-01T13:06:10Z</time></trkpt><trkpt lat="38.86472364230412" lon="-9.298858954779053"><ele>164.0</ele><time>2026-05-01T13:06:11Z</time></trkpt><trkpt lat="38.86481623913003" lon="-9.298973819907015"><ele>164.0</ele><time>2026-05-01T13:06:12Z</time></trkpt><trkpt lat="38.86484579621902" lon="-9.299082114688002"><ele>164.0</ele><time>2026-05-01T13:06:13Z</time></trkpt><trkpt lat="38.86487130740783" lon="-9.29917288156331"><ele>164.0</ele><time>2026-05-01T13:06:14Z</time></trkpt><trkpt lat="38.86486615512558" lon="-9.299275688418934"><ele>163.5</ele><time>2026-05-01T13:06:15Z</time></trkpt><trkpt lat="38.864813069028656" lon="-9.299384170250592"><ele>163.0</ele><time>2026-05-01T13:06:16Z</time></trkpt><trkpt lat="38.86472792183008" lon="-9.299480417271093"><ele>162.5</ele><time>2026-05-01T13:06:17Z</time></trkpt><trkpt lat="38.864644321614456" lon="-9.299604241435217"><ele>162.0</ele><time>2026-05-01T13:06:18Z</time></trkpt><trkpt lat="38.864563453273206" lon="-9.299734520747988"><ele>162.0</ele><time>2026-05-01T13:06:19Z</time></trkpt><trkpt lat="38.864480515875904" lon="-9.299858233060274"><ele>162.0</ele><time>2026-05-01T13:06:20Z</time></trkpt><trkpt lat="38.86439569644043" lon="-9.300006260902366"><ele>162.0</ele><time>2026-05-01T13:06:21Z</time></trkpt><trkpt lat="38.864317410680684" lon="-9.300165930624868"><ele>162.0</ele><time>2026-05-01T13:06:22Z</time></trkpt><trkpt lat="38.864248191208645" lon="-9.300334500713175"><ele>162.0</ele><time>2026-05-01T13:06:23Z</time></trkpt><trkpt lat="38.86418418702799" lon="-9.300509651197704"><ele>162.0</ele><time>2026-05-01T13:06:24Z</time></trkpt><trkpt lat="38.86413278635568" lon="-9.30070310706394"><ele>162.0</ele><time>2026-05-01T13:06:25Z</time></trkpt><trkpt lat="38.864097171008424" lon="-9.300908550431187"><ele>161.33333333333334</ele><time>2026-05-01T13:06:26Z</time></trkpt><trkpt lat="38.864072914898045" lon="-9.301126240492403"><ele>160.66666666666669</ele><time>2026-05-01T13:06:27Z</time></trkpt><trkpt lat="38.86407325900111" lon="-9.30134777141724"><ele>160.0</ele><time>2026-05-01T13:06:28Z</time></trkpt><trkpt lat="38.86407996460668" lon="-9.301559304105057"><ele>159.0</ele><time>2026-05-01T13:06:29Z</time></trkpt><trkpt lat="38.864082952581406" lon="-9.301775816118372"><ele>158.0</ele><time>2026-05-01T13:06:30Z</time></trkpt><trkpt lat="38.86408509632906" lon="-9.301997493447317"><ele>157.0</ele><time>2026-05-01T13:06:31Z</time></trkpt><trkpt lat="38.8640878394203" lon="-9.30221251111007"><ele>156.66666666666669</ele><time>2026-05-01T13:06:32Z</time></trkpt><trkpt lat="38.86407818241219" lon="-9.302428482027937"><ele>156.33333333333334</ele><time>2026-05-01T13:06:33Z</time></trkpt><trkpt lat="38.864065605929554" lon="-9.302645482505962"><ele>156.0</ele><time>2026-05-01T13:06:34Z</time></trkpt><trkpt lat="38.86403957182537" lon="-9.302864312646918"><ele>155.66666666666666</ele><time>2026-05-01T13:06:35Z</time></trkpt><trkpt lat="38.86400475963714" lon="-9.30308445045812"><ele>155.33333333333331</ele><time>2026-05-01T13:06:36Z</time></trkpt><trkpt lat="38.86396221513941" lon="-9.303297710321806"><ele>155.0</ele><time>2026-05-01T13:06:37Z</time></trkpt><trkpt lat="38.86390649026194" lon="-9.303504412127449"><ele>155.0</ele><time>2026-05-01T13:06:38Z</time></trkpt><trkpt lat="38.863839580407756" lon="-9.303709369324258"><ele>155.0</ele><time>2026-05-01T13:06:39Z</time></trkpt><trkpt lat="38.863759654925055" lon="-9.303906898895507"><ele>155.0</ele><time>2026-05-01T13:06:40Z</time></trkpt><trkpt lat="38.86367700855553" lon="-9.304094994518204"><ele>154.66666666666666</ele><time>2026-05-01T13:06:41Z</time></trkpt><trkpt lat="38.86357772122799" lon="-9.304273219824658"><ele>154.33333333333334</ele><time>2026-05-01T13:06:42Z</time></trkpt><trkpt lat="38.8634733549951" lon="-9.304449453227559"><ele>154.0</ele><time>2026-05-01T13:06:43Z</time></trkpt><trkpt lat="38.863363914032625" lon="-9.304621345885904"><ele>153.66666666666669</ele><time>2026-05-01T13:06:44Z</time></trkpt><trkpt lat="38.8632514564767" lon="-9.304790528692838"><ele>153.33333333333334</ele><time>2026-05-01T13:06:45Z</time></trkpt><trkpt lat="38.86313695532592" lon="-9.304960907893156"><ele>153.0</ele><time>2026-05-01T13:06:46Z</time></trkpt><trkpt lat="38.863038681182104" lon="-9.305131708727618"><ele>153.0</ele><time>2026-05-01T13:06:47Z</time></trkpt><trkpt lat="38.862932683054865" lon="-9.305302347424284"><ele>153.0</ele><time>2026-05-01T13:06:48Z</time></trkpt><trkpt lat="38.86282928674302" lon="-9.305472303893284"><ele>153.0</ele><time>2026-05-01T13:06:49Z</time></trkpt><trkpt lat="38.86272700593813" lon="-9.30563818109592"><ele>153.0</ele><time>2026-05-01T13:06:50Z</time></trkpt><trkpt lat="38.862623663318104" lon="-9.305803743743446"><ele>153.0</ele><time>2026-05-01T13:06:51Z</time></trkpt><trkpt lat="38.86251809352105" lon="-9.305972010500037"><ele>153.0</ele><time>2026-05-01T13:06:52Z</time></trkpt><trkpt lat="38.86240993673903" lon="-9.306129537852422"><ele>153.0</ele><time>2026-05-01T13:06:53Z</time></trkpt><trkpt lat="38.86229989529871" lon="-9.306292977240934"><ele>153.0</ele><time>2026-05-01T13:06:54Z</time></trkpt><trkpt lat="38.862182496950574" lon="-9.30646393892716"><ele>153.0</ele><time>2026-05-01T13:06:55Z</time></trkpt><trkpt lat="38.862067775745516" lon="-9.306619320545462"><ele>153.33333333333334</ele><time>2026-05-01T13:06:56Z</time></trkpt><trkpt lat="38.861952862062054" lon="-9.306761685502511"><ele>153.66666666666669</ele><time>2026-05-01T13:06:57Z</time></trkpt><trkpt lat="38.861832763477686" lon="-9.306901245879809"><ele>154.0</ele><time>2026-05-01T13:06:58Z</time></trkpt><trkpt lat="38.86171402336458" lon="-9.307036873155267"><ele>154.0</ele><time>2026-05-01T13:06:59Z</time></trkpt><trkpt lat="38.8615970565316" lon="-9.307168589508304"><ele>154.0</ele><time>2026-05-01T13:07:00Z</time></trkpt><trkpt lat="38.861483186001394" lon="-9.307299306652451"><ele>154.0</ele><time>2026-05-01T13:07:01Z</time></trkpt><trkpt lat="38.86136961452369" lon="-9.307431654288129"><ele>153.25</ele><time>2026-05-01T13:07:02Z</time></trkpt><trkpt lat="38.86126567078566" lon="-9.307561610939377"><ele>152.5</ele><time>2026-05-01T13:07:03Z</time></trkpt><trkpt lat="38.86117268521432" lon="-9.30767751436899"><ele>151.75</ele><time>2026-05-01T13:07:04Z</time></trkpt><trkpt lat="38.86109586693853" lon="-9.307777882597305"><ele>151.0</ele><time>2026-05-01T13:07:05Z</time></trkpt><trkpt lat="38.86102187536001" lon="-9.307857813921679"><ele>151.0</ele><time>2026-05-01T13:07:06Z</time></trkpt><trkpt lat="38.8609580926144" lon="-9.30792808519623"><ele>151.0</ele><time>2026-05-01T13:07:07Z</time></trkpt><trkpt lat="38.860901648559896" lon="-9.308001003374251"><ele>151.0</ele><time>2026-05-01T13:07:08Z</time></trkpt><trkpt lat="38.86086051609286" lon="-9.308112864616913"><ele>151.0</ele><time>2026-05-01T13:07:09Z</time></trkpt><trkpt lat="38.86084160542879" lon="-9.308244566608375"><ele>151.0</ele><time>2026-05-01T13:07:10Z</time></trkpt><trkpt lat="38.8608932241074" lon="-9.308383560145186"><ele>152.75</ele><time>2026-05-01T13:07:11Z</time></trkpt><trkpt lat="38.86096723258031" lon="-9.308496838074507"><ele>154.5</ele><time>2026-05-01T13:07:12Z</time></trkpt><trkpt lat="38.861058081578776" lon="-9.308615503688117"><ele>156.25</ele><time>2026-05-01T13:07:13Z</time></trkpt><trkpt lat="38.86115325211969" lon="-9.308739848651111"><ele>158.0</ele><time>2026-05-01T13:07:14Z</time></trkpt><trkpt lat="38.861235234630215" lon="-9.308866665376158"><ele>160.25</ele><time>2026-05-01T13:07:15Z</time></trkpt><trkpt lat="38.86131958225983" lon="-9.308968236205597"><ele>162.5</ele><time>2026-05-01T13:07:16Z</time></trkpt><trkpt lat="38.86140378402221" lon="-9.30909247147953"><ele>164.75</ele><time>2026-05-01T13:07:17Z</time></trkpt><trkpt lat="38.861495313838866" lon="-9.309201960065884"><ele>167.0</ele><time>2026-05-01T13:07:18Z</time></trkpt><trkpt lat="38.861585511414546" lon="-9.309315236236975"><ele>167.0</ele><time>2026-05-01T13:07:19Z</time></trkpt><trkpt lat="38.8616737671657" lon="-9.309417400358647"><ele>167.0</ele><time>2026-05-01T13:07:20Z</time></trkpt><trkpt lat="38.86175438718649" lon="-9.309518033669391"><ele>167.0</ele><time>2026-05-01T13:07:21Z</time></trkpt><trkpt lat="38.861812510549" lon="-9.309630033973956"><ele>167.0</ele><time>2026-05-01T13:07:22Z</time></trkpt><trkpt lat="38.861840065191664" lon="-9.309769996173209"><ele>167.0</ele><time>2026-05-01T13:07:23Z</time></trkpt><trkpt lat="38.86181214546985" lon="-9.3099106941975"><ele>168.0</ele><time>2026-05-01T13:07:24Z</time></trkpt><trkpt lat="38.86178212745359" lon="-9.31006224594523"><ele>169.0</ele><time>2026-05-01T13:07:25Z</time></trkpt><trkpt lat="38.86175333293304" lon="-9.310217268396741"><ele>170.0</ele><time>2026-05-01T13:07:26Z</time></trkpt><trkpt lat="38.86168907856623" lon="-9.310367608005874"><ele>171.0</ele><time>2026-05-01T13:07:27Z</time></trkpt><trkpt lat="38.86160392583012" lon="-9.310520530150393"><ele>170.0</ele><time>2026-05-01T13:07:28Z</time></trkpt><trkpt lat="38.86149040634972" lon="-9.310655294855115"><ele>169.0</ele><time>2026-05-01T13:07:29Z</time></trkpt><trkpt lat="38.86136888351471" lon="-9.310770259751997"><ele>168.0</ele><time>2026-05-01T13:07:30Z</time></trkpt><trkpt lat="38.861247940491964" lon="-9.31087972273794"><ele>168.0</ele><time>2026-05-01T13:07:31Z</time></trkpt><trkpt lat="38.8611287784053" lon="-9.310996968938685"><ele>168.0</ele><time>2026-05-01T13:07:32Z</time></trkpt><trkpt lat="38.86101089340794" lon="-9.311125256770133"><ele>168.0</ele><time>2026-05-01T13:07:33Z</time></trkpt><trkpt lat="38.86089794897781" lon="-9.311257662079097"><ele>166.75</ele><time>2026-05-01T13:07:34Z</time></trkpt><trkpt lat="38.86080381103555" lon="-9.311400092533715"><ele>165.5</ele><time>2026-05-01T13:07:35Z</time></trkpt><trkpt lat="38.86075065033266" lon="-9.311572449196822"><ele>164.25</ele><time>2026-05-01T13:07:36Z</time></trkpt><trkpt lat="38.86073009797257" lon="-9.311754840000127"><ele>163.0</ele><time>2026-05-01T13:07:37Z</time></trkpt><trkpt lat="38.86072235507816" lon="-9.311929601199003"><ele>163.0</ele><time>2026-05-01T13:07:38Z</time></trkpt><trkpt lat="38.86072666232665" lon="-9.312101920773577"><ele>163.0</ele><time>2026-05-01T13:07:39Z</time></trkpt><trkpt lat="38.86073326102671" lon="-9.31227294657692"><ele>163.0</ele><time>2026-05-01T13:07:40Z</time></trkpt><trkpt lat="38.86073684384978" lon="-9.312446126340348"><ele>163.0</ele><time>2026-05-01T13:07:41Z</time></trkpt><trkpt lat="38.86073927072328" lon="-9.312607006861978"><ele>162.75</ele><time>2026-05-01T13:07:42Z</time></trkpt><trkpt lat="38.86074085791382" lon="-9.312766773107843"><ele>162.5</ele><time>2026-05-01T13:07:43Z</time></trkpt><trkpt lat="38.86073572799851" lon="-9.312922090875029"><ele>162.25</ele><time>2026-05-01T13:07:44Z</time></trkpt><trkpt lat="38.86073653628563" lon="-9.313083550758687"><ele>162.0</ele><time>2026-05-01T13:07:45Z</time></trkpt><trkpt lat="38.86073008125102" lon="-9.313250603256227"><ele>162.25</ele><time>2026-05-01T13:07:46Z</time></trkpt><trkpt lat="38.86072070877526" lon="-9.313425934022519"><ele>162.5</ele><time>2026-05-01T13:07:47Z</time></trkpt><trkpt lat="38.86070447729642" lon="-9.313594024707722"><ele>162.75</ele><time>2026-05-01T13:07:48Z</time></trkpt><trkpt lat="38.86068237524917" lon="-9.313760929067271"><ele>163.0</ele><time>2026-05-01T13:07:49Z</time></trkpt><trkpt lat="38.86065459403241" lon="-9.31392689636092"><ele>163.0</ele><time>2026-05-01T13:07:50Z</time></trkpt><trkpt lat="38.86061796118545" lon="-9.314094053916218"><ele>163.0</ele><time>2026-05-01T13:07:51Z</time></trkpt><trkpt lat="38.8605704336084" lon="-9.314262038591334"><ele>163.0</ele><time>2026-05-01T13:07:52Z</time></trkpt><trkpt lat="38.86052423345765" lon="-9.314440649592797"><ele>163.0</ele><time>2026-05-01T13:07:53Z</time></trkpt><trkpt lat="38.86047661343932" lon="-9.314618360549646"><ele>162.75</ele><time>2026-05-01T13:07:54Z</time></trkpt><trkpt lat="38.86042819290232" lon="-9.314798852083774"><ele>162.5</ele><time>2026-05-01T13:07:55Z</time></trkpt><trkpt lat="38.86038013248937" lon="-9.314981776614038"><ele>162.25</ele><time>2026-05-01T13:07:56Z</time></trkpt><trkpt lat="38.86032811547058" lon="-9.315154070947054"><ele>162.0</ele><time>2026-05-01T13:07:57Z</time></trkpt><trkpt lat="38.8602765764594" lon="-9.315345477287424"><ele>162.0</ele><time>2026-05-01T13:07:58Z</time></trkpt><trkpt lat="38.8602217305059" lon="-9.315536381153736"><ele>162.0</ele><time>2026-05-01T13:07:59Z</time></trkpt><trkpt lat="38.86017216007409" lon="-9.315727414821774"><ele>162.0</ele><time>2026-05-01T13:08:00Z</time></trkpt><trkpt lat="38.86012543686933" lon="-9.315935548522564"><ele>161.25</ele><time>2026-05-01T13:08:01Z</time></trkpt><trkpt lat="38.86009034879639" lon="-9.316131290509299"><ele>160.5</ele><time>2026-05-01T13:08:02Z</time></trkpt><trkpt lat="38.86007701095946" lon="-9.31631546362892"><ele>159.75</ele><time>2026-05-01T13:08:03Z</time></trkpt><trkpt lat="38.86008249015455" lon="-9.31646570826483"><ele>159.0</ele><time>2026-05-01T13:08:04Z</time></trkpt><trkpt lat="38.86009486176183" lon="-9.316607668846597"><ele>158.25</ele><time>2026-05-01T13:08:05Z</time></trkpt><trkpt lat="38.86012526367512" lon="-9.316732103890654"><ele>157.5</ele><time>2026-05-01T13:08:06Z</time></trkpt><trkpt lat="38.86017234473961" lon="-9.31686117495532"><ele>156.75</ele><time>2026-05-01T13:08:07Z</time></trkpt><trkpt lat="38.86023661528472" lon="-9.31699472016172"><ele>156.0</ele><time>2026-05-01T13:08:08Z</time></trkpt><trkpt lat="38.860300738647325" lon="-9.317140946152508"><ele>157.0</ele><time>2026-05-01T13:08:09Z</time></trkpt><trkpt lat="38.86036799727653" lon="-9.317290568669067"><ele>158.0</ele><time>2026-05-01T13:08:10Z</time></trkpt><trkpt lat="38.86044513933205" lon="-9.317462219102717"><ele>159.0</ele><time>2026-05-01T13:08:11Z</time></trkpt><trkpt lat="38.86052507925368" lon="-9.317631604750108"><ele>160.0</ele><time>2026-05-01T13:08:12Z</time></trkpt><trkpt lat="38.86060135310902" lon="-9.317816732690439"><ele>160.0</ele><time>2026-05-01T13:08:13Z</time></trkpt><trkpt lat="38.86068023262265" lon="-9.318011888213613"><ele>160.0</ele><time>2026-05-01T13:08:14Z</time></trkpt><trkpt lat="38.86076000934283" lon="-9.318205432456102"><ele>160.0</ele><time>2026-05-01T13:08:15Z</time></trkpt><trkpt lat="38.86083731509071" lon="-9.318403281523537"><ele>160.33333333333334</ele><time>2026-05-01T13:08:16Z</time></trkpt><trkpt lat="38.86090642050965" lon="-9.318598777865294"><ele>160.66666666666666</ele><time>2026-05-01T13:08:17Z</time></trkpt><trkpt lat="38.86098134024542" lon="-9.318789363287971"><ele>161.0</ele><time>2026-05-01T13:08:18Z</time></trkpt><trkpt lat="38.86104028196389" lon="-9.318979306534331"><ele>164.0</ele><time>2026-05-01T13:08:19Z</time></trkpt><trkpt lat="38.86107190164081" lon="-9.319181164840714"><ele>167.0</ele><time>2026-05-01T13:08:20Z</time></trkpt><trkpt lat="38.861079012326414" lon="-9.319378289344359"><ele>170.0</ele><time>2026-05-01T13:08:21Z</time></trkpt><trkpt lat="38.86104148161593" lon="-9.319570567250222"><ele>169.0</ele><time>2026-05-01T13:08:22Z</time></trkpt><trkpt lat="38.86097932347651" lon="-9.319753883509408"><ele>168.0</ele><time>2026-05-01T13:08:23Z</time></trkpt><trkpt lat="38.86090673328952" lon="-9.319938300585495"><ele>167.0</ele><time>2026-05-01T13:08:24Z</time></trkpt><trkpt lat="38.8608375971389" lon="-9.320127249471474"><ele>167.0</ele><time>2026-05-01T13:08:25Z</time></trkpt><trkpt lat="38.86074439911261" lon="-9.320301401892975"><ele>167.0</ele><time>2026-05-01T13:08:26Z</time></trkpt><trkpt lat="38.86066085691448" lon="-9.32047767733767"><ele>167.0</ele><time>2026-05-01T13:08:27Z</time></trkpt><trkpt lat="38.86057788088794" lon="-9.32065657463765"><ele>167.66666666666666</ele><time>2026-05-01T13:08:28Z</time></trkpt><trkpt lat="38.86050993989474" lon="-9.320836426993786"><ele>168.33333333333334</ele><time>2026-05-01T13:08:29Z</time></trkpt><trkpt lat="38.86044620351192" lon="-9.32102245060196"><ele>169.0</ele><time>2026-05-01T13:08:30Z</time></trkpt><trkpt lat="38.86038539473572" lon="-9.321202091016238"><ele>169.0</ele><time>2026-05-01T13:08:31Z</time></trkpt><trkpt lat="38.860332456084485" lon="-9.321390541397998"><ele>169.0</ele><time>2026-05-01T13:08:32Z</time></trkpt><trkpt lat="38.860267581681036" lon="-9.32157935003068"><ele>169.0</ele><time>2026-05-01T13:08:33Z</time></trkpt><trkpt lat="38.86020808275039" lon="-9.321768808690175"><ele>168.66666666666669</ele><time>2026-05-01T13:08:34Z</time></trkpt><trkpt lat="38.860143651277504" lon="-9.32195365709969"><ele>168.33333333333334</ele><time>2026-05-01T13:08:35Z</time></trkpt><trkpt lat="38.86007632631156" lon="-9.322130931000112"><ele>168.0</ele><time>2026-05-01T13:08:36Z</time></trkpt><trkpt lat="38.86001202140822" lon="-9.32229766450683"><ele>167.5</ele><time>2026-05-01T13:08:37Z</time></trkpt><trkpt lat="38.85995173960362" lon="-9.32246923704709"><ele>167.0</ele><time>2026-05-01T13:08:38Z</time></trkpt><trkpt lat="38.85988879708035" lon="-9.322639182711661"><ele>166.5</ele><time>2026-05-01T13:08:39Z</time></trkpt><trkpt lat="38.85982255756014" lon="-9.322810004134853"><ele>166.0</ele><time>2026-05-01T13:08:40Z</time></trkpt><trkpt lat="38.859758323502305" lon="-9.32297691928623"><ele>166.75</ele><time>2026-05-01T13:08:41Z</time></trkpt><trkpt lat="38.859691486604184" lon="-9.323143488796607"><ele>167.5</ele><time>2026-05-01T13:08:42Z</time></trkpt><trkpt lat="38.85963280719029" lon="-9.323312151612797"><ele>168.25</ele><time>2026-05-01T13:08:43Z</time></trkpt><trkpt lat="38.85958156917834" lon="-9.32348486231215"><ele>169.0</ele><time>2026-05-01T13:08:44Z</time></trkpt><trkpt lat="38.85952414765508" lon="-9.323659897849065"><ele>169.0</ele><time>2026-05-01T13:08:45Z</time></trkpt><trkpt lat="38.8594754923392" lon="-9.323835924485103"><ele>169.0</ele><time>2026-05-01T13:08:46Z</time></trkpt><trkpt lat="38.85942524580054" lon="-9.323999813348436"><ele>169.0</ele><time>2026-05-01T13:08:47Z</time></trkpt><trkpt lat="38.85937063954647" lon="-9.324141589423387"><ele>169.0</ele><time>2026-05-01T13:08:48Z</time></trkpt><trkpt lat="38.85930730648363" lon="-9.32427184404921"><ele>167.75</ele><time>2026-05-01T13:08:49Z</time></trkpt><trkpt lat="38.859208301423784" lon="-9.324361609775867"><ele>166.5</ele><time>2026-05-01T13:08:50Z</time></trkpt><trkpt lat="38.859099981117026" lon="-9.324440005864325"><ele>165.25</ele><time>2026-05-01T13:08:51Z</time></trkpt><trkpt lat="38.858992634141046" lon="-9.324531310178589"><ele>164.0</ele><time>2026-05-01T13:08:52Z</time></trkpt><trkpt lat="38.8588723122082" lon="-9.324597532432966"><ele>164.0</ele><time>2026-05-01T13:08:53Z</time></trkpt><trkpt lat="38.858758937020475" lon="-9.324679038146499"><ele>164.0</ele><time>2026-05-01T13:08:54Z</time></trkpt><trkpt lat="38.85864758328557" lon="-9.32475874069187"><ele>164.0</ele><time>2026-05-01T13:08:55Z</time></trkpt><trkpt lat="38.858542462290856" lon="-9.32484401711022"><ele>164.0</ele><time>2026-05-01T13:08:56Z</time></trkpt><trkpt lat="38.858431427872326" lon="-9.324934289769294"><ele>163.0</ele><time>2026-05-01T13:08:57Z</time></trkpt><trkpt lat="38.85833189037251" lon="-9.325029086646811"><ele>162.0</ele><time>2026-05-01T13:08:58Z</time></trkpt><trkpt lat="38.85824462923125" lon="-9.325107148305722"><ele>161.0</ele><time>2026-05-01T13:08:59Z</time></trkpt><trkpt lat="38.85815903379883" lon="-9.325176915814684"><ele>160.0</ele><time>2026-05-01T13:09:00Z</time></trkpt><trkpt lat="38.858080130198765" lon="-9.32523802246644"><ele>159.0</ele><time>2026-05-01T13:09:01Z</time></trkpt><trkpt lat="38.85800963590014" lon="-9.325303616740293"><ele>159.0</ele><time>2026-05-01T13:09:02Z</time></trkpt><trkpt lat="38.8579388292072" lon="-9.325364135580735"><ele>159.0</ele><time>2026-05-01T13:09:03Z</time></trkpt><trkpt lat="38.85787199576906" lon="-9.325420505726212"><ele>159.0</ele><time>2026-05-01T13:09:04Z</time></trkpt><trkpt lat="38.85779527884696" lon="-9.325469255207215"><ele>159.0</ele><time>2026-05-01T13:09:05Z</time></trkpt><trkpt lat="38.85771926321409" lon="-9.325524624345151"><ele>159.0</ele><time>2026-05-01T13:09:06Z</time></trkpt><trkpt lat="38.85765385216356" lon="-9.32557799787381"><ele>159.0</ele><time>2026-05-01T13:09:07Z</time></trkpt><trkpt lat="38.857591589709294" lon="-9.325626789773521"><ele>158.2</ele><time>2026-05-01T13:09:08Z</time></trkpt><trkpt lat="38.85751892475516" lon="-9.325668644093438"><ele>157.4</ele><time>2026-05-01T13:09:09Z</time></trkpt><trkpt lat="38.857448351520745" lon="-9.325718468696701"><ele>156.6</ele><time>2026-05-01T13:09:10Z</time></trkpt><trkpt lat="38.85737653349716" lon="-9.32576728708188"><ele>155.8</ele><time>2026-05-01T13:09:11Z</time></trkpt><trkpt lat="38.857276852642485" lon="-9.325811590019873"><ele>155.0</ele><time>2026-05-01T13:09:13Z</time></trkpt><trkpt lat="38.85733732199817" lon="-9.325970550291611"><ele>155.0</ele><time>2026-05-01T13:09:21Z</time></trkpt><trkpt lat="38.85752447219588" lon="-9.325896586760663"><ele>155.0</ele><time>2026-05-01T13:09:23Z</time></trkpt><trkpt lat="38.857616096534166" lon="-9.325916627747256"><ele>155.0</ele><time>2026-05-01T13:09:24Z</time></trkpt><trkpt lat="38.85769643263245" lon="-9.325962070587781"><ele>155.0</ele><time>2026-05-01T13:09:25Z</time></trkpt><trkpt lat="38.85778011346146" lon="-9.326001446276662"><ele>153.66666666666666</ele><time>2026-05-01T13:09:26Z</time></trkpt><trkpt lat="38.85787580527028" lon="-9.326228523904135"><ele>152.33333333333334</ele><time>2026-05-01T13:09:27Z</time></trkpt><trkpt lat="38.8579382316918" lon="-9.326416193237161"><ele>151.0</ele><time>2026-05-01T13:09:28Z</time></trkpt><trkpt lat="38.85802732156079" lon="-9.326592909679281"><ele>150.33333333333334</ele><time>2026-05-01T13:09:29Z</time></trkpt><trkpt lat="38.85811496366565" lon="-9.32681393877203"><ele>149.66666666666666</ele><time>2026-05-01T13:09:30Z</time></trkpt><trkpt lat="38.858213744311314" lon="-9.32705794722214"><ele>149.0</ele><time>2026-05-01T13:09:31Z</time></trkpt><trkpt lat="38.85831109604294" lon="-9.32728885158734"><ele>149.0</ele><time>2026-05-01T13:09:32Z</time></trkpt><trkpt lat="38.85840617731929" lon="-9.32751136519232"><ele>149.0</ele><time>2026-05-01T13:09:33Z</time></trkpt><trkpt lat="38.858510166032794" lon="-9.327750147842655"><ele>149.0</ele><time>2026-05-01T13:09:34Z</time></trkpt><trkpt lat="38.85862034241691" lon="-9.328002163080857"><ele>149.5</ele><time>2026-05-01T13:09:35Z</time></trkpt><trkpt lat="38.85874206381837" lon="-9.328252688926474"><ele>150.0</ele><time>2026-05-01T13:09:36Z</time></trkpt><trkpt lat="38.85887597473682" lon="-9.328494092250146"><ele>150.0</ele><time>2026-05-01T13:09:37Z</time></trkpt><trkpt lat="38.85901254483101" lon="-9.328727110813691"><ele>150.0</ele><time>2026-05-01T13:09:38Z</time></trkpt><trkpt lat="38.85915327894437" lon="-9.328963637878259"><ele>151.0</ele><time>2026-05-01T13:09:39Z</time></trkpt><trkpt lat="38.85929328368993" lon="-9.329198007003937"><ele>152.0</ele><time>2026-05-01T13:09:40Z</time></trkpt><trkpt lat="38.859426833985786" lon="-9.32942108438243"><ele>153.0</ele><time>2026-05-01T13:09:41Z</time></trkpt><trkpt lat="38.85953483182086" lon="-9.329677340708004"><ele>153.33333333333334</ele><time>2026-05-01T13:09:42Z</time></trkpt><trkpt lat="38.85966461924486" lon="-9.329898248230927"><ele>153.66666666666669</ele><time>2026-05-01T13:09:43Z</time></trkpt><trkpt lat="38.85977999979775" lon="-9.330105947635236"><ele>154.0</ele><time>2026-05-01T13:09:44Z</time></trkpt><trkpt lat="38.85989626959573" lon="-9.330276750242033"><ele>154.0</ele><time>2026-05-01T13:09:45Z</time></trkpt><trkpt lat="38.86001056470609" lon="-9.330472927363559"><ele>154.0</ele><time>2026-05-01T13:09:46Z</time></trkpt><trkpt lat="38.86011721388112" lon="-9.330660685061048"><ele>154.0</ele><time>2026-05-01T13:09:47Z</time></trkpt><trkpt lat="38.86021032088795" lon="-9.33082824343002"><ele>154.75</ele><time>2026-05-01T13:09:48Z</time></trkpt><trkpt lat="38.860299695883675" lon="-9.330978977191897"><ele>155.5</ele><time>2026-05-01T13:09:49Z</time></trkpt><trkpt lat="38.8603870346755" lon="-9.331107773158134"><ele>156.25</ele><time>2026-05-01T13:09:50Z</time></trkpt><trkpt lat="38.86046481290889" lon="-9.331214407076816"><ele>157.0</ele><time>2026-05-01T13:09:51Z</time></trkpt><trkpt lat="38.860541627339785" lon="-9.331305591334354"><ele>157.0</ele><time>2026-05-01T13:09:52Z</time></trkpt><trkpt lat="38.860615368628565" lon="-9.331380497891056"><ele>157.0</ele><time>2026-05-01T13:09:53Z</time></trkpt><trkpt lat="38.8606825507552" lon="-9.331457736317702"><ele>157.0</ele><time>2026-05-01T13:09:54Z</time></trkpt><trkpt lat="38.860713796575325" lon="-9.331558255798846"><ele>157.0</ele><time>2026-05-01T13:09:55Z</time></trkpt><trkpt lat="38.86073198335902" lon="-9.331660981726724"><ele>157.0</ele><time>2026-05-01T13:09:56Z</time></trkpt><trkpt lat="38.86073174470023" lon="-9.331763049137031"><ele>157.0</ele><time>2026-05-01T13:09:57Z</time></trkpt><trkpt lat="38.860719743891856" lon="-9.33187954554284"><ele>157.33333333333334</ele><time>2026-05-01T13:09:58Z</time></trkpt><trkpt lat="38.86072102767544" lon="-9.331989044924041"><ele>157.66666666666669</ele><time>2026-05-01T13:09:59Z</time></trkpt><trkpt lat="38.86069712964031" lon="-9.332078136589548"><ele>158.0</ele><time>2026-05-01T13:10:00Z</time></trkpt><trkpt lat="38.86067591882699" lon="-9.33216700527474"><ele>158.33333333333334</ele><time>2026-05-01T13:10:01Z</time></trkpt><trkpt lat="38.860648494208725" lon="-9.332295481543941"><ele>158.66666666666666</ele><time>2026-05-01T13:10:03Z</time></trkpt><trkpt lat="38.860638386510935" lon="-9.33241998860896"><ele>159.0</ele><time>2026-05-01T13:10:05Z</time></trkpt><trkpt lat="38.86067032552943" lon="-9.33249129384341"><ele>159.0</ele><time>2026-05-01T13:10:06Z</time></trkpt><trkpt lat="38.860695474716096" lon="-9.332577594409585"><ele>159.0</ele><time>2026-05-01T13:10:07Z</time></trkpt><trkpt lat="38.86066172386208" lon="-9.332664974389196"><ele>159.0</ele><time>2026-05-01T13:10:08Z</time></trkpt><trkpt lat="38.86057920415504" lon="-9.332724677165716"><ele>159.0</ele><time>2026-05-01T13:10:09Z</time></trkpt><trkpt lat="38.860535341849214" lon="-9.33285748692629"><ele>159.0</ele><time>2026-05-01T13:10:10Z</time></trkpt><trkpt lat="38.86051670298687" lon="-9.333013343668322"><ele>159.0</ele><time>2026-05-01T13:10:11Z</time></trkpt><trkpt lat="38.86049640458025" lon="-9.333199129458452"><ele>159.0</ele><time>2026-05-01T13:10:12Z</time></trkpt><trkpt lat="38.86047320476515" lon="-9.333368169863258"><ele>159.0</ele><time>2026-05-01T13:10:13Z</time></trkpt><trkpt lat="38.860435099292786" lon="-9.333618656003607"><ele>159.0</ele><time>2026-05-01T13:10:14Z</time></trkpt><trkpt lat="38.860452058946755" lon="-9.333754520287439"><ele>159.0</ele><time>2026-05-01T13:10:15Z</time></trkpt><trkpt lat="38.86040685186057" lon="-9.333871777947685"><ele>159.0</ele><time>2026-05-01T13:10:16Z</time></trkpt><trkpt lat="38.86039825022791" lon="-9.333987041015883"><ele>159.0</ele><time>2026-05-01T13:10:17Z</time></trkpt><trkpt lat="38.86034471039066" lon="-9.334090309128984"><ele>159.0</ele><time>2026-05-01T13:10:18Z</time></trkpt><trkpt lat="38.860330485824804" lon="-9.334181736369631"><ele>158.2</ele><time>2026-05-01T13:10:19Z</time></trkpt><trkpt lat="38.860279242122424" lon="-9.334266387874491"><ele>157.4</ele><time>2026-05-01T13:10:20Z</time></trkpt><trkpt lat="38.86021393340858" lon="-9.334426464074669"><ele>156.6</ele><time>2026-05-01T13:10:22Z</time></trkpt><trkpt lat="38.8601765948595" lon="-9.33452592296507"><ele>155.8</ele><time>2026-05-01T13:10:23Z</time></trkpt><trkpt lat="38.860142680702985" lon="-9.334641525775233"><ele>155.0</ele><time>2026-05-01T13:10:24Z</time></trkpt><trkpt lat="38.86014625218143" lon="-9.33479476442362"><ele>154.75</ele><time>2026-05-01T13:10:25Z</time></trkpt><trkpt lat="38.86011683058585" lon="-9.33496906999737"><ele>154.5</ele><time>2026-05-01T13:10:26Z</time></trkpt><trkpt lat="38.86009485060949" lon="-9.335109533209604"><ele>154.25</ele><time>2026-05-01T13:10:27Z</time></trkpt><trkpt lat="38.8600628205386" lon="-9.335254130522657"><ele>154.0</ele><time>2026-05-01T13:10:28Z</time></trkpt><trkpt lat="38.86002443475837" lon="-9.335408239948073"><ele>154.0</ele><time>2026-05-01T13:10:29Z</time></trkpt><trkpt lat="38.85998329799485" lon="-9.335548645754134"><ele>154.0</ele><time>2026-05-01T13:10:30Z</time></trkpt><trkpt lat="38.85993358550606" lon="-9.335638672863576"><ele>154.0</ele><time>2026-05-01T13:10:31Z</time></trkpt><trkpt lat="38.85986785335774" lon="-9.335753769223004"><ele>154.0</ele><time>2026-05-01T13:10:32Z</time></trkpt><trkpt lat="38.85978656367252" lon="-9.335858688499828"><ele>154.0</ele><time>2026-05-01T13:10:33Z</time></trkpt><trkpt lat="38.859710609845585" lon="-9.335988230203377"><ele>152.4</ele><time>2026-05-01T13:10:34Z</time></trkpt><trkpt lat="38.859648671709095" lon="-9.33609093967385"><ele>150.8</ele><time>2026-05-01T13:10:35Z</time></trkpt><trkpt lat="38.85959584179703" lon="-9.336208045766648"><ele>149.2</ele><time>2026-05-01T13:10:36Z</time></trkpt><trkpt lat="38.85955231344599" lon="-9.336345547913552"><ele>147.6</ele><time>2026-05-01T13:10:37Z</time></trkpt><trkpt lat="38.85950738087564" lon="-9.336481061902596"><ele>146.0</ele><time>2026-05-01T13:10:38Z</time></trkpt><trkpt lat="38.85946683948378" lon="-9.336631894211292"><ele>145.0</ele><time>2026-05-01T13:10:39Z</time></trkpt><trkpt lat="38.859419950211624" lon="-9.336773665720791"><ele>144.0</ele><time>2026-05-01T13:10:40Z</time></trkpt><trkpt lat="38.859363008893475" lon="-9.336899789390937"><ele>143.0</ele><time>2026-05-01T13:10:41Z</time></trkpt><trkpt lat="38.85928378557448" lon="-9.337004635374885"><ele>142.0</ele><time>2026-05-01T13:10:42Z</time></trkpt><trkpt lat="38.859178513411194" lon="-9.3370841351654"><ele>142.0</ele><time>2026-05-01T13:10:43Z</time></trkpt><trkpt lat="38.85907970977051" lon="-9.337181248092254"><ele>142.0</ele><time>2026-05-01T13:10:44Z</time></trkpt><trkpt lat="38.85899592179594" lon="-9.337283582622662"><ele>142.0</ele><time>2026-05-01T13:10:45Z</time></trkpt><trkpt lat="38.85892285753514" lon="-9.337406037640617"><ele>142.0</ele><time>2026-05-01T13:10:46Z</time></trkpt><trkpt lat="38.858840902237695" lon="-9.337530958084391"><ele>141.25</ele><time>2026-05-01T13:10:47Z</time></trkpt><trkpt lat="38.85875111477625" lon="-9.337656717203604"><ele>140.5</ele><time>2026-05-01T13:10:48Z</time></trkpt><trkpt lat="38.85865874865625" lon="-9.337789930362122"><ele>139.75</ele><time>2026-05-01T13:10:49Z</time></trkpt><trkpt lat="38.858560915267645" lon="-9.337929223311296"><ele>139.0</ele><time>2026-05-01T13:10:50Z</time></trkpt><trkpt lat="38.85845433081117" lon="-9.338061395454101"><ele>137.25</ele><time>2026-05-01T13:10:51Z</time></trkpt><trkpt lat="38.85835242670586" lon="-9.338191699375116"><ele>135.5</ele><time>2026-05-01T13:10:52Z</time></trkpt><trkpt lat="38.858241757892" lon="-9.338314609000502"><ele>133.75</ele><time>2026-05-01T13:10:53Z</time></trkpt><trkpt lat="38.8581383708454" lon="-9.338434481999613"><ele>132.0</ele><time>2026-05-01T13:10:54Z</time></trkpt><trkpt lat="38.85804327400915" lon="-9.338541728167497"><ele>132.0</ele><time>2026-05-01T13:10:55Z</time></trkpt><trkpt lat="38.85795035047555" lon="-9.338654320155566"><ele>132.0</ele><time>2026-05-01T13:10:56Z</time></trkpt><trkpt lat="38.85786390522627" lon="-9.338753350468037"><ele>132.0</ele><time>2026-05-01T13:10:57Z</time></trkpt><trkpt lat="38.85779003594833" lon="-9.338835414651582"><ele>132.0</ele><time>2026-05-01T13:10:58Z</time></trkpt><trkpt lat="38.85772254271335" lon="-9.338907571640028"><ele>132.0</ele><time>2026-05-01T13:10:59Z</time></trkpt><trkpt lat="38.85765884227384" lon="-9.338981122385698"><ele>131.66666666666666</ele><time>2026-05-01T13:11:00Z</time></trkpt><trkpt lat="38.857600223439846" lon="-9.339056467289495"><ele>131.33333333333334</ele><time>2026-05-01T13:11:01Z</time></trkpt><trkpt lat="38.85754374285942" lon="-9.339134271060306"><ele>131.0</ele><time>2026-05-01T13:11:02Z</time></trkpt><trkpt lat="38.85748643750819" lon="-9.339210798257152"><ele>130.66666666666669</ele><time>2026-05-01T13:11:03Z</time></trkpt><trkpt lat="38.85742591192346" lon="-9.33928453090228"><ele>130.33333333333334</ele><time>2026-05-01T13:11:04Z</time></trkpt><trkpt lat="38.85735433156594" lon="-9.339355294644712"><ele>130.0</ele><time>2026-05-01T13:11:05Z</time></trkpt><trkpt lat="38.85727137202001" lon="-9.339407675944663"><ele>130.0</ele><time>2026-05-01T13:11:06Z</time></trkpt><trkpt lat="38.85717251574349" lon="-9.339452283722057"><ele>130.0</ele><time>2026-05-01T13:11:07Z</time></trkpt><trkpt lat="38.8570582798434" lon="-9.339469067469231"><ele>130.0</ele><time>2026-05-01T13:11:08Z</time></trkpt><trkpt lat="38.856938069101155" lon="-9.339459030531865"><ele>130.0</ele><time>2026-05-01T13:11:09Z</time></trkpt><trkpt lat="38.856809892275905" lon="-9.339415068988878"><ele>129.0</ele><time>2026-05-01T13:11:10Z</time></trkpt><trkpt lat="38.85668522402901" lon="-9.339338850768437"><ele>128.0</ele><time>2026-05-01T13:11:11Z</time></trkpt><trkpt lat="38.85656595544099" lon="-9.339290085947558"><ele>127.0</ele><time>2026-05-01T13:11:12Z</time></trkpt><trkpt lat="38.85644540833555" lon="-9.339275994375278"><ele>126.0</ele><time>2026-05-01T13:11:13Z</time></trkpt><trkpt lat="38.856316803467806" lon="-9.339291284202714"><ele>126.0</ele><time>2026-05-01T13:11:14Z</time></trkpt><trkpt lat="38.85618154686063" lon="-9.339331443673894"><ele>126.0</ele><time>2026-05-01T13:11:15Z</time></trkpt><trkpt lat="38.85604621148744" lon="-9.339396052981526"><ele>126.0</ele><time>2026-05-01T13:11:16Z</time></trkpt><trkpt lat="38.85589490313881" lon="-9.33946725281939"><ele>126.0</ele><time>2026-05-01T13:11:17Z</time></trkpt><trkpt lat="38.85575745297794" lon="-9.339507475485195"><ele>124.25</ele><time>2026-05-01T13:11:18Z</time></trkpt><trkpt lat="38.85562799470852" lon="-9.339538695877685"><ele>122.5</ele><time>2026-05-01T13:11:19Z</time></trkpt><trkpt lat="38.85550769701665" lon="-9.339574631514997"><ele>120.75</ele><time>2026-05-01T13:11:20Z</time></trkpt><trkpt lat="38.85540572318953" lon="-9.339650753651032"><ele>119.0</ele><time>2026-05-01T13:11:21Z</time></trkpt><trkpt lat="38.85530593681473" lon="-9.339767848492023"><ele>118.33333333333333</ele><time>2026-05-01T13:11:22Z</time></trkpt><trkpt lat="38.85520072810254" lon="-9.339897699432653"><ele>117.66666666666666</ele><time>2026-05-01T13:11:23Z</time></trkpt><trkpt lat="38.85507811821501" lon="-9.340029227066287"><ele>117.0</ele><time>2026-05-01T13:11:24Z</time></trkpt><trkpt lat="38.85496433956286" lon="-9.340184535471064"><ele>112.66666666666666</ele><time>2026-05-01T13:11:25Z</time></trkpt><trkpt lat="38.85484019759386" lon="-9.340353320797636"><ele>108.33333333333333</ele><time>2026-05-01T13:11:26Z</time></trkpt><trkpt lat="38.85471370873743" lon="-9.340536392634014"><ele>104.0</ele><time>2026-05-01T13:11:27Z</time></trkpt><trkpt lat="38.854585227828885" lon="-9.340717851777748"><ele>101.66666666666666</ele><time>2026-05-01T13:11:28Z</time></trkpt><trkpt lat="38.85445837392571" lon="-9.34089609833563"><ele>99.33333333333334</ele><time>2026-05-01T13:11:29Z</time></trkpt><trkpt lat="38.854337433566485" lon="-9.341074610622444"><ele>97.0</ele><time>2026-05-01T13:11:30Z</time></trkpt><trkpt lat="38.854211994560146" lon="-9.341251759158128"><ele>99.66666666666667</ele><time>2026-05-01T13:11:31Z</time></trkpt><trkpt lat="38.85409865859941" lon="-9.341429805384939"><ele>102.33333333333334</ele><time>2026-05-01T13:11:32Z</time></trkpt><trkpt lat="38.8539876348329" lon="-9.341600289712199"><ele>105.0</ele><time>2026-05-01T13:11:33Z</time></trkpt><trkpt lat="38.853877753668456" lon="-9.341765793784816"><ele>105.0</ele><time>2026-05-01T13:11:34Z</time></trkpt><trkpt lat="38.85377721768968" lon="-9.341921944055724"><ele>105.0</ele><time>2026-05-01T13:11:35Z</time></trkpt><trkpt lat="38.85367237073583" lon="-9.34206058684408"><ele>105.0</ele><time>2026-05-01T13:11:36Z</time></trkpt><trkpt lat="38.85356584810571" lon="-9.342180356880979"><ele>108.5</ele><time>2026-05-01T13:11:37Z</time></trkpt><trkpt lat="38.85345350155045" lon="-9.342304540858873"><ele>112.0</ele><time>2026-05-01T13:11:38Z</time></trkpt><trkpt lat="38.85333138498715" lon="-9.34240434391156"><ele>115.5</ele><time>2026-05-01T13:11:39Z</time></trkpt><trkpt lat="38.8532045114197" lon="-9.342479437743492"><ele>119.0</ele><time>2026-05-01T13:11:40Z</time></trkpt><trkpt lat="38.85306987149209" lon="-9.342534939640835"><ele>119.0</ele><time>2026-05-01T13:11:41Z</time></trkpt><trkpt lat="38.85293350606336" lon="-9.342571552290634"><ele>119.0</ele><time>2026-05-01T13:11:42Z</time></trkpt><trkpt lat="38.85279816577987" lon="-9.342608749157781"><ele>119.0</ele><time>2026-05-01T13:11:43Z</time></trkpt><trkpt lat="38.85266724150377" lon="-9.342654581573155"><ele>119.0</ele><time>2026-05-01T13:11:44Z</time></trkpt><trkpt lat="38.852539620877955" lon="-9.342719712054604"><ele>119.5</ele><time>2026-05-01T13:11:45Z</time></trkpt><trkpt lat="38.85242737067214" lon="-9.342823976569766"><ele>120.0</ele><time>2026-05-01T13:11:46Z</time></trkpt><trkpt lat="38.85232910445672" lon="-9.342968552514519"><ele>120.5</ele><time>2026-05-01T13:11:47Z</time></trkpt><trkpt lat="38.852249044348085" lon="-9.343132427115515"><ele>121.0</ele><time>2026-05-01T13:11:48Z</time></trkpt><trkpt lat="38.85218274140608" lon="-9.343302203477709"><ele>123.25</ele><time>2026-05-01T13:11:49Z</time></trkpt><trkpt lat="38.85213215162765" lon="-9.343478808292458"><ele>125.5</ele><time>2026-05-01T13:11:50Z</time></trkpt><trkpt lat="38.85210342536673" lon="-9.343652155887225"><ele>127.75</ele><time>2026-05-01T13:11:51Z</time></trkpt><trkpt lat="38.85207954475725" lon="-9.343802031149792"><ele>130.0</ele><time>2026-05-01T13:11:52Z</time></trkpt><trkpt lat="38.85202277759599" lon="-9.343915848850836"><ele>131.75</ele><time>2026-05-01T13:11:53Z</time></trkpt><trkpt lat="38.85192928171535" lon="-9.343984831461237"><ele>133.5</ele><time>2026-05-01T13:11:54Z</time></trkpt><trkpt lat="38.85181714854199" lon="-9.344045883286931"><ele>135.25</ele><time>2026-05-01T13:11:55Z</time></trkpt><trkpt lat="38.85170564951285" lon="-9.344091567610306"><ele>137.0</ele><time>2026-05-01T13:11:56Z</time></trkpt><trkpt lat="38.8516197880414" lon="-9.344180625510468"><ele>137.0</ele><time>2026-05-01T13:11:57Z</time></trkpt><trkpt lat="38.85157106277782" lon="-9.344321789250005"><ele>137.0</ele><time>2026-05-01T13:11:58Z</time></trkpt><trkpt lat="38.85150735506648" lon="-9.344470625493495"><ele>137.0</ele><time>2026-05-01T13:11:59Z</time></trkpt><trkpt lat="38.8514549539166" lon="-9.34461014638333"><ele>137.0</ele><time>2026-05-01T13:12:00Z</time></trkpt><trkpt lat="38.851388964878176" lon="-9.344744503358811"><ele>138.0</ele><time>2026-05-01T13:12:01Z</time></trkpt><trkpt lat="38.85131611457498" lon="-9.344871724547591"><ele>139.0</ele><time>2026-05-01T13:12:02Z</time></trkpt><trkpt lat="38.851246312578965" lon="-9.34499064349034"><ele>140.0</ele><time>2026-05-01T13:12:03Z</time></trkpt><trkpt lat="38.85117855084164" lon="-9.345114226911093"><ele>141.0</ele><time>2026-05-01T13:12:04Z</time></trkpt><trkpt lat="38.851104159520524" lon="-9.345237601216065"><ele>141.0</ele><time>2026-05-01T13:12:05Z</time></trkpt><trkpt lat="38.85103618068985" lon="-9.345369788915042"><ele>141.0</ele><time>2026-05-01T13:12:06Z</time></trkpt><trkpt lat="38.85096217841089" lon="-9.345492789734871"><ele>141.0</ele><time>2026-05-01T13:12:07Z</time></trkpt><trkpt lat="38.8508780563435" lon="-9.34560082770594"><ele>141.0</ele><time>2026-05-01T13:12:08Z</time></trkpt><trkpt lat="38.85077498991576" lon="-9.345676309654575"><ele>141.25</ele><time>2026-05-01T13:12:09Z</time></trkpt><trkpt lat="38.850655907149545" lon="-9.345714385117411"><ele>141.5</ele><time>2026-05-01T13:12:10Z</time></trkpt><trkpt lat="38.850536603782956" lon="-9.345744500160615"><ele>141.75</ele><time>2026-05-01T13:12:11Z</time></trkpt><trkpt lat="38.85041504844345" lon="-9.345769935719225"><ele>142.0</ele><time>2026-05-01T13:12:12Z</time></trkpt><trkpt lat="38.85029937276681" lon="-9.345808745615585"><ele>142.0</ele><time>2026-05-01T13:12:13Z</time></trkpt><trkpt lat="38.850191435585714" lon="-9.345851843765846"><ele>142.0</ele><time>2026-05-01T13:12:14Z</time></trkpt><trkpt lat="38.850078684208604" lon="-9.345884894014663"><ele>142.0</ele><time>2026-05-01T13:12:15Z</time></trkpt><trkpt lat="38.849970022545214" lon="-9.345916956483853"><ele>142.0</ele><time>2026-05-01T13:12:16Z</time></trkpt><trkpt lat="38.84986143503389" lon="-9.34595137014726"><ele>141.79999999999998</ele><time>2026-05-01T13:12:17Z</time></trkpt><trkpt lat="38.84975381815493" lon="-9.34598810570768"><ele>141.6</ele><time>2026-05-01T13:12:18Z</time></trkpt><trkpt lat="38.84964546907727" lon="-9.346032701603853"><ele>141.39999999999998</ele><time>2026-05-01T13:12:19Z</time></trkpt><trkpt lat="38.84953792676612" lon="-9.346080418450818"><ele>141.2</ele><time>2026-05-01T13:12:20Z</time></trkpt><trkpt lat="38.849434522897134" lon="-9.346130383214904"><ele>141.0</ele><time>2026-05-01T13:12:21Z</time></trkpt><trkpt lat="38.84932932836603" lon="-9.346181689423233"><ele>141.0</ele><time>2026-05-01T13:12:22Z</time></trkpt><trkpt lat="38.8492242777406" lon="-9.346233220391314"><ele>141.0</ele><time>2026-05-01T13:12:23Z</time></trkpt><trkpt lat="38.849121569641405" lon="-9.346283518650317"><ele>141.0</ele><time>2026-05-01T13:12:24Z</time></trkpt><trkpt lat="38.849014312893146" lon="-9.346336817769629"><ele>141.0</ele><time>2026-05-01T13:12:25Z</time></trkpt><trkpt lat="38.84891217706556" lon="-9.346389282887934"><ele>141.0</ele><time>2026-05-01T13:12:26Z</time></trkpt><trkpt lat="38.84880978220287" lon="-9.346444290029307"><ele>141.0</ele><time>2026-05-01T13:12:27Z</time></trkpt><trkpt lat="38.84870576036516" lon="-9.3465017020793"><ele>141.0</ele><time>2026-05-01T13:12:28Z</time></trkpt><trkpt lat="38.84860654490947" lon="-9.346557537738049"><ele>141.0</ele><time>2026-05-01T13:12:29Z</time></trkpt><trkpt lat="38.84850729545887" lon="-9.346616231526491"><ele>141.0</ele><time>2026-05-01T13:12:30Z</time></trkpt><trkpt lat="38.848410009701496" lon="-9.34667755685619"><ele>141.0</ele><time>2026-05-01T13:12:31Z</time></trkpt><trkpt lat="38.848317191201986" lon="-9.34673786339303"><ele>141.0</ele><time>2026-05-01T13:12:32Z</time></trkpt><trkpt lat="38.8482188061253" lon="-9.34679936970796"><ele>141.0</ele><time>2026-05-01T13:12:33Z</time></trkpt><trkpt lat="38.8481218927699" lon="-9.346857652651224"><ele>141.0</ele><time>2026-05-01T13:12:34Z</time></trkpt><trkpt lat="38.848025062259694" lon="-9.346914981310526"><ele>141.0</ele><time>2026-05-01T13:12:35Z</time></trkpt><trkpt lat="38.84794187135834" lon="-9.3469428984714"><ele>141.0</ele><time>2026-05-01T13:12:36Z</time></trkpt><trkpt lat="38.84787296638926" lon="-9.346982018870406"><ele>141.0</ele><time>2026-05-01T13:12:37Z</time></trkpt><trkpt lat="38.847799268494185" lon="-9.346993198491166"><ele>141.0</ele><time>2026-05-01T13:12:38Z</time></trkpt><trkpt lat="38.847719142049215" lon="-9.347006650842415"><ele>141.0</ele><time>2026-05-01T13:12:39Z</time></trkpt><trkpt lat="38.84762742320961" lon="-9.347004421455095"><ele>141.0</ele><time>2026-05-01T13:12:40Z</time></trkpt><trkpt lat="38.84753151156927" lon="-9.346997901261856"><ele>141.0</ele><time>2026-05-01T13:12:41Z</time></trkpt><trkpt lat="38.847432348214745" lon="-9.346986015617526"><ele>141.0</ele><time>2026-05-01T13:12:42Z</time></trkpt><trkpt lat="38.84733765055014" lon="-9.346969904682968"><ele>141.8</ele><time>2026-05-01T13:12:43Z</time></trkpt><trkpt lat="38.8472679551512" lon="-9.346955169033112"><ele>142.6</ele><time>2026-05-01T13:12:44Z</time></trkpt><trkpt lat="38.847208540962946" lon="-9.346921639597426"><ele>143.4</ele><time>2026-05-01T13:12:45Z</time></trkpt><trkpt lat="38.84711535832584" lon="-9.346944383675456"><ele>144.2</ele><time>2026-05-01T13:12:47Z</time></trkpt><trkpt lat="38.84703795066369" lon="-9.346948987676157"><ele>145.0</ele><time>2026-05-01T13:12:54Z</time></trkpt><trkpt lat="38.84695610599712" lon="-9.347112577421981"><ele>145.0</ele><time>2026-05-01T13:12:56Z</time></trkpt><trkpt lat="38.846854397859296" lon="-9.347200187778263"><ele>145.0</ele><time>2026-05-01T13:12:58Z</time></trkpt><trkpt lat="38.84678594561876" lon="-9.347256219003933"><ele>145.0</ele><time>2026-05-01T13:12:59Z</time></trkpt><trkpt lat="38.8467548966763" lon="-9.347377784272533"><ele>145.0</ele><time>2026-05-01T13:13:00Z</time></trkpt><trkpt lat="38.84669830546335" lon="-9.34746894986385"><ele>145.0</ele><time>2026-05-01T13:13:01Z</time></trkpt><trkpt lat="38.84664267275843" lon="-9.347566771628886"><ele>145.5</ele><time>2026-05-01T13:13:02Z</time></trkpt><trkpt lat="38.84657588725561" lon="-9.34767023732536"><ele>146.0</ele><time>2026-05-01T13:13:03Z</time></trkpt><trkpt lat="38.84648620834025" lon="-9.34780006565254"><ele>146.5</ele><time>2026-05-01T13:13:04Z</time></trkpt><trkpt lat="38.846394582129236" lon="-9.347938881445309"><ele>147.0</ele><time>2026-05-01T13:13:05Z</time></trkpt><trkpt lat="38.846297690114795" lon="-9.348096011466918"><ele>145.33333333333334</ele><time>2026-05-01T13:13:06Z</time></trkpt><trkpt lat="38.84619999323484" lon="-9.348256924401312"><ele>143.66666666666669</ele><time>2026-05-01T13:13:07Z</time></trkpt><trkpt lat="38.84609688737682" lon="-9.348417547400402"><ele>142.0</ele><time>2026-05-01T13:13:08Z</time></trkpt><trkpt lat="38.84598558271316" lon="-9.348592162958196"><ele>141.33333333333334</ele><time>2026-05-01T13:13:09Z</time></trkpt><trkpt lat="38.84587047948647" lon="-9.34876334597122"><ele>140.66666666666666</ele><time>2026-05-01T13:13:10Z</time></trkpt><trkpt lat="38.845751837520424" lon="-9.34894149375083"><ele>140.0</ele><time>2026-05-01T13:13:11Z</time></trkpt><trkpt lat="38.84565390361762" lon="-9.349098473194953"><ele>140.0</ele><time>2026-05-01T13:13:12Z</time></trkpt><trkpt lat="38.845559236795225" lon="-9.349254286765376"><ele>140.0</ele><time>2026-05-01T13:13:13Z</time></trkpt><trkpt lat="38.845459310837526" lon="-9.349404952897155"><ele>140.0</ele><time>2026-05-01T13:13:14Z</time></trkpt><trkpt lat="38.84535722148957" lon="-9.349553017877952"><ele>140.0</ele><time>2026-05-01T13:13:15Z</time></trkpt><trkpt lat="38.84525168162671" lon="-9.349692573190037"><ele>140.0</ele><time>2026-05-01T13:13:16Z</time></trkpt><trkpt lat="38.84515114230412" lon="-9.349826604031282"><ele>140.0</ele><time>2026-05-01T13:13:17Z</time></trkpt><trkpt lat="38.84504220576518" lon="-9.349918966846085"><ele>140.0</ele><time>2026-05-01T13:13:18Z</time></trkpt><trkpt lat="38.844926344216326" lon="-9.349983218450772"><ele>140.5</ele><time>2026-05-01T13:13:19Z</time></trkpt><trkpt lat="38.84479852898089" lon="-9.350020050998337"><ele>141.0</ele><time>2026-05-01T13:13:20Z</time></trkpt><trkpt lat="38.84466410636076" lon="-9.350054283427262"><ele>141.5</ele><time>2026-05-01T13:13:21Z</time></trkpt><trkpt lat="38.844530165882766" lon="-9.350104652463395"><ele>142.0</ele><time>2026-05-01T13:13:22Z</time></trkpt><trkpt lat="38.844393761453915" lon="-9.350165235968964"><ele>143.0</ele><time>2026-05-01T13:13:23Z</time></trkpt><trkpt lat="38.844251317261374" lon="-9.350222590251935"><ele>144.0</ele><time>2026-05-01T13:13:24Z</time></trkpt><trkpt lat="38.844110705238535" lon="-9.350283321451757"><ele>145.0</ele><time>2026-05-01T13:13:25Z</time></trkpt><trkpt lat="38.84396506876369" lon="-9.350339797247802"><ele>145.0</ele><time>2026-05-01T13:13:26Z</time></trkpt><trkpt lat="38.84381970748308" lon="-9.350392203459993"><ele>145.0</ele><time>2026-05-01T13:13:27Z</time></trkpt><trkpt lat="38.843699972619554" lon="-9.350445623457793"><ele>145.0</ele><time>2026-05-01T13:13:28Z</time></trkpt><trkpt lat="38.8436104052383" lon="-9.350505689883581"><ele>145.0</ele><time>2026-05-01T13:13:29Z</time></trkpt><trkpt lat="38.84353758981265" lon="-9.350546540004297"><ele>144.5</ele><time>2026-05-01T13:13:30Z</time></trkpt><trkpt lat="38.843441981174855" lon="-9.350600178207163"><ele>144.0</ele><time>2026-05-01T13:13:32Z</time></trkpt><trkpt lat="38.84334118999375" lon="-9.350360229545993"><ele>143.5</ele><time>2026-05-01T13:13:33Z</time></trkpt><trkpt lat="38.843316912555494" lon="-9.350229500946487"><ele>143.0</ele><time>2026-05-01T13:13:34Z</time></trkpt><trkpt lat="38.843279997259295" lon="-9.350088462614737"><ele>143.0</ele><time>2026-05-01T13:13:35Z</time></trkpt><trkpt lat="38.84320897498171" lon="-9.349973914367538"><ele>143.0</ele><time>2026-05-01T13:13:36Z</time></trkpt><trkpt lat="38.843119175575374" lon="-9.349926489661538"><ele>143.0</ele><time>2026-05-01T13:13:37Z</time></trkpt><trkpt lat="38.84301495683925" lon="-9.349908529085965"><ele>143.0</ele><time>2026-05-01T13:13:38Z</time></trkpt><trkpt lat="38.842899907194706" lon="-9.349945955652183"><ele>143.0</ele><time>2026-05-01T13:13:39Z</time></trkpt><trkpt lat="38.842793590438966" lon="-9.350018959027706"><ele>143.0</ele><time>2026-05-01T13:13:40Z</time></trkpt><trkpt lat="38.84267018422278" lon="-9.350094457654018"><ele>143.0</ele><time>2026-05-01T13:13:41Z</time></trkpt><trkpt lat="38.84256159245677" lon="-9.350205615175044"><ele>143.0</ele><time>2026-05-01T13:13:42Z</time></trkpt><trkpt lat="38.84245810678014" lon="-9.350319484231033"><ele>143.0</ele><time>2026-05-01T13:13:43Z</time></trkpt><trkpt lat="38.84235998252612" lon="-9.35043562495334"><ele>141.66666666666666</ele><time>2026-05-01T13:13:44Z</time></trkpt><trkpt lat="38.84226053463691" lon="-9.35056668166119"><ele>140.33333333333334</ele><time>2026-05-01T13:13:45Z</time></trkpt><trkpt lat="38.84214322848997" lon="-9.3507241027165"><ele>139.0</ele><time>2026-05-01T13:13:46Z</time></trkpt><trkpt lat="38.84200903785079" lon="-9.350883100506069"><ele>139.0</ele><time>2026-05-01T13:13:47Z</time></trkpt><trkpt lat="38.84188165911361" lon="-9.35107848707048"><ele>139.0</ele><time>2026-05-01T13:13:48Z</time></trkpt><trkpt lat="38.84176752137064" lon="-9.351297576198874"><ele>139.0</ele><time>2026-05-01T13:13:49Z</time></trkpt><trkpt lat="38.841665113309205" lon="-9.351497381059259"><ele>136.33333333333334</ele><time>2026-05-01T13:13:50Z</time></trkpt><trkpt lat="38.841575357441954" lon="-9.351669681160876"><ele>133.66666666666666</ele><time>2026-05-01T13:13:51Z</time></trkpt><trkpt lat="38.841476541724205" lon="-9.351842473283716"><ele>131.0</ele><time>2026-05-01T13:13:52Z</time></trkpt><trkpt lat="38.841382691657564" lon="-9.352020766600475"><ele>131.0</ele><time>2026-05-01T13:13:53Z</time></trkpt><trkpt lat="38.84128318590967" lon="-9.352189221836774"><ele>131.0</ele><time>2026-05-01T13:13:54Z</time></trkpt><trkpt lat="38.84116760613892" lon="-9.352361852475061"><ele>131.0</ele><time>2026-05-01T13:13:55Z</time></trkpt><trkpt lat="38.84103951372944" lon="-9.352532605068108"><ele>130.33333333333331</ele><time>2026-05-01T13:13:56Z</time></trkpt><trkpt lat="38.840895058494965" lon="-9.352694925620606"><ele>129.66666666666666</ele><time>2026-05-01T13:13:57Z</time></trkpt><trkpt lat="38.840733046509584" lon="-9.352854179218726"><ele>129.0</ele><time>2026-05-01T13:13:58Z</time></trkpt><trkpt lat="38.84055340316912" lon="-9.353008387494366"><ele>123.5</ele><time>2026-05-01T13:13:59Z</time></trkpt><trkpt lat="38.840360141086784" lon="-9.353161093149069"><ele>118.0</ele><time>2026-05-01T13:14:00Z</time></trkpt><trkpt lat="38.840163269994314" lon="-9.353315294928205"><ele>119.5</ele><time>2026-05-01T13:14:01Z</time></trkpt><trkpt lat="38.839962622142565" lon="-9.35346728526537"><ele>121.0</ele><time>2026-05-01T13:14:02Z</time></trkpt><trkpt lat="38.83976697107379" lon="-9.353620831227582"><ele>121.0</ele><time>2026-05-01T13:14:03Z</time></trkpt><trkpt lat="38.83956706289303" lon="-9.35377530888013"><ele>121.0</ele><time>2026-05-01T13:14:04Z</time></trkpt><trkpt lat="38.839374377908804" lon="-9.353929020003834"><ele>123.0</ele><time>2026-05-01T13:14:05Z</time></trkpt><trkpt lat="38.83919297651308" lon="-9.354078027220718"><ele>125.0</ele><time>2026-05-01T13:14:06Z</time></trkpt><trkpt lat="38.83903555162747" lon="-9.354212670020912"><ele>127.0</ele><time>2026-05-01T13:14:07Z</time></trkpt><trkpt lat="38.838868674416744" lon="-9.35434878741842"><ele>127.0</ele><time>2026-05-01T13:14:08Z</time></trkpt><trkpt lat="38.83869045123342" lon="-9.354490318804213"><ele>127.0</ele><time>2026-05-01T13:14:09Z</time></trkpt><trkpt lat="38.838506952408046" lon="-9.354634667563015"><ele>127.0</ele><time>2026-05-01T13:14:10Z</time></trkpt><trkpt lat="38.83832234204557" lon="-9.354779275790182"><ele>127.33333333333334</ele><time>2026-05-01T13:14:11Z</time></trkpt><trkpt lat="38.83815228665381" lon="-9.354941171200133"><ele>127.66666666666666</ele><time>2026-05-01T13:14:12Z</time></trkpt><trkpt lat="38.83799304270929" lon="-9.355043918878089"><ele>128.0</ele><time>2026-05-01T13:14:13Z</time></trkpt><trkpt lat="38.83785143871791" lon="-9.35515869994797"><ele>128.0</ele><time>2026-05-01T13:14:14Z</time></trkpt><trkpt lat="38.837713524541215" lon="-9.355267111945606"><ele>128.0</ele><time>2026-05-01T13:14:15Z</time></trkpt><trkpt lat="38.83757671973918" lon="-9.355361205746718"><ele>128.0</ele><time>2026-05-01T13:14:16Z</time></trkpt><trkpt lat="38.83743037207554" lon="-9.355446051569368"><ele>128.66666666666666</ele><time>2026-05-01T13:14:17Z</time></trkpt><trkpt lat="38.83726813067342" lon="-9.355532304605886"><ele>129.33333333333334</ele><time>2026-05-01T13:14:18Z</time></trkpt><trkpt lat="38.83709926604684" lon="-9.355618069852339"><ele>130.0</ele><time>2026-05-01T13:14:19Z</time></trkpt><trkpt lat="38.83694550193572" lon="-9.355684104997135"><ele>130.75</ele><time>2026-05-01T13:14:20Z</time></trkpt><trkpt lat="38.836809849144366" lon="-9.355731114633372"><ele>131.5</ele><time>2026-05-01T13:14:21Z</time></trkpt><trkpt lat="38.83668248562925" lon="-9.355771198155916"><ele>132.25</ele><time>2026-05-01T13:14:22Z</time></trkpt><trkpt lat="38.83655083572276" lon="-9.35581065711546"><ele>133.0</ele><time>2026-05-01T13:14:23Z</time></trkpt><trkpt lat="38.836417764486804" lon="-9.35585121663664"><ele>133.0</ele><time>2026-05-01T13:14:24Z</time></trkpt><trkpt lat="38.83628528613796" lon="-9.3558707100959"><ele>133.0</ele><time>2026-05-01T13:14:25Z</time></trkpt><trkpt lat="38.83615506519105" lon="-9.35590344617194"><ele>133.0</ele><time>2026-05-01T13:14:26Z</time></trkpt><trkpt lat="38.836028797546405" lon="-9.355936436052959"><ele>133.0</ele><time>2026-05-01T13:14:27Z</time></trkpt><trkpt lat="38.83591337314443" lon="-9.355966373233453"><ele>132.8</ele><time>2026-05-01T13:14:28Z</time></trkpt><trkpt lat="38.83581342859238" lon="-9.355989630822204"><ele>132.60000000000002</ele><time>2026-05-01T13:14:29Z</time></trkpt><trkpt lat="38.83571537314031" lon="-9.356008978775781"><ele>132.39999999999998</ele><time>2026-05-01T13:14:30Z</time></trkpt><trkpt lat="38.835614750285586" lon="-9.356028046041294"><ele>132.2</ele><time>2026-05-01T13:14:31Z</time></trkpt><trkpt lat="38.835525319368585" lon="-9.356047592439602"><ele>132.0</ele><time>2026-05-01T13:14:32Z</time></trkpt><trkpt lat="38.83544805378434" lon="-9.356059936705089"><ele>132.0</ele><time>2026-05-01T13:14:33Z</time></trkpt><trkpt lat="38.835363354400954" lon="-9.356092888145344"><ele>132.0</ele><time>2026-05-01T13:14:34Z</time></trkpt><trkpt lat="38.83527696267326" lon="-9.356171671371342"><ele>132.0</ele><time>2026-05-01T13:14:35Z</time></trkpt><trkpt lat="38.83519711045581" lon="-9.356271317308353"><ele>132.0</ele><time>2026-05-01T13:14:36Z</time></trkpt><trkpt lat="38.83512532890809" lon="-9.35636013305966"><ele>132.0</ele><time>2026-05-01T13:14:37Z</time></trkpt><trkpt lat="38.835067420081295" lon="-9.356448603042079"><ele>133.0</ele><time>2026-05-01T13:14:38Z</time></trkpt><trkpt lat="38.83503149425805" lon="-9.356563526213243"><ele>134.0</ele><time>2026-05-01T13:14:39Z</time></trkpt><trkpt lat="38.83500398588989" lon="-9.356686040819222"><ele>135.0</ele><time>2026-05-01T13:14:40Z</time></trkpt><trkpt lat="38.83497742903827" lon="-9.35681581654916"><ele>136.0</ele><time>2026-05-01T13:14:41Z</time></trkpt><trkpt lat="38.83494122402305" lon="-9.356978420613865"><ele>137.0</ele><time>2026-05-01T13:14:42Z</time></trkpt><trkpt lat="38.83489806026606" lon="-9.357159283495813"><ele>137.33333333333331</ele><time>2026-05-01T13:14:43Z</time></trkpt><trkpt lat="38.83484190485443" lon="-9.357368990015098"><ele>137.66666666666666</ele><time>2026-05-01T13:14:44Z</time></trkpt><trkpt lat="38.83477470411432" lon="-9.357606783773324"><ele>138.0</ele><time>2026-05-01T13:14:45Z</time></trkpt><trkpt lat="38.83472291988285" lon="-9.35783686411708"><ele>138.0</ele><time>2026-05-01T13:14:46Z</time></trkpt><trkpt lat="38.8346773103894" lon="-9.358014457614855"><ele>138.0</ele><time>2026-05-01T13:14:47Z</time></trkpt><trkpt lat="38.83464615256818" lon="-9.358153635800653"><ele>138.0</ele><time>2026-05-01T13:14:48Z</time></trkpt><trkpt lat="38.834639158396804" lon="-9.358283134158556"><ele>138.0</ele><time>2026-05-01T13:14:49Z</time></trkpt><trkpt lat="38.834615010070905" lon="-9.35839618891149"><ele>139.0</ele><time>2026-05-01T13:14:50Z</time></trkpt><trkpt lat="38.83459765216968" lon="-9.358512880684302"><ele>140.0</ele><time>2026-05-01T13:14:51Z</time></trkpt><trkpt lat="38.83458552474515" lon="-9.358625553155058"><ele>141.0</ele><time>2026-05-01T13:14:52Z</time></trkpt><trkpt lat="38.834563261956504" lon="-9.358752860745415"><ele>142.0</ele><time>2026-05-01T13:14:53Z</time></trkpt><trkpt lat="38.834541500019796" lon="-9.358899967548522"><ele>143.0</ele><time>2026-05-01T13:14:54Z</time></trkpt><trkpt lat="38.8345119936626" lon="-9.359066210751303"><ele>144.0</ele><time>2026-05-01T13:14:55Z</time></trkpt><trkpt lat="38.8344814990169" lon="-9.359253849651477"><ele>145.0</ele><time>2026-05-01T13:14:56Z</time></trkpt><trkpt lat="38.83444763639165" lon="-9.359456497756456"><ele>146.0</ele><time>2026-05-01T13:14:57Z</time></trkpt><trkpt lat="38.8344177149588" lon="-9.359623023207845"><ele>147.0</ele><time>2026-05-01T13:14:58Z</time></trkpt><trkpt lat="38.834387972319554" lon="-9.359767131283169"><ele>147.0</ele><time>2026-05-01T13:14:59Z</time></trkpt><trkpt lat="38.834357015785216" lon="-9.359906128094051"><ele>147.0</ele><time>2026-05-01T13:15:00Z</time></trkpt><trkpt lat="38.83433203919177" lon="-9.36004970604778"><ele>147.0</ele><time>2026-05-01T13:15:01Z</time></trkpt><trkpt lat="38.834310044584164" lon="-9.360188129024449"><ele>147.0</ele><time>2026-05-01T13:15:02Z</time></trkpt><trkpt lat="38.83429102915561" lon="-9.360312290882522"><ele>147.0</ele><time>2026-05-01T13:15:03Z</time></trkpt><trkpt lat="38.834271017474855" lon="-9.360445368798173"><ele>147.33333333333334</ele><time>2026-05-01T13:15:04Z</time></trkpt><trkpt lat="38.83424201147707" lon="-9.36058461153258"><ele>147.66666666666666</ele><time>2026-05-01T13:15:05Z</time></trkpt><trkpt lat="38.834216765011995" lon="-9.360715408481447"><ele>148.0</ele><time>2026-05-01T13:15:06Z</time></trkpt><trkpt lat="38.834198270631425" lon="-9.360824711825412"><ele>148.33333333333331</ele><time>2026-05-01T13:15:07Z</time></trkpt><trkpt lat="38.83418172534298" lon="-9.360919056458984"><ele>148.66666666666666</ele><time>2026-05-01T13:15:08Z</time></trkpt><trkpt lat="38.83416377771128" lon="-9.360999483218517"><ele>149.0</ele><time>2026-05-01T13:15:09Z</time></trkpt><trkpt lat="38.834146210717336" lon="-9.36112232620591"><ele>149.0</ele><time>2026-05-01T13:15:11Z</time></trkpt><trkpt lat="38.834246045259064" lon="-9.361201851359679"><ele>149.0</ele><time>2026-05-01T13:15:13Z</time></trkpt><trkpt lat="38.83433347700239" lon="-9.361221890694456"><ele>149.0</ele><time>2026-05-01T13:15:14Z</time></trkpt><trkpt lat="38.834435777839445" lon="-9.36124991519846"><ele>149.0</ele><time>2026-05-01T13:15:15Z</time></trkpt><trkpt lat="38.83456687219567" lon="-9.361286221483466"><ele>149.0</ele><time>2026-05-01T13:15:16Z</time></trkpt><trkpt lat="38.83470737364384" lon="-9.361325347673352"><ele>149.25</ele><time>2026-05-01T13:15:17Z</time></trkpt><trkpt lat="38.834854923852234" lon="-9.361366071329142"><ele>149.5</ele><time>2026-05-01T13:15:18Z</time></trkpt><trkpt lat="38.83497507392311" lon="-9.361419115739933"><ele>149.75</ele><time>2026-05-01T13:15:19Z</time></trkpt><trkpt lat="38.83510132419002" lon="-9.361434065896487"><ele>150.0</ele><time>2026-05-01T13:15:20Z</time></trkpt><trkpt lat="38.835187932176126" lon="-9.361447498668939"><ele>150.0</ele><time>2026-05-01T13:15:21Z</time></trkpt><trkpt lat="38.835266605164264" lon="-9.361461548247568"><ele>150.0</ele><time>2026-05-01T13:15:22Z</time></trkpt><trkpt lat="38.83536653871987" lon="-9.361485722810006"><ele>150.0</ele><time>2026-05-01T13:15:24Z</time></trkpt><trkpt lat="38.83542827325304" lon="-9.361520831794666"><ele>150.0</ele><time>2026-05-01T13:15:26Z</time></trkpt><trkpt lat="38.83550407995673" lon="-9.361527669779548"><ele>150.0</ele><time>2026-05-01T13:15:29Z</time></trkpt><trkpt lat="38.83556686521312" lon="-9.361554774756302"><ele>150.0</ele><time>2026-05-01T13:15:34Z</time></trkpt><trkpt lat="38.83549832695377" lon="-9.361541140306183"><ele>149.99999999999997</ele><time>2026-05-01T13:15:44.001Z</time></trkpt><trkpt lat="38.83543554747855" lon="-9.361521933921393"><ele>150.0</ele><time>2026-05-01T13:15:49.001Z</time></trkpt><trkpt lat="38.83550422842014" lon="-9.361487089623232"><ele>150.0</ele><time>2026-05-01T13:15:59.001Z</time></trkpt><trkpt lat="38.83556343835757" lon="-9.36152779539446"><ele>150.0</ele><time>2026-05-01T13:16:08.001Z</time></trkpt><trkpt lat="38.83545726341635" lon="-9.361491784038805"><ele>150.0</ele><time>2026-05-01T13:16:49.001Z</time></trkpt><trkpt lat="38.83539120606978" lon="-9.361483359761687"><ele>149.99999999999997</ele><time>2026-05-01T13:16:52.001Z</time></trkpt><trkpt lat="38.835326505060095" lon="-9.361481819479579"><ele>150.0</ele><time>2026-05-01T13:16:58.001Z</time></trkpt><trkpt lat="38.835261475782985" lon="-9.361478302106297"><ele>150.0</ele><time>2026-05-01T13:17:05.001Z</time></trkpt><trkpt lat="38.83530941830901" lon="-9.361581417376366"><ele>150.0</ele><time>2026-05-01T13:18:07.036Z</time></trkpt><trkpt lat="38.83537567312439" lon="-9.361629898771184"><ele>150.0</ele><time>2026-05-01T13:18:12.037Z</time></trkpt><trkpt lat="38.83544885776735" lon="-9.361640445981449"><ele>150.0</ele><time>2026-05-01T13:18:14.034Z</time></trkpt><trkpt lat="38.83534581347324" lon="-9.361526452979419"><ele>150.0</ele><time>2026-05-01T13:18:30.337Z</time></trkpt><trkpt lat="38.83530651350036" lon="-9.36159570080667"><ele>150.0</ele><time>2026-05-01T13:18:33.014Z</time></trkpt><trkpt lat="38.83528854164143" lon="-9.361498726302456"><ele>150.0</ele><time>2026-05-01T13:18:36.015Z</time></trkpt><trkpt lat="38.83532522244527" lon="-9.361582589806474"><ele>150.0</ele><time>2026-05-01T13:18:45.016Z</time></trkpt><trkpt lat="38.835205328314295" lon="-9.361604759281485"><ele>150.0</ele><time>2026-05-01T13:18:47.018Z</time></trkpt><trkpt lat="38.83510131025528" lon="-9.361629441700915"><ele>150.0</ele><time>2026-05-01T13:18:48.017Z</time></trkpt><trkpt lat="38.83518385140107" lon="-9.36162259282289"><ele>150.0</ele><time>2026-05-01T13:18:51.018Z</time></trkpt><trkpt lat="38.83528898117047" lon="-9.36160325908118"><ele>150.0</ele><time>2026-05-01T13:18:54.019Z</time></trkpt><trkpt lat="38.835315866436034" lon="-9.361689014899111"><ele>150.0</ele><time>2026-05-01T13:19:23.018Z</time></trkpt><trkpt lat="38.835302992651314" lon="-9.361772816889196"><ele>150.0</ele><time>2026-05-01T13:19:26.018Z</time></trkpt><trkpt lat="38.83530789151583" lon="-9.361581019130307"><ele>150.0</ele><time>2026-05-01T13:19:51.016Z</time></trkpt></trkseg></trk></gpx>